<?xml version='1.0' encoding='UTF-8'?><gpx version="1.1" creator="JPX - https://github.com/jenetics/jpx" xmlns="http://www.topografix.com/GPX/1/1"><trk><trkseg><trkpt lat="43.58745081693931" lon="11.331989663474557"><ele>341.0</ele><time>2026-05-03T15:20:30.001Z</time></trkpt><trkpt lat="43.58735807187366" lon="11.331947995868102"><ele>341.0</ele><time>2026-05-03T15:20:31.001Z</time></trkpt><trkpt lat="43.587251644078776" lon="11.331901604973329"><ele>341.0</ele><time>2026-05-03T15:20:32.001Z</time></trkpt><trkpt lat="43.5871757097041" lon="11.331830025623495"><ele>341.0</ele><time>2026-05-03T15:20:33.001Z</time></trkpt><trkpt lat="43.58707795208844" lon="11.33176085738337"><ele>341.0</ele><time>2026-05-03T15:20:34.001Z</time></trkpt><trkpt lat="43.58699641773299" lon="11.33170114356559"><ele>339.33333333333337</ele><time>2026-05-03T15:20:35.001Z</time></trkpt><trkpt lat="43.58692892742818" lon="11.331647713698988"><ele>337.6666666666667</ele><time>2026-05-03T15:20:36.001Z</time></trkpt><trkpt lat="43.58685933431992" lon="11.331589857859804"><ele>336.0</ele><time>2026-05-03T15:20:37.001Z</time></trkpt><trkpt lat="43.58679684060078" lon="11.331537950341419"><ele>334.3333333333333</ele><time>2026-05-03T15:20:38.001Z</time></trkpt><trkpt lat="43.586743020193765" lon="11.331481650975139"><ele>332.66666666666663</ele><time>2026-05-03T15:20:39.001Z</time></trkpt><trkpt lat="43.58664670219975" lon="11.331339818814483"><ele>331.0</ele><time>2026-05-03T15:20:41.001Z</time></trkpt><trkpt lat="43.58660581047359" lon="11.33124941871487"><ele>331.0</ele><time>2026-05-03T15:20:42.001Z</time></trkpt><trkpt lat="43.586558288791295" lon="11.33116082381767"><ele>331.0</ele><time>2026-05-03T15:20:43.001Z</time></trkpt><trkpt lat="43.58654282176591" lon="11.33106349819049"><ele>331.0</ele><time>2026-05-03T15:20:44Z</time></trkpt><trkpt lat="43.58654148017824" lon="11.330955663166922"><ele>331.0</ele><time>2026-05-03T15:20:45Z</time></trkpt><trkpt lat="43.586531980307306" lon="11.3308577271973"><ele>331.0</ele><time>2026-05-03T15:20:46Z</time></trkpt><trkpt lat="43.58652053731162" lon="11.330750140051805"><ele>331.0</ele><time>2026-05-03T15:20:47Z</time></trkpt><trkpt lat="43.58655877373438" lon="11.330598755909326"><ele>331.0</ele><time>2026-05-03T15:20:49Z</time></trkpt><trkpt lat="43.5866717696245" lon="11.330577949896252"><ele>331.0</ele><time>2026-05-03T15:20:51Z</time></trkpt><trkpt lat="43.586738488611985" lon="11.330536999812475"><ele>331.0</ele><time>2026-05-03T15:20:52Z</time></trkpt><trkpt lat="43.58680342007818" lon="11.33048830638807"><ele>331.0</ele><time>2026-05-03T15:20:53Z</time></trkpt><trkpt lat="43.586860494067864" lon="11.330446621673715"><ele>331.0</ele><time>2026-05-03T15:20:54Z</time></trkpt><trkpt lat="43.586959564276974" lon="11.330376190424065"><ele>331.0</ele><time>2026-05-03T15:20:56Z</time></trkpt><trkpt lat="43.587065635720315" lon="11.330372773150318"><ele>329.5</ele><time>2026-05-03T15:20:58Z</time></trkpt><trkpt lat="43.58718154854735" lon="11.330384775057082"><ele>328.0</ele><time>2026-05-03T15:21:00Z</time></trkpt><trkpt lat="43.58724770203133" lon="11.330403276337021"><ele>326.5</ele><time>2026-05-03T15:21:01Z</time></trkpt><trkpt lat="43.587325930550485" lon="11.330421443286873"><ele>325.0</ele><time>2026-05-03T15:21:02Z</time></trkpt><trkpt lat="43.58739975645222" lon="11.330434360316241"><ele>323.5</ele><time>2026-05-03T15:21:03Z</time></trkpt><trkpt lat="43.58746716319553" lon="11.330420617439431"><ele>322.0</ele><time>2026-05-03T15:21:04Z</time></trkpt><trkpt lat="43.58752622882845" lon="11.330388072347107"><ele>322.0</ele><time>2026-05-03T15:21:05Z</time></trkpt><trkpt lat="43.58753053365555" lon="11.330271292851407"><ele>322.0</ele><time>2026-05-03T15:21:06Z</time></trkpt><trkpt lat="43.587516497902456" lon="11.330167448859779"><ele>322.0</ele><time>2026-05-03T15:21:07Z</time></trkpt><trkpt lat="43.58748543923894" lon="11.330040153894435"><ele>322.0</ele><time>2026-05-03T15:21:08Z</time></trkpt><trkpt lat="43.58743948728076" lon="11.329894779347448"><ele>322.0</ele><time>2026-05-03T15:21:09Z</time></trkpt><trkpt lat="43.58742431206474" lon="11.32973387400815"><ele>321.25</ele><time>2026-05-03T15:21:10Z</time></trkpt><trkpt lat="43.58740544910361" lon="11.329576866277016"><ele>320.5</ele><time>2026-05-03T15:21:11Z</time></trkpt><trkpt lat="43.58737385511643" lon="11.32941863819547"><ele>319.75</ele><time>2026-05-03T15:21:12Z</time></trkpt><trkpt lat="43.587373174604295" lon="11.32923908947213"><ele>319.0</ele><time>2026-05-03T15:21:13Z</time></trkpt><trkpt lat="43.58736564626629" lon="11.329070486035725"><ele>319.75</ele><time>2026-05-03T15:21:14Z</time></trkpt><trkpt lat="43.58734225304445" lon="11.328884790371406"><ele>320.5</ele><time>2026-05-03T15:21:15Z</time></trkpt><trkpt lat="43.587337268167154" lon="11.328698311326415"><ele>321.25</ele><time>2026-05-03T15:21:16Z</time></trkpt><trkpt lat="43.58732565145986" lon="11.328543917829773"><ele>322.0</ele><time>2026-05-03T15:21:17Z</time></trkpt><trkpt lat="43.58730365738873" lon="11.328411354750651"><ele>322.0</ele><time>2026-05-03T15:21:18Z</time></trkpt><trkpt lat="43.58725011804931" lon="11.328294345315323"><ele>322.0</ele><time>2026-05-03T15:21:19Z</time></trkpt><trkpt lat="43.58716803965043" lon="11.328199976322367"><ele>322.0</ele><time>2026-05-03T15:21:20Z</time></trkpt><trkpt lat="43.5870654098487" lon="11.328099237394106"><ele>322.0</ele><time>2026-05-03T15:21:21Z</time></trkpt><trkpt lat="43.58697916270108" lon="11.327973168592957"><ele>319.0</ele><time>2026-05-03T15:21:22Z</time></trkpt><trkpt lat="43.58692411266497" lon="11.327854216436739"><ele>316.0</ele><time>2026-05-03T15:21:23Z</time></trkpt><trkpt lat="43.586882314342695" lon="11.327714220735416"><ele>313.0</ele><time>2026-05-03T15:21:24Z</time></trkpt><trkpt lat="43.58683874701602" lon="11.327562295322481"><ele>310.0</ele><time>2026-05-03T15:21:25Z</time></trkpt><trkpt lat="43.58679872043895" lon="11.32744710842167"><ele>307.0</ele><time>2026-05-03T15:21:26Z</time></trkpt><trkpt lat="43.58675505406825" lon="11.327341702452719"><ele>307.0</ele><time>2026-05-03T15:21:27Z</time></trkpt><trkpt lat="43.58668924138212" lon="11.327278729672818"><ele>307.0</ele><time>2026-05-03T15:21:28Z</time></trkpt><trkpt lat="43.58661491072994" lon="11.327246175049176"><ele>307.0</ele><time>2026-05-03T15:21:29Z</time></trkpt><trkpt lat="43.58653163103456" lon="11.32721990420432"><ele>307.0</ele><time>2026-05-03T15:21:30Z</time></trkpt><trkpt lat="43.586471673715984" lon="11.327178419535786"><ele>307.0</ele><time>2026-05-03T15:21:31Z</time></trkpt><trkpt lat="43.586422975014315" lon="11.327090153706449"><ele>307.0</ele><time>2026-05-03T15:21:32Z</time></trkpt><trkpt lat="43.58639790236257" lon="11.326993520674042"><ele>308.3333333333333</ele><time>2026-05-03T15:21:33Z</time></trkpt><trkpt lat="43.58637639042631" lon="11.32687597236429"><ele>309.66666666666663</ele><time>2026-05-03T15:21:34Z</time></trkpt><trkpt lat="43.5863415494291" lon="11.32677109436862"><ele>311.0</ele><time>2026-05-03T15:21:35Z</time></trkpt><trkpt lat="43.586283247356306" lon="11.326714321872908"><ele>312.3333333333333</ele><time>2026-05-03T15:21:36Z</time></trkpt><trkpt lat="43.586197937859595" lon="11.32671547424042"><ele>313.6666666666667</ele><time>2026-05-03T15:21:37Z</time></trkpt><trkpt lat="43.58611549731478" lon="11.326757556644406"><ele>315.0</ele><time>2026-05-03T15:21:38Z</time></trkpt><trkpt lat="43.58602819468291" lon="11.326809507230381"><ele>311.6666666666667</ele><time>2026-05-03T15:21:39Z</time></trkpt><trkpt lat="43.585966519957154" lon="11.326832458849086"><ele>308.3333333333333</ele><time>2026-05-03T15:21:40Z</time></trkpt><trkpt lat="43.58589565413665" lon="11.326829211010374"><ele>305.0</ele><time>2026-05-03T15:21:41Z</time></trkpt><trkpt lat="43.585844523654714" lon="11.326775809996835"><ele>301.66666666666663</ele><time>2026-05-03T15:21:42Z</time></trkpt><trkpt lat="43.58581329690581" lon="11.326673384820841"><ele>298.3333333333333</ele><time>2026-05-03T15:21:43Z</time></trkpt><trkpt lat="43.58581222715241" lon="11.326558053482398"><ele>295.0</ele><time>2026-05-03T15:21:44Z</time></trkpt><trkpt lat="43.58580853213261" lon="11.326427836487902"><ele>297.0</ele><time>2026-05-03T15:21:45Z</time></trkpt><trkpt lat="43.58576508159757" lon="11.326320793623195"><ele>299.0</ele><time>2026-05-03T15:21:46Z</time></trkpt><trkpt lat="43.58569978765473" lon="11.326233041756932"><ele>301.0</ele><time>2026-05-03T15:21:47Z</time></trkpt><trkpt lat="43.58562247036764" lon="11.326156137052871"><ele>303.0</ele><time>2026-05-03T15:21:48Z</time></trkpt><trkpt lat="43.58552721223672" lon="11.326081993683282"><ele>305.0</ele><time>2026-05-03T15:21:49Z</time></trkpt><trkpt lat="43.585434709782" lon="11.326000182753088"><ele>305.0</ele><time>2026-05-03T15:21:50Z</time></trkpt><trkpt lat="43.585350323286825" lon="11.32592952538191"><ele>305.0</ele><time>2026-05-03T15:21:51Z</time></trkpt><trkpt lat="43.585261797552974" lon="11.325860930005845"><ele>305.0</ele><time>2026-05-03T15:21:52Z</time></trkpt><trkpt lat="43.585169429836434" lon="11.325793775308346"><ele>305.0</ele><time>2026-05-03T15:21:53Z</time></trkpt><trkpt lat="43.58508529926624" lon="11.325744961719332"><ele>305.0</ele><time>2026-05-03T15:21:54Z</time></trkpt><trkpt lat="43.58500192764011" lon="11.325681664884195"><ele>303.4</ele><time>2026-05-03T15:21:55Z</time></trkpt><trkpt lat="43.584918611622456" lon="11.325611163498543"><ele>301.8</ele><time>2026-05-03T15:21:56Z</time></trkpt><trkpt lat="43.58483473980853" lon="11.325541296325316"><ele>300.2</ele><time>2026-05-03T15:21:57Z</time></trkpt><trkpt lat="43.58475289837296" lon="11.325470882447995"><ele>298.6</ele><time>2026-05-03T15:21:58Z</time></trkpt><trkpt lat="43.58469874576057" lon="11.325378193122473"><ele>297.0</ele><time>2026-05-03T15:21:59Z</time></trkpt><trkpt lat="43.584688054248666" lon="11.325261537067188"><ele>297.0</ele><time>2026-05-03T15:22:00Z</time></trkpt><trkpt lat="43.584648152158756" lon="11.325151993914337"><ele>297.0</ele><time>2026-05-03T15:22:01Z</time></trkpt><trkpt lat="43.584628521694114" lon="11.325046839047886"><ele>297.0</ele><time>2026-05-03T15:22:02Z</time></trkpt><trkpt lat="43.58459850075432" lon="11.324937776620356"><ele>297.0</ele><time>2026-05-03T15:22:03Z</time></trkpt><trkpt lat="43.58456922049545" lon="11.324837482225227"><ele>297.0</ele><time>2026-05-03T15:22:04Z</time></trkpt><trkpt lat="43.58452138811628" lon="11.324742440847109"><ele>297.0</ele><time>2026-05-03T15:22:05Z</time></trkpt><trkpt lat="43.58445410875246" lon="11.324663446289613"><ele>293.5</ele><time>2026-05-03T15:22:06Z</time></trkpt><trkpt lat="43.58437309332394" lon="11.324622954573945"><ele>290.0</ele><time>2026-05-03T15:22:07Z</time></trkpt><trkpt lat="43.584303570466446" lon="11.3245777547464"><ele>286.5</ele><time>2026-05-03T15:22:08Z</time></trkpt><trkpt lat="43.58424258474197" lon="11.324505000610277"><ele>283.0</ele><time>2026-05-03T15:22:09Z</time></trkpt><trkpt lat="43.58419932770749" lon="11.32439998540044"><ele>279.5</ele><time>2026-05-03T15:22:10Z</time></trkpt><trkpt lat="43.584151874575134" lon="11.324317469725587"><ele>276.0</ele><time>2026-05-03T15:22:11Z</time></trkpt><trkpt lat="43.58410450026306" lon="11.32422537080247"><ele>276.0</ele><time>2026-05-03T15:22:12Z</time></trkpt><trkpt lat="43.5840580500036" lon="11.324133392116108"><ele>276.0</ele><time>2026-05-03T15:22:13Z</time></trkpt><trkpt lat="43.58401518903057" lon="11.324024386374084"><ele>276.0</ele><time>2026-05-03T15:22:14Z</time></trkpt><trkpt lat="43.58398484788217" lon="11.323918447087028"><ele>276.0</ele><time>2026-05-03T15:22:15Z</time></trkpt><trkpt lat="43.58396863142258" lon="11.323798947131715"><ele>276.0</ele><time>2026-05-03T15:22:16Z</time></trkpt><trkpt lat="43.58393766459571" lon="11.323654256198953"><ele>275.25</ele><time>2026-05-03T15:22:17Z</time></trkpt><trkpt lat="43.583937305016434" lon="11.323481437880357"><ele>274.5</ele><time>2026-05-03T15:22:18Z</time></trkpt><trkpt lat="43.58391933046321" lon="11.323287911802227"><ele>273.75</ele><time>2026-05-03T15:22:19Z</time></trkpt><trkpt lat="43.58390544455568" lon="11.323091335359468"><ele>273.0</ele><time>2026-05-03T15:22:20Z</time></trkpt><trkpt lat="43.58388623569611" lon="11.322926164879766"><ele>272.0</ele><time>2026-05-03T15:22:21Z</time></trkpt><trkpt lat="43.58389442844055" lon="11.322771803908998"><ele>271.0</ele><time>2026-05-03T15:22:22.001Z</time></trkpt><trkpt lat="43.58386672634988" lon="11.322637093878802"><ele>270.0</ele><time>2026-05-03T15:22:23.001Z</time></trkpt><trkpt lat="43.58382096389095" lon="11.32251938341567"><ele>269.0</ele><time>2026-05-03T15:22:24.001Z</time></trkpt><trkpt lat="43.583743586506266" lon="11.32242962325525"><ele>268.0</ele><time>2026-05-03T15:22:25.001Z</time></trkpt><trkpt lat="43.58364879011959" lon="11.322340842928735"><ele>264.6</ele><time>2026-05-03T15:22:26.001Z</time></trkpt><trkpt lat="43.58358664349351" lon="11.322229018137463"><ele>261.20000000000005</ele><time>2026-05-03T15:22:27.001Z</time></trkpt><trkpt lat="43.58356153227944" lon="11.322122228931326"><ele>257.8</ele><time>2026-05-03T15:22:28.001Z</time></trkpt><trkpt lat="43.58354477691377" lon="11.321993213607943"><ele>254.4</ele><time>2026-05-03T15:22:29.001Z</time></trkpt><trkpt lat="43.58353020143966" lon="11.32184434877143"><ele>251.0</ele><time>2026-05-03T15:22:30.001Z</time></trkpt><trkpt lat="43.58352394899022" lon="11.321671635672425"><ele>251.0</ele><time>2026-05-03T15:22:31.001Z</time></trkpt><trkpt lat="43.58352607875632" lon="11.321511424451982"><ele>251.0</ele><time>2026-05-03T15:22:32.001Z</time></trkpt><trkpt lat="43.583486277844045" lon="11.321361837577431"><ele>251.0</ele><time>2026-05-03T15:22:33Z</time></trkpt><trkpt lat="43.583442532413486" lon="11.321204273673281"><ele>251.0</ele><time>2026-05-03T15:22:34Z</time></trkpt><trkpt lat="43.58338097637019" lon="11.321050969585082"><ele>251.00000000000003</ele><time>2026-05-03T15:22:35Z</time></trkpt><trkpt lat="43.583356229368604" lon="11.320913599032405"><ele>251.0</ele><time>2026-05-03T15:22:36Z</time></trkpt><trkpt lat="43.58333731549317" lon="11.32080385458914"><ele>251.0</ele><time>2026-05-03T15:22:37Z</time></trkpt><trkpt lat="43.58332591887256" lon="11.320699105612402"><ele>251.0</ele><time>2026-05-03T15:22:38Z</time></trkpt><trkpt lat="43.5833075746996" lon="11.320602928781856"><ele>251.00000000000003</ele><time>2026-05-03T15:22:39Z</time></trkpt><trkpt lat="43.58329347308824" lon="11.320513884749404"><ele>251.0</ele><time>2026-05-03T15:22:40Z</time></trkpt><trkpt lat="43.58328026328791" lon="11.320324957306042"><ele>251.16666666666669</ele><time>2026-05-03T15:22:42Z</time></trkpt><trkpt lat="43.58327086741719" lon="11.320223690136515"><ele>251.33333333333334</ele><time>2026-05-03T15:22:43Z</time></trkpt><trkpt lat="43.58325853528814" lon="11.320128341806605"><ele>251.5</ele><time>2026-05-03T15:22:44Z</time></trkpt><trkpt lat="43.58323205569141" lon="11.319990082301098"><ele>251.66666666666669</ele><time>2026-05-03T15:22:46Z</time></trkpt><trkpt lat="43.58319055220005" lon="11.319923422757553"><ele>251.83333333333334</ele><time>2026-05-03T15:22:48Z</time></trkpt><trkpt lat="43.583136578258014" lon="11.320053852481806"><ele>252.0</ele><time>2026-05-03T15:22:55Z</time></trkpt><trkpt lat="43.583153885034676" lon="11.32017990564898"><ele>252.0</ele><time>2026-05-03T15:22:56Z</time></trkpt><trkpt lat="43.58317808719927" lon="11.32032228764077"><ele>252.0</ele><time>2026-05-03T15:22:57Z</time></trkpt><trkpt lat="43.58319151818324" lon="11.32047115704877"><ele>252.0</ele><time>2026-05-03T15:22:58Z</time></trkpt><trkpt lat="43.58321049204055" lon="11.320626234592826"><ele>252.0</ele><time>2026-05-03T15:22:59Z</time></trkpt><trkpt lat="43.58321709839733" lon="11.32077495941851"><ele>252.0</ele><time>2026-05-03T15:23:00Z</time></trkpt><trkpt lat="43.583232803458934" lon="11.320906859482232"><ele>251.8</ele><time>2026-05-03T15:23:01Z</time></trkpt><trkpt lat="43.583245909301056" lon="11.321036155014234"><ele>251.6</ele><time>2026-05-03T15:23:02Z</time></trkpt><trkpt lat="43.58325566888859" lon="11.321155548454131"><ele>251.40000000000003</ele><time>2026-05-03T15:23:03Z</time></trkpt><trkpt lat="43.58326633801448" lon="11.321277411114309"><ele>251.20000000000002</ele><time>2026-05-03T15:23:04Z</time></trkpt><trkpt lat="43.583279866868885" lon="11.321412351362538"><ele>251.0</ele><time>2026-05-03T15:23:05Z</time></trkpt><trkpt lat="43.58329310208511" lon="11.321557140016951"><ele>251.0</ele><time>2026-05-03T15:23:06Z</time></trkpt><trkpt lat="43.583303822607924" lon="11.321702942721023"><ele>251.00000000000003</ele><time>2026-05-03T15:23:07Z</time></trkpt><trkpt lat="43.583318354860204" lon="11.321856035632079"><ele>251.00000000000003</ele><time>2026-05-03T15:23:08Z</time></trkpt><trkpt lat="43.58333832591474" lon="11.32200951429137"><ele>251.0</ele><time>2026-05-03T15:23:09Z</time></trkpt><trkpt lat="43.58335787241185" lon="11.32216568460845"><ele>251.0</ele><time>2026-05-03T15:23:10Z</time></trkpt><trkpt lat="43.583373194290516" lon="11.322322723602145"><ele>250.75</ele><time>2026-05-03T15:23:11Z</time></trkpt><trkpt lat="43.58338894136173" lon="11.322479290772307"><ele>250.5</ele><time>2026-05-03T15:23:12Z</time></trkpt><trkpt lat="43.58340559384725" lon="11.322638442549765"><ele>250.25</ele><time>2026-05-03T15:23:13Z</time></trkpt><trkpt lat="43.58342291431986" lon="11.322803983576797"><ele>250.0</ele><time>2026-05-03T15:23:14Z</time></trkpt><trkpt lat="43.58343438744197" lon="11.322965372345942"><ele>250.25</ele><time>2026-05-03T15:23:15Z</time></trkpt><trkpt lat="43.58345208307118" lon="11.323138305022804"><ele>250.5</ele><time>2026-05-03T15:23:16Z</time></trkpt><trkpt lat="43.58346558933823" lon="11.323309673371252"><ele>250.75</ele><time>2026-05-03T15:23:17Z</time></trkpt><trkpt lat="43.583483604875745" lon="11.323481186200667"><ele>251.0</ele><time>2026-05-03T15:23:18Z</time></trkpt><trkpt lat="43.58349872205488" lon="11.323653343621224"><ele>251.0</ele><time>2026-05-03T15:23:19Z</time></trkpt><trkpt lat="43.583512782481655" lon="11.323807757908284"><ele>251.0</ele><time>2026-05-03T15:23:20Z</time></trkpt><trkpt lat="43.583531285945895" lon="11.32396850958395"><ele>251.0</ele><time>2026-05-03T15:23:21Z</time></trkpt><trkpt lat="43.583552157925524" lon="11.324133397487701"><ele>251.0</ele><time>2026-05-03T15:23:22Z</time></trkpt><trkpt lat="43.5835615681458" lon="11.324298863785145"><ele>252.0</ele><time>2026-05-03T15:23:23Z</time></trkpt><trkpt lat="43.583572582660835" lon="11.324461031265894"><ele>253.0</ele><time>2026-05-03T15:23:24Z</time></trkpt><trkpt lat="43.583588725334096" lon="11.3246321149721"><ele>254.0</ele><time>2026-05-03T15:23:25Z</time></trkpt><trkpt lat="43.583606887338426" lon="11.324811150184564"><ele>255.0</ele><time>2026-05-03T15:23:26Z</time></trkpt><trkpt lat="43.583623500727356" lon="11.324989894019732"><ele>255.8</ele><time>2026-05-03T15:23:27Z</time></trkpt><trkpt lat="43.58363428802357" lon="11.325162964387166"><ele>256.6</ele><time>2026-05-03T15:23:28Z</time></trkpt><trkpt lat="43.583647524229335" lon="11.325316995771185"><ele>257.4</ele><time>2026-05-03T15:23:29Z</time></trkpt><trkpt lat="43.58366160127748" lon="11.325451173925163"><ele>258.2</ele><time>2026-05-03T15:23:30Z</time></trkpt><trkpt lat="43.583678425237274" lon="11.325567790401543"><ele>259.0</ele><time>2026-05-03T15:23:31Z</time></trkpt><trkpt lat="43.58367676374043" lon="11.325710910571225"><ele>259.0</ele><time>2026-05-03T15:23:33Z</time></trkpt><trkpt lat="43.58361399357166" lon="11.325613232100805"><ele>259.0</ele><time>2026-05-03T15:23:36Z</time></trkpt><trkpt lat="43.583456874220715" lon="11.325555897297598"><ele>259.0</ele><time>2026-05-03T15:23:37Z</time></trkpt><trkpt lat="43.583384203599024" lon="11.325460908232788"><ele>259.0</ele><time>2026-05-03T15:23:38Z</time></trkpt><trkpt lat="43.58331289754506" lon="11.325357250294994"><ele>259.0</ele><time>2026-05-03T15:23:39Z</time></trkpt><trkpt lat="43.583238800633836" lon="11.325262339265091"><ele>259.0</ele><time>2026-05-03T15:23:40Z</time></trkpt><trkpt lat="43.5831700630224" lon="11.32519784600355"><ele>259.0</ele><time>2026-05-03T15:23:41Z</time></trkpt><trkpt lat="43.58309406223481" lon="11.325150382813273"><ele>259.0</ele><time>2026-05-03T15:23:42Z</time></trkpt><trkpt lat="43.58299443950616" lon="11.3251301905228"><ele>259.0</ele><time>2026-05-03T15:23:43Z</time></trkpt><trkpt lat="43.58290595655855" lon="11.325092434722126"><ele>261.8</ele><time>2026-05-03T15:23:44Z</time></trkpt><trkpt lat="43.5828370791573" lon="11.325039856809658"><ele>264.59999999999997</ele><time>2026-05-03T15:23:45Z</time></trkpt><trkpt lat="43.58276163456395" lon="11.324959492123257"><ele>267.4</ele><time>2026-05-03T15:23:46Z</time></trkpt><trkpt lat="43.582695628632905" lon="11.32488934664752"><ele>270.2</ele><time>2026-05-03T15:23:47Z</time></trkpt><trkpt lat="43.582613986379876" lon="11.324855827074181"><ele>273.0</ele><time>2026-05-03T15:23:48Z</time></trkpt><trkpt lat="43.58248284022604" lon="11.324842591011095"><ele>273.0</ele><time>2026-05-03T15:23:49Z</time></trkpt><trkpt lat="43.582356105859276" lon="11.324828138959523"><ele>273.0</ele><time>2026-05-03T15:23:50Z</time></trkpt><trkpt lat="43.58226536552012" lon="11.324792339738046"><ele>273.0</ele><time>2026-05-03T15:23:51Z</time></trkpt><trkpt lat="43.58219147733265" lon="11.324768325315143"><ele>273.0</ele><time>2026-05-03T15:23:52Z</time></trkpt><trkpt lat="43.582124455380054" lon="11.32476355104913"><ele>273.0</ele><time>2026-05-03T15:23:53Z</time></trkpt><trkpt lat="43.5820627113926" lon="11.324793806505864"><ele>273.0</ele><time>2026-05-03T15:23:54Z</time></trkpt><trkpt lat="43.58200001678712" lon="11.324834872954222"><ele>274.3333333333333</ele><time>2026-05-03T15:23:55Z</time></trkpt><trkpt lat="43.581939442066634" lon="11.324867356629769"><ele>275.6666666666667</ele><time>2026-05-03T15:23:56Z</time></trkpt><trkpt lat="43.5818760440687" lon="11.32489339579182"><ele>277.0</ele><time>2026-05-03T15:23:57Z</time></trkpt><trkpt lat="43.581759266366916" lon="11.324947826635427"><ele>278.33333333333337</ele><time>2026-05-03T15:23:59Z</time></trkpt><trkpt lat="43.58169988599637" lon="11.32498162261377"><ele>279.6666666666667</ele><time>2026-05-03T15:24:00Z</time></trkpt><trkpt lat="43.58164093466986" lon="11.325014518757445"><ele>281.0</ele><time>2026-05-03T15:24:01Z</time></trkpt><trkpt lat="43.58157263401482" lon="11.325049267126834"><ele>281.0</ele><time>2026-05-03T15:24:02Z</time></trkpt><trkpt lat="43.58149733317154" lon="11.325078791199026"><ele>281.0</ele><time>2026-05-03T15:24:03Z</time></trkpt><trkpt lat="43.58142152902054" lon="11.325116359557997"><ele>281.0</ele><time>2026-05-03T15:24:04Z</time></trkpt><trkpt lat="43.581344744707565" lon="11.325153422338957"><ele>281.0</ele><time>2026-05-03T15:24:05Z</time></trkpt><trkpt lat="43.58126823875451" lon="11.32518508450717"><ele>281.0</ele><time>2026-05-03T15:24:06Z</time></trkpt><trkpt lat="43.581140696746935" lon="11.325232118075151"><ele>283.1666666666667</ele><time>2026-05-03T15:24:08Z</time></trkpt><trkpt lat="43.58107576109896" lon="11.325261100212975"><ele>285.33333333333337</ele><time>2026-05-03T15:24:09Z</time></trkpt><trkpt lat="43.58099996973507" lon="11.325293035370716"><ele>287.5</ele><time>2026-05-03T15:24:10Z</time></trkpt><trkpt lat="43.58091965417945" lon="11.325337801966"><ele>289.6666666666667</ele><time>2026-05-03T15:24:11Z</time></trkpt><trkpt lat="43.58082716889101" lon="11.325400895282842"><ele>291.8333333333333</ele><time>2026-05-03T15:24:12Z</time></trkpt><trkpt lat="43.58073127681013" lon="11.325463494674452"><ele>294.0</ele><time>2026-05-03T15:24:13Z</time></trkpt><trkpt lat="43.58065785285015" lon="11.325492505913402"><ele>294.0</ele><time>2026-05-03T15:24:13.999Z</time></trkpt><trkpt lat="43.580583948491714" lon="11.325528785413669"><ele>294.0</ele><time>2026-05-03T15:24:14.999Z</time></trkpt><trkpt lat="43.580508443274766" lon="11.325485103887157"><ele>294.0</ele><time>2026-05-03T15:24:16.999Z</time></trkpt><trkpt lat="43.58042550838584" lon="11.325337498196314"><ele>294.0</ele><time>2026-05-03T15:24:18.999Z</time></trkpt><trkpt lat="43.5803727240764" lon="11.325274440430528"><ele>294.0</ele><time>2026-05-03T15:24:19.999Z</time></trkpt><trkpt lat="43.58035530833751" lon="11.325180198318904"><ele>294.0</ele><time>2026-05-03T15:24:21.999Z</time></trkpt><trkpt lat="43.58026673412039" lon="11.325156232076433"><ele>296.1666666666667</ele><time>2026-05-03T15:24:26.999Z</time></trkpt><trkpt lat="43.58017904060877" lon="11.32522666715212"><ele>298.3333333333333</ele><time>2026-05-03T15:24:29.001Z</time></trkpt><trkpt lat="43.58013500614191" lon="11.325312797622177"><ele>300.5</ele><time>2026-05-03T15:24:31Z</time></trkpt><trkpt lat="43.58002764638163" lon="11.325375556575015"><ele>302.66666666666663</ele><time>2026-05-03T15:24:33Z</time></trkpt><trkpt lat="43.57996435480108" lon="11.325405969471246"><ele>304.8333333333333</ele><time>2026-05-03T15:24:34Z</time></trkpt><trkpt lat="43.57990782777307" lon="11.325449543825464"><ele>307.0</ele><time>2026-05-03T15:24:36Z</time></trkpt><trkpt lat="43.57985108403256" lon="11.325515620547213"><ele>307.0</ele><time>2026-05-03T15:24:38Z</time></trkpt><trkpt lat="43.5797861316537" lon="11.325530004905971"><ele>307.0</ele><time>2026-05-03T15:24:43Z</time></trkpt><trkpt lat="43.57971306455082" lon="11.325519784513576"><ele>307.0</ele><time>2026-05-03T15:24:47Z</time></trkpt><trkpt lat="43.57966959524817" lon="11.325354124442573"><ele>307.0</ele><time>2026-05-03T15:24:49Z</time></trkpt><trkpt lat="43.57965785432168" lon="11.325207304198171"><ele>307.0</ele><time>2026-05-03T15:24:50Z</time></trkpt><trkpt lat="43.57961978139381" lon="11.325032907830904"><ele>307.0</ele><time>2026-05-03T15:24:51Z</time></trkpt><trkpt lat="43.57956976649506" lon="11.32484096396923"><ele>307.0</ele><time>2026-05-03T15:24:52Z</time></trkpt><trkpt lat="43.57953587335945" lon="11.324666129033423"><ele>307.0</ele><time>2026-05-03T15:24:53Z</time></trkpt><trkpt lat="43.579514187581935" lon="11.324513357135675"><ele>307.0</ele><time>2026-05-03T15:24:54Z</time></trkpt><trkpt lat="43.57950226015657" lon="11.32435309635643"><ele>305.0</ele><time>2026-05-03T15:24:55Z</time></trkpt><trkpt lat="43.57951908335905" lon="11.324198876156037"><ele>303.0</ele><time>2026-05-03T15:24:56Z</time></trkpt><trkpt lat="43.57955930108066" lon="11.324033241112113"><ele>301.0</ele><time>2026-05-03T15:24:57Z</time></trkpt><trkpt lat="43.57961357858703" lon="11.323870327497222"><ele>299.0</ele><time>2026-05-03T15:24:58Z</time></trkpt><trkpt lat="43.57963733303496" lon="11.323722631016617"><ele>298.0</ele><time>2026-05-03T15:24:59Z</time></trkpt><trkpt lat="43.57962111787436" lon="11.32354711778032"><ele>297.0</ele><time>2026-05-03T15:25:00Z</time></trkpt><trkpt lat="43.5795945991903" lon="11.32338089993821"><ele>296.0</ele><time>2026-05-03T15:25:01Z</time></trkpt><trkpt lat="43.579596152442576" lon="11.32322456605404"><ele>295.0</ele><time>2026-05-03T15:25:02Z</time></trkpt><trkpt lat="43.57963497708757" lon="11.323082095054822"><ele>294.2</ele><time>2026-05-03T15:25:03Z</time></trkpt><trkpt lat="43.57968829996595" lon="11.322949243018932"><ele>293.4</ele><time>2026-05-03T15:25:04Z</time></trkpt><trkpt lat="43.579747770340916" lon="11.322819175457997"><ele>292.6</ele><time>2026-05-03T15:25:05Z</time></trkpt><trkpt lat="43.57980699374717" lon="11.322700898357958"><ele>291.8</ele><time>2026-05-03T15:25:06Z</time></trkpt><trkpt lat="43.57985255240348" lon="11.322589399778051"><ele>291.0</ele><time>2026-05-03T15:25:07Z</time></trkpt><trkpt lat="43.579890234078064" lon="11.322489720591491"><ele>291.0</ele><time>2026-05-03T15:25:08Z</time></trkpt><trkpt lat="43.579919823421655" lon="11.32240129073314"><ele>291.0</ele><time>2026-05-03T15:25:09Z</time></trkpt><trkpt lat="43.57994243851673" lon="11.322313787668506"><ele>291.0</ele><time>2026-05-03T15:25:10Z</time></trkpt><trkpt lat="43.579956227524974" lon="11.322126805065599"><ele>291.0</ele><time>2026-05-03T15:25:12Z</time></trkpt><trkpt lat="43.57990836333883" lon="11.32203661118036"><ele>291.0</ele><time>2026-05-03T15:25:13Z</time></trkpt><trkpt lat="43.579821148351115" lon="11.32198110622108"><ele>289.0</ele><time>2026-05-03T15:25:14Z</time></trkpt><trkpt lat="43.579716627685514" lon="11.321978002576923"><ele>287.0</ele><time>2026-05-03T15:25:15Z</time></trkpt><trkpt lat="43.579630750996664" lon="11.32204925044794"><ele>285.0</ele><time>2026-05-03T15:25:16Z</time></trkpt><trkpt lat="43.57956504610189" lon="11.322131021453508"><ele>283.0</ele><time>2026-05-03T15:25:17Z</time></trkpt><trkpt lat="43.57948372945847" lon="11.322172899380776"><ele>281.0</ele><time>2026-05-03T15:25:18Z</time></trkpt><trkpt lat="43.579397601335636" lon="11.322135503222624"><ele>281.0</ele><time>2026-05-03T15:25:19Z</time></trkpt><trkpt lat="43.5793482573051" lon="11.322023933595338"><ele>281.0</ele><time>2026-05-03T15:25:20Z</time></trkpt><trkpt lat="43.57935190659153" lon="11.321893033960402"><ele>281.0</ele><time>2026-05-03T15:25:21Z</time></trkpt><trkpt lat="43.57941583835752" lon="11.321782238961948"><ele>281.0</ele><time>2026-05-03T15:25:22Z</time></trkpt><trkpt lat="43.579518190768496" lon="11.321721164996095"><ele>281.0</ele><time>2026-05-03T15:25:23Z</time></trkpt><trkpt lat="43.579639222598125" lon="11.321685371148444"><ele>281.0</ele><time>2026-05-03T15:25:24Z</time></trkpt><trkpt lat="43.57975963856442" lon="11.321638031438024"><ele>281.0</ele><time>2026-05-03T15:25:25Z</time></trkpt><trkpt lat="43.579859216613016" lon="11.32157025478667"><ele>281.0</ele><time>2026-05-03T15:25:26Z</time></trkpt><trkpt lat="43.57994345203905" lon="11.321482417631207"><ele>281.0</ele><time>2026-05-03T15:25:27Z</time></trkpt><trkpt lat="43.58000715721269" lon="11.321366686461408"><ele>281.0</ele><time>2026-05-03T15:25:28Z</time></trkpt><trkpt lat="43.58005047944221" lon="11.3212408901345"><ele>279.33333333333337</ele><time>2026-05-03T15:25:29Z</time></trkpt><trkpt lat="43.58009027506637" lon="11.321115688815405"><ele>277.6666666666667</ele><time>2026-05-03T15:25:30Z</time></trkpt><trkpt lat="43.58014407855381" lon="11.321012476806837"><ele>276.0</ele><time>2026-05-03T15:25:31Z</time></trkpt><trkpt lat="43.580185078370064" lon="11.320903691533923"><ele>274.3333333333333</ele><time>2026-05-03T15:25:32Z</time></trkpt><trkpt lat="43.58022987341841" lon="11.320814588336523"><ele>272.66666666666663</ele><time>2026-05-03T15:25:33Z</time></trkpt><trkpt lat="43.58029431915671" lon="11.320752256638066"><ele>271.0</ele><time>2026-05-03T15:25:34Z</time></trkpt><trkpt lat="43.5803656285173" lon="11.320776152825974"><ele>271.0</ele><time>2026-05-03T15:25:35Z</time></trkpt><trkpt lat="43.58044053389542" lon="11.320766410952524"><ele>271.0</ele><time>2026-05-03T15:25:39Z</time></trkpt><trkpt lat="43.58051568178386" lon="11.320779826885754"><ele>271.0</ele><time>2026-05-03T15:25:41Z</time></trkpt><trkpt lat="43.58064078710239" lon="11.320539253953966"><ele>271.0</ele><time>2026-05-03T15:25:43Z</time></trkpt><trkpt lat="43.58072155822527" lon="11.320474696029224"><ele>267.75</ele><time>2026-05-03T15:25:45Z</time></trkpt><trkpt lat="43.58085453128711" lon="11.320363046465488"><ele>264.5</ele><time>2026-05-03T15:25:47Z</time></trkpt><trkpt lat="43.5807965619247" lon="11.320287816688857"><ele>261.25</ele><time>2026-05-03T15:25:48Z</time></trkpt><trkpt lat="43.58070925370575" lon="11.320233721060086"><ele>258.0</ele><time>2026-05-03T15:25:49Z</time></trkpt><trkpt lat="43.58051234963592" lon="11.320356115753707"><ele>258.0</ele><time>2026-05-03T15:25:50Z</time></trkpt><trkpt lat="43.58040250902383" lon="11.320369349086493"><ele>258.0</ele><time>2026-05-03T15:25:51Z</time></trkpt><trkpt lat="43.580295857804266" lon="11.32034584813228"><ele>258.0</ele><time>2026-05-03T15:25:52Z</time></trkpt><trkpt lat="43.5801997374868" lon="11.32029889392469"><ele>258.0</ele><time>2026-05-03T15:25:53Z</time></trkpt><trkpt lat="43.580101753899804" lon="11.32023908100074"><ele>258.0</ele><time>2026-05-03T15:25:54Z</time></trkpt><trkpt lat="43.58001517810716" lon="11.320163854066262"><ele>258.1666666666667</ele><time>2026-05-03T15:25:55Z</time></trkpt><trkpt lat="43.57994064421036" lon="11.320087549662796"><ele>258.3333333333333</ele><time>2026-05-03T15:25:56Z</time></trkpt><trkpt lat="43.579874225709155" lon="11.320009894586853"><ele>258.5</ele><time>2026-05-03T15:25:57Z</time></trkpt><trkpt lat="43.57980676383335" lon="11.319927586935592"><ele>258.66666666666663</ele><time>2026-05-03T15:25:58Z</time></trkpt><trkpt lat="43.57975726040863" lon="11.319846247790835"><ele>258.8333333333333</ele><time>2026-05-03T15:25:59Z</time></trkpt><trkpt lat="43.57975160446682" lon="11.319720359698106"><ele>259.0</ele><time>2026-05-03T15:26:00Z</time></trkpt><trkpt lat="43.57977306530819" lon="11.319605591798245"><ele>257.3333333333333</ele><time>2026-05-03T15:26:01Z</time></trkpt><trkpt lat="43.57979190146698" lon="11.319478791139648"><ele>255.66666666666666</ele><time>2026-05-03T15:26:02Z</time></trkpt><trkpt lat="43.57981232279804" lon="11.319350243644068"><ele>254.0</ele><time>2026-05-03T15:26:03Z</time></trkpt><trkpt lat="43.57982198796637" lon="11.319226096390246"><ele>252.33333333333331</ele><time>2026-05-03T15:26:04Z</time></trkpt><trkpt lat="43.579849061416816" lon="11.319126202018724"><ele>250.66666666666666</ele><time>2026-05-03T15:26:05Z</time></trkpt><trkpt lat="43.57989719515949" lon="11.319044298984023"><ele>249.0</ele><time>2026-05-03T15:26:06Z</time></trkpt><trkpt lat="43.57998272475844" lon="11.319002098224956"><ele>249.0</ele><time>2026-05-03T15:26:07Z</time></trkpt><trkpt lat="43.58009354210952" lon="11.319036450941404"><ele>248.99999999999997</ele><time>2026-05-03T15:26:08Z</time></trkpt><trkpt lat="43.58019817858028" lon="11.319008006689195"><ele>248.99999999999997</ele><time>2026-05-03T15:26:09Z</time></trkpt><trkpt lat="43.58029343021336" lon="11.319003758517471"><ele>249.0</ele><time>2026-05-03T15:26:10Z</time></trkpt><trkpt lat="43.58036360787938" lon="11.31900065050698"><ele>249.0</ele><time>2026-05-03T15:26:11Z</time></trkpt><trkpt lat="43.580453720732656" lon="11.318999679303484"><ele>246.5</ele><time>2026-05-03T15:26:12.999Z</time></trkpt><trkpt lat="43.58038131863688" lon="11.318799286667163"><ele>244.0</ele><time>2026-05-03T15:26:15.999Z</time></trkpt><trkpt lat="43.580289975944495" lon="11.31876893261734"><ele>241.5</ele><time>2026-05-03T15:26:16.999Z</time></trkpt><trkpt lat="43.58020122966399" lon="11.318707707890583"><ele>239.0</ele><time>2026-05-03T15:26:17.999Z</time></trkpt><trkpt lat="43.58009903293964" lon="11.31866505793786"><ele>239.0</ele><time>2026-05-03T15:26:18.999Z</time></trkpt><trkpt lat="43.58001037901441" lon="11.318614336631803"><ele>238.99999999999997</ele><time>2026-05-03T15:26:19.999Z</time></trkpt><trkpt lat="43.57990656144375" lon="11.318547415067869"><ele>238.99999999999997</ele><time>2026-05-03T15:26:20.999Z</time></trkpt><trkpt lat="43.5798067332775" lon="11.31848709028264"><ele>239.0</ele><time>2026-05-03T15:26:21.999Z</time></trkpt><trkpt lat="43.5797039469801" lon="11.31845340511205"><ele>239.0</ele><time>2026-05-03T15:26:22.999Z</time></trkpt><trkpt lat="43.57959334752723" lon="11.318445620210735"><ele>239.75</ele><time>2026-05-03T15:26:23.999Z</time></trkpt><trkpt lat="43.579471101139795" lon="11.31845352795947"><ele>240.5</ele><time>2026-05-03T15:26:24.999Z</time></trkpt><trkpt lat="43.57935438751709" lon="11.318449520006812"><ele>241.25</ele><time>2026-05-03T15:26:25.999Z</time></trkpt><trkpt lat="43.57924079132014" lon="11.318441748284092"><ele>242.0</ele><time>2026-05-03T15:26:26.999Z</time></trkpt><trkpt lat="43.57913343097831" lon="11.318435490798723"><ele>242.0</ele><time>2026-05-03T15:26:27.999Z</time></trkpt><trkpt lat="43.57902785142643" lon="11.318429683993648"><ele>242.0</ele><time>2026-05-03T15:26:28.999Z</time></trkpt><trkpt lat="43.57892118666819" lon="11.318418202968152"><ele>242.0</ele><time>2026-05-03T15:26:29.999Z</time></trkpt><trkpt lat="43.578814618883825" lon="11.318412693533825"><ele>242.0</ele><time>2026-05-03T15:26:30.999Z</time></trkpt><trkpt lat="43.578709562639794" lon="11.318405110537817"><ele>242.0</ele><time>2026-05-03T15:26:31.999Z</time></trkpt><trkpt lat="43.578612316020674" lon="11.318429611486216"><ele>241.6</ele><time>2026-05-03T15:26:32.999Z</time></trkpt><trkpt lat="43.57852031570024" lon="11.318496218434575"><ele>241.2</ele><time>2026-05-03T15:26:34Z</time></trkpt><trkpt lat="43.57843910012821" lon="11.3185937508112"><ele>240.8</ele><time>2026-05-03T15:26:35Z</time></trkpt><trkpt lat="43.578360842763324" lon="11.318700817440801"><ele>240.4</ele><time>2026-05-03T15:26:36Z</time></trkpt><trkpt lat="43.5782862480855" lon="11.318806268121545"><ele>240.0</ele><time>2026-05-03T15:26:37Z</time></trkpt><trkpt lat="43.57821858817455" lon="11.318912798491406"><ele>240.83333333333334</ele><time>2026-05-03T15:26:38Z</time></trkpt><trkpt lat="43.5781614625665" lon="11.319017683758595"><ele>241.66666666666669</ele><time>2026-05-03T15:26:39Z</time></trkpt><trkpt lat="43.578118530511524" lon="11.319102966109634"><ele>242.5</ele><time>2026-05-03T15:26:40Z</time></trkpt><trkpt lat="43.578078219131505" lon="11.319190664037405"><ele>243.33333333333334</ele><time>2026-05-03T15:26:41Z</time></trkpt><trkpt lat="43.578028412545954" lon="11.319255764901614"><ele>244.16666666666669</ele><time>2026-05-03T15:26:42Z</time></trkpt><trkpt lat="43.577985623994195" lon="11.31934108754992"><ele>245.0</ele><time>2026-05-03T15:26:43Z</time></trkpt><trkpt lat="43.577949385431" lon="11.319449403295504"><ele>245.0</ele><time>2026-05-03T15:26:44Z</time></trkpt><trkpt lat="43.5778841821269" lon="11.319550432378835"><ele>245.0</ele><time>2026-05-03T15:26:45Z</time></trkpt><trkpt lat="43.577825035491834" lon="11.319667167844166"><ele>245.0</ele><time>2026-05-03T15:26:46Z</time></trkpt><trkpt lat="43.57776771963061" lon="11.319793374948212"><ele>245.0</ele><time>2026-05-03T15:26:47Z</time></trkpt><trkpt lat="43.5777122267937" lon="11.319899417164978"><ele>245.0</ele><time>2026-05-03T15:26:48Z</time></trkpt><trkpt lat="43.577647991062854" lon="11.319975183293591"><ele>244.8</ele><time>2026-05-03T15:26:49Z</time></trkpt><trkpt lat="43.577572445380056" lon="11.320018193158905"><ele>244.6</ele><time>2026-05-03T15:26:50Z</time></trkpt><trkpt lat="43.577482619594" lon="11.320047054245478"><ele>244.39999999999998</ele><time>2026-05-03T15:26:51Z</time></trkpt><trkpt lat="43.57737576758227" lon="11.320064757924396"><ele>244.2</ele><time>2026-05-03T15:26:52Z</time></trkpt><trkpt lat="43.57725716804042" lon="11.320087590752559"><ele>244.0</ele><time>2026-05-03T15:26:53Z</time></trkpt><trkpt lat="43.57714064216755" lon="11.320111381773788"><ele>244.0</ele><time>2026-05-03T15:26:54Z</time></trkpt><trkpt lat="43.577035586955915" lon="11.32013283082037"><ele>243.99999999999997</ele><time>2026-05-03T15:26:55Z</time></trkpt><trkpt lat="43.57694000254663" lon="11.320151465517831"><ele>243.99999999999997</ele><time>2026-05-03T15:26:56Z</time></trkpt><trkpt lat="43.57684904778111" lon="11.320168807611621"><ele>244.0</ele><time>2026-05-03T15:26:57Z</time></trkpt><trkpt lat="43.576761770501" lon="11.320185448551786"><ele>244.0</ele><time>2026-05-03T15:26:58Z</time></trkpt><trkpt lat="43.57669503624535" lon="11.320198172615164"><ele>243.6</ele><time>2026-05-03T15:26:59Z</time></trkpt><trkpt lat="43.57660803956853" lon="11.320190643505644"><ele>243.2</ele><time>2026-05-03T15:27:01Z</time></trkpt><trkpt lat="43.57657522601938" lon="11.31992150513535"><ele>242.79999999999998</ele><time>2026-05-03T15:27:03Z</time></trkpt><trkpt lat="43.576569536546046" lon="11.319799886203148"><ele>242.39999999999998</ele><time>2026-05-03T15:27:04Z</time></trkpt><trkpt lat="43.57655876544717" lon="11.319695970077332"><ele>242.0</ele><time>2026-05-03T15:27:05Z</time></trkpt><trkpt lat="43.57655041299503" lon="11.31956319291316"><ele>241.33333333333334</ele><time>2026-05-03T15:27:07Z</time></trkpt><trkpt lat="43.57649984592044" lon="11.319475214661669"><ele>240.66666666666669</ele><time>2026-05-03T15:27:09Z</time></trkpt><trkpt lat="43.576439262156406" lon="11.319434652231124"><ele>240.0</ele><time>2026-05-03T15:27:10Z</time></trkpt><trkpt lat="43.57636888942535" lon="11.319422196468118"><ele>239.33333333333331</ele><time>2026-05-03T15:27:11Z</time></trkpt><trkpt lat="43.5762474331563" lon="11.319470760658383"><ele>238.66666666666666</ele><time>2026-05-03T15:27:13Z</time></trkpt><trkpt lat="43.57618452321748" lon="11.319486015064383"><ele>238.0</ele><time>2026-05-03T15:27:14Z</time></trkpt><trkpt lat="43.576125769682996" lon="11.31952067489922"><ele>237.99999999999997</ele><time>2026-05-03T15:27:15Z</time></trkpt><trkpt lat="43.57607450151054" lon="11.319594683263157"><ele>238.0</ele><time>2026-05-03T15:27:16Z</time></trkpt><trkpt lat="43.576025758473406" lon="11.319681925275871"><ele>238.0</ele><time>2026-05-03T15:27:17Z</time></trkpt><trkpt lat="43.57596803976925" lon="11.319772016679504"><ele>238.0</ele><time>2026-05-03T15:27:18Z</time></trkpt><trkpt lat="43.57589751669685" lon="11.319852465320754"><ele>237.99999999999997</ele><time>2026-05-03T15:27:19Z</time></trkpt><trkpt lat="43.57582297443369" lon="11.319898200017624"><ele>238.0</ele><time>2026-05-03T15:27:20Z</time></trkpt><trkpt lat="43.57573422857126" lon="11.319898815722466"><ele>238.2</ele><time>2026-05-03T15:27:21Z</time></trkpt><trkpt lat="43.57564016321055" lon="11.319861158345851"><ele>238.4</ele><time>2026-05-03T15:27:22Z</time></trkpt><trkpt lat="43.57555251164744" lon="11.319816424047312"><ele>238.59999999999997</ele><time>2026-05-03T15:27:23Z</time></trkpt><trkpt lat="43.575461738947645" lon="11.319783944352217"><ele>238.79999999999998</ele><time>2026-05-03T15:27:24Z</time></trkpt><trkpt lat="43.575372909898704" lon="11.319754561740233"><ele>239.0</ele><time>2026-05-03T15:27:25Z</time></trkpt><trkpt lat="43.575288229920126" lon="11.319718081843101"><ele>239.0</ele><time>2026-05-03T15:27:26Z</time></trkpt><trkpt lat="43.575229129272394" lon="11.319687779160786"><ele>238.99999999999997</ele><time>2026-05-03T15:27:27Z</time></trkpt><trkpt lat="43.575157878469774" lon="11.319652199642462"><ele>238.99999999999997</ele><time>2026-05-03T15:27:28Z</time></trkpt><trkpt lat="43.575029007886634" lon="11.319606405558567"><ele>239.0</ele><time>2026-05-03T15:27:30Z</time></trkpt><trkpt lat="43.57495048707875" lon="11.319565985093364"><ele>239.0</ele><time>2026-05-03T15:27:31Z</time></trkpt><trkpt lat="43.57484505473772" lon="11.31956155424486"><ele>239.00000000000003</ele><time>2026-05-03T15:27:32Z</time></trkpt><trkpt lat="43.574740851805636" lon="11.319603433777663"><ele>239.0</ele><time>2026-05-03T15:27:33Z</time></trkpt><trkpt lat="43.574675777361755" lon="11.319655542544856"><ele>239.0</ele><time>2026-05-03T15:27:34Z</time></trkpt><trkpt lat="43.574610711310406" lon="11.319707975502677"><ele>239.0</ele><time>2026-05-03T15:27:35Z</time></trkpt><trkpt lat="43.57454007444441" lon="11.319725393277883"><ele>239.00000000000003</ele><time>2026-05-03T15:27:36Z</time></trkpt><trkpt lat="43.57446231716886" lon="11.319717202999659"><ele>239.0</ele><time>2026-05-03T15:27:37Z</time></trkpt><trkpt lat="43.57438062338166" lon="11.319729163847233"><ele>239.6</ele><time>2026-05-03T15:27:38Z</time></trkpt><trkpt lat="43.574309938484106" lon="11.319783927952281"><ele>240.2</ele><time>2026-05-03T15:27:39Z</time></trkpt><trkpt lat="43.574222462922336" lon="11.319849602326714"><ele>240.79999999999998</ele><time>2026-05-03T15:27:40Z</time></trkpt><trkpt lat="43.574138365432866" lon="11.31988050877099"><ele>241.39999999999998</ele><time>2026-05-03T15:27:41Z</time></trkpt><trkpt lat="43.57403255387651" lon="11.319922509957966"><ele>242.0</ele><time>2026-05-03T15:27:42Z</time></trkpt><trkpt lat="43.5739189128026" lon="11.319996258098621"><ele>242.0</ele><time>2026-05-03T15:27:43Z</time></trkpt><trkpt lat="43.57379027711524" lon="11.320053809043175"><ele>242.0</ele><time>2026-05-03T15:27:44Z</time></trkpt><trkpt lat="43.573694746082225" lon="11.320094925793393"><ele>242.0</ele><time>2026-05-03T15:27:45Z</time></trkpt><trkpt lat="43.5736238441574" lon="11.320180951741476"><ele>242.0</ele><time>2026-05-03T15:27:46Z</time></trkpt><trkpt lat="43.573567210267925" lon="11.320311228824083"><ele>242.0</ele><time>2026-05-03T15:27:47Z</time></trkpt><trkpt lat="43.57350659512116" lon="11.320442945012076"><ele>241.75</ele><time>2026-05-03T15:27:48Z</time></trkpt><trkpt lat="43.57341587484203" lon="11.320553320085494"><ele>241.5</ele><time>2026-05-03T15:27:49Z</time></trkpt><trkpt lat="43.57330504239626" lon="11.320640476707752"><ele>241.25</ele><time>2026-05-03T15:27:50Z</time></trkpt><trkpt lat="43.57318464696803" lon="11.320721074336618"><ele>241.0</ele><time>2026-05-03T15:27:51Z</time></trkpt><trkpt lat="43.57307683383499" lon="11.320784237596548"><ele>241.20000000000002</ele><time>2026-05-03T15:27:52Z</time></trkpt><trkpt lat="43.57297115006794" lon="11.32084232793914"><ele>241.40000000000003</ele><time>2026-05-03T15:27:53Z</time></trkpt><trkpt lat="43.57287129363265" lon="11.320905642956344"><ele>241.6</ele><time>2026-05-03T15:27:54Z</time></trkpt><trkpt lat="43.57278390478666" lon="11.320970058947685"><ele>241.8</ele><time>2026-05-03T15:27:55Z</time></trkpt><trkpt lat="43.57270685098818" lon="11.321052731974975"><ele>242.0</ele><time>2026-05-03T15:27:56Z</time></trkpt><trkpt lat="43.57264489202498" lon="11.32114321228771"><ele>242.00000000000003</ele><time>2026-05-03T15:27:57Z</time></trkpt><trkpt lat="43.57257607554357" lon="11.321219871944093"><ele>242.0</ele><time>2026-05-03T15:27:58Z</time></trkpt><trkpt lat="43.57250251092865" lon="11.321293799752997"><ele>242.0</ele><time>2026-05-03T15:27:59Z</time></trkpt><trkpt lat="43.57243081979284" lon="11.3213558369938"><ele>242.0</ele><time>2026-05-03T15:27:59.999Z</time></trkpt><trkpt lat="43.57236152747556" lon="11.321390487206088"><ele>242.00000000000003</ele><time>2026-05-03T15:28:00.999Z</time></trkpt><trkpt lat="43.572293963419675" lon="11.321395397222048"><ele>242.0</ele><time>2026-05-03T15:28:01.999Z</time></trkpt><trkpt lat="43.57220685769044" lon="11.321370698726065"><ele>242.00000000000003</ele><time>2026-05-03T15:28:03.999Z</time></trkpt><trkpt lat="43.57213402348642" lon="11.321356789854615"><ele>242.0</ele><time>2026-05-03T15:28:06.999Z</time></trkpt><trkpt lat="43.572105759587345" lon="11.321444325203927"><ele>242.0</ele><time>2026-05-03T15:28:09.999Z</time></trkpt><trkpt lat="43.57211266891795" lon="11.321544011873321"><ele>242.0</ele><time>2026-05-03T15:28:11.999Z</time></trkpt><trkpt lat="43.57209714484895" lon="11.321651509150115"><ele>242.00000000000003</ele><time>2026-05-03T15:28:14.999Z</time></trkpt><trkpt lat="43.57206530169015" lon="11.321752959919495"><ele>242.0</ele><time>2026-05-03T15:28:17.999Z</time></trkpt><trkpt lat="43.57203069790911" lon="11.321856646426005"><ele>242.66666666666669</ele><time>2026-05-03T15:28:20.999Z</time></trkpt><trkpt lat="43.57197102020629" lon="11.321948833227141"><ele>243.33333333333334</ele><time>2026-05-03T15:28:23.999Z</time></trkpt><trkpt lat="43.5719296159734" lon="11.322050059083043"><ele>244.0</ele><time>2026-05-03T15:28:25.999Z</time></trkpt><trkpt lat="43.571859180795066" lon="11.322078402360072"><ele>244.66666666666669</ele><time>2026-05-03T15:28:28.999Z</time></trkpt><trkpt lat="43.57180579732165" lon="11.322026902688267"><ele>245.33333333333334</ele><time>2026-05-03T15:28:30.999Z</time></trkpt><trkpt lat="43.57183361838844" lon="11.321873236347203"><ele>246.0</ele><time>2026-05-03T15:28:32.999Z</time></trkpt><trkpt lat="43.5718770201444" lon="11.321765348032228"><ele>246.0</ele><time>2026-05-03T15:28:33.999Z</time></trkpt><trkpt lat="43.57191475579531" lon="11.321638373168552"><ele>246.0</ele><time>2026-05-03T15:28:34.999Z</time></trkpt><trkpt lat="43.571933552846964" lon="11.321540296501192"><ele>246.0</ele><time>2026-05-03T15:28:35.999Z</time></trkpt><trkpt lat="43.57192737172163" lon="11.32144652106795"><ele>246.0</ele><time>2026-05-03T15:28:36.999Z</time></trkpt><trkpt lat="43.57191144064967" lon="11.321351954832132"><ele>246.0</ele><time>2026-05-03T15:28:37.999Z</time></trkpt><trkpt lat="43.571883514393136" lon="11.321273021492605"><ele>246.0</ele><time>2026-05-03T15:28:38.999Z</time></trkpt><trkpt lat="43.571826516992815" lon="11.321140456930223"><ele>245.5</ele><time>2026-05-03T15:28:41Z</time></trkpt><trkpt lat="43.5717556540203" lon="11.320999135154656"><ele>245.0</ele><time>2026-05-03T15:28:43Z</time></trkpt><trkpt lat="43.57166945177706" lon="11.320877850953238"><ele>244.5</ele><time>2026-05-03T15:28:45Z</time></trkpt><trkpt lat="43.57159380600239" lon="11.320776551681568"><ele>244.0</ele><time>2026-05-03T15:28:47Z</time></trkpt><trkpt lat="43.57149885454082" lon="11.320696810550178"><ele>243.99999999999997</ele><time>2026-05-03T15:28:49Z</time></trkpt><trkpt lat="43.57143221761428" lon="11.320679555558003"><ele>244.0</ele><time>2026-05-03T15:28:50Z</time></trkpt><trkpt lat="43.571368803791096" lon="11.320687490287487"><ele>244.0</ele><time>2026-05-03T15:28:51Z</time></trkpt><trkpt lat="43.571279844627774" lon="11.320743066859034"><ele>244.0</ele><time>2026-05-03T15:28:53Z</time></trkpt><trkpt lat="43.57126879644847" lon="11.320646583244374"><ele>243.99999999999997</ele><time>2026-05-03T15:28:56Z</time></trkpt><trkpt lat="43.571351979283214" lon="11.320612882851492"><ele>244.0</ele><time>2026-05-03T15:28:58Z</time></trkpt><trkpt lat="43.57144207526279" lon="11.32054536362041"><ele>245.2</ele><time>2026-05-03T15:29:00Z</time></trkpt><trkpt lat="43.57152869559661" lon="11.320494524411012"><ele>246.39999999999998</ele><time>2026-05-03T15:29:02Z</time></trkpt><trkpt lat="43.57159815784515" lon="11.32045597178053"><ele>247.6</ele><time>2026-05-03T15:29:05Z</time></trkpt><trkpt lat="43.57168389683383" lon="11.320369797942288"><ele>248.8</ele><time>2026-05-03T15:30:06.999Z</time></trkpt><trkpt lat="43.57176714079428" lon="11.320316268611503"><ele>250.0</ele><time>2026-05-03T15:30:07.999Z</time></trkpt><trkpt lat="43.571862819127" lon="11.320249170872312"><ele>249.99999999999997</ele><time>2026-05-03T15:30:08.999Z</time></trkpt><trkpt lat="43.57193970251176" lon="11.320179013148316"><ele>250.0</ele><time>2026-05-03T15:30:09.999Z</time></trkpt><trkpt lat="43.57199297977092" lon="11.320103259231798"><ele>250.0</ele><time>2026-05-03T15:30:10.999Z</time></trkpt><trkpt lat="43.57205525642783" lon="11.320050476147637"><ele>250.0</ele><time>2026-05-03T15:30:11.999Z</time></trkpt><trkpt lat="43.57208117569105" lon="11.319963722445506"><ele>249.99999999999997</ele><time>2026-05-03T15:30:12.999Z</time></trkpt><trkpt lat="43.572089756859874" lon="11.319815909004667"><ele>250.0</ele><time>2026-05-03T15:30:14.999Z</time></trkpt><trkpt lat="43.572025242343805" lon="11.31975619066136"><ele>253.4</ele><time>2026-05-03T15:30:15.999Z</time></trkpt><trkpt lat="43.57194323242073" lon="11.319689704168386"><ele>256.8</ele><time>2026-05-03T15:30:17.999Z</time></trkpt><trkpt lat="43.571881505171945" lon="11.319615542793972"><ele>260.2</ele><time>2026-05-03T15:30:22.999Z</time></trkpt><trkpt lat="43.57177957023758" lon="11.319636293390907"><ele>263.6</ele><time>2026-05-03T15:30:24.999Z</time></trkpt><trkpt lat="43.57170688938173" lon="11.319584124318382"><ele>267.0</ele><time>2026-05-03T15:30:26.999Z</time></trkpt><trkpt lat="43.57161466564864" lon="11.31964617910774"><ele>267.0</ele><time>2026-05-03T15:30:29.999Z</time></trkpt><trkpt lat="43.571554447782766" lon="11.319675977093794"><ele>267.0</ele><time>2026-05-03T15:30:30.999Z</time></trkpt><trkpt lat="43.571459098627734" lon="11.319723159369257"><ele>267.0</ele><time>2026-05-03T15:30:32.999Z</time></trkpt><trkpt lat="43.57132816273332" lon="11.319424319673546"><ele>267.0</ele><time>2026-05-03T15:30:33.999Z</time></trkpt><trkpt lat="43.5713361552373" lon="11.319310822799515"><ele>267.0</ele><time>2026-05-03T15:30:35.999Z</time></trkpt><trkpt lat="43.571377799592575" lon="11.319150401612223"><ele>267.0</ele><time>2026-05-03T15:30:37.999Z</time></trkpt><trkpt lat="43.571367614427125" lon="11.318990018052277"><ele>267.0</ele><time>2026-05-03T15:30:39.999Z</time></trkpt><trkpt lat="43.57132221783189" lon="11.318845772112681"><ele>267.0</ele><time>2026-05-03T15:30:41.999Z</time></trkpt><trkpt lat="43.57126425622487" lon="11.318731943767078"><ele>270.5</ele><time>2026-05-03T15:30:42.999Z</time></trkpt><trkpt lat="43.57121751962665" lon="11.318625902418482"><ele>274.0</ele><time>2026-05-03T15:30:43.999Z</time></trkpt><trkpt lat="43.571190883044174" lon="11.318479283086942"><ele>277.5</ele><time>2026-05-03T15:30:45Z</time></trkpt><trkpt lat="43.57114864713588" lon="11.318384929379961"><ele>281.0</ele><time>2026-05-03T15:30:46Z</time></trkpt><trkpt lat="43.571080552477646" lon="11.318314595752897"><ele>284.5</ele><time>2026-05-03T15:30:47Z</time></trkpt><trkpt lat="43.57105513804108" lon="11.31822466034058"><ele>288.0</ele><time>2026-05-03T15:30:48Z</time></trkpt><trkpt lat="43.571045240093426" lon="11.318099415143633"><ele>290.2</ele><time>2026-05-03T15:30:49Z</time></trkpt><trkpt lat="43.57103049363133" lon="11.317980200364305"><ele>292.4</ele><time>2026-05-03T15:30:50Z</time></trkpt><trkpt lat="43.5710277280508" lon="11.317875050782028"><ele>294.59999999999997</ele><time>2026-05-03T15:30:51Z</time></trkpt><trkpt lat="43.57094936142522" lon="11.317861053471113"><ele>296.8</ele><time>2026-05-03T15:30:53Z</time></trkpt><trkpt lat="43.570841922867295" lon="11.31800844616291"><ele>299.0</ele><time>2026-05-03T15:30:55Z</time></trkpt><trkpt lat="43.57082520327713" lon="11.31811347626709"><ele>299.0</ele><time>2026-05-03T15:30:56Z</time></trkpt><trkpt lat="43.57081114861814" lon="11.318199394345454"><ele>299.0</ele><time>2026-05-03T15:30:57Z</time></trkpt><trkpt lat="43.57075032253178" lon="11.318325832020959"><ele>299.0</ele><time>2026-05-03T15:30:59Z</time></trkpt><trkpt lat="43.570697092503096" lon="11.31838193338947"><ele>299.0</ele><time>2026-05-03T15:31:00Z</time></trkpt><trkpt lat="43.57063066836998" lon="11.318437267748788"><ele>299.0</ele><time>2026-05-03T15:31:01Z</time></trkpt><trkpt lat="43.570561027749584" lon="11.318494611723477"><ele>299.0</ele><time>2026-05-03T15:31:02Z</time></trkpt><trkpt lat="43.570479655939955" lon="11.318534381690114"><ele>299.0</ele><time>2026-05-03T15:31:03Z</time></trkpt><trkpt lat="43.57038228170982" lon="11.318551974080085"><ele>299.0</ele><time>2026-05-03T15:31:04Z</time></trkpt><trkpt lat="43.57030874372117" lon="11.318544550922526"><ele>299.0</ele><time>2026-05-03T15:31:05Z</time></trkpt><trkpt lat="43.570237722275785" lon="11.318510308256426"><ele>299.0</ele><time>2026-05-03T15:31:06Z</time></trkpt><trkpt lat="43.5701830883844" lon="11.318462920742476"><ele>299.0</ele><time>2026-05-03T15:31:07Z</time></trkpt><trkpt lat="43.570159195813545" lon="11.318375443473887"><ele>299.0</ele><time>2026-05-03T15:31:09Z</time></trkpt><trkpt lat="43.5702026592391" lon="11.318442148079502"><ele>299.0</ele><time>2026-05-03T15:31:12Z</time></trkpt><trkpt lat="43.57024651648617" lon="11.318347126351487"><ele>301.59999999999997</ele><time>2026-05-03T15:31:15Z</time></trkpt><trkpt lat="43.57030050238591" lon="11.31823421590006"><ele>304.2</ele><time>2026-05-03T15:31:17Z</time></trkpt><trkpt lat="43.570305285271786" lon="11.31805653770517"><ele>306.79999999999995</ele><time>2026-05-03T15:31:19Z</time></trkpt><trkpt lat="43.570288492365094" lon="11.317947656867803"><ele>309.4</ele><time>2026-05-03T15:31:20Z</time></trkpt><trkpt lat="43.570278884307584" lon="11.317762342989482"><ele>312.0</ele><time>2026-05-03T15:31:22Z</time></trkpt><trkpt lat="43.57025193924176" lon="11.317634726130757"><ele>315.2</ele><time>2026-05-03T15:31:23Z</time></trkpt><trkpt lat="43.570221271487014" lon="11.31751135687921"><ele>318.4</ele><time>2026-05-03T15:31:24Z</time></trkpt><trkpt lat="43.570204847837225" lon="11.317387372289698"><ele>321.59999999999997</ele><time>2026-05-03T15:31:25Z</time></trkpt><trkpt lat="43.570184838002184" lon="11.317274909719002"><ele>324.79999999999995</ele><time>2026-05-03T15:31:26Z</time></trkpt><trkpt lat="43.57006076135275" lon="11.31721104231077"><ele>328.0</ele><time>2026-05-03T15:31:28Z</time></trkpt><trkpt lat="43.57000830662426" lon="11.31711974048216"><ele>330.0</ele><time>2026-05-03T15:31:30Z</time></trkpt><trkpt lat="43.57000414853302" lon="11.316896626924224"><ele>332.0</ele><time>2026-05-03T15:31:32Z</time></trkpt><trkpt lat="43.56998805952298" lon="11.316756703483389"><ele>334.0</ele><time>2026-05-03T15:31:33Z</time></trkpt><trkpt lat="43.56996157216949" lon="11.316637804679397"><ele>336.0</ele><time>2026-05-03T15:31:34Z</time></trkpt><trkpt lat="43.569935278595196" lon="11.316536827959338"><ele>338.0</ele><time>2026-05-03T15:31:35Z</time></trkpt><trkpt lat="43.56990748794894" lon="11.316443879798669"><ele>339.0</ele><time>2026-05-03T15:31:36Z</time></trkpt><trkpt lat="43.569870301148306" lon="11.31626470048244"><ele>340.0</ele><time>2026-05-03T15:31:38Z</time></trkpt><trkpt lat="43.56980804064336" lon="11.316161677816833"><ele>341.0</ele><time>2026-05-03T15:31:39Z</time></trkpt><trkpt lat="43.56976429981363" lon="11.316052424992373"><ele>342.0</ele><time>2026-05-03T15:31:40Z</time></trkpt><trkpt lat="43.56974338528042" lon="11.31587870961119"><ele>342.0</ele><time>2026-05-03T15:31:41.999Z</time></trkpt><trkpt lat="43.569745455957296" lon="11.315775144095333"><ele>342.0</ele><time>2026-05-03T15:31:42.999Z</time></trkpt><trkpt lat="43.56973606430159" lon="11.315643599029178"><ele>342.0</ele><time>2026-05-03T15:31:43.999Z</time></trkpt><trkpt lat="43.56974367193397" lon="11.315542708815784"><ele>342.0</ele><time>2026-05-03T15:31:44.999Z</time></trkpt><trkpt lat="43.569752551019576" lon="11.315426772278602"><ele>342.0</ele><time>2026-05-03T15:31:45.999Z</time></trkpt><trkpt lat="43.56974643332657" lon="11.31524234867468"><ele>344.0</ele><time>2026-05-03T15:31:47.999Z</time></trkpt><trkpt lat="43.569673405373784" lon="11.31507672194804"><ele>346.0</ele><time>2026-05-03T15:31:49.999Z</time></trkpt><trkpt lat="43.56961739784649" lon="11.314959910692828"><ele>348.0</ele><time>2026-05-03T15:31:50.999Z</time></trkpt><trkpt lat="43.56957465496224" lon="11.31482904193614"><ele>350.0</ele><time>2026-05-03T15:31:51.999Z</time></trkpt><trkpt lat="43.569542425987166" lon="11.314721944324319"><ele>352.0</ele><time>2026-05-03T15:31:52.999Z</time></trkpt><trkpt lat="43.56955687829433" lon="11.314604825336007"><ele>354.8333333333333</ele><time>2026-05-03T15:31:54.999Z</time></trkpt><trkpt lat="43.56965197747637" lon="11.314512744677286"><ele>357.66666666666663</ele><time>2026-05-03T15:31:56.999Z</time></trkpt><trkpt lat="43.569724867614326" lon="11.314442543247115"><ele>360.5</ele><time>2026-05-03T15:31:58.999Z</time></trkpt><trkpt lat="43.56970117730718" lon="11.31435836678925"><ele>363.3333333333333</ele><time>2026-05-03T15:32:00.999Z</time></trkpt><trkpt lat="43.569659497969106" lon="11.314275649862038"><ele>366.1666666666667</ele><time>2026-05-03T15:32:01.999Z</time></trkpt><trkpt lat="43.569623888077956" lon="11.314182012781123"><ele>369.0</ele><time>2026-05-03T15:32:02.999Z</time></trkpt><trkpt lat="43.569596564667705" lon="11.314092257241494"><ele>369.0</ele><time>2026-05-03T15:32:03.999Z</time></trkpt><trkpt lat="43.56957257525183" lon="11.31398815415972"><ele>369.0</ele><time>2026-05-03T15:32:04.999Z</time></trkpt><trkpt lat="43.56955913399226" lon="11.313880424510954"><ele>369.0</ele><time>2026-05-03T15:32:05.999Z</time></trkpt><trkpt lat="43.569532541094176" lon="11.313704337085943"><ele>369.0</ele><time>2026-05-03T15:32:07.999Z</time></trkpt><trkpt lat="43.56953267523991" lon="11.313600344040493"><ele>369.0</ele><time>2026-05-03T15:32:08.999Z</time></trkpt><trkpt lat="43.569519600052885" lon="11.313513346005726"><ele>369.0</ele><time>2026-05-03T15:32:09.999Z</time></trkpt><trkpt lat="43.56947367508259" lon="11.313441142823716"><ele>369.3333333333333</ele><time>2026-05-03T15:32:10.999Z</time></trkpt><trkpt lat="43.56941901691661" lon="11.313379944177044"><ele>369.6666666666667</ele><time>2026-05-03T15:32:11.999Z</time></trkpt><trkpt lat="43.5693853898489" lon="11.313305758533076"><ele>370.0</ele><time>2026-05-03T15:32:12.999Z</time></trkpt><trkpt lat="43.569358610668175" lon="11.313163294469923"><ele>370.33333333333337</ele><time>2026-05-03T15:32:14.999Z</time></trkpt><trkpt lat="43.569337987002974" lon="11.313049554618916"><ele>370.6666666666667</ele><time>2026-05-03T15:32:15.999Z</time></trkpt><trkpt lat="43.56933974219447" lon="11.312953737795086"><ele>371.0</ele><time>2026-05-03T15:32:16.999Z</time></trkpt><trkpt lat="43.56933787856465" lon="11.31284678976626"><ele>373.0</ele><time>2026-05-03T15:32:17.999Z</time></trkpt><trkpt lat="43.569333444769484" lon="11.312744231469726"><ele>375.0</ele><time>2026-05-03T15:32:18.999Z</time></trkpt><trkpt lat="43.56935187416893" lon="11.312630983655172"><ele>377.0</ele><time>2026-05-03T15:32:19.999Z</time></trkpt><trkpt lat="43.569383189861014" lon="11.312483537165248"><ele>379.0</ele><time>2026-05-03T15:32:20.999Z</time></trkpt><trkpt lat="43.569421728445285" lon="11.312358171844936"><ele>381.0</ele><time>2026-05-03T15:32:21.999Z</time></trkpt><trkpt lat="43.569436676158595" lon="11.312269327647716"><ele>383.0</ele><time>2026-05-03T15:32:22.999Z</time></trkpt><trkpt lat="43.56943729255168" lon="11.31216175583846"><ele>385.0</ele><time>2026-05-03T15:32:43.999Z</time></trkpt><trkpt lat="43.56936467983846" lon="11.312106062138618"><ele>387.0</ele><time>2026-05-03T15:32:45.999Z</time></trkpt><trkpt lat="43.56928532510129" lon="11.312037844715197"><ele>389.0</ele><time>2026-05-03T15:32:46.999Z</time></trkpt><trkpt lat="43.569207211394975" lon="11.31197175285047"><ele>391.0</ele><time>2026-05-03T15:32:47.999Z</time></trkpt><trkpt lat="43.569114355754564" lon="11.311908944546607"><ele>393.0</ele><time>2026-05-03T15:32:48.999Z</time></trkpt><trkpt lat="43.56903643458512" lon="11.311891237710446"><ele>393.0</ele><time>2026-05-03T15:32:50Z</time></trkpt><trkpt lat="43.568960086509676" lon="11.3118979003855"><ele>393.0</ele><time>2026-05-03T15:32:51Z</time></trkpt><trkpt lat="43.56888783955618" lon="11.31191478387122"><ele>393.0</ele><time>2026-05-03T15:32:52Z</time></trkpt><trkpt lat="43.568773287071714" lon="11.311878261232025"><ele>393.0</ele><time>2026-05-03T15:32:54Z</time></trkpt><trkpt lat="43.568714572025854" lon="11.311835015668695"><ele>393.0</ele><time>2026-05-03T15:32:55Z</time></trkpt><trkpt lat="43.56865530868487" lon="11.311790795547125"><ele>393.0</ele><time>2026-05-03T15:32:56Z</time></trkpt><trkpt lat="43.56856029249433" lon="11.311658890429687"><ele>390.5714285714286</ele><time>2026-05-03T15:32:58Z</time></trkpt><trkpt lat="43.56853807110294" lon="11.311559068668156"><ele>388.14285714285717</ele><time>2026-05-03T15:32:59Z</time></trkpt><trkpt lat="43.56853016479614" lon="11.311472571373569"><ele>385.7142857142857</ele><time>2026-05-03T15:33:00Z</time></trkpt><trkpt lat="43.56853763816761" lon="11.311372666990573"><ele>383.28571428571433</ele><time>2026-05-03T15:33:01Z</time></trkpt><trkpt lat="43.56853656634229" lon="11.31127712805223"><ele>380.85714285714283</ele><time>2026-05-03T15:33:02Z</time></trkpt><trkpt lat="43.56852239497691" lon="11.311163754571195"><ele>378.42857142857144</ele><time>2026-05-03T15:33:03Z</time></trkpt><trkpt lat="43.5685007040653" lon="11.311081552437406"><ele>376.0</ele><time>2026-05-03T15:33:04Z</time></trkpt><trkpt lat="43.5684855742352" lon="11.310992370765298"><ele>376.0</ele><time>2026-05-03T15:33:05Z</time></trkpt><trkpt lat="43.568476782888354" lon="11.310881120264288"><ele>376.0</ele><time>2026-05-03T15:33:06Z</time></trkpt><trkpt lat="43.56847543578037" lon="11.310784598944688"><ele>376.0</ele><time>2026-05-03T15:33:07Z</time></trkpt><trkpt lat="43.568488721194115" lon="11.310686916099222"><ele>376.0</ele><time>2026-05-03T15:33:08Z</time></trkpt><trkpt lat="43.56850103036695" lon="11.310573430448114"><ele>376.0</ele><time>2026-05-03T15:33:09Z</time></trkpt><trkpt lat="43.56849134526312" lon="11.310478496975271"><ele>376.0</ele><time>2026-05-03T15:33:10Z</time></trkpt><trkpt lat="43.56841642741109" lon="11.310413227439623"><ele>377.8333333333333</ele><time>2026-05-03T15:33:12Z</time></trkpt><trkpt lat="43.56833304378244" lon="11.310427697816033"><ele>379.66666666666663</ele><time>2026-05-03T15:33:14Z</time></trkpt><trkpt lat="43.56825788259219" lon="11.310401099969862"><ele>381.5</ele><time>2026-05-03T15:33:20Z</time></trkpt><trkpt lat="43.568183069716824" lon="11.310396805619602"><ele>383.3333333333333</ele><time>2026-05-03T15:33:22Z</time></trkpt><trkpt lat="43.56810407327301" lon="11.31040087835546"><ele>385.1666666666667</ele><time>2026-05-03T15:33:25Z</time></trkpt><trkpt lat="43.568038186492345" lon="11.310407157187923"><ele>387.0</ele><time>2026-05-03T15:33:26.999Z</time></trkpt><trkpt lat="43.567957760330486" lon="11.310378474119863"><ele>387.0</ele><time>2026-05-03T15:33:28.999Z</time></trkpt><trkpt lat="43.5678943315546" lon="11.310380077094695"><ele>387.0</ele><time>2026-05-03T15:33:30.999Z</time></trkpt><trkpt lat="43.567796074531024" lon="11.310404104245919"><ele>387.0</ele><time>2026-05-03T15:33:32.999Z</time></trkpt><trkpt lat="43.56773468417721" lon="11.310373090080539"><ele>387.0</ele><time>2026-05-03T15:33:34.999Z</time></trkpt><trkpt lat="43.56778073068705" lon="11.310287625406605"><ele>387.0</ele><time>2026-05-03T15:33:37.999Z</time></trkpt><trkpt lat="43.56785940084683" lon="11.31024172684853"><ele>387.0</ele><time>2026-05-03T15:33:39.999Z</time></trkpt><trkpt lat="43.5679111392992" lon="11.31013605120379"><ele>387.0</ele><time>2026-05-03T15:33:41.999Z</time></trkpt><trkpt lat="43.56799615698798" lon="11.310013511585122"><ele>387.0</ele><time>2026-05-03T15:33:43.999Z</time></trkpt><trkpt lat="43.56806674515251" lon="11.309897364987554"><ele>387.0</ele><time>2026-05-03T15:33:45.999Z</time></trkpt><trkpt lat="43.56810830832442" lon="11.309781168997263"><ele>387.0</ele><time>2026-05-03T15:33:47.999Z</time></trkpt><trkpt lat="43.56811705527868" lon="11.309647710446976"><ele>387.0</ele><time>2026-05-03T15:33:49.999Z</time></trkpt><trkpt lat="43.568147770358095" lon="11.309511386938789"><ele>390.0</ele><time>2026-05-03T15:33:51.999Z</time></trkpt><trkpt lat="43.56817139545345" lon="11.309424408628402"><ele>393.0</ele><time>2026-05-03T15:33:52.999Z</time></trkpt><trkpt lat="43.568213000467786" lon="11.309297823592521"><ele>396.0</ele><time>2026-05-03T15:33:54.999Z</time></trkpt><trkpt lat="43.568231929755036" lon="11.30917826175123"><ele>399.0</ele><time>2026-05-03T15:33:56.999Z</time></trkpt><trkpt lat="43.56826695991902" lon="11.30905091237985"><ele>402.0</ele><time>2026-05-03T15:33:58.999Z</time></trkpt><trkpt lat="43.56822812719238" lon="11.309165348025473"><ele>405.0</ele><time>2026-05-03T15:34:12.999Z</time></trkpt><trkpt lat="43.568211195154525" lon="11.309260694950112"><ele>405.0</ele><time>2026-05-03T15:34:14.999Z</time></trkpt><trkpt lat="43.568182997623275" lon="11.309382116883691"><ele>405.0</ele><time>2026-05-03T15:34:16.999Z</time></trkpt><trkpt lat="43.56815205966184" lon="11.309502184848226"><ele>405.0</ele><time>2026-05-03T15:34:18.999Z</time></trkpt><trkpt lat="43.56812334387706" lon="11.309605795664014"><ele>405.0</ele><time>2026-05-03T15:34:20.999Z</time></trkpt><trkpt lat="43.56810291004063" lon="11.309745308885208"><ele>405.0</ele><time>2026-05-03T15:34:22.999Z</time></trkpt><trkpt lat="43.5680557832284" lon="11.309890053277629"><ele>402.0</ele><time>2026-05-03T15:34:24.999Z</time></trkpt><trkpt lat="43.567982520053846" lon="11.310013811419"><ele>399.0</ele><time>2026-05-03T15:34:26.999Z</time></trkpt><trkpt lat="43.56792809391511" lon="11.31010199237022"><ele>396.0</ele><time>2026-05-03T15:34:28.999Z</time></trkpt><trkpt lat="43.56788136339498" lon="11.3101788684523"><ele>393.0</ele><time>2026-05-03T15:34:30.999Z</time></trkpt><trkpt lat="43.56781770102979" lon="11.310271705225448"><ele>390.0</ele><time>2026-05-03T15:34:32.999Z</time></trkpt><trkpt lat="43.56774973232393" lon="11.310314253321495"><ele>387.0</ele><time>2026-05-03T15:34:34.999Z</time></trkpt><trkpt lat="43.56782295282153" lon="11.310387634905693"><ele>387.0</ele><time>2026-05-03T15:34:38.999Z</time></trkpt><trkpt lat="43.56789755706355" lon="11.31036925809143"><ele>387.0</ele><time>2026-05-03T15:34:39.999Z</time></trkpt><trkpt lat="43.5679737542666" lon="11.310345103878701"><ele>387.0</ele><time>2026-05-03T15:34:40.999Z</time></trkpt><trkpt lat="43.568098995392205" lon="11.310377653017266"><ele>387.0</ele><time>2026-05-03T15:34:42.999Z</time></trkpt><trkpt lat="43.568166753400476" lon="11.310374920454706"><ele>387.0</ele><time>2026-05-03T15:34:43.999Z</time></trkpt><trkpt lat="43.568238792202536" lon="11.310372251881901"><ele>387.0</ele><time>2026-05-03T15:34:44.999Z</time></trkpt><trkpt lat="43.56832559331531" lon="11.310382019727166"><ele>387.0</ele><time>2026-05-03T15:34:45.999Z</time></trkpt><trkpt lat="43.56841679569959" lon="11.31039769825425"><ele>387.0</ele><time>2026-05-03T15:34:46.999Z</time></trkpt><trkpt lat="43.5684776490467" lon="11.31042269122806"><ele>387.0</ele><time>2026-05-03T15:34:47.999Z</time></trkpt><trkpt lat="43.568490294619515" lon="11.310525857551683"><ele>387.0</ele><time>2026-05-03T15:34:52.999Z</time></trkpt><trkpt lat="43.56844223143252" lon="11.310610438766144"><ele>387.0</ele><time>2026-05-03T15:35:13Z</time></trkpt><trkpt lat="43.56836872594686" lon="11.310665524675965"><ele>387.0</ele><time>2026-05-03T15:35:16Z</time></trkpt><trkpt lat="43.568318229514006" lon="11.310721593265638"><ele>385.1666666666667</ele><time>2026-05-03T15:35:26.999Z</time></trkpt><trkpt lat="43.56824934207248" lon="11.310820595179969"><ele>383.3333333333333</ele><time>2026-05-03T15:35:29.999Z</time></trkpt><trkpt lat="43.56818218830821" lon="11.310868874036823"><ele>381.5</ele><time>2026-05-03T15:35:32.999Z</time></trkpt><trkpt lat="43.56816085953445" lon="11.310980731953505"><ele>379.66666666666663</ele><time>2026-05-03T15:35:35.999Z</time></trkpt><trkpt lat="43.56812679856133" lon="11.311057820904995"><ele>377.8333333333333</ele><time>2026-05-03T15:35:37.999Z</time></trkpt><trkpt lat="43.56806276166383" lon="11.311072105384211"><ele>376.0</ele><time>2026-05-03T15:35:40.999Z</time></trkpt><trkpt lat="43.567991283200136" lon="11.311100474848494"><ele>376.0</ele><time>2026-05-03T15:35:45.999Z</time></trkpt><trkpt lat="43.56792376358984" lon="11.311106325370822"><ele>376.0</ele><time>2026-05-03T15:35:58.999Z</time></trkpt><trkpt lat="43.567989953401565" lon="11.311093710433523"><ele>376.0</ele><time>2026-05-03T15:36:07.999Z</time></trkpt><trkpt lat="43.568023697345296" lon="11.311008299912265"><ele>376.0</ele><time>2026-05-03T15:36:26.999Z</time></trkpt><trkpt lat="43.56806944309598" lon="11.311073337379577"><ele>376.0</ele><time>2026-05-03T15:36:43.999Z</time></trkpt><trkpt lat="43.56813339887796" lon="11.310977390578964"><ele>376.0</ele><time>2026-05-03T15:36:46.999Z</time></trkpt><trkpt lat="43.56815269788014" lon="11.310887717558678"><ele>376.0</ele><time>2026-05-03T15:36:48.999Z</time></trkpt><trkpt lat="43.56822274168355" lon="11.31080744580288"><ele>376.0</ele><time>2026-05-03T15:36:51.999Z</time></trkpt><trkpt lat="43.56828126854159" lon="11.310754978274062"><ele>376.0</ele><time>2026-05-03T15:36:53.999Z</time></trkpt><trkpt lat="43.56831267433901" lon="11.310671983459999"><ele>376.0</ele><time>2026-05-03T15:36:57.999Z</time></trkpt><trkpt lat="43.56840005440762" lon="11.310633492663307"><ele>376.0</ele><time>2026-05-03T15:37:00.999Z</time></trkpt><trkpt lat="43.568447724277355" lon="11.310566164412082"><ele>376.0</ele><time>2026-05-03T15:37:03Z</time></trkpt><trkpt lat="43.5684585016868" lon="11.310478479570524"><ele>376.0</ele><time>2026-05-03T15:37:07Z</time></trkpt><trkpt lat="43.56838567706737" lon="11.310439603074885"><ele>376.0</ele><time>2026-05-03T15:37:13.999Z</time></trkpt><trkpt lat="43.56828412601563" lon="11.31041951326085"><ele>376.4</ele><time>2026-05-03T15:37:14.999Z</time></trkpt><trkpt lat="43.568179957312545" lon="11.310413670174386"><ele>376.8</ele><time>2026-05-03T15:37:15.999Z</time></trkpt><trkpt lat="43.56805942869373" lon="11.310404382656115"><ele>377.2</ele><time>2026-05-03T15:37:16.999Z</time></trkpt><trkpt lat="43.567968464242625" lon="11.310411629505388"><ele>377.59999999999997</ele><time>2026-05-03T15:37:17.999Z</time></trkpt><trkpt lat="43.56784780197744" lon="11.31038163679283"><ele>378.0</ele><time>2026-05-03T15:37:19.999Z</time></trkpt><trkpt lat="43.567776769469155" lon="11.310389298209717"><ele>378.0</ele><time>2026-05-03T15:37:20.999Z</time></trkpt><trkpt lat="43.567678468023615" lon="11.310336848223224"><ele>378.0</ele><time>2026-05-03T15:37:22.999Z</time></trkpt><trkpt lat="43.56761098731558" lon="11.310284345600786"><ele>378.0</ele><time>2026-05-03T15:37:23.999Z</time></trkpt><trkpt lat="43.567556613389904" lon="11.310215880479799"><ele>378.0</ele><time>2026-05-03T15:37:24.999Z</time></trkpt><trkpt lat="43.56751846874654" lon="11.31014528003717"><ele>378.0</ele><time>2026-05-03T15:37:25.999Z</time></trkpt><trkpt lat="43.56744341503333" lon="11.310016067841666"><ele>378.0</ele><time>2026-05-03T15:37:27.999Z</time></trkpt><trkpt lat="43.56739242032877" lon="11.30994678291805"><ele>378.0</ele><time>2026-05-03T15:37:28.999Z</time></trkpt><trkpt lat="43.567335571661125" lon="11.309862210567312"><ele>378.0</ele><time>2026-05-03T15:37:29.999Z</time></trkpt><trkpt lat="43.567281149161055" lon="11.309781809533785"><ele>378.0</ele><time>2026-05-03T15:37:30.999Z</time></trkpt><trkpt lat="43.56722808592743" lon="11.309713904423585"><ele>378.0</ele><time>2026-05-03T15:37:31.999Z</time></trkpt><trkpt lat="43.56718004785568" lon="11.309655600989403"><ele>378.0</ele><time>2026-05-03T15:37:32.999Z</time></trkpt><trkpt lat="43.56713574822151" lon="11.309591412793823"><ele>378.0</ele><time>2026-05-03T15:37:33.999Z</time></trkpt><trkpt lat="43.56704687686809" lon="11.309519534916578"><ele>379.1666666666667</ele><time>2026-05-03T15:37:35.999Z</time></trkpt><trkpt lat="43.56696271542104" lon="11.30945961004072"><ele>380.33333333333337</ele><time>2026-05-03T15:37:37.999Z</time></trkpt><trkpt lat="43.56688915556956" lon="11.30937928137"><ele>381.5</ele><time>2026-05-03T15:37:39.999Z</time></trkpt><trkpt lat="43.56683562504263" lon="11.309322671276687"><ele>382.6666666666667</ele><time>2026-05-03T15:37:41.999Z</time></trkpt><trkpt lat="43.56677098529527" lon="11.309243247181216"><ele>383.83333333333337</ele><time>2026-05-03T15:37:44.999Z</time></trkpt><trkpt lat="43.566707587170704" lon="11.309304301259866"><ele>385.0</ele><time>2026-05-03T15:37:48.999Z</time></trkpt><trkpt lat="43.566701356259465" lon="11.30940024867321"><ele>385.0</ele><time>2026-05-03T15:37:50.999Z</time></trkpt><trkpt lat="43.56668768083424" lon="11.309553360774345"><ele>385.0</ele><time>2026-05-03T15:37:52.999Z</time></trkpt><trkpt lat="43.56668280489534" lon="11.309655135772807"><ele>385.0</ele><time>2026-05-03T15:37:53.999Z</time></trkpt><trkpt lat="43.566661839762396" lon="11.309785737582304"><ele>385.0</ele><time>2026-05-03T15:37:55.999Z</time></trkpt><trkpt lat="43.56663841817972" lon="11.309903784019523"><ele>385.0</ele><time>2026-05-03T15:37:57.999Z</time></trkpt><trkpt lat="43.56659262645776" lon="11.31003486131129"><ele>383.50000000000006</ele><time>2026-05-03T15:37:59.999Z</time></trkpt><trkpt lat="43.56661107528712" lon="11.310172779305422"><ele>382.0</ele><time>2026-05-03T15:38:01.999Z</time></trkpt><trkpt lat="43.56663611002868" lon="11.310299242866021"><ele>380.5</ele><time>2026-05-03T15:38:02.999Z</time></trkpt><trkpt lat="43.56663682829572" lon="11.310413769407134"><ele>379.0</ele><time>2026-05-03T15:38:03.999Z</time></trkpt><trkpt lat="43.5666298187804" lon="11.3105501387847"><ele>377.5</ele><time>2026-05-03T15:38:05.999Z</time></trkpt><trkpt lat="43.56660908330758" lon="11.310639419652736"><ele>376.0</ele><time>2026-05-03T15:38:06.999Z</time></trkpt><trkpt lat="43.566575229702856" lon="11.31074217529224"><ele>374.8333333333333</ele><time>2026-05-03T15:38:07.999Z</time></trkpt><trkpt lat="43.56653186173125" lon="11.310822997345435"><ele>373.66666666666663</ele><time>2026-05-03T15:38:08.999Z</time></trkpt><trkpt lat="43.566449444200664" lon="11.310901628453918"><ele>372.5</ele><time>2026-05-03T15:38:10.999Z</time></trkpt><trkpt lat="43.56639780231611" lon="11.310970773133535"><ele>371.3333333333333</ele><time>2026-05-03T15:38:11.999Z</time></trkpt><trkpt lat="43.56634174767706" lon="11.311021214687344"><ele>370.1666666666667</ele><time>2026-05-03T15:38:12.999Z</time></trkpt><trkpt lat="43.56630391874327" lon="11.311148528245939"><ele>369.0</ele><time>2026-05-03T15:38:14.999Z</time></trkpt><trkpt lat="43.56625496360344" lon="11.311262957536615"><ele>369.0</ele><time>2026-05-03T15:38:16.999Z</time></trkpt><trkpt lat="43.56619761973361" lon="11.311365006282662"><ele>369.0</ele><time>2026-05-03T15:38:18.999Z</time></trkpt><trkpt lat="43.56615053820967" lon="11.311464427748662"><ele>369.0</ele><time>2026-05-03T15:38:20.999Z</time></trkpt><trkpt lat="43.56611115977792" lon="11.311575763378208"><ele>369.0</ele><time>2026-05-03T15:38:22.999Z</time></trkpt><trkpt lat="43.56607913533529" lon="11.311693881861403"><ele>369.0</ele><time>2026-05-03T15:38:24.999Z</time></trkpt><trkpt lat="43.56604072832841" lon="11.311812033153059"><ele>372.6666666666667</ele><time>2026-05-03T15:38:26.999Z</time></trkpt><trkpt lat="43.566026578265706" lon="11.311911814646505"><ele>376.33333333333337</ele><time>2026-05-03T15:38:28.999Z</time></trkpt><trkpt lat="43.566006402645066" lon="11.312032834105405"><ele>380.0</ele><time>2026-05-03T15:38:30.999Z</time></trkpt><trkpt lat="43.56600455455151" lon="11.31213450588764"><ele>383.6666666666667</ele><time>2026-05-03T15:38:32.999Z</time></trkpt><trkpt lat="43.56596958537438" lon="11.31224538420003"><ele>387.33333333333337</ele><time>2026-05-03T15:38:34.999Z</time></trkpt><trkpt lat="43.56590459443824" lon="11.312200154298324"><ele>391.0</ele><time>2026-05-03T15:38:36.999Z</time></trkpt><trkpt lat="43.565882764399554" lon="11.312086782492447"><ele>391.6</ele><time>2026-05-03T15:38:38.999Z</time></trkpt><trkpt lat="43.565848947262424" lon="11.311967045838168"><ele>392.20000000000005</ele><time>2026-05-03T15:38:40.999Z</time></trkpt><trkpt lat="43.565800796276996" lon="11.311871182288037"><ele>392.79999999999995</ele><time>2026-05-03T15:38:42.999Z</time></trkpt><trkpt lat="43.565775181534214" lon="11.31178917841421"><ele>393.4</ele><time>2026-05-03T15:38:44.999Z</time></trkpt><trkpt lat="43.56571278524509" lon="11.311630686942594"><ele>394.0</ele><time>2026-05-03T15:38:46.999Z</time></trkpt><trkpt lat="43.56566724777547" lon="11.311515455829957"><ele>394.33333333333337</ele><time>2026-05-03T15:38:48.999Z</time></trkpt><trkpt lat="43.56566448592441" lon="11.311387321577095"><ele>394.6666666666667</ele><time>2026-05-03T15:38:50.999Z</time></trkpt><trkpt lat="43.56566550293196" lon="11.311257382452801"><ele>395.0</ele><time>2026-05-03T15:38:52.999Z</time></trkpt><trkpt lat="43.565645242047566" lon="11.31116473128328"><ele>395.33333333333337</ele><time>2026-05-03T15:38:53.999Z</time></trkpt><trkpt lat="43.56562484170585" lon="11.311076597684053"><ele>395.6666666666667</ele><time>2026-05-03T15:38:54.999Z</time></trkpt><trkpt lat="43.56558737983095" lon="11.310923385202097"><ele>396.0</ele><time>2026-05-03T15:38:56.999Z</time></trkpt><trkpt lat="43.56559277346872" lon="11.310815689222576"><ele>396.0</ele><time>2026-05-03T15:38:58.999Z</time></trkpt><trkpt lat="43.56561414406473" lon="11.310680108754186"><ele>396.0</ele><time>2026-05-03T15:38:59.999Z</time></trkpt><trkpt lat="43.56565931467598" lon="11.310580345161082"><ele>396.0</ele><time>2026-05-03T15:39:01.999Z</time></trkpt><trkpt lat="43.565618300209216" lon="11.310512510720796"><ele>396.0</ele><time>2026-05-03T15:39:03.999Z</time></trkpt><trkpt lat="43.565545022899414" lon="11.310409509038685"><ele>396.0</ele><time>2026-05-03T15:39:05.999Z</time></trkpt><trkpt lat="43.565474860808365" lon="11.310323995372011"><ele>396.0</ele><time>2026-05-03T15:39:09Z</time></trkpt><trkpt lat="43.565426416683714" lon="11.310223726414817"><ele>396.8</ele><time>2026-05-03T15:39:12Z</time></trkpt><trkpt lat="43.56540038030757" lon="11.310095268091219"><ele>397.6</ele><time>2026-05-03T15:39:14Z</time></trkpt><trkpt lat="43.565386559551925" lon="11.309950088409563"><ele>398.4</ele><time>2026-05-03T15:39:16Z</time></trkpt><trkpt lat="43.56543400538399" lon="11.309781978633982"><ele>399.2</ele><time>2026-05-03T15:39:18Z</time></trkpt><trkpt lat="43.565442042669005" lon="11.309680406861442"><ele>400.0</ele><time>2026-05-03T15:39:20Z</time></trkpt><trkpt lat="43.56542415558254" lon="11.309588001492456"><ele>400.33333333333337</ele><time>2026-05-03T15:39:22Z</time></trkpt><trkpt lat="43.56537066939424" lon="11.30945896659928"><ele>400.6666666666667</ele><time>2026-05-03T15:39:24Z</time></trkpt><trkpt lat="43.56532399606962" lon="11.309377665886046"><ele>401.0</ele><time>2026-05-03T15:39:26Z</time></trkpt><trkpt lat="43.56528453869501" lon="11.309302708701656"><ele>401.33333333333337</ele><time>2026-05-03T15:39:28Z</time></trkpt><trkpt lat="43.565222663377995" lon="11.309214455786782"><ele>401.6666666666667</ele><time>2026-05-03T15:39:30Z</time></trkpt><trkpt lat="43.56515399474042" lon="11.309196810913503"><ele>402.0</ele><time>2026-05-03T15:39:32Z</time></trkpt><trkpt lat="43.56509224034985" lon="11.309274836713412"><ele>406.0</ele><time>2026-05-03T15:39:35Z</time></trkpt><trkpt lat="43.56506191801712" lon="11.30938768120627"><ele>410.0</ele><time>2026-05-03T15:39:37Z</time></trkpt><trkpt lat="43.56501912701937" lon="11.309491828306227"><ele>414.0</ele><time>2026-05-03T15:39:39Z</time></trkpt><trkpt lat="43.56495575003483" lon="11.309512920567961"><ele>418.0</ele><time>2026-05-03T15:39:40.999Z</time></trkpt><trkpt lat="43.56489512126603" lon="11.309486809308313"><ele>422.0</ele><time>2026-05-03T15:39:42.999Z</time></trkpt><trkpt lat="43.5648276618158" lon="11.309434572496727"><ele>426.0</ele><time>2026-05-03T15:39:45.999Z</time></trkpt><trkpt lat="43.56475521202276" lon="11.309427365564007"><ele>426.0</ele><time>2026-05-03T15:39:48.999Z</time></trkpt><trkpt lat="43.56466996592194" lon="11.309401936779027"><ele>426.0</ele><time>2026-05-03T15:40:09.999Z</time></trkpt><trkpt lat="43.564604558571084" lon="11.309373533746184"><ele>426.0</ele><time>2026-05-03T15:40:12.999Z</time></trkpt><trkpt lat="43.56449651399089" lon="11.309330519853788"><ele>426.0</ele><time>2026-05-03T15:40:16.999Z</time></trkpt><trkpt lat="43.56442810051787" lon="11.309320011048772"><ele>426.0</ele><time>2026-05-03T15:40:17.999Z</time></trkpt><trkpt lat="43.56435013874197" lon="11.309308451636754"><ele>426.0</ele><time>2026-05-03T15:40:18.999Z</time></trkpt><trkpt lat="43.564274668132" lon="11.309309659979965"><ele>428.8</ele><time>2026-05-03T15:40:20.999Z</time></trkpt><trkpt lat="43.564210935622356" lon="11.309302297555249"><ele>431.6</ele><time>2026-05-03T15:40:22.999Z</time></trkpt><trkpt lat="43.56413123772009" lon="11.309322187989464"><ele>434.4</ele><time>2026-05-03T15:40:35.999Z</time></trkpt><trkpt lat="43.56407567072233" lon="11.309466815632968"><ele>437.2</ele><time>2026-05-03T15:40:37.999Z</time></trkpt><trkpt lat="43.56404779359086" lon="11.309627171184854"><ele>440.0</ele><time>2026-05-03T15:40:39.999Z</time></trkpt><trkpt lat="43.56407391298031" lon="11.309771908796325"><ele>439.99999999999994</ele><time>2026-05-03T15:40:41.999Z</time></trkpt><trkpt lat="43.56411738486881" lon="11.30986021984824"><ele>440.0</ele><time>2026-05-03T15:40:43.999Z</time></trkpt><trkpt lat="43.564165938578654" lon="11.309943933067876"><ele>440.0</ele><time>2026-05-03T15:40:45.999Z</time></trkpt><trkpt lat="43.56410537072152" lon="11.31000866343308"><ele>440.0</ele><time>2026-05-03T15:40:48.999Z</time></trkpt><trkpt lat="43.56407400150419" lon="11.309911282386576"><ele>439.99999999999994</ele><time>2026-05-03T15:40:50.999Z</time></trkpt><trkpt lat="43.5640792626865" lon="11.309751965463253"><ele>440.0</ele><time>2026-05-03T15:40:52.999Z</time></trkpt><trkpt lat="43.56404527642917" lon="11.309625544879177"><ele>440.0</ele><time>2026-05-03T15:40:54.999Z</time></trkpt><trkpt lat="43.564061095795175" lon="11.309457588315343"><ele>440.0</ele><time>2026-05-03T15:40:56.999Z</time></trkpt><trkpt lat="43.56412899974724" lon="11.309320838727714"><ele>440.0</ele><time>2026-05-03T15:40:58.999Z</time></trkpt><trkpt lat="43.564157416444594" lon="11.309207300907412"><ele>440.0</ele><time>2026-05-03T15:41:00.999Z</time></trkpt><trkpt lat="43.56411696717749" lon="11.309090524856515"><ele>440.0</ele><time>2026-05-03T15:41:02.999Z</time></trkpt><trkpt lat="43.56410690531267" lon="11.30899741942609"><ele>440.0</ele><time>2026-05-03T15:41:03.999Z</time></trkpt><trkpt lat="43.56408559119411" lon="11.308866999787059"><ele>440.0</ele><time>2026-05-03T15:41:05.999Z</time></trkpt><trkpt lat="43.56402169906894" lon="11.308741808898406"><ele>440.0</ele><time>2026-05-03T15:41:07.999Z</time></trkpt><trkpt lat="43.56395987711725" lon="11.308642314910907"><ele>440.0</ele><time>2026-05-03T15:41:08.999Z</time></trkpt><trkpt lat="43.56390568906509" lon="11.308565966886967"><ele>440.0</ele><time>2026-05-03T15:41:09.999Z</time></trkpt><trkpt lat="43.563854397332214" lon="11.308491246847703"><ele>439.99999999999994</ele><time>2026-05-03T15:41:10.999Z</time></trkpt><trkpt lat="43.56379443132902" lon="11.308431885469064"><ele>440.0</ele><time>2026-05-03T15:41:11.999Z</time></trkpt><trkpt lat="43.563711200307814" lon="11.308381645732654"><ele>440.0</ele><time>2026-05-03T15:41:12.999Z</time></trkpt><trkpt lat="43.563645482391365" lon="11.308328920808282"><ele>440.0</ele><time>2026-05-03T15:41:14Z</time></trkpt><trkpt lat="43.56358624206236" lon="11.308279121713282"><ele>439.99999999999994</ele><time>2026-05-03T15:41:15Z</time></trkpt><trkpt lat="43.56344903888225" lon="11.308268362691605"><ele>440.0</ele><time>2026-05-03T15:41:17Z</time></trkpt><trkpt lat="43.563384623076786" lon="11.30823771959489"><ele>437.8333333333333</ele><time>2026-05-03T15:41:18Z</time></trkpt><trkpt lat="43.56333535691438" lon="11.308172244406324"><ele>435.66666666666663</ele><time>2026-05-03T15:41:19Z</time></trkpt><trkpt lat="43.563280350716596" lon="11.30811134458964"><ele>433.5</ele><time>2026-05-03T15:41:20Z</time></trkpt><trkpt lat="43.563205065068416" lon="11.308063868092557"><ele>431.33333333333337</ele><time>2026-05-03T15:41:21Z</time></trkpt><trkpt lat="43.563084825415885" lon="11.308056202487982"><ele>429.1666666666667</ele><time>2026-05-03T15:41:23Z</time></trkpt><trkpt lat="43.56302861257718" lon="11.307952216782173"><ele>427.0</ele><time>2026-05-03T15:41:25Z</time></trkpt><trkpt lat="43.562974881317686" lon="11.307818451128934"><ele>427.0</ele><time>2026-05-03T15:41:27Z</time></trkpt><trkpt lat="43.56289325257295" lon="11.307808536619406"><ele>427.00000000000006</ele><time>2026-05-03T15:41:29Z</time></trkpt><trkpt lat="43.56280813353466" lon="11.307841543943983"><ele>427.00000000000006</ele><time>2026-05-03T15:41:31Z</time></trkpt><trkpt lat="43.56274470121854" lon="11.307726008282911"><ele>427.0</ele><time>2026-05-03T15:41:54.999Z</time></trkpt><trkpt lat="43.56274508149204" lon="11.307610513815481"><ele>427.0</ele><time>2026-05-03T15:41:55.999Z</time></trkpt><trkpt lat="43.56272318991433" lon="11.307480502046829"><ele>424.8</ele><time>2026-05-03T15:41:56.999Z</time></trkpt><trkpt lat="43.562705441162834" lon="11.307326585493476"><ele>422.6</ele><time>2026-05-03T15:41:57.999Z</time></trkpt><trkpt lat="43.56269818981369" lon="11.307169843271588"><ele>420.40000000000003</ele><time>2026-05-03T15:41:58.999Z</time></trkpt><trkpt lat="43.56266794832658" lon="11.307060745581529"><ele>418.20000000000005</ele><time>2026-05-03T15:41:59.999Z</time></trkpt><trkpt lat="43.56264723984504" lon="11.3069540205517"><ele>416.0</ele><time>2026-05-03T15:42:00.999Z</time></trkpt><trkpt lat="43.56264074213979" lon="11.306852201814063"><ele>415.99999999999994</ele><time>2026-05-03T15:42:01.999Z</time></trkpt><trkpt lat="43.56263592705613" lon="11.306752845849983"><ele>416.0</ele><time>2026-05-03T15:42:02.999Z</time></trkpt><trkpt lat="43.56261466239044" lon="11.30667050377488"><ele>416.0</ele><time>2026-05-03T15:42:03.999Z</time></trkpt><trkpt lat="43.562508370767105" lon="11.306603805990397"><ele>416.0</ele><time>2026-05-03T15:42:05.999Z</time></trkpt><trkpt lat="43.56243195106099" lon="11.306604840659345"><ele>415.99999999999994</ele><time>2026-05-03T15:42:06.999Z</time></trkpt><trkpt lat="43.56235257927683" lon="11.306606027581351"><ele>416.0</ele><time>2026-05-03T15:42:07.999Z</time></trkpt><trkpt lat="43.562265713853584" lon="11.306578290750855"><ele>416.0</ele><time>2026-05-03T15:42:08.999Z</time></trkpt><trkpt lat="43.56218389267591" lon="11.306530023252282"><ele>416.0</ele><time>2026-05-03T15:42:09.999Z</time></trkpt><trkpt lat="43.562094392067685" lon="11.306483775991124"><ele>416.0</ele><time>2026-05-03T15:42:10.999Z</time></trkpt><trkpt lat="43.56199460714779" lon="11.306439629431374"><ele>416.0</ele><time>2026-05-03T15:42:11.999Z</time></trkpt><trkpt lat="43.56189392654476" lon="11.306369328716906"><ele>416.0</ele><time>2026-05-03T15:42:12.999Z</time></trkpt><trkpt lat="43.56179702991645" lon="11.306291999318228"><ele>417.8</ele><time>2026-05-03T15:42:13.999Z</time></trkpt><trkpt lat="43.56171383567211" lon="11.306227952571113"><ele>419.6</ele><time>2026-05-03T15:42:14.999Z</time></trkpt><trkpt lat="43.561630956133" lon="11.306170500591994"><ele>421.4</ele><time>2026-05-03T15:42:15.999Z</time></trkpt><trkpt lat="43.56155957683574" lon="11.306036306476816"><ele>423.2</ele><time>2026-05-03T15:42:17.999Z</time></trkpt><trkpt lat="43.56155863733406" lon="11.305944290591277"><ele>425.0</ele><time>2026-05-03T15:42:18.999Z</time></trkpt><trkpt lat="43.5616233747994" lon="11.305778758305872"><ele>424.99999999999994</ele><time>2026-05-03T15:42:20.999Z</time></trkpt><trkpt lat="43.5616962517897" lon="11.30563962529486"><ele>425.0</ele><time>2026-05-03T15:42:22.999Z</time></trkpt><trkpt lat="43.56176944948414" lon="11.305593423945302"><ele>425.0</ele><time>2026-05-03T15:42:23.999Z</time></trkpt><trkpt lat="43.56183126044791" lon="11.305558324778357"><ele>425.0</ele><time>2026-05-03T15:42:24.999Z</time></trkpt><trkpt lat="43.561898357827964" lon="11.305495401197604"><ele>424.99999999999994</ele><time>2026-05-03T15:42:25.999Z</time></trkpt><trkpt lat="43.561968260111335" lon="11.305414205038254"><ele>425.0</ele><time>2026-05-03T15:42:26.999Z</time></trkpt><trkpt lat="43.56200986183037" lon="11.305339367859574"><ele>425.6</ele><time>2026-05-03T15:42:27.999Z</time></trkpt><trkpt lat="43.56202686925375" lon="11.305221671931566"><ele>426.2</ele><time>2026-05-03T15:42:29.999Z</time></trkpt><trkpt lat="43.56201680966763" lon="11.305113825164575"><ele>426.79999999999995</ele><time>2026-05-03T15:42:30.999Z</time></trkpt><trkpt lat="43.562038566263496" lon="11.304927248057037"><ele>427.4</ele><time>2026-05-03T15:42:31.999Z</time></trkpt><trkpt lat="43.56207143418936" lon="11.30474740854838"><ele>428.0</ele><time>2026-05-03T15:42:32.999Z</time></trkpt><trkpt lat="43.56207528846971" lon="11.304591925526633"><ele>431.0</ele><time>2026-05-03T15:42:33.999Z</time></trkpt><trkpt lat="43.562076820691466" lon="11.304438628393761"><ele>433.99999999999994</ele><time>2026-05-03T15:42:34.999Z</time></trkpt><trkpt lat="43.562084454542955" lon="11.304315360296759"><ele>436.99999999999994</ele><time>2026-05-03T15:42:35.999Z</time></trkpt><trkpt lat="43.56207864146304" lon="11.304173649637768"><ele>440.0</ele><time>2026-05-03T15:42:36.999Z</time></trkpt><trkpt lat="43.56206938962966" lon="11.304027561279746"><ele>443.0</ele><time>2026-05-03T15:42:37.999Z</time></trkpt><trkpt lat="43.562064107007956" lon="11.30388584466548"><ele>444.4</ele><time>2026-05-03T15:42:38.999Z</time></trkpt><trkpt lat="43.5620781602883" lon="11.303761653442399"><ele>445.79999999999995</ele><time>2026-05-03T15:42:39.999Z</time></trkpt><trkpt lat="43.5621034039362" lon="11.30365704867799"><ele>447.2</ele><time>2026-05-03T15:42:40.999Z</time></trkpt><trkpt lat="43.56213799693573" lon="11.303532340658116"><ele>448.6</ele><time>2026-05-03T15:42:41.999Z</time></trkpt><trkpt lat="43.56218526472808" lon="11.303419143587034"><ele>450.0</ele><time>2026-05-03T15:42:42.999Z</time></trkpt><trkpt lat="43.562235364736445" lon="11.303294584778131"><ele>450.0</ele><time>2026-05-03T15:42:43.999Z</time></trkpt><trkpt lat="43.56226266464931" lon="11.303167725818845"><ele>450.0</ele><time>2026-05-03T15:42:44.999Z</time></trkpt><trkpt lat="43.56229233228374" lon="11.303083438607317"><ele>450.0</ele><time>2026-05-03T15:42:45.999Z</time></trkpt><trkpt lat="43.562310559538545" lon="11.302995796126053"><ele>450.0</ele><time>2026-05-03T15:42:46.999Z</time></trkpt><trkpt lat="43.56224378944524" lon="11.302866632865321"><ele>450.0</ele><time>2026-05-03T15:42:48.999Z</time></trkpt><trkpt lat="43.56219314009675" lon="11.302806483724689"><ele>450.0</ele><time>2026-05-03T15:42:49.999Z</time></trkpt><trkpt lat="43.56219113207949" lon="11.302643252450366"><ele>452.5</ele><time>2026-05-03T15:42:51.999Z</time></trkpt><trkpt lat="43.5622576827866" lon="11.302555210192999"><ele>455.0</ele><time>2026-05-03T15:42:53.999Z</time></trkpt><trkpt lat="43.56229611903048" lon="11.302478184872722"><ele>457.5</ele><time>2026-05-03T15:42:54.999Z</time></trkpt><trkpt lat="43.56232560384741" lon="11.302318229752087"><ele>460.0</ele><time>2026-05-03T15:42:56.999Z</time></trkpt><trkpt lat="43.562301563155" lon="11.302194286864003"><ele>462.5</ele><time>2026-05-03T15:42:58.999Z</time></trkpt><trkpt lat="43.56230205995498" lon="11.302098834550138"><ele>465.0</ele><time>2026-05-03T15:43:00.999Z</time></trkpt><trkpt lat="43.562305088641004" lon="11.301974318324454"><ele>467.0</ele><time>2026-05-03T15:43:04.999Z</time></trkpt><trkpt lat="43.56232918181615" lon="11.301870460848688"><ele>469.0</ele><time>2026-05-03T15:43:06.999Z</time></trkpt><trkpt lat="43.56234027894935" lon="11.301768612435003"><ele>471.0</ele><time>2026-05-03T15:43:07.999Z</time></trkpt><trkpt lat="43.56232810974757" lon="11.30166856017385"><ele>473.0</ele><time>2026-05-03T15:43:08.999Z</time></trkpt><trkpt lat="43.562319496461356" lon="11.301559516747098"><ele>475.0</ele><time>2026-05-03T15:43:09.999Z</time></trkpt><trkpt lat="43.562315782824406" lon="11.301438324856258"><ele>477.0</ele><time>2026-05-03T15:43:10.999Z</time></trkpt><trkpt lat="43.56236447466308" lon="11.301324547940519"><ele>478.1666666666667</ele><time>2026-05-03T15:43:12.999Z</time></trkpt><trkpt lat="43.5624756050464" lon="11.301290087844798"><ele>479.33333333333337</ele><time>2026-05-03T15:43:14.999Z</time></trkpt><trkpt lat="43.562534806002155" lon="11.30126038566461"><ele>480.5</ele><time>2026-05-03T15:43:15.999Z</time></trkpt><trkpt lat="43.56253434756987" lon="11.30111949384423"><ele>481.6666666666667</ele><time>2026-05-03T15:43:17.999Z</time></trkpt><trkpt lat="43.56251311980708" lon="11.300993307237079"><ele>482.83333333333337</ele><time>2026-05-03T15:43:19Z</time></trkpt><trkpt lat="43.56251402638827" lon="11.300897405061454"><ele>484.0</ele><time>2026-05-03T15:43:20Z</time></trkpt><trkpt lat="43.56253161778563" lon="11.300811399582475"><ele>484.00000000000006</ele><time>2026-05-03T15:43:21Z</time></trkpt><trkpt lat="43.562552779405074" lon="11.30070618967574"><ele>484.0</ele><time>2026-05-03T15:43:22Z</time></trkpt><trkpt lat="43.56258520471091" lon="11.300601306434475"><ele>484.0</ele><time>2026-05-03T15:43:23Z</time></trkpt><trkpt lat="43.56262135779561" lon="11.300500046469638"><ele>484.0</ele><time>2026-05-03T15:43:24Z</time></trkpt><trkpt lat="43.56263436580278" lon="11.300402023425944"><ele>484.00000000000006</ele><time>2026-05-03T15:43:25Z</time></trkpt><trkpt lat="43.56264863662603" lon="11.30028511190068"><ele>484.0</ele><time>2026-05-03T15:43:26Z</time></trkpt><trkpt lat="43.562685769450326" lon="11.300145667990085"><ele>484.0</ele><time>2026-05-03T15:43:27Z</time></trkpt><trkpt lat="43.5627149351873" lon="11.300021009200734"><ele>484.0</ele><time>2026-05-03T15:43:28Z</time></trkpt><trkpt lat="43.56273315871241" lon="11.299933302368096"><ele>484.0</ele><time>2026-05-03T15:43:29Z</time></trkpt><trkpt lat="43.562764983612496" lon="11.299782449153657"><ele>484.0</ele><time>2026-05-03T15:43:31Z</time></trkpt><trkpt lat="43.562781230609694" lon="11.299612207924035"><ele>484.0</ele><time>2026-05-03T15:43:33Z</time></trkpt><trkpt lat="43.56277059954624" lon="11.299510775338623"><ele>483.6666666666667</ele><time>2026-05-03T15:43:34Z</time></trkpt><trkpt lat="43.56275236185382" lon="11.299398229646883"><ele>483.33333333333337</ele><time>2026-05-03T15:43:35Z</time></trkpt><trkpt lat="43.56275745792781" lon="11.299308051362711"><ele>483.0</ele><time>2026-05-03T15:43:36Z</time></trkpt><trkpt lat="43.562784161049976" lon="11.299209813463387"><ele>482.66666666666663</ele><time>2026-05-03T15:43:37Z</time></trkpt><trkpt lat="43.5628084321559" lon="11.299122737333317"><ele>482.3333333333333</ele><time>2026-05-03T15:43:38Z</time></trkpt><trkpt lat="43.56277370880661" lon="11.298952531052239"><ele>482.0</ele><time>2026-05-03T15:43:40Z</time></trkpt><trkpt lat="43.562744710445685" lon="11.298851654649805"><ele>482.99999999999994</ele><time>2026-05-03T15:43:41Z</time></trkpt><trkpt lat="43.562711181622895" lon="11.298753974534966"><ele>484.0</ele><time>2026-05-03T15:43:42Z</time></trkpt><trkpt lat="43.56268130055522" lon="11.298650991604525"><ele>485.0</ele><time>2026-05-03T15:43:43Z</time></trkpt><trkpt lat="43.562649399433596" lon="11.29853725095321"><ele>486.0</ele><time>2026-05-03T15:43:44Z</time></trkpt><trkpt lat="43.562607904345604" lon="11.298441893460756"><ele>486.99999999999994</ele><time>2026-05-03T15:43:45Z</time></trkpt><trkpt lat="43.56252329885406" lon="11.298329908198605"><ele>488.0</ele><time>2026-05-03T15:43:47Z</time></trkpt><trkpt lat="43.56249791212956" lon="11.29820260986633"><ele>488.0</ele><time>2026-05-03T15:43:49Z</time></trkpt><trkpt lat="43.562516186859135" lon="11.298116784738935"><ele>487.99999999999994</ele><time>2026-05-03T15:43:50Z</time></trkpt><trkpt lat="43.562556291288374" lon="11.298045562334257"><ele>487.99999999999994</ele><time>2026-05-03T15:43:51Z</time></trkpt><trkpt lat="43.56256246361274" lon="11.297943493717588"><ele>488.0</ele><time>2026-05-03T15:43:52.999Z</time></trkpt><trkpt lat="43.562456530008625" lon="11.29785756320574"><ele>488.0</ele><time>2026-05-03T15:43:55Z</time></trkpt><trkpt lat="43.56233183788417" lon="11.29782912143904"><ele>489.79999999999995</ele><time>2026-05-03T15:43:56.999Z</time></trkpt><trkpt lat="43.56221119599883" lon="11.297834275168091"><ele>491.59999999999997</ele><time>2026-05-03T15:43:58.999Z</time></trkpt><trkpt lat="43.56213595504989" lon="11.297807563214912"><ele>493.40000000000003</ele><time>2026-05-03T15:43:59.999Z</time></trkpt><trkpt lat="43.56206142371577" lon="11.297751103941904"><ele>495.20000000000005</ele><time>2026-05-03T15:44:00.999Z</time></trkpt><trkpt lat="43.561983293312025" lon="11.297689786221678"><ele>497.0</ele><time>2026-05-03T15:44:01.999Z</time></trkpt><trkpt lat="43.56191387098971" lon="11.29764521696852"><ele>498.40000000000003</ele><time>2026-05-03T15:44:02.999Z</time></trkpt><trkpt lat="43.56182541043395" lon="11.297577114806746"><ele>499.80000000000007</ele><time>2026-05-03T15:44:03.999Z</time></trkpt><trkpt lat="43.56172230569734" lon="11.297492494252102"><ele>501.2</ele><time>2026-05-03T15:44:04.999Z</time></trkpt><trkpt lat="43.56164731155219" lon="11.297416757446257"><ele>502.6</ele><time>2026-05-03T15:44:05.999Z</time></trkpt><trkpt lat="43.56157174981816" lon="11.297338306642141"><ele>504.0</ele><time>2026-05-03T15:44:06.999Z</time></trkpt><trkpt lat="43.56150289545187" lon="11.297264904493254"><ele>504.2</ele><time>2026-05-03T15:44:07.999Z</time></trkpt><trkpt lat="43.56143764396295" lon="11.297199394571873"><ele>504.4</ele><time>2026-05-03T15:44:08.999Z</time></trkpt><trkpt lat="43.56135453469687" lon="11.297140222033157"><ele>504.6</ele><time>2026-05-03T15:44:09.999Z</time></trkpt><trkpt lat="43.56126698614213" lon="11.297091312055105"><ele>504.8</ele><time>2026-05-03T15:44:10.999Z</time></trkpt><trkpt lat="43.561198279613606" lon="11.297031844353752"><ele>505.0</ele><time>2026-05-03T15:44:11.999Z</time></trkpt><trkpt lat="43.56109303927825" lon="11.296984999990178"><ele>505.0</ele><time>2026-05-03T15:44:13.999Z</time></trkpt><trkpt lat="43.56102495171773" lon="11.296993486847718"><ele>504.99999999999994</ele><time>2026-05-03T15:44:14.999Z</time></trkpt><trkpt lat="43.56095615451594" lon="11.296999684163733"><ele>505.0</ele><time>2026-05-03T15:44:15.999Z</time></trkpt><trkpt lat="43.560878889556896" lon="11.296993947876192"><ele>505.0</ele><time>2026-05-03T15:44:16.999Z</time></trkpt><trkpt lat="43.560811025716106" lon="11.296973870695563"><ele>504.99999999999994</ele><time>2026-05-03T15:44:17.999Z</time></trkpt><trkpt lat="43.56073799566043" lon="11.29693976067855"><ele>505.0</ele><time>2026-05-03T15:44:18.999Z</time></trkpt><trkpt lat="43.560669228780405" lon="11.296904918413711"><ele>505.0</ele><time>2026-05-03T15:44:19.999Z</time></trkpt><trkpt lat="43.56060089318353" lon="11.29689233914572"><ele>505.0</ele><time>2026-05-03T15:44:20.999Z</time></trkpt><trkpt lat="43.56048152236371" lon="11.29689050026026"><ele>505.0</ele><time>2026-05-03T15:44:22.999Z</time></trkpt><trkpt lat="43.560374678939176" lon="11.296871962972228"><ele>505.0</ele><time>2026-05-03T15:44:24.999Z</time></trkpt><trkpt lat="43.56031308965112" lon="11.296839528360765"><ele>505.0</ele><time>2026-05-03T15:44:25.999Z</time></trkpt><trkpt lat="43.56024102137358" lon="11.296743718423222"><ele>505.0</ele><time>2026-05-03T15:44:27.999Z</time></trkpt><trkpt lat="43.56027218021584" lon="11.296625417681787"><ele>505.0</ele><time>2026-05-03T15:44:42.999Z</time></trkpt><trkpt lat="43.560343795353496" lon="11.296582475047341"><ele>505.0</ele><time>2026-05-03T15:45:05.999Z</time></trkpt><trkpt lat="43.560414278707015" lon="11.296530761138575"><ele>505.0</ele><time>2026-05-03T15:45:06.999Z</time></trkpt><trkpt lat="43.56052047184273" lon="11.2964775381831"><ele>505.0</ele><time>2026-05-03T15:45:07.999Z</time></trkpt><trkpt lat="43.560652805516135" lon="11.29643592280684"><ele>505.0</ele><time>2026-05-03T15:45:08.999Z</time></trkpt><trkpt lat="43.560784551817115" lon="11.296339245088458"><ele>506.33333333333337</ele><time>2026-05-03T15:45:09.999Z</time></trkpt><trkpt lat="43.56094324606786" lon="11.296247103193538"><ele>507.66666666666663</ele><time>2026-05-03T15:45:10.999Z</time></trkpt><trkpt lat="43.56110148720782" lon="11.296149750622755"><ele>509.0</ele><time>2026-05-03T15:45:11.999Z</time></trkpt><trkpt lat="43.56124905093443" lon="11.296033121916995"><ele>509.0</ele><time>2026-05-03T15:45:12.999Z</time></trkpt><trkpt lat="43.56139556727667" lon="11.295897420554754"><ele>509.0</ele><time>2026-05-03T15:45:13.999Z</time></trkpt><trkpt lat="43.56152587595996" lon="11.295767883505906"><ele>509.0</ele><time>2026-05-03T15:45:14.999Z</time></trkpt><trkpt lat="43.561652764573616" lon="11.295683827977063"><ele>509.0</ele><time>2026-05-03T15:45:15.999Z</time></trkpt><trkpt lat="43.56177292839" lon="11.295628775743735"><ele>509.0</ele><time>2026-05-03T15:45:16.999Z</time></trkpt><trkpt lat="43.56189210069412" lon="11.295588194001725"><ele>509.0</ele><time>2026-05-03T15:45:17.999Z</time></trkpt><trkpt lat="43.56200900459098" lon="11.295542032588395"><ele>509.0</ele><time>2026-05-03T15:45:18.999Z</time></trkpt><trkpt lat="43.56211017171778" lon="11.295515603997828"><ele>506.2</ele><time>2026-05-03T15:45:19.999Z</time></trkpt><trkpt lat="43.56219109528142" lon="11.295460512142812"><ele>503.4</ele><time>2026-05-03T15:45:20.999Z</time></trkpt><trkpt lat="43.56225996225727" lon="11.295363738123887"><ele>500.6</ele><time>2026-05-03T15:45:21.999Z</time></trkpt><trkpt lat="43.562294075857615" lon="11.295224764839727"><ele>497.8</ele><time>2026-05-03T15:45:22.999Z</time></trkpt><trkpt lat="43.56230230911597" lon="11.295054763836502"><ele>495.0</ele><time>2026-05-03T15:45:23.999Z</time></trkpt><trkpt lat="43.562307818387694" lon="11.294864344657052"><ele>494.25</ele><time>2026-05-03T15:45:25Z</time></trkpt><trkpt lat="43.56232734491518" lon="11.294654590830492"><ele>493.5</ele><time>2026-05-03T15:45:26Z</time></trkpt><trkpt lat="43.562369460492185" lon="11.29445631607047"><ele>492.75</ele><time>2026-05-03T15:45:27Z</time></trkpt><trkpt lat="43.56241469475216" lon="11.294273889715853"><ele>492.0</ele><time>2026-05-03T15:45:28Z</time></trkpt><trkpt lat="43.56245997064801" lon="11.294094420897093"><ele>491.0</ele><time>2026-05-03T15:45:29Z</time></trkpt><trkpt lat="43.56250531141026" lon="11.293917474346081"><ele>490.0</ele><time>2026-05-03T15:45:30Z</time></trkpt><trkpt lat="43.56257161512744" lon="11.293769315897002"><ele>489.0</ele><time>2026-05-03T15:45:31Z</time></trkpt><trkpt lat="43.56261346495441" lon="11.293598587329374"><ele>488.0</ele><time>2026-05-03T15:45:32Z</time></trkpt><trkpt lat="43.56267292258142" lon="11.29343712109774"><ele>488.0</ele><time>2026-05-03T15:45:33Z</time></trkpt><trkpt lat="43.56273292065806" lon="11.293295580663253"><ele>488.0</ele><time>2026-05-03T15:45:34Z</time></trkpt><trkpt lat="43.56279062061019" lon="11.293158270457534"><ele>488.0</ele><time>2026-05-03T15:45:35Z</time></trkpt><trkpt lat="43.56285291245108" lon="11.293032410303708"><ele>488.0</ele><time>2026-05-03T15:45:36Z</time></trkpt><trkpt lat="43.562918508778154" lon="11.292909074944003"><ele>485.0</ele><time>2026-05-03T15:45:37Z</time></trkpt><trkpt lat="43.56299355575035" lon="11.29278045713937"><ele>482.0</ele><time>2026-05-03T15:45:38Z</time></trkpt><trkpt lat="43.56308092629357" lon="11.292644022457004"><ele>479.0</ele><time>2026-05-03T15:45:39Z</time></trkpt><trkpt lat="43.56317835440315" lon="11.292513065058017"><ele>476.0</ele><time>2026-05-03T15:45:40Z</time></trkpt><trkpt lat="43.56327726724301" lon="11.292396512520929"><ele>476.0</ele><time>2026-05-03T15:45:41Z</time></trkpt><trkpt lat="43.563389824642826" lon="11.292319960519055"><ele>476.0</ele><time>2026-05-03T15:45:42Z</time></trkpt><trkpt lat="43.56349383825807" lon="11.292240063478202"><ele>476.0</ele><time>2026-05-03T15:45:43Z</time></trkpt><trkpt lat="43.56360012238209" lon="11.292166808222182"><ele>476.0</ele><time>2026-05-03T15:45:44Z</time></trkpt><trkpt lat="43.56370717216322" lon="11.292100917409474"><ele>473.4</ele><time>2026-05-03T15:45:45Z</time></trkpt><trkpt lat="43.56381197602694" lon="11.29204989001282"><ele>470.8</ele><time>2026-05-03T15:45:46Z</time></trkpt><trkpt lat="43.56391574347292" lon="11.292012100283985"><ele>468.19999999999993</ele><time>2026-05-03T15:45:47Z</time></trkpt><trkpt lat="43.56401563819984" lon="11.291987885247384"><ele>465.59999999999997</ele><time>2026-05-03T15:45:48Z</time></trkpt><trkpt lat="43.56411665468768" lon="11.29197359925658"><ele>463.0</ele><time>2026-05-03T15:45:49Z</time></trkpt><trkpt lat="43.56420517751978" lon="11.291929716297739"><ele>463.0</ele><time>2026-05-03T15:45:50Z</time></trkpt><trkpt lat="43.5642872545387" lon="11.29186716131427"><ele>462.99999999999994</ele><time>2026-05-03T15:45:50.999Z</time></trkpt><trkpt lat="43.5643401020167" lon="11.291746569427989"><ele>462.99999999999994</ele><time>2026-05-03T15:45:51.999Z</time></trkpt><trkpt lat="43.56435177964534" lon="11.291598660694266"><ele>463.0</ele><time>2026-05-03T15:45:52.999Z</time></trkpt><trkpt lat="43.56431244393649" lon="11.29145082453965"><ele>463.0</ele><time>2026-05-03T15:45:53.999Z</time></trkpt><trkpt lat="43.56426170739684" lon="11.29132331272886"><ele>461.59999999999997</ele><time>2026-05-03T15:45:54.999Z</time></trkpt><trkpt lat="43.56424732995493" lon="11.291199396333411"><ele>460.19999999999993</ele><time>2026-05-03T15:45:55.999Z</time></trkpt><trkpt lat="43.56429737893341" lon="11.291073078253584"><ele>458.8</ele><time>2026-05-03T15:45:56.999Z</time></trkpt><trkpt lat="43.56441399201225" lon="11.291019019789589"><ele>457.4</ele><time>2026-05-03T15:45:57.999Z</time></trkpt><trkpt lat="43.56452763788991" lon="11.290932483780939"><ele>456.0</ele><time>2026-05-03T15:45:58.999Z</time></trkpt><trkpt lat="43.56463543461087" lon="11.290832928557466"><ele>456.25</ele><time>2026-05-03T15:45:59.999Z</time></trkpt><trkpt lat="43.56473673910039" lon="11.29074315508653"><ele>456.5</ele><time>2026-05-03T15:46:00.999Z</time></trkpt><trkpt lat="43.5648422573771" lon="11.290679329418925"><ele>456.75</ele><time>2026-05-03T15:46:01.999Z</time></trkpt><trkpt lat="43.56493467039845" lon="11.290587483466007"><ele>457.0</ele><time>2026-05-03T15:46:02.999Z</time></trkpt><trkpt lat="43.5650187562805" lon="11.290497574923288"><ele>457.0</ele><time>2026-05-03T15:46:03.999Z</time></trkpt><trkpt lat="43.5650953504913" lon="11.290404397525617"><ele>457.00000000000006</ele><time>2026-05-03T15:46:04.999Z</time></trkpt><trkpt lat="43.56516414489103" lon="11.290319307776823"><ele>457.00000000000006</ele><time>2026-05-03T15:46:05.999Z</time></trkpt><trkpt lat="43.5652082151449" lon="11.290247182037279"><ele>457.0</ele><time>2026-05-03T15:46:06.999Z</time></trkpt><trkpt lat="43.56526393585114" lon="11.290149108022572"><ele>457.0</ele><time>2026-05-03T15:46:08.999Z</time></trkpt><trkpt lat="43.56536199689403" lon="11.290027915065016"><ele>457.20000000000005</ele><time>2026-05-03T15:46:10.999Z</time></trkpt><trkpt lat="43.56551141451879" lon="11.290004357880628"><ele>457.40000000000003</ele><time>2026-05-03T15:46:12.999Z</time></trkpt><trkpt lat="43.56561181757415" lon="11.290011307226886"><ele>457.59999999999997</ele><time>2026-05-03T15:46:13.999Z</time></trkpt><trkpt lat="43.56570543499253" lon="11.290052557595173"><ele>457.79999999999995</ele><time>2026-05-03T15:46:14.999Z</time></trkpt><trkpt lat="43.56578893616792" lon="11.290077741102351"><ele>458.0</ele><time>2026-05-03T15:46:15.999Z</time></trkpt><trkpt lat="43.56585061386957" lon="11.290130127599177"><ele>458.0</ele><time>2026-05-03T15:46:16.999Z</time></trkpt><trkpt lat="43.56590517612158" lon="11.290177799446516"><ele>458.0</ele><time>2026-05-03T15:46:17.999Z</time></trkpt><trkpt lat="43.5659657677415" lon="11.290218840061687"><ele>458.0</ele><time>2026-05-03T15:46:18.999Z</time></trkpt><trkpt lat="43.566037587979636" lon="11.290262869347409"><ele>458.0</ele><time>2026-05-03T15:46:19.999Z</time></trkpt><trkpt lat="43.5661084608391" lon="11.29027885040048"><ele>458.0</ele><time>2026-05-03T15:46:20.999Z</time></trkpt><trkpt lat="43.56617416234177" lon="11.290267797337982"><ele>458.0</ele><time>2026-05-03T15:46:21.999Z</time></trkpt><trkpt lat="43.5662303609305" lon="11.290227461228136"><ele>458.0</ele><time>2026-05-03T15:46:22.999Z</time></trkpt><trkpt lat="43.566287160650695" lon="11.29018358698861"><ele>457.0</ele><time>2026-05-03T15:46:23.999Z</time></trkpt><trkpt lat="43.56638594122258" lon="11.290162821364824"><ele>456.0</ele><time>2026-05-03T15:46:25.999Z</time></trkpt><trkpt lat="43.566358652336554" lon="11.289948581741262"><ele>455.0</ele><time>2026-05-03T15:46:27.999Z</time></trkpt><trkpt lat="43.56629346110008" lon="11.289869241223073"><ele>454.0</ele><time>2026-05-03T15:46:28.999Z</time></trkpt><trkpt lat="43.56621109867306" lon="11.289772476536438"><ele>454.0</ele><time>2026-05-03T15:46:29.999Z</time></trkpt><trkpt lat="43.56612537272046" lon="11.289673711024951"><ele>454.0</ele><time>2026-05-03T15:46:30.999Z</time></trkpt><trkpt lat="43.566020395355686" lon="11.289597783460055"><ele>454.0</ele><time>2026-05-03T15:46:31.999Z</time></trkpt><trkpt lat="43.5658871420666" lon="11.289557666826779"><ele>454.0</ele><time>2026-05-03T15:46:32.999Z</time></trkpt><trkpt lat="43.565760130658106" lon="11.289460809342991"><ele>454.0</ele><time>2026-05-03T15:46:33.999Z</time></trkpt><trkpt lat="43.565640985480584" lon="11.289367250942002"><ele>454.0</ele><time>2026-05-03T15:46:34.999Z</time></trkpt><trkpt lat="43.56551214454637" lon="11.289317497270426"><ele>454.0</ele><time>2026-05-03T15:46:35.999Z</time></trkpt><trkpt lat="43.565415316749664" lon="11.2892705283796"><ele>454.0</ele><time>2026-05-03T15:46:36.999Z</time></trkpt><trkpt lat="43.56531957983568" lon="11.28923513763594"><ele>454.79999999999995</ele><time>2026-05-03T15:46:37.999Z</time></trkpt><trkpt lat="43.56522082295463" lon="11.289145403012736"><ele>455.59999999999997</ele><time>2026-05-03T15:46:38.999Z</time></trkpt><trkpt lat="43.56513377914468" lon="11.289051927439694"><ele>456.4</ele><time>2026-05-03T15:46:39.999Z</time></trkpt><trkpt lat="43.56505512942419" lon="11.288964490136497"><ele>457.2</ele><time>2026-05-03T15:46:40.999Z</time></trkpt><trkpt lat="43.564980914364845" lon="11.288908356677608"><ele>458.0</ele><time>2026-05-03T15:46:41.999Z</time></trkpt><trkpt lat="43.56489077831736" lon="11.288849962008054"><ele>456.59999999999997</ele><time>2026-05-03T15:46:42.999Z</time></trkpt><trkpt lat="43.564787241377836" lon="11.288806597496366"><ele>455.19999999999993</ele><time>2026-05-03T15:46:43.999Z</time></trkpt><trkpt lat="43.56471401471156" lon="11.288735755782549"><ele>453.8</ele><time>2026-05-03T15:46:44.999Z</time></trkpt><trkpt lat="43.5646575485329" lon="11.288690924445106"><ele>452.4</ele><time>2026-05-03T15:46:46Z</time></trkpt><trkpt lat="43.56459647826824" lon="11.288633441247596"><ele>451.0</ele><time>2026-05-03T15:46:46.999Z</time></trkpt><trkpt lat="43.56451662330215" lon="11.288511110132507"><ele>451.00000000000006</ele><time>2026-05-03T15:46:48.999Z</time></trkpt><trkpt lat="43.56447737662546" lon="11.288440790910872"><ele>451.0</ele><time>2026-05-03T15:46:49.999Z</time></trkpt><trkpt lat="43.56440177521564" lon="11.288331569947303"><ele>451.0</ele><time>2026-05-03T15:46:51.999Z</time></trkpt><trkpt lat="43.56437054251138" lon="11.288228481203273"><ele>451.0</ele><time>2026-05-03T15:46:53.999Z</time></trkpt><trkpt lat="43.564435296067536" lon="11.288156780001003"><ele>451.00000000000006</ele><time>2026-05-03T15:46:54.999Z</time></trkpt><trkpt lat="43.56446857694656" lon="11.28807076030338"><ele>451.0</ele><time>2026-05-03T15:46:55.999Z</time></trkpt><trkpt lat="43.56450545090013" lon="11.287968520146338"><ele>449.20000000000005</ele><time>2026-05-03T15:46:56.999Z</time></trkpt><trkpt lat="43.564545967639184" lon="11.287848970066825"><ele>447.40000000000003</ele><time>2026-05-03T15:46:57.999Z</time></trkpt><trkpt lat="43.56457294919674" lon="11.28771918926384"><ele>445.6</ele><time>2026-05-03T15:46:58.999Z</time></trkpt><trkpt lat="43.564624788140264" lon="11.287610097504835"><ele>443.8</ele><time>2026-05-03T15:46:59.999Z</time></trkpt><trkpt lat="43.56464465299074" lon="11.287493731410503"><ele>442.0</ele><time>2026-05-03T15:47:00.999Z</time></trkpt><trkpt lat="43.56467280244088" lon="11.287390631176025"><ele>442.00000000000006</ele><time>2026-05-03T15:47:01.999Z</time></trkpt><trkpt lat="43.5646848244231" lon="11.287279371951271"><ele>442.0</ele><time>2026-05-03T15:47:02.999Z</time></trkpt><trkpt lat="43.564688617386686" lon="11.287167549966284"><ele>442.0</ele><time>2026-05-03T15:47:03.999Z</time></trkpt><trkpt lat="43.5646772205839" lon="11.287059075547152"><ele>442.0</ele><time>2026-05-03T15:47:04.999Z</time></trkpt><trkpt lat="43.56466832070769" lon="11.286946007771945"><ele>442.00000000000006</ele><time>2026-05-03T15:47:05.999Z</time></trkpt><trkpt lat="43.564665891495196" lon="11.286835153016131"><ele>442.0</ele><time>2026-05-03T15:47:06.999Z</time></trkpt><trkpt lat="43.56467136849133" lon="11.286717690464036"><ele>441.83333333333337</ele><time>2026-05-03T15:47:07.999Z</time></trkpt><trkpt lat="43.564702048945534" lon="11.286599449431536"><ele>441.6666666666667</ele><time>2026-05-03T15:47:08.999Z</time></trkpt><trkpt lat="43.56472306728997" lon="11.286480213458674"><ele>441.5</ele><time>2026-05-03T15:47:09.999Z</time></trkpt><trkpt lat="43.564739882270786" lon="11.28637728269643"><ele>441.33333333333337</ele><time>2026-05-03T15:47:10.999Z</time></trkpt><trkpt lat="43.5647394278191" lon="11.286278830035673"><ele>441.1666666666667</ele><time>2026-05-03T15:47:11.999Z</time></trkpt><trkpt lat="43.564756070241025" lon="11.286186068577335"><ele>441.0</ele><time>2026-05-03T15:47:12.999Z</time></trkpt><trkpt lat="43.56478961030958" lon="11.286097020945817"><ele>441.0</ele><time>2026-05-03T15:47:13.999Z</time></trkpt><trkpt lat="43.56480575923582" lon="11.28600432989733"><ele>441.0</ele><time>2026-05-03T15:47:14.999Z</time></trkpt><trkpt lat="43.56481945978882" lon="11.285899215058034"><ele>441.0</ele><time>2026-05-03T15:47:15.999Z</time></trkpt><trkpt lat="43.564820962054974" lon="11.285807879066462"><ele>441.0</ele><time>2026-05-03T15:47:16.999Z</time></trkpt><trkpt lat="43.56479796217267" lon="11.285705911738393"><ele>441.0</ele><time>2026-05-03T15:47:17.999Z</time></trkpt><trkpt lat="43.564784565331635" lon="11.285614732260907"><ele>441.0</ele><time>2026-05-03T15:47:18.999Z</time></trkpt><trkpt lat="43.564767094949616" lon="11.285516416724969"><ele>441.0</ele><time>2026-05-03T15:47:19.999Z</time></trkpt><trkpt lat="43.56477949357674" lon="11.28539839543023"><ele>439.5</ele><time>2026-05-03T15:47:20.999Z</time></trkpt><trkpt lat="43.56478207380541" lon="11.285235175698665"><ele>438.0</ele><time>2026-05-03T15:47:21.999Z</time></trkpt><trkpt lat="43.564780629626966" lon="11.285078661771413"><ele>436.5</ele><time>2026-05-03T15:47:22.999Z</time></trkpt><trkpt lat="43.56473610269728" lon="11.284890225759098"><ele>435.0</ele><time>2026-05-03T15:47:23.999Z</time></trkpt><trkpt lat="43.56468823869286" lon="11.284669593244672"><ele>432.66666666666663</ele><time>2026-05-03T15:47:24.999Z</time></trkpt><trkpt lat="43.56464287099903" lon="11.284429764949548"><ele>430.3333333333333</ele><time>2026-05-03T15:47:25.999Z</time></trkpt><trkpt lat="43.56457888351656" lon="11.28416897762274"><ele>428.0</ele><time>2026-05-03T15:47:26.999Z</time></trkpt><trkpt lat="43.564557074953726" lon="11.283952024577518"><ele>425.59999999999997</ele><time>2026-05-03T15:47:27.999Z</time></trkpt><trkpt lat="43.564541378526044" lon="11.283808794526724"><ele>423.19999999999993</ele><time>2026-05-03T15:47:28.999Z</time></trkpt><trkpt lat="43.56454725859706" lon="11.283700745769204"><ele>420.8</ele><time>2026-05-03T15:47:29.999Z</time></trkpt><trkpt lat="43.56452550399518" lon="11.283547900464237"><ele>418.4</ele><time>2026-05-03T15:47:31.999Z</time></trkpt><trkpt lat="43.5645024352126" lon="11.283461934539432"><ele>416.0</ele><time>2026-05-03T15:47:32.999Z</time></trkpt><trkpt lat="43.564456597534026" lon="11.283352998736463"><ele>415.4</ele><time>2026-05-03T15:47:33.999Z</time></trkpt><trkpt lat="43.564395545147825" lon="11.283202703952957"><ele>414.8</ele><time>2026-05-03T15:47:34.999Z</time></trkpt><trkpt lat="43.56433794079103" lon="11.283046430255071"><ele>414.2</ele><time>2026-05-03T15:47:35.999Z</time></trkpt><trkpt lat="43.56429555566767" lon="11.282928834550615"><ele>413.59999999999997</ele><time>2026-05-03T15:47:36.999Z</time></trkpt><trkpt lat="43.564265657805194" lon="11.282799062229472"><ele>413.0</ele><time>2026-05-03T15:47:37.999Z</time></trkpt><trkpt lat="43.56424469528009" lon="11.282649330483562"><ele>412.0</ele><time>2026-05-03T15:47:38.999Z</time></trkpt><trkpt lat="43.56423502655078" lon="11.282520976903331"><ele>411.0</ele><time>2026-05-03T15:47:39.999Z</time></trkpt><trkpt lat="43.56421828254751" lon="11.28242171992351"><ele>410.0</ele><time>2026-05-03T15:47:40.999Z</time></trkpt><trkpt lat="43.56418111965183" lon="11.282321259387531"><ele>409.0</ele><time>2026-05-03T15:47:41.999Z</time></trkpt><trkpt lat="43.56412155274446" lon="11.282176741138814"><ele>408.0</ele><time>2026-05-03T15:47:42.999Z</time></trkpt><trkpt lat="43.56406721420976" lon="11.282039327806052"><ele>406.0</ele><time>2026-05-03T15:47:43.999Z</time></trkpt><trkpt lat="43.564018343674434" lon="11.281921553999402"><ele>404.0</ele><time>2026-05-03T15:47:44.999Z</time></trkpt><trkpt lat="43.56396610451149" lon="11.281796515013172"><ele>402.0</ele><time>2026-05-03T15:47:45.999Z</time></trkpt><trkpt lat="43.56394916992249" lon="11.281648703922398"><ele>400.0</ele><time>2026-05-03T15:47:46.999Z</time></trkpt><trkpt lat="43.56389771549539" lon="11.281550708519"><ele>398.0</ele><time>2026-05-03T15:47:47.999Z</time></trkpt><trkpt lat="43.56386545179776" lon="11.281457153693012"><ele>395.99999999999994</ele><time>2026-05-03T15:47:48.999Z</time></trkpt><trkpt lat="43.563834743954324" lon="11.281304372814983"><ele>394.0</ele><time>2026-05-03T15:47:50.999Z</time></trkpt><trkpt lat="43.563869723521826" lon="11.281212183119653"><ele>392.0</ele><time>2026-05-03T15:47:52.999Z</time></trkpt><trkpt lat="43.56392939515946" lon="11.281158424604957"><ele>390.0</ele><time>2026-05-03T15:47:53.999Z</time></trkpt><trkpt lat="43.563986786240974" lon="11.281083338926472"><ele>387.99999999999994</ele><time>2026-05-03T15:47:54.999Z</time></trkpt><trkpt lat="43.564060354173904" lon="11.281026996546219"><ele>386.0</ele><time>2026-05-03T15:47:55.999Z</time></trkpt><trkpt lat="43.56411571002246" lon="11.280914270627322"><ele>385.99999999999994</ele><time>2026-05-03T15:47:56.999Z</time></trkpt><trkpt lat="43.56418804799893" lon="11.280818176079203"><ele>386.0</ele><time>2026-05-03T15:47:57.999Z</time></trkpt><trkpt lat="43.56425145299312" lon="11.280741963860963"><ele>386.0</ele><time>2026-05-03T15:47:58.999Z</time></trkpt><trkpt lat="43.56432554997637" lon="11.280659963488144"><ele>386.0</ele><time>2026-05-03T15:47:59.999Z</time></trkpt><trkpt lat="43.56437493542688" lon="11.280592020853891"><ele>385.99999999999994</ele><time>2026-05-03T15:48:00.999Z</time></trkpt><trkpt lat="43.56442339517608" lon="11.280481993673943"><ele>386.0</ele><time>2026-05-03T15:48:02.999Z</time></trkpt><trkpt lat="43.56435692506759" lon="11.280361704154767"><ele>384.8</ele><time>2026-05-03T15:48:03.999Z</time></trkpt><trkpt lat="43.56432988560619" lon="11.280254183200404"><ele>383.6</ele><time>2026-05-03T15:48:04.999Z</time></trkpt><trkpt lat="43.56428255306352" lon="11.280154159807736"><ele>382.4</ele><time>2026-05-03T15:48:05.999Z</time></trkpt><trkpt lat="43.56422961139424" lon="11.280075043009058"><ele>381.2</ele><time>2026-05-03T15:48:06.999Z</time></trkpt><trkpt lat="43.56417160655876" lon="11.280006775290822"><ele>380.0</ele><time>2026-05-03T15:48:08Z</time></trkpt><trkpt lat="43.56407078597401" lon="11.27990133856669"><ele>380.0</ele><time>2026-05-03T15:48:10Z</time></trkpt><trkpt lat="43.563967643209054" lon="11.279832051657966"><ele>380.0</ele><time>2026-05-03T15:48:12Z</time></trkpt><trkpt lat="43.56387895552547" lon="11.279732761352877"><ele>380.0</ele><time>2026-05-03T15:48:14Z</time></trkpt><trkpt lat="43.56382232742987" lon="11.279693598001645"><ele>380.0</ele><time>2026-05-03T15:48:17Z</time></trkpt><trkpt lat="43.56375207135083" lon="11.279631413458624"><ele>380.0</ele><time>2026-05-03T15:48:20Z</time></trkpt><trkpt lat="43.56367947981066" lon="11.27957948037169"><ele>378.33333333333337</ele><time>2026-05-03T15:48:21Z</time></trkpt><trkpt lat="43.563609230426366" lon="11.27954562356937"><ele>376.6666666666667</ele><time>2026-05-03T15:48:22Z</time></trkpt><trkpt lat="43.56355271312803" lon="11.279487303463362"><ele>375.0</ele><time>2026-05-03T15:48:23Z</time></trkpt><trkpt lat="43.56350028819986" lon="11.279391604752972"><ele>373.3333333333333</ele><time>2026-05-03T15:48:24Z</time></trkpt><trkpt lat="43.56348369419953" lon="11.279269727241424"><ele>371.66666666666663</ele><time>2026-05-03T15:48:25Z</time></trkpt><trkpt lat="43.563446764523036" lon="11.279183567742145"><ele>370.0</ele><time>2026-05-03T15:48:26Z</time></trkpt><trkpt lat="43.56342788248755" lon="11.279098519323222"><ele>370.0</ele><time>2026-05-03T15:48:27Z</time></trkpt><trkpt lat="43.56339423203311" lon="11.27898082998358"><ele>370.0</ele><time>2026-05-03T15:48:29Z</time></trkpt><trkpt lat="43.56337317801024" lon="11.278884261191072"><ele>370.0</ele><time>2026-05-03T15:48:32Z</time></trkpt><trkpt lat="43.563163832465165" lon="11.27894720083918"><ele>370.0</ele><time>2026-05-03T15:48:33Z</time></trkpt><trkpt lat="43.56306848888298" lon="11.278950306551986"><ele>370.0</ele><time>2026-05-03T15:48:34Z</time></trkpt><trkpt lat="43.562994177742496" lon="11.278941511456505"><ele>370.0</ele><time>2026-05-03T15:48:35Z</time></trkpt><trkpt lat="43.5629183994024" lon="11.2789434798911"><ele>370.0</ele><time>2026-05-03T15:48:36Z</time></trkpt><trkpt lat="43.562837075505044" lon="11.278928948657594"><ele>370.0</ele><time>2026-05-03T15:48:37Z</time></trkpt><trkpt lat="43.56277718653634" lon="11.278886406851285"><ele>370.0</ele><time>2026-05-03T15:48:38Z</time></trkpt><trkpt lat="43.56270271141722" lon="11.278819776163818"><ele>370.0</ele><time>2026-05-03T15:48:40Z</time></trkpt><trkpt lat="43.56261195234764" lon="11.278707221265488"><ele>368.4285714285714</ele><time>2026-05-03T15:48:42Z</time></trkpt><trkpt lat="43.562559921887924" lon="11.278635973205184"><ele>366.85714285714283</ele><time>2026-05-03T15:48:43Z</time></trkpt><trkpt lat="43.56251172079524" lon="11.278575575910029"><ele>365.2857142857143</ele><time>2026-05-03T15:48:44Z</time></trkpt><trkpt lat="43.56247011407803" lon="11.278500828183493"><ele>363.71428571428567</ele><time>2026-05-03T15:48:45Z</time></trkpt><trkpt lat="43.56244979912253" lon="11.278415602301523"><ele>362.14285714285717</ele><time>2026-05-03T15:48:46Z</time></trkpt><trkpt lat="43.56241989199109" lon="11.278319972923093"><ele>360.57142857142856</ele><time>2026-05-03T15:48:47Z</time></trkpt><trkpt lat="43.56235964568739" lon="11.278226766454427"><ele>359.0</ele><time>2026-05-03T15:48:48Z</time></trkpt><trkpt lat="43.5622943283473" lon="11.278121758838967"><ele>359.4</ele><time>2026-05-03T15:48:49Z</time></trkpt><trkpt lat="43.56223994679606" lon="11.278042963758647"><ele>359.79999999999995</ele><time>2026-05-03T15:48:50Z</time></trkpt><trkpt lat="43.562194189998635" lon="11.277944584516982"><ele>360.20000000000005</ele><time>2026-05-03T15:48:51Z</time></trkpt><trkpt lat="43.5621271376454" lon="11.277821390833227"><ele>360.6</ele><time>2026-05-03T15:48:52Z</time></trkpt><trkpt lat="43.56205630437042" lon="11.277712724819931"><ele>361.0</ele><time>2026-05-03T15:48:53Z</time></trkpt><trkpt lat="43.56200814596468" lon="11.27762667148437"><ele>357.66666666666663</ele><time>2026-05-03T15:48:54Z</time></trkpt><trkpt lat="43.56195443511278" lon="11.277512877739875"><ele>354.3333333333333</ele><time>2026-05-03T15:48:55Z</time></trkpt><trkpt lat="43.561900822554655" lon="11.277406530903608"><ele>351.0</ele><time>2026-05-03T15:48:56Z</time></trkpt><trkpt lat="43.56184509456164" lon="11.27730919487174"><ele>347.6666666666667</ele><time>2026-05-03T15:48:57Z</time></trkpt><trkpt lat="43.561799506339305" lon="11.27722007964555"><ele>344.33333333333337</ele><time>2026-05-03T15:48:58Z</time></trkpt><trkpt lat="43.56175824997066" lon="11.277135073281611"><ele>341.0</ele><time>2026-05-03T15:48:59Z</time></trkpt><trkpt lat="43.561722394101665" lon="11.277054901206409"><ele>341.0</ele><time>2026-05-03T15:49:00Z</time></trkpt><trkpt lat="43.561690244134304" lon="11.276914578641076"><ele>341.0</ele><time>2026-05-03T15:49:02Z</time></trkpt><trkpt lat="43.56167421690221" lon="11.276740156060189"><ele>341.0</ele><time>2026-05-03T15:49:04Z</time></trkpt><trkpt lat="43.56166303945163" lon="11.276648605749084"><ele>341.0</ele><time>2026-05-03T15:49:05Z</time></trkpt><trkpt lat="43.56163405914717" lon="11.276564441729532"><ele>341.0</ele><time>2026-05-03T15:49:06Z</time></trkpt><trkpt lat="43.56160019347668" lon="11.27647283344813"><ele>341.0</ele><time>2026-05-03T15:49:07Z</time></trkpt><trkpt lat="43.561556389008835" lon="11.276347907372989"><ele>340.33333333333337</ele><time>2026-05-03T15:49:08Z</time></trkpt><trkpt lat="43.56152251714525" lon="11.276225907424841"><ele>339.6666666666667</ele><time>2026-05-03T15:49:09Z</time></trkpt><trkpt lat="43.561504315532126" lon="11.276122971019353"><ele>339.0</ele><time>2026-05-03T15:49:10Z</time></trkpt><trkpt lat="43.56147776634661" lon="11.276011307848629"><ele>338.3333333333333</ele><time>2026-05-03T15:49:11Z</time></trkpt><trkpt lat="43.56143924610211" lon="11.275925962411836"><ele>337.66666666666663</ele><time>2026-05-03T15:49:12Z</time></trkpt><trkpt lat="43.5614070050927" lon="11.275847785479485"><ele>337.0</ele><time>2026-05-03T15:49:13Z</time></trkpt><trkpt lat="43.5613442141368" lon="11.275717794414199"><ele>337.0</ele><time>2026-05-03T15:49:15Z</time></trkpt><trkpt lat="43.561260655029955" lon="11.275612710035912"><ele>337.0</ele><time>2026-05-03T15:49:17Z</time></trkpt><trkpt lat="43.56124283799684" lon="11.275521876101012"><ele>337.0</ele><time>2026-05-03T15:49:18Z</time></trkpt><trkpt lat="43.5611684612945" lon="11.275404418721845"><ele>337.0</ele><time>2026-05-03T15:49:19Z</time></trkpt><trkpt lat="43.56114360040544" lon="11.275308093942277"><ele>337.0</ele><time>2026-05-03T15:49:20Z</time></trkpt><trkpt lat="43.56111417404167" lon="11.275226880008299"><ele>337.0</ele><time>2026-05-03T15:49:21Z</time></trkpt><trkpt lat="43.56107505460707" lon="11.275151684989995"><ele>332.6</ele><time>2026-05-03T15:49:22Z</time></trkpt><trkpt lat="43.5610360916302" lon="11.275041574179436"><ele>328.20000000000005</ele><time>2026-05-03T15:49:23Z</time></trkpt><trkpt lat="43.560992777239655" lon="11.274935287177216"><ele>323.8</ele><time>2026-05-03T15:49:24Z</time></trkpt><trkpt lat="43.560953087981616" lon="11.274839110104947"><ele>319.4</ele><time>2026-05-03T15:49:25Z</time></trkpt><trkpt lat="43.56087724296626" lon="11.274690614070163"><ele>315.0</ele><time>2026-05-03T15:49:27Z</time></trkpt><trkpt lat="43.56084215453232" lon="11.27455657028255"><ele>313.75</ele><time>2026-05-03T15:49:29Z</time></trkpt><trkpt lat="43.560826160000296" lon="11.274399544862003"><ele>312.5</ele><time>2026-05-03T15:49:31Z</time></trkpt><trkpt lat="43.56080728644761" lon="11.27426654740362"><ele>311.25</ele><time>2026-05-03T15:49:33Z</time></trkpt><trkpt lat="43.560807472788504" lon="11.274107669098765"><ele>310.0</ele><time>2026-05-03T15:49:35Z</time></trkpt><trkpt lat="43.560863123468145" lon="11.273938046337046"><ele>307.4</ele><time>2026-05-03T15:49:37Z</time></trkpt><trkpt lat="43.56090978431425" lon="11.273796955763801"><ele>304.8</ele><time>2026-05-03T15:49:39Z</time></trkpt><trkpt lat="43.56089264860701" lon="11.2736542040241"><ele>302.2</ele><time>2026-05-03T15:49:41Z</time></trkpt><trkpt lat="43.5608209813297" lon="11.27358760239663"><ele>299.6</ele><time>2026-05-03T15:49:43Z</time></trkpt><trkpt lat="43.560726623438526" lon="11.273569207490885"><ele>297.0</ele><time>2026-05-03T15:49:45Z</time></trkpt><trkpt lat="43.56063930712298" lon="11.27353434489704"><ele>297.0</ele><time>2026-05-03T15:49:47Z</time></trkpt><trkpt lat="43.560565001316114" lon="11.273534920125282"><ele>297.0</ele><time>2026-05-03T15:49:48Z</time></trkpt><trkpt lat="43.56048106070497" lon="11.273529869103207"><ele>297.0</ele><time>2026-05-03T15:49:49Z</time></trkpt><trkpt lat="43.56039832500341" lon="11.273516714064655"><ele>297.0</ele><time>2026-05-03T15:49:50Z</time></trkpt><trkpt lat="43.5603173647488" lon="11.273473408338386"><ele>297.0</ele><time>2026-05-03T15:49:52Z</time></trkpt><trkpt lat="43.56023993909209" lon="11.27339205456543"><ele>297.0</ele><time>2026-05-03T15:49:54Z</time></trkpt><trkpt lat="43.56011285620367" lon="11.273310485940732"><ele>295.8333333333333</ele><time>2026-05-03T15:49:56Z</time></trkpt><trkpt lat="43.56003642662046" lon="11.273305443573165"><ele>294.6666666666667</ele><time>2026-05-03T15:49:57Z</time></trkpt><trkpt lat="43.559963263474685" lon="11.273314803986583"><ele>293.5</ele><time>2026-05-03T15:49:58Z</time></trkpt><trkpt lat="43.55987577497492" lon="11.273276383199837"><ele>292.33333333333337</ele><time>2026-05-03T15:50:00Z</time></trkpt><trkpt lat="43.55981383099409" lon="11.273224290296243"><ele>291.1666666666667</ele><time>2026-05-03T15:50:01Z</time></trkpt><trkpt lat="43.55972930682375" lon="11.273172955516378"><ele>290.0</ele><time>2026-05-03T15:50:02Z</time></trkpt><trkpt lat="43.559673060966155" lon="11.273111221922376"><ele>290.0</ele><time>2026-05-03T15:50:03Z</time></trkpt><trkpt lat="43.559599590613004" lon="11.27303434064289"><ele>290.0</ele><time>2026-05-03T15:50:04Z</time></trkpt><trkpt lat="43.559532289434514" lon="11.273059168445382"><ele>290.0</ele><time>2026-05-03T15:50:06Z</time></trkpt><trkpt lat="43.559455117538874" lon="11.273029219001202"><ele>290.0</ele><time>2026-05-03T15:50:09Z</time></trkpt><trkpt lat="43.559425617238155" lon="11.272921800131646"><ele>290.0</ele><time>2026-05-03T15:50:11Z</time></trkpt><trkpt lat="43.55938100083156" lon="11.272846092577318"><ele>290.0</ele><time>2026-05-03T15:50:12Z</time></trkpt><trkpt lat="43.55935118910895" lon="11.27276957857543"><ele>289.5</ele><time>2026-05-03T15:50:13Z</time></trkpt><trkpt lat="43.55930613292278" lon="11.272681145815058"><ele>289.0</ele><time>2026-05-03T15:50:14Z</time></trkpt><trkpt lat="43.559250808626786" lon="11.272608646479892"><ele>288.5</ele><time>2026-05-03T15:50:15Z</time></trkpt><trkpt lat="43.55913855387537" lon="11.272560496389923"><ele>288.0</ele><time>2026-05-03T15:50:17Z</time></trkpt><trkpt lat="43.55906922256242" lon="11.27255511603517"><ele>287.5</ele><time>2026-05-03T15:50:18Z</time></trkpt><trkpt lat="43.55899364645549" lon="11.27253923088963"><ele>287.0</ele><time>2026-05-03T15:50:19Z</time></trkpt><trkpt lat="43.55893037340578" lon="11.272493004085394"><ele>287.0</ele><time>2026-05-03T15:50:20Z</time></trkpt><trkpt lat="43.558859033553844" lon="11.272432012609386"><ele>287.0</ele><time>2026-05-03T15:50:21Z</time></trkpt><trkpt lat="43.55878162461509" lon="11.272385639425334"><ele>287.0</ele><time>2026-05-03T15:50:22Z</time></trkpt><trkpt lat="43.55871530432952" lon="11.272348508432287"><ele>287.0</ele><time>2026-05-03T15:50:23Z</time></trkpt><trkpt lat="43.558640463334925" lon="11.27226767355313"><ele>287.0</ele><time>2026-05-03T15:50:25Z</time></trkpt><trkpt lat="43.55866293955295" lon="11.272096945176012"><ele>287.8</ele><time>2026-05-03T15:50:27Z</time></trkpt><trkpt lat="43.558688961715795" lon="11.272004586434662"><ele>288.6</ele><time>2026-05-03T15:50:28Z</time></trkpt><trkpt lat="43.55878565561085" lon="11.271953855526542"><ele>289.40000000000003</ele><time>2026-05-03T15:50:30Z</time></trkpt><trkpt lat="43.55885065006291" lon="11.271975566822752"><ele>290.2</ele><time>2026-05-03T15:50:31Z</time></trkpt><trkpt lat="43.55894981265904" lon="11.27195762918028"><ele>291.0</ele><time>2026-05-03T15:50:33Z</time></trkpt><trkpt lat="43.55904367720197" lon="11.271882641148517"><ele>293.0</ele><time>2026-05-03T15:50:35Z</time></trkpt><trkpt lat="43.55915075545961" lon="11.271845217332302"><ele>295.0</ele><time>2026-05-03T15:50:37Z</time></trkpt><trkpt lat="43.559248318283956" lon="11.271829762983298"><ele>297.0</ele><time>2026-05-03T15:50:39Z</time></trkpt><trkpt lat="43.559352379039204" lon="11.271810988116377"><ele>299.0</ele><time>2026-05-03T15:50:41Z</time></trkpt><trkpt lat="43.55946382442172" lon="11.271780462129058"><ele>301.0</ele><time>2026-05-03T15:50:43Z</time></trkpt><trkpt lat="43.55952928666114" lon="11.271755939033046"><ele>303.66666666666663</ele><time>2026-05-03T15:50:44Z</time></trkpt><trkpt lat="43.55960636534415" lon="11.271751105403627"><ele>306.3333333333333</ele><time>2026-05-03T15:50:45Z</time></trkpt><trkpt lat="43.55969654550985" lon="11.271742656694942"><ele>309.0</ele><time>2026-05-03T15:50:46Z</time></trkpt><trkpt lat="43.55975825016293" lon="11.271724414161667"><ele>311.6666666666667</ele><time>2026-05-03T15:50:47Z</time></trkpt><trkpt lat="43.55983260758988" lon="11.271695959916244"><ele>314.33333333333337</ele><time>2026-05-03T15:50:48Z</time></trkpt><trkpt lat="43.55990193502669" lon="11.271667356668116"><ele>317.0</ele><time>2026-05-03T15:50:49Z</time></trkpt><trkpt lat="43.55997206947177" lon="11.271653998553093"><ele>317.0</ele><time>2026-05-03T15:50:50Z</time></trkpt><trkpt lat="43.56003956768197" lon="11.271658588901298"><ele>317.0</ele><time>2026-05-03T15:50:51Z</time></trkpt><trkpt lat="43.56014973138748" lon="11.271655165017322"><ele>317.0</ele><time>2026-05-03T15:50:53Z</time></trkpt><trkpt lat="43.5602273005754" lon="11.271665755579294"><ele>317.0</ele><time>2026-05-03T15:50:54Z</time></trkpt><trkpt lat="43.56032044911657" lon="11.271672711547625"><ele>317.0</ele><time>2026-05-03T15:50:55Z</time></trkpt><trkpt lat="43.560394027286584" lon="11.271666416016885"><ele>317.0</ele><time>2026-05-03T15:50:56Z</time></trkpt><trkpt lat="43.560498104599894" lon="11.271651842432323"><ele>318.83333333333337</ele><time>2026-05-03T15:50:58Z</time></trkpt><trkpt lat="43.56056498960733" lon="11.27164072542368"><ele>320.6666666666667</ele><time>2026-05-03T15:50:59Z</time></trkpt><trkpt lat="43.56062725635803" lon="11.271593011085962"><ele>322.5</ele><time>2026-05-03T15:51:00Z</time></trkpt><trkpt lat="43.56068375044059" lon="11.271545473489772"><ele>324.3333333333333</ele><time>2026-05-03T15:51:01Z</time></trkpt><trkpt lat="43.560772587751885" lon="11.271435638567677"><ele>326.16666666666663</ele><time>2026-05-03T15:51:03Z</time></trkpt><trkpt lat="43.560837268379075" lon="11.271423275742475"><ele>328.0</ele><time>2026-05-03T15:51:04Z</time></trkpt><trkpt lat="43.56091327815205" lon="11.27140153048642"><ele>328.0</ele><time>2026-05-03T15:51:05Z</time></trkpt><trkpt lat="43.56098537418296" lon="11.271376963662725"><ele>328.0</ele><time>2026-05-03T15:51:06Z</time></trkpt><trkpt lat="43.56110759781359" lon="11.27141086984145"><ele>328.0</ele><time>2026-05-03T15:51:08Z</time></trkpt><trkpt lat="43.56117289470285" lon="11.271470595339363"><ele>328.0</ele><time>2026-05-03T15:51:09Z</time></trkpt><trkpt lat="43.56127203479539" lon="11.271474952712241"><ele>328.0</ele><time>2026-05-03T15:51:11Z</time></trkpt><trkpt lat="43.56132848411405" lon="11.271421114902056"><ele>328.0</ele><time>2026-05-03T15:51:12Z</time></trkpt><trkpt lat="43.56140238635027" lon="11.271387992251839"><ele>330.0</ele><time>2026-05-03T15:51:13Z</time></trkpt><trkpt lat="43.561500413826856" lon="11.271375795037944"><ele>332.0</ele><time>2026-05-03T15:51:14Z</time></trkpt><trkpt lat="43.56160345356513" lon="11.271366792190673"><ele>334.0</ele><time>2026-05-03T15:51:15Z</time></trkpt><trkpt lat="43.561665138893154" lon="11.271340386199274"><ele>336.0</ele><time>2026-05-03T15:51:16Z</time></trkpt><trkpt lat="43.561774172437765" lon="11.271381883692266"><ele>338.0</ele><time>2026-05-03T15:51:18Z</time></trkpt><trkpt lat="43.561833544823955" lon="11.271455423799766"><ele>338.0</ele><time>2026-05-03T15:51:19Z</time></trkpt><trkpt lat="43.561904972593496" lon="11.27155786988591"><ele>338.0</ele><time>2026-05-03T15:51:20Z</time></trkpt><trkpt lat="43.561989593163005" lon="11.271693132129096"><ele>338.0</ele><time>2026-05-03T15:51:22Z</time></trkpt><trkpt lat="43.562047092046264" lon="11.271739251739898"><ele>338.0</ele><time>2026-05-03T15:51:23Z</time></trkpt><trkpt lat="43.562125233853514" lon="11.271753747927052"><ele>338.0</ele><time>2026-05-03T15:51:24Z</time></trkpt><trkpt lat="43.56221801273843" lon="11.27176746607275"><ele>339.5</ele><time>2026-05-03T15:51:25Z</time></trkpt><trkpt lat="43.56230890701976" lon="11.27176682089335"><ele>341.0</ele><time>2026-05-03T15:51:26Z</time></trkpt><trkpt lat="43.5623841647406" lon="11.27174292898178"><ele>342.5</ele><time>2026-05-03T15:51:27Z</time></trkpt><trkpt lat="43.56246614095175" lon="11.271722432275412"><ele>344.0</ele><time>2026-05-03T15:51:28Z</time></trkpt><trkpt lat="43.56253464569493" lon="11.27169315255899"><ele>345.5</ele><time>2026-05-03T15:51:29Z</time></trkpt><trkpt lat="43.56260671963219" lon="11.271642433025189"><ele>347.0</ele><time>2026-05-03T15:51:31Z</time></trkpt><trkpt lat="43.56272585537472" lon="11.271594328328513"><ele>347.0</ele><time>2026-05-03T15:51:34Z</time></trkpt><trkpt lat="43.56280246714312" lon="11.271573542702184"><ele>347.0</ele><time>2026-05-03T15:51:35Z</time></trkpt><trkpt lat="43.56289759783249" lon="11.271556510245803"><ele>347.0</ele><time>2026-05-03T15:51:36Z</time></trkpt><trkpt lat="43.562982249207295" lon="11.271577931418054"><ele>347.0</ele><time>2026-05-03T15:51:37Z</time></trkpt><trkpt lat="43.56311429236243" lon="11.271600557488982"><ele>347.0</ele><time>2026-05-03T15:51:38.999Z</time></trkpt><trkpt lat="43.56323333557648" lon="11.271560910115655"><ele>347.1666666666667</ele><time>2026-05-03T15:51:40.999Z</time></trkpt><trkpt lat="43.56331618728712" lon="11.271543751011183"><ele>347.33333333333337</ele><time>2026-05-03T15:51:41.999Z</time></trkpt><trkpt lat="43.56338501453289" lon="11.27143233323873"><ele>347.5</ele><time>2026-05-03T15:51:44Z</time></trkpt><trkpt lat="43.5633828812127" lon="11.271338271348354"><ele>347.6666666666667</ele><time>2026-05-03T15:51:45Z</time></trkpt><trkpt lat="43.56335017182108" lon="11.271240220134578"><ele>347.8333333333333</ele><time>2026-05-03T15:51:46Z</time></trkpt><trkpt lat="43.56331574435816" lon="11.271119741618154"><ele>348.0</ele><time>2026-05-03T15:51:47Z</time></trkpt><trkpt lat="43.56329090271199" lon="11.271023315718885"><ele>350.59999999999997</ele><time>2026-05-03T15:51:48Z</time></trkpt><trkpt lat="43.56328251691145" lon="11.27092327314911"><ele>353.2</ele><time>2026-05-03T15:51:49Z</time></trkpt><trkpt lat="43.56331624898055" lon="11.27082756904365"><ele>355.8</ele><time>2026-05-03T15:51:50Z</time></trkpt><trkpt lat="43.56334991456573" lon="11.27074937225006"><ele>358.4</ele><time>2026-05-03T15:51:51Z</time></trkpt><trkpt lat="43.56346163203258" lon="11.2706712939821"><ele>361.0</ele><time>2026-05-03T15:51:53Z</time></trkpt><trkpt lat="43.563570520606596" lon="11.270611482730578"><ele>363.66666666666663</ele><time>2026-05-03T15:51:54Z</time></trkpt><trkpt lat="43.5636619970264" lon="11.270523559683182"><ele>366.3333333333333</ele><time>2026-05-03T15:51:55Z</time></trkpt><trkpt lat="43.56373629193056" lon="11.270459013640693"><ele>369.0</ele><time>2026-05-03T15:51:56Z</time></trkpt><trkpt lat="43.563822779998475" lon="11.270448862950419"><ele>371.6666666666667</ele><time>2026-05-03T15:51:57Z</time></trkpt><trkpt lat="43.56390477500232" lon="11.270462234610772"><ele>374.33333333333337</ele><time>2026-05-03T15:51:58Z</time></trkpt><trkpt lat="43.56397897855031" lon="11.270486508916065"><ele>377.0</ele><time>2026-05-03T15:51:59Z</time></trkpt><trkpt lat="43.56404365138012" lon="11.270473736426577"><ele>377.1666666666667</ele><time>2026-05-03T15:52:00Z</time></trkpt><trkpt lat="43.564106524245496" lon="11.270402630661447"><ele>377.33333333333337</ele><time>2026-05-03T15:52:01Z</time></trkpt><trkpt lat="43.564178908251805" lon="11.270335500103227"><ele>377.5</ele><time>2026-05-03T15:52:02Z</time></trkpt><trkpt lat="43.56424980885954" lon="11.270289016883927"><ele>377.6666666666667</ele><time>2026-05-03T15:52:03Z</time></trkpt><trkpt lat="43.56434986300637" lon="11.27026154999766"><ele>377.8333333333333</ele><time>2026-05-03T15:52:04Z</time></trkpt><trkpt lat="43.564446994045845" lon="11.270243083259633"><ele>378.0</ele><time>2026-05-03T15:52:05Z</time></trkpt><trkpt lat="43.564535122651854" lon="11.270185028886372"><ele>376.2</ele><time>2026-05-03T15:52:06Z</time></trkpt><trkpt lat="43.56462022648755" lon="11.270111401377488"><ele>374.4</ele><time>2026-05-03T15:52:07Z</time></trkpt><trkpt lat="43.564707048171314" lon="11.270062470695596"><ele>372.59999999999997</ele><time>2026-05-03T15:52:08Z</time></trkpt><trkpt lat="43.56479913549353" lon="11.269980506219602"><ele>370.79999999999995</ele><time>2026-05-03T15:52:09Z</time></trkpt><trkpt lat="43.56487650319481" lon="11.269895142456223"><ele>369.0</ele><time>2026-05-03T15:52:10Z</time></trkpt><trkpt lat="43.56494995011971" lon="11.269810110452877"><ele>371.8333333333333</ele><time>2026-05-03T15:52:11Z</time></trkpt><trkpt lat="43.56501157056309" lon="11.26971191041808"><ele>374.66666666666663</ele><time>2026-05-03T15:52:12Z</time></trkpt><trkpt lat="43.56507182336786" lon="11.269608235072264"><ele>377.5</ele><time>2026-05-03T15:52:13Z</time></trkpt><trkpt lat="43.56514749088662" lon="11.26955475269486"><ele>380.3333333333333</ele><time>2026-05-03T15:52:14Z</time></trkpt><trkpt lat="43.56521876685682" lon="11.269490105134764"><ele>383.16666666666663</ele><time>2026-05-03T15:52:15Z</time></trkpt><trkpt lat="43.565270712052275" lon="11.269403967492888"><ele>386.0</ele><time>2026-05-03T15:52:16Z</time></trkpt><trkpt lat="43.565316308209304" lon="11.269293301609933"><ele>385.14285714285717</ele><time>2026-05-03T15:52:17Z</time></trkpt><trkpt lat="43.565363746711185" lon="11.269199331809714"><ele>384.2857142857143</ele><time>2026-05-03T15:52:18Z</time></trkpt><trkpt lat="43.565402733051855" lon="11.269130431518654"><ele>383.42857142857144</ele><time>2026-05-03T15:52:19Z</time></trkpt><trkpt lat="43.565463515574706" lon="11.26904036939449"><ele>382.57142857142856</ele><time>2026-05-03T15:52:21Z</time></trkpt><trkpt lat="43.56549900465988" lon="11.268956578131714"><ele>381.7142857142857</ele><time>2026-05-03T15:52:24Z</time></trkpt><trkpt lat="43.56544819182738" lon="11.268895437592635"><ele>380.8571428571429</ele><time>2026-05-03T15:52:27Z</time></trkpt><trkpt lat="43.56541438370923" lon="11.26897942923625"><ele>380.0</ele><time>2026-05-03T15:52:29Z</time></trkpt><trkpt lat="43.56541150578358" lon="11.269070262328778"><ele>380.0</ele><time>2026-05-03T15:52:31Z</time></trkpt><trkpt lat="43.565412342379545" lon="11.269161227043883"><ele>380.0</ele><time>2026-05-03T15:52:34Z</time></trkpt><trkpt lat="43.565335053324524" lon="11.269155927943174"><ele>380.0</ele><time>2026-05-03T15:52:38Z</time></trkpt><trkpt lat="43.565269220155066" lon="11.26905343992281"><ele>380.0</ele><time>2026-05-03T15:52:40Z</time></trkpt><trkpt lat="43.565180877067974" lon="11.269051699067182"><ele>380.0</ele><time>2026-05-03T15:52:44Z</time></trkpt><trkpt lat="43.565099439732" lon="11.26906936044582"><ele>380.0</ele><time>2026-05-03T15:52:46Z</time></trkpt><trkpt lat="43.56519053278824" lon="11.269060731113685"><ele>380.0</ele><time>2026-05-03T15:54:16Z</time></trkpt><trkpt lat="43.565264199384785" lon="11.26901458210267"><ele>380.0</ele><time>2026-05-03T15:54:54Z</time></trkpt><trkpt lat="43.56532750827049" lon="11.269009717444936"><ele>380.0</ele><time>2026-05-03T15:54:56Z</time></trkpt><trkpt lat="43.56539586417604" lon="11.269001409407933"><ele>380.0</ele><time>2026-05-03T15:54:58Z</time></trkpt><trkpt lat="43.56548809206951" lon="11.26896652519009"><ele>380.0</ele><time>2026-05-03T15:55:00Z</time></trkpt><trkpt lat="43.565530639059595" lon="11.26888978026969"><ele>380.0</ele><time>2026-05-03T15:55:02Z</time></trkpt><trkpt lat="43.56555460916836" lon="11.268801390804363"><ele>380.0</ele><time>2026-05-03T15:55:05Z</time></trkpt><trkpt lat="43.56566676526083" lon="11.268730728460554"><ele>379.2</ele><time>2026-05-03T15:55:07Z</time></trkpt><trkpt lat="43.56574236298672" lon="11.268684423043043"><ele>378.4</ele><time>2026-05-03T15:55:08Z</time></trkpt><trkpt lat="43.5658233788749" lon="11.268618526359381"><ele>377.6</ele><time>2026-05-03T15:55:09Z</time></trkpt><trkpt lat="43.56590350572805" lon="11.26853631341271"><ele>376.8</ele><time>2026-05-03T15:55:10Z</time></trkpt><trkpt lat="43.56598307942274" lon="11.26847145476999"><ele>376.0</ele><time>2026-05-03T15:55:11Z</time></trkpt><trkpt lat="43.56606370324605" lon="11.268427185210152"><ele>376.0</ele><time>2026-05-03T15:55:12Z</time></trkpt><trkpt lat="43.56616557589938" lon="11.268389637180812"><ele>376.0</ele><time>2026-05-03T15:55:13Z</time></trkpt><trkpt lat="43.56628892799464" lon="11.26834997056652"><ele>376.0</ele><time>2026-05-03T15:55:14Z</time></trkpt><trkpt lat="43.566411133928156" lon="11.268306397508445"><ele>376.0</ele><time>2026-05-03T15:55:15Z</time></trkpt><trkpt lat="43.56652380966839" lon="11.268275019614105"><ele>376.20000000000005</ele><time>2026-05-03T15:55:16Z</time></trkpt><trkpt lat="43.5666247225985" lon="11.268247558371218"><ele>376.40000000000003</ele><time>2026-05-03T15:55:17Z</time></trkpt><trkpt lat="43.56672772750598" lon="11.268251311626157"><ele>376.6</ele><time>2026-05-03T15:55:18Z</time></trkpt><trkpt lat="43.5668199650453" lon="11.26818862506784"><ele>376.8</ele><time>2026-05-03T15:55:19Z</time></trkpt><trkpt lat="43.566912376597706" lon="11.268163035209682"><ele>377.0</ele><time>2026-05-03T15:55:20Z</time></trkpt><trkpt lat="43.56699128184507" lon="11.268088833763173"><ele>376.0</ele><time>2026-05-03T15:55:21Z</time></trkpt><trkpt lat="43.567075376387606" lon="11.268039894490846"><ele>375.0</ele><time>2026-05-03T15:55:22Z</time></trkpt><trkpt lat="43.56714919987776" lon="11.267983945767785"><ele>374.0</ele><time>2026-05-03T15:55:23Z</time></trkpt><trkpt lat="43.56722412386702" lon="11.267928213286048"><ele>373.0</ele><time>2026-05-03T15:55:24Z</time></trkpt><trkpt lat="43.56730158486318" lon="11.267868842595234"><ele>372.0</ele><time>2026-05-03T15:55:25Z</time></trkpt><trkpt lat="43.567369050875996" lon="11.267799452163532"><ele>371.0</ele><time>2026-05-03T15:55:26Z</time></trkpt><trkpt lat="43.56745080090745" lon="11.267752028349062"><ele>371.0</ele><time>2026-05-03T15:55:27Z</time></trkpt><trkpt lat="43.56752387421501" lon="11.267712017187517"><ele>371.0</ele><time>2026-05-03T15:55:28Z</time></trkpt><trkpt lat="43.56758540721907" lon="11.26769220610069"><ele>371.0</ele><time>2026-05-03T15:55:29Z</time></trkpt><trkpt lat="43.56765691663558" lon="11.267672866261256"><ele>371.0</ele><time>2026-05-03T15:55:30Z</time></trkpt><trkpt lat="43.5677217361564" lon="11.267650162642168"><ele>371.0</ele><time>2026-05-03T15:55:31Z</time></trkpt><trkpt lat="43.5677858386057" lon="11.267628423211642"><ele>371.0</ele><time>2026-05-03T15:55:32Z</time></trkpt><trkpt lat="43.5678526137444" lon="11.267613835321162"><ele>371.0</ele><time>2026-05-03T15:55:33Z</time></trkpt><trkpt lat="43.567923178882566" lon="11.267607592903586"><ele>372.6</ele><time>2026-05-03T15:55:34Z</time></trkpt><trkpt lat="43.5679908695573" lon="11.26761222916345"><ele>374.20000000000005</ele><time>2026-05-03T15:55:35Z</time></trkpt><trkpt lat="43.56809673086503" lon="11.26761284409914"><ele>375.79999999999995</ele><time>2026-05-03T15:55:37Z</time></trkpt><trkpt lat="43.5681712663373" lon="11.267568236295807"><ele>377.4</ele><time>2026-05-03T15:55:39Z</time></trkpt><trkpt lat="43.56816717011656" lon="11.26739345357606"><ele>379.0</ele><time>2026-05-03T15:55:40Z</time></trkpt><trkpt lat="43.56806989348417" lon="11.2673219966913"><ele>379.4</ele><time>2026-05-03T15:55:41Z</time></trkpt><trkpt lat="43.56801895759433" lon="11.267268658457722"><ele>379.79999999999995</ele><time>2026-05-03T15:55:42Z</time></trkpt><trkpt lat="43.56791421680331" lon="11.26713546413004"><ele>380.20000000000005</ele><time>2026-05-03T15:55:43Z</time></trkpt><trkpt lat="43.567856629103204" lon="11.267055084447028"><ele>380.6</ele><time>2026-05-03T15:55:44Z</time></trkpt><trkpt lat="43.567797090591874" lon="11.26696213810062"><ele>381.0</ele><time>2026-05-03T15:55:45Z</time></trkpt><trkpt lat="43.56773958616118" lon="11.266848713962347"><ele>378.20000000000005</ele><time>2026-05-03T15:55:46Z</time></trkpt><trkpt lat="43.567690779687254" lon="11.266723883900507"><ele>375.40000000000003</ele><time>2026-05-03T15:55:47Z</time></trkpt><trkpt lat="43.56766388161114" lon="11.266625471272722"><ele>372.6</ele><time>2026-05-03T15:55:48Z</time></trkpt><trkpt lat="43.56764607963697" lon="11.26648828185294"><ele>369.8</ele><time>2026-05-03T15:55:49Z</time></trkpt><trkpt lat="43.5676300549385" lon="11.266335449218694"><ele>367.0</ele><time>2026-05-03T15:55:50Z</time></trkpt><trkpt lat="43.5676375954043" lon="11.266183099259575"><ele>366.75</ele><time>2026-05-03T15:55:51Z</time></trkpt><trkpt lat="43.567670352171874" lon="11.266043621256376"><ele>366.5</ele><time>2026-05-03T15:55:52Z</time></trkpt><trkpt lat="43.56771169686507" lon="11.265895683634197"><ele>366.25</ele><time>2026-05-03T15:55:53Z</time></trkpt><trkpt lat="43.56776601624683" lon="11.265757432772471"><ele>366.0</ele><time>2026-05-03T15:55:54Z</time></trkpt><trkpt lat="43.5678368267177" lon="11.265617129291828"><ele>367.6666666666667</ele><time>2026-05-03T15:55:55Z</time></trkpt><trkpt lat="43.567898837949" lon="11.265500328356241"><ele>369.3333333333333</ele><time>2026-05-03T15:55:56Z</time></trkpt><trkpt lat="43.56795916202942" lon="11.265395109146045"><ele>371.0</ele><time>2026-05-03T15:55:57Z</time></trkpt><trkpt lat="43.56798558939308" lon="11.265283983504458"><ele>372.66666666666663</ele><time>2026-05-03T15:55:58Z</time></trkpt><trkpt lat="43.568015247130354" lon="11.265187557253194"><ele>374.3333333333333</ele><time>2026-05-03T15:55:59Z</time></trkpt><trkpt lat="43.568047413856966" lon="11.265087832673949"><ele>376.0</ele><time>2026-05-03T15:56:00Z</time></trkpt><trkpt lat="43.568113317472964" lon="11.265019358059474"><ele>376.0</ele><time>2026-05-03T15:56:01Z</time></trkpt><trkpt lat="43.56817661122859" lon="11.264946597287661"><ele>376.0</ele><time>2026-05-03T15:56:02Z</time></trkpt><trkpt lat="43.568248323408234" lon="11.264867458707052"><ele>376.0</ele><time>2026-05-03T15:56:03Z</time></trkpt><trkpt lat="43.5683216645827" lon="11.264785950360753"><ele>376.0</ele><time>2026-05-03T15:56:04Z</time></trkpt><trkpt lat="43.56840566747968" lon="11.264692364187965"><ele>376.0</ele><time>2026-05-03T15:56:05Z</time></trkpt><trkpt lat="43.56846510595607" lon="11.26459690309506"><ele>375.0</ele><time>2026-05-03T15:56:06Z</time></trkpt><trkpt lat="43.56853602877501" lon="11.264515881825595"><ele>374.0</ele><time>2026-05-03T15:56:07Z</time></trkpt><trkpt lat="43.568604860445454" lon="11.264463121771476"><ele>373.0</ele><time>2026-05-03T15:56:08Z</time></trkpt><trkpt lat="43.56868910865772" lon="11.264452574006318"><ele>372.0</ele><time>2026-05-03T15:56:09Z</time></trkpt><trkpt lat="43.568779585164975" lon="11.264477201171216"><ele>371.0</ele><time>2026-05-03T15:56:10Z</time></trkpt><trkpt lat="43.56887801160724" lon="11.264544529802864"><ele>371.0</ele><time>2026-05-03T15:56:11Z</time></trkpt><trkpt lat="43.568970856221064" lon="11.264578532427826"><ele>371.0</ele><time>2026-05-03T15:56:12Z</time></trkpt><trkpt lat="43.569059756942494" lon="11.26461803702821"><ele>371.0</ele><time>2026-05-03T15:56:13Z</time></trkpt><trkpt lat="43.56918650506697" lon="11.26454254359294"><ele>371.0</ele><time>2026-05-03T15:56:15Z</time></trkpt><trkpt lat="43.56927467486602" lon="11.264474893948602"><ele>371.0</ele><time>2026-05-03T15:56:16Z</time></trkpt><trkpt lat="43.56935718966717" lon="11.264385915682675"><ele>371.0</ele><time>2026-05-03T15:56:17Z</time></trkpt><trkpt lat="43.56940039554477" lon="11.264270440200022"><ele>371.0</ele><time>2026-05-03T15:56:18Z</time></trkpt><trkpt lat="43.56944064007568" lon="11.264169640744722"><ele>371.0</ele><time>2026-05-03T15:56:19Z</time></trkpt><trkpt lat="43.569470801777506" lon="11.264061978583753"><ele>371.0</ele><time>2026-05-03T15:56:20Z</time></trkpt><trkpt lat="43.56949524189652" lon="11.263940799263471"><ele>371.0</ele><time>2026-05-03T15:56:21Z</time></trkpt><trkpt lat="43.56955317418833" lon="11.263844803028983"><ele>371.0</ele><time>2026-05-03T15:56:22Z</time></trkpt><trkpt lat="43.56964545076931" lon="11.263812827404188"><ele>371.5</ele><time>2026-05-03T15:56:23Z</time></trkpt><trkpt lat="43.56973049324908" lon="11.263780902338784"><ele>372.0</ele><time>2026-05-03T15:56:24Z</time></trkpt><trkpt lat="43.56980477469342" lon="11.263756181868086"><ele>372.5</ele><time>2026-05-03T15:56:25Z</time></trkpt><trkpt lat="43.569862552461295" lon="11.263716959166725"><ele>373.0</ele><time>2026-05-03T15:56:26Z</time></trkpt><trkpt lat="43.56992979553863" lon="11.263675116181405"><ele>373.5</ele><time>2026-05-03T15:56:27Z</time></trkpt><trkpt lat="43.5699671273107" lon="11.263562665101253"><ele>374.0</ele><time>2026-05-03T15:56:28Z</time></trkpt><trkpt lat="43.56998582771814" lon="11.263426616537553"><ele>374.0</ele><time>2026-05-03T15:56:29Z</time></trkpt><trkpt lat="43.570002423618334" lon="11.263307917607625"><ele>374.0</ele><time>2026-05-03T15:56:30Z</time></trkpt><trkpt lat="43.57002269901436" lon="11.263203941942454"><ele>374.0</ele><time>2026-05-03T15:56:31Z</time></trkpt><trkpt lat="43.570075968103204" lon="11.26311622745293"><ele>374.0</ele><time>2026-05-03T15:56:33Z</time></trkpt><trkpt lat="43.57014905267749" lon="11.263067758819014"><ele>374.0</ele><time>2026-05-03T15:56:34Z</time></trkpt><trkpt lat="43.570238490438136" lon="11.263077882833478"><ele>374.0</ele><time>2026-05-03T15:56:35Z</time></trkpt><trkpt lat="43.57032919530653" lon="11.263088530914173"><ele>375.6666666666667</ele><time>2026-05-03T15:56:36Z</time></trkpt><trkpt lat="43.57041612331777" lon="11.263093197267889"><ele>377.33333333333337</ele><time>2026-05-03T15:56:37Z</time></trkpt><trkpt lat="43.570514872119844" lon="11.263087175903813"><ele>379.0</ele><time>2026-05-03T15:56:38Z</time></trkpt><trkpt lat="43.57059605201675" lon="11.263079527839505"><ele>380.6666666666667</ele><time>2026-05-03T15:56:39Z</time></trkpt><trkpt lat="43.5706608097335" lon="11.26303582374661"><ele>382.3333333333333</ele><time>2026-05-03T15:56:40Z</time></trkpt><trkpt lat="43.57069058712769" lon="11.262953866690546"><ele>384.0</ele><time>2026-05-03T15:56:41Z</time></trkpt><trkpt lat="43.57069915594802" lon="11.262847993898166"><ele>384.0</ele><time>2026-05-03T15:56:42Z</time></trkpt><trkpt lat="43.57068982767914" lon="11.262742076733153"><ele>384.0</ele><time>2026-05-03T15:56:43Z</time></trkpt><trkpt lat="43.57066698555017" lon="11.262644474650237"><ele>384.0</ele><time>2026-05-03T15:56:44Z</time></trkpt><trkpt lat="43.57065406022736" lon="11.262551567233828"><ele>384.0</ele><time>2026-05-03T15:56:45Z</time></trkpt><trkpt lat="43.57059710607632" lon="11.26246657667793"><ele>384.0</ele><time>2026-05-03T15:56:46Z</time></trkpt><trkpt lat="43.57057629611131" lon="11.262362541192909"><ele>384.0</ele><time>2026-05-03T15:56:47Z</time></trkpt><trkpt lat="43.57054548942999" lon="11.262250229505067"><ele>383.8333333333333</ele><time>2026-05-03T15:56:48Z</time></trkpt><trkpt lat="43.5705162765795" lon="11.262132861711422"><ele>383.6666666666667</ele><time>2026-05-03T15:56:49Z</time></trkpt><trkpt lat="43.57048823571964" lon="11.262011002780799"><ele>383.5</ele><time>2026-05-03T15:56:50Z</time></trkpt><trkpt lat="43.570465057664364" lon="11.261899288745505"><ele>383.33333333333337</ele><time>2026-05-03T15:56:51Z</time></trkpt><trkpt lat="43.57044373529933" lon="11.261780907303452"><ele>383.1666666666667</ele><time>2026-05-03T15:56:52Z</time></trkpt><trkpt lat="43.57042588092928" lon="11.261657546752337"><ele>383.0</ele><time>2026-05-03T15:56:53Z</time></trkpt><trkpt lat="43.57041178476793" lon="11.261536095752033"><ele>381.59999999999997</ele><time>2026-05-03T15:56:54Z</time></trkpt><trkpt lat="43.57039609011787" lon="11.261408115250015"><ele>380.2</ele><time>2026-05-03T15:56:55Z</time></trkpt><trkpt lat="43.570378938096134" lon="11.261287909893664"><ele>378.8</ele><time>2026-05-03T15:56:56Z</time></trkpt><trkpt lat="43.57036066173381" lon="11.261185831390714"><ele>377.4</ele><time>2026-05-03T15:56:57Z</time></trkpt><trkpt lat="43.57036278271566" lon="11.26100839872179"><ele>376.0</ele><time>2026-05-03T15:56:59Z</time></trkpt><trkpt lat="43.570369964624014" lon="11.260915831735932"><ele>376.0</ele><time>2026-05-03T15:57:00Z</time></trkpt><trkpt lat="43.57037912424637" lon="11.260827314599313"><ele>376.0</ele><time>2026-05-03T15:57:01Z</time></trkpt><trkpt lat="43.57039795010014" lon="11.260658650616888"><ele>376.0</ele><time>2026-05-03T15:57:03Z</time></trkpt><trkpt lat="43.570365197878225" lon="11.26050690489261"><ele>376.0</ele><time>2026-05-03T15:57:05Z</time></trkpt><trkpt lat="43.5703295053588" lon="11.260363154556421"><ele>376.0</ele><time>2026-05-03T15:57:07Z</time></trkpt><trkpt lat="43.570306579617196" lon="11.260226932573582"><ele>376.25</ele><time>2026-05-03T15:57:09Z</time></trkpt><trkpt lat="43.57027189094437" lon="11.26014433742621"><ele>376.5</ele><time>2026-05-03T15:57:11Z</time></trkpt><trkpt lat="43.57041058153019" lon="11.259934779855927"><ele>376.75</ele><time>2026-05-03T15:57:13Z</time></trkpt><trkpt lat="43.57051239422759" lon="11.259879367277394"><ele>377.0</ele><time>2026-05-03T15:57:15Z</time></trkpt><trkpt lat="43.570612538386044" lon="11.259833609041147"><ele>379.0</ele><time>2026-05-03T15:57:17Z</time></trkpt><trkpt lat="43.57064383641495" lon="11.259690957254094"><ele>381.0</ele><time>2026-05-03T15:57:19Z</time></trkpt><trkpt lat="43.570683469225536" lon="11.259614588966704"><ele>383.0</ele><time>2026-05-03T15:57:20Z</time></trkpt><trkpt lat="43.570763153413786" lon="11.259529935246993"><ele>385.0</ele><time>2026-05-03T15:57:22Z</time></trkpt><trkpt lat="43.57081126416255" lon="11.259472478083802"><ele>386.99999999999994</ele><time>2026-05-03T15:57:24Z</time></trkpt><trkpt lat="43.570883325974" lon="11.259422233728504"><ele>389.0</ele><time>2026-05-03T15:57:35Z</time></trkpt><trkpt lat="43.57094215958173" lon="11.259375421760435"><ele>389.0</ele><time>2026-05-03T15:57:39Z</time></trkpt><trkpt lat="43.57096458637216" lon="11.259462511516308"><ele>389.0</ele><time>2026-05-03T15:57:42Z</time></trkpt><trkpt lat="43.570991747546984" lon="11.259545815722118"><ele>389.0</ele><time>2026-05-03T15:57:46Z</time></trkpt><trkpt lat="43.571056860103674" lon="11.259583855776413"><ele>389.0</ele><time>2026-05-03T15:57:48Z</time></trkpt><trkpt lat="43.57112730114665" lon="11.25960848420252"><ele>389.0</ele><time>2026-05-03T15:57:51Z</time></trkpt><trkpt lat="43.57117696345494" lon="11.2596625530395"><ele>389.0</ele><time>2026-05-03T15:57:56Z</time></trkpt><trkpt lat="43.57124924011509" lon="11.259636589146348"><ele>389.0</ele><time>2026-05-03T15:58:15Z</time></trkpt><trkpt lat="43.57132848349467" lon="11.259586627277624"><ele>384.7142857142857</ele><time>2026-05-03T15:59:00Z</time></trkpt><trkpt lat="43.571375475882896" lon="11.25952602989547"><ele>380.4285714285714</ele><time>2026-05-03T15:59:02Z</time></trkpt><trkpt lat="43.57143644692236" lon="11.259461219025077"><ele>376.1428571428571</ele><time>2026-05-03T15:59:04Z</time></trkpt><trkpt lat="43.571494448114045" lon="11.259374893150838"><ele>371.8571428571429</ele><time>2026-05-03T15:59:07Z</time></trkpt><trkpt lat="43.571518243849134" lon="11.259274063982325"><ele>367.57142857142856</ele><time>2026-05-03T15:59:12Z</time></trkpt><trkpt lat="43.57157379101219" lon="11.259231260590997"><ele>363.2857142857143</ele><time>2026-05-03T15:59:14Z</time></trkpt><trkpt lat="43.571623396351356" lon="11.25916163490414"><ele>359.0</ele><time>2026-05-03T15:59:17Z</time></trkpt><trkpt lat="43.57167082730981" lon="11.259062098902646"><ele>359.0</ele><time>2026-05-03T15:59:20Z</time></trkpt><trkpt lat="43.57170503856109" lon="11.25895208967372"><ele>359.0</ele><time>2026-05-03T15:59:23Z</time></trkpt><trkpt lat="43.57172343356791" lon="11.258865165249704"><ele>359.0</ele><time>2026-05-03T15:59:26Z</time></trkpt><trkpt lat="43.571760229453695" lon="11.258784012382922"><ele>359.0</ele><time>2026-05-03T15:59:30Z</time></trkpt><trkpt lat="43.57180722395871" lon="11.258708992895283"><ele>359.0</ele><time>2026-05-03T15:59:33Z</time></trkpt><trkpt lat="43.571880824906906" lon="11.258624457319192"><ele>359.0</ele><time>2026-05-03T15:59:36Z</time></trkpt><trkpt lat="43.571896967181914" lon="11.25853566220111"><ele>359.4</ele><time>2026-05-03T15:59:38Z</time></trkpt><trkpt lat="43.571868223327115" lon="11.258444906114418"><ele>359.79999999999995</ele><time>2026-05-03T15:59:40Z</time></trkpt><trkpt lat="43.571834554235416" lon="11.258328253948305"><ele>360.20000000000005</ele><time>2026-05-03T15:59:42Z</time></trkpt><trkpt lat="43.571860304692635" lon="11.25820202306215"><ele>360.6</ele><time>2026-05-03T15:59:44Z</time></trkpt><trkpt lat="43.571954679327185" lon="11.258110678018646"><ele>361.0</ele><time>2026-05-03T15:59:45.999Z</time></trkpt><trkpt lat="43.572032774392234" lon="11.258025724244222"><ele>358.66666666666663</ele><time>2026-05-03T15:59:47.999Z</time></trkpt><trkpt lat="43.572110727113305" lon="11.257955918287632"><ele>356.3333333333333</ele><time>2026-05-03T15:59:49.999Z</time></trkpt><trkpt lat="43.572208931815894" lon="11.25793875979391"><ele>354.0</ele><time>2026-05-03T15:59:51.999Z</time></trkpt><trkpt lat="43.572288760037615" lon="11.258020542067868"><ele>351.6666666666667</ele><time>2026-05-03T15:59:54.999Z</time></trkpt><trkpt lat="43.5723425172971" lon="11.258077093382639"><ele>349.33333333333337</ele><time>2026-05-03T15:59:56.999Z</time></trkpt><trkpt lat="43.572395170471225" lon="11.258166977632708"><ele>347.0</ele><time>2026-05-03T15:59:59.999Z</time></trkpt><trkpt lat="43.572483645528365" lon="11.258159101433746"><ele>347.0</ele><time>2026-05-03T16:00:01.999Z</time></trkpt><trkpt lat="43.57251693354175" lon="11.25806565213163"><ele>347.0</ele><time>2026-05-03T16:00:03.999Z</time></trkpt><trkpt lat="43.57257792404199" lon="11.258007573736668"><ele>347.0</ele><time>2026-05-03T16:00:07Z</time></trkpt><trkpt lat="43.57262878646193" lon="11.257933871889605"><ele>347.0</ele><time>2026-05-03T16:00:09Z</time></trkpt><trkpt lat="43.57268122926752" lon="11.257864925931576"><ele>347.0</ele><time>2026-05-03T16:00:10Z</time></trkpt><trkpt lat="43.572700446943855" lon="11.257758615555806"><ele>347.0</ele><time>2026-05-03T16:00:12Z</time></trkpt><trkpt lat="43.572769740242535" lon="11.257669615799404"><ele>343.40000000000003</ele><time>2026-05-03T16:00:15Z</time></trkpt><trkpt lat="43.5728934604959" lon="11.257475181323585"><ele>339.8</ele><time>2026-05-03T16:00:18Z</time></trkpt><trkpt lat="43.5729440771644" lon="11.257395280768787"><ele>336.2</ele><time>2026-05-03T16:00:19Z</time></trkpt><trkpt lat="43.57300005548438" lon="11.25734114096321"><ele>332.6</ele><time>2026-05-03T16:00:21Z</time></trkpt><trkpt lat="43.57306772936837" lon="11.257258316906356"><ele>329.0</ele><time>2026-05-03T16:00:23Z</time></trkpt><trkpt lat="43.573144251623795" lon="11.257236914443403"><ele>329.0</ele><time>2026-05-03T16:00:27Z</time></trkpt><trkpt lat="43.57317446777936" lon="11.257116338157617"><ele>329.0</ele><time>2026-05-03T16:00:29Z</time></trkpt><trkpt lat="43.573237967689714" lon="11.257042159336965"><ele>329.0</ele><time>2026-05-03T16:00:31Z</time></trkpt><trkpt lat="43.573292663588326" lon="11.256976640764872"><ele>329.0</ele><time>2026-05-03T16:00:32Z</time></trkpt><trkpt lat="43.57335325713224" lon="11.256898583127105"><ele>329.0</ele><time>2026-05-03T16:00:33Z</time></trkpt><trkpt lat="43.57342827517906" lon="11.256776119444694"><ele>329.0</ele><time>2026-05-03T16:00:35Z</time></trkpt><trkpt lat="43.57350437473576" lon="11.256667343495819"><ele>329.0</ele><time>2026-05-03T16:00:38Z</time></trkpt><trkpt lat="43.573586613431615" lon="11.256661265659973"><ele>329.0</ele><time>2026-05-03T16:00:41Z</time></trkpt><trkpt lat="43.57365002936057" lon="11.256651464167872"><ele>329.0</ele><time>2026-05-03T16:00:44Z</time></trkpt><trkpt lat="43.57369201964715" lon="11.256551637694187"><ele>329.0</ele><time>2026-05-03T16:00:46Z</time></trkpt><trkpt lat="43.57377492482276" lon="11.256454343312715"><ele>329.0</ele><time>2026-05-03T16:00:48Z</time></trkpt><trkpt lat="43.573837673805265" lon="11.256352330018172"><ele>329.0</ele><time>2026-05-03T16:00:50Z</time></trkpt><trkpt lat="43.57388696008303" lon="11.25623420815049"><ele>326.33333333333337</ele><time>2026-05-03T16:00:52Z</time></trkpt><trkpt lat="43.57390077611826" lon="11.25614451696755"><ele>323.6666666666667</ele><time>2026-05-03T16:00:54Z</time></trkpt><trkpt lat="43.57392271210383" lon="11.256053976943829"><ele>321.0</ele><time>2026-05-03T16:00:56Z</time></trkpt><trkpt lat="43.57397252732796" lon="11.255939032838961"><ele>318.3333333333333</ele><time>2026-05-03T16:00:59Z</time></trkpt><trkpt lat="43.574048352507184" lon="11.2558348799788"><ele>315.66666666666663</ele><time>2026-05-03T16:01:03Z</time></trkpt><trkpt lat="43.5741335382945" lon="11.255756947052715"><ele>313.0</ele><time>2026-05-03T16:01:06Z</time></trkpt><trkpt lat="43.57417219410784" lon="11.255677398295685"><ele>312.0</ele><time>2026-05-03T16:01:08Z</time></trkpt><trkpt lat="43.574216908522224" lon="11.255590750535923"><ele>311.0</ele><time>2026-05-03T16:01:12Z</time></trkpt><trkpt lat="43.574296608362246" lon="11.255556930607792"><ele>310.0</ele><time>2026-05-03T16:01:14Z</time></trkpt><trkpt lat="43.5744019662452" lon="11.25548143825678"><ele>309.0</ele><time>2026-05-03T16:01:18Z</time></trkpt><trkpt lat="43.574462219925586" lon="11.255454532814635"><ele>308.0</ele><time>2026-05-03T16:01:20Z</time></trkpt><trkpt lat="43.57451196726498" lon="11.255344554490007"><ele>307.0</ele><time>2026-05-03T16:01:23Z</time></trkpt><trkpt lat="43.574530244216646" lon="11.255215692400617"><ele>306.99999999999994</ele><time>2026-05-03T16:01:26Z</time></trkpt><trkpt lat="43.57452025341101" lon="11.255127895404025"><ele>307.0</ele><time>2026-05-03T16:01:29Z</time></trkpt><trkpt lat="43.574534957651984" lon="11.25503692453716"><ele>307.0</ele><time>2026-05-03T16:01:31Z</time></trkpt><trkpt lat="43.57449757229023" lon="11.254956745657159"><ele>307.0</ele><time>2026-05-03T16:01:34Z</time></trkpt><trkpt lat="43.574497981387026" lon="11.254857157348509"><ele>307.0</ele><time>2026-05-03T16:01:36Z</time></trkpt><trkpt lat="43.57453940897161" lon="11.254781671628866"><ele>306.99999999999994</ele><time>2026-05-03T16:01:39Z</time></trkpt><trkpt lat="43.574558702289714" lon="11.254694195589414"><ele>307.0</ele><time>2026-05-03T16:01:41Z</time></trkpt><trkpt lat="43.57462031602935" lon="11.254637314210926"><ele>305.0</ele><time>2026-05-03T16:01:47Z</time></trkpt><trkpt lat="43.574689196557" lon="11.254592912536237"><ele>303.0</ele><time>2026-05-03T16:01:49Z</time></trkpt><trkpt lat="43.574758904599165" lon="11.25456468729834"><ele>301.0</ele><time>2026-05-03T16:01:51Z</time></trkpt><trkpt lat="43.57483344028963" lon="11.254542798178575"><ele>299.0</ele><time>2026-05-03T16:01:53Z</time></trkpt><trkpt lat="43.57488936222872" lon="11.254444790297587"><ele>297.0</ele><time>2026-05-03T16:01:55Z</time></trkpt><trkpt lat="43.57495313173714" lon="11.25437315063952"><ele>295.0</ele><time>2026-05-03T16:01:58Z</time></trkpt><trkpt lat="43.57506307713434" lon="11.254315104281638"><ele>295.0</ele><time>2026-05-03T16:02:00Z</time></trkpt><trkpt lat="43.575131512570024" lon="11.254274115395308"><ele>295.0</ele><time>2026-05-03T16:02:07Z</time></trkpt><trkpt lat="43.57518629248687" lon="11.254163925353948"><ele>295.0</ele><time>2026-05-03T16:02:10Z</time></trkpt><trkpt lat="43.57525669085542" lon="11.254108973791144"><ele>295.0</ele><time>2026-05-03T16:02:11.999Z</time></trkpt><trkpt lat="43.57530058331858" lon="11.254022367692148"><ele>295.0</ele><time>2026-05-03T16:02:14Z</time></trkpt><trkpt lat="43.57533934035373" lon="11.253859434179603"><ele>294.4</ele><time>2026-05-03T16:02:16Z</time></trkpt><trkpt lat="43.575379825737095" lon="11.253770179881023"><ele>293.8</ele><time>2026-05-03T16:02:18Z</time></trkpt><trkpt lat="43.5753266083724" lon="11.253660932620027"><ele>293.2</ele><time>2026-05-03T16:03:04Z</time></trkpt><trkpt lat="43.57525711202256" lon="11.253578634144812"><ele>292.6</ele><time>2026-05-03T16:03:05Z</time></trkpt><trkpt lat="43.57519061791033" lon="11.253501449359538"><ele>292.0</ele><time>2026-05-03T16:03:06Z</time></trkpt><trkpt lat="43.57506911091172" lon="11.253474985729861"><ele>292.0</ele><time>2026-05-03T16:03:08Z</time></trkpt><trkpt lat="43.57496267561632" lon="11.253422439484202"><ele>292.0</ele><time>2026-05-03T16:03:10Z</time></trkpt><trkpt lat="43.574900824025576" lon="11.25334759961105"><ele>292.0</ele><time>2026-05-03T16:03:11Z</time></trkpt><trkpt lat="43.574856124522015" lon="11.25326864036939"><ele>292.0</ele><time>2026-05-03T16:03:12Z</time></trkpt><trkpt lat="43.57481223708088" lon="11.25317443603818"><ele>292.0</ele><time>2026-05-03T16:03:13Z</time></trkpt><trkpt lat="43.57476653766878" lon="11.253092465954854"><ele>292.0</ele><time>2026-05-03T16:03:14Z</time></trkpt><trkpt lat="43.574723765331214" lon="11.253001848706916"><ele>291.4</ele><time>2026-05-03T16:03:15Z</time></trkpt><trkpt lat="43.57468965701388" lon="11.252921644144456"><ele>290.79999999999995</ele><time>2026-05-03T16:03:16Z</time></trkpt><trkpt lat="43.574685648718635" lon="11.252781267259758"><ele>290.2</ele><time>2026-05-03T16:03:18Z</time></trkpt><trkpt lat="43.57463672468196" lon="11.252616675869525"><ele>289.59999999999997</ele><time>2026-05-03T16:03:20Z</time></trkpt><trkpt lat="43.574586889400614" lon="11.252521267611218"><ele>289.0</ele><time>2026-05-03T16:03:21Z</time></trkpt><trkpt lat="43.57452027097312" lon="11.252415679153552"><ele>292.3333333333333</ele><time>2026-05-03T16:03:22Z</time></trkpt><trkpt lat="43.5744098879337" lon="11.252361292353733"><ele>295.66666666666663</ele><time>2026-05-03T16:03:24Z</time></trkpt><trkpt lat="43.57434409968493" lon="11.252352780507609"><ele>299.0</ele><time>2026-05-03T16:03:26Z</time></trkpt><trkpt lat="43.574276881603865" lon="11.25235324128604"><ele>302.3333333333333</ele><time>2026-05-03T16:03:28Z</time></trkpt><trkpt lat="43.57420850616394" lon="11.252368925869337"><ele>305.6666666666667</ele><time>2026-05-03T16:03:30Z</time></trkpt><trkpt lat="43.57412900756311" lon="11.252418939364897"><ele>309.0</ele><time>2026-05-03T16:03:32Z</time></trkpt><trkpt lat="43.57405287801013" lon="11.252404191777714"><ele>309.0</ele><time>2026-05-03T16:03:34Z</time></trkpt><trkpt lat="43.57395112331198" lon="11.252418200355937"><ele>309.0</ele><time>2026-05-03T16:03:36Z</time></trkpt><trkpt lat="43.57386095025128" lon="11.252455306252322"><ele>309.0</ele><time>2026-05-03T16:03:38Z</time></trkpt><trkpt lat="43.57378738924173" lon="11.25249901702153"><ele>309.0</ele><time>2026-05-03T16:03:40Z</time></trkpt><trkpt lat="43.573730235867544" lon="11.252547282017286"><ele>309.0</ele><time>2026-05-03T16:03:42Z</time></trkpt><trkpt lat="43.57365619499126" lon="11.252592503875796"><ele>309.0</ele><time>2026-05-03T16:03:44Z</time></trkpt><trkpt lat="43.57358960616641" lon="11.252662854331952"><ele>311.5</ele><time>2026-05-03T16:03:46Z</time></trkpt><trkpt lat="43.573518185705744" lon="11.25262126809733"><ele>314.0</ele><time>2026-05-03T16:03:48Z</time></trkpt><trkpt lat="43.57344020638808" lon="11.252611315055443"><ele>316.5</ele><time>2026-05-03T16:03:50Z</time></trkpt><trkpt lat="43.573350616636" lon="11.252587276401982"><ele>319.0</ele><time>2026-05-03T16:03:52Z</time></trkpt><trkpt lat="43.57328515104086" lon="11.252527114675262"><ele>321.5</ele><time>2026-05-03T16:03:54Z</time></trkpt><trkpt lat="43.5732450558497" lon="11.252447343079814"><ele>324.0</ele><time>2026-05-03T16:03:56Z</time></trkpt><trkpt lat="43.57321246197061" lon="11.252343600277483"><ele>323.6666666666667</ele><time>2026-05-03T16:03:57.999Z</time></trkpt><trkpt lat="43.573170142505255" lon="11.252228613881625"><ele>323.3333333333333</ele><time>2026-05-03T16:03:59.999Z</time></trkpt><trkpt lat="43.57311139845147" lon="11.252128311661119"><ele>323.0</ele><time>2026-05-03T16:04:01.999Z</time></trkpt><trkpt lat="43.5730387305232" lon="11.25205027445698"><ele>322.66666666666663</ele><time>2026-05-03T16:04:02.999Z</time></trkpt><trkpt lat="43.572964760005895" lon="11.25196075491166"><ele>322.3333333333333</ele><time>2026-05-03T16:04:03.999Z</time></trkpt><trkpt lat="43.57291581869217" lon="11.251903839846051"><ele>322.0</ele><time>2026-05-03T16:04:04.999Z</time></trkpt><trkpt lat="43.57284208224288" lon="11.251878464662049"><ele>324.0</ele><time>2026-05-03T16:04:05.999Z</time></trkpt><trkpt lat="43.57276801641418" lon="11.251861567403784"><ele>326.0</ele><time>2026-05-03T16:04:06.999Z</time></trkpt><trkpt lat="43.572672882170515" lon="11.2517511162953"><ele>328.0</ele><time>2026-05-03T16:04:08.999Z</time></trkpt><trkpt lat="43.57259681136849" lon="11.251664831789473"><ele>330.0</ele><time>2026-05-03T16:04:09.999Z</time></trkpt><trkpt lat="43.57254543915889" lon="11.251596145753474"><ele>332.0</ele><time>2026-05-03T16:04:10.999Z</time></trkpt><trkpt lat="43.57250943913706" lon="11.251521930004502"><ele>334.0</ele><time>2026-05-03T16:04:11.999Z</time></trkpt><trkpt lat="43.57246325559697" lon="11.251338807971464"><ele>334.0</ele><time>2026-05-03T16:04:13.999Z</time></trkpt><trkpt lat="43.57243651622044" lon="11.251226479179435"><ele>334.0</ele><time>2026-05-03T16:04:14.999Z</time></trkpt><trkpt lat="43.57236968817841" lon="11.251086586484178"><ele>334.0</ele><time>2026-05-03T16:04:16.999Z</time></trkpt><trkpt lat="43.572320559613765" lon="11.250997198752284"><ele>334.0</ele><time>2026-05-03T16:04:17.999Z</time></trkpt><trkpt lat="43.57229014949594" lon="11.250904860596034"><ele>334.0</ele><time>2026-05-03T16:04:21Z</time></trkpt><trkpt lat="43.572242672425396" lon="11.250840371343607"><ele>334.0</ele><time>2026-05-03T16:04:23Z</time></trkpt><trkpt lat="43.57217384561774" lon="11.250783032388942"><ele>334.0</ele><time>2026-05-03T16:04:25Z</time></trkpt><trkpt lat="43.57208456367417" lon="11.250772856711686"><ele>334.0</ele><time>2026-05-03T16:04:27Z</time></trkpt><trkpt lat="43.57200934420384" lon="11.250752281720796"><ele>334.0</ele><time>2026-05-03T16:04:29Z</time></trkpt><trkpt lat="43.57193277436403" lon="11.250726849066675"><ele>334.0</ele><time>2026-05-03T16:04:31Z</time></trkpt><trkpt lat="43.571827845962254" lon="11.25069524176991"><ele>334.0</ele><time>2026-05-03T16:04:33Z</time></trkpt><trkpt lat="43.57174981218271" lon="11.250664756871497"><ele>334.0</ele><time>2026-05-03T16:04:34Z</time></trkpt><trkpt lat="43.571667683914676" lon="11.250648901512243"><ele>335.3333333333333</ele><time>2026-05-03T16:04:35Z</time></trkpt><trkpt lat="43.57158484131687" lon="11.25064294788257"><ele>336.66666666666663</ele><time>2026-05-03T16:04:37Z</time></trkpt><trkpt lat="43.57150851084885" lon="11.250631424011894"><ele>338.0</ele><time>2026-05-03T16:04:38Z</time></trkpt><trkpt lat="43.571445898719006" lon="11.250662484958188"><ele>339.3333333333333</ele><time>2026-05-03T16:04:39Z</time></trkpt><trkpt lat="43.57137237362753" lon="11.250722661195447"><ele>340.6666666666667</ele><time>2026-05-03T16:04:41Z</time></trkpt><trkpt lat="43.5713335312605" lon="11.250797820899647"><ele>342.0</ele><time>2026-05-03T16:04:42Z</time></trkpt><trkpt lat="43.57122903208153" lon="11.250858014538288"><ele>342.20000000000005</ele><time>2026-05-03T16:04:44Z</time></trkpt><trkpt lat="43.57112000924824" lon="11.250816140635427"><ele>342.4</ele><time>2026-05-03T16:04:46Z</time></trkpt><trkpt lat="43.571064242063976" lon="11.250762194414099"><ele>342.6</ele><time>2026-05-03T16:04:47Z</time></trkpt><trkpt lat="43.570965010178746" lon="11.250657991640589"><ele>342.79999999999995</ele><time>2026-05-03T16:04:49Z</time></trkpt><trkpt lat="43.570862397081015" lon="11.250576682780977"><ele>343.0</ele><time>2026-05-03T16:04:51Z</time></trkpt><trkpt lat="43.570796254585495" lon="11.250553647735677"><ele>340.8333333333333</ele><time>2026-05-03T16:04:52Z</time></trkpt><trkpt lat="43.57072923969516" lon="11.250564548067254"><ele>338.66666666666663</ele><time>2026-05-03T16:04:53Z</time></trkpt><trkpt lat="43.57066488059213" lon="11.250591239445455"><ele>336.5</ele><time>2026-05-03T16:04:54Z</time></trkpt><trkpt lat="43.57057697181273" lon="11.250589244576615"><ele>334.3333333333333</ele><time>2026-05-03T16:04:55Z</time></trkpt><trkpt lat="43.57049640555042" lon="11.250600230751125"><ele>332.1666666666667</ele><time>2026-05-03T16:04:56Z</time></trkpt><trkpt lat="43.57044363777663" lon="11.25051066148743"><ele>330.0</ele><time>2026-05-03T16:04:59Z</time></trkpt><trkpt lat="43.5704282776839" lon="11.25035936671614"><ele>330.0</ele><time>2026-05-03T16:05:01Z</time></trkpt><trkpt lat="43.5703804703543" lon="11.250253669295084"><ele>330.0</ele><time>2026-05-03T16:05:03Z</time></trkpt><trkpt lat="43.570301626378885" lon="11.250162197111674"><ele>330.0</ele><time>2026-05-03T16:05:05Z</time></trkpt><trkpt lat="43.57022893815346" lon="11.250108885170244"><ele>330.0</ele><time>2026-05-03T16:05:07Z</time></trkpt><trkpt lat="43.57013469130232" lon="11.250101635121416"><ele>330.0</ele><time>2026-05-03T16:05:09Z</time></trkpt><trkpt lat="43.57005291087345" lon="11.250055713142398"><ele>331.5</ele><time>2026-05-03T16:05:11Z</time></trkpt><trkpt lat="43.56998145334128" lon="11.250002167637943"><ele>333.0</ele><time>2026-05-03T16:05:13Z</time></trkpt><trkpt lat="43.569938318535414" lon="11.249936927027528"><ele>334.5</ele><time>2026-05-03T16:05:14Z</time></trkpt><trkpt lat="43.56990964373296" lon="11.249854508109712"><ele>336.0</ele><time>2026-05-03T16:05:15Z</time></trkpt><trkpt lat="43.56988050048761" lon="11.249735393846725"><ele>337.5</ele><time>2026-05-03T16:05:16Z</time></trkpt><trkpt lat="43.56985777413204" lon="11.249645218106648"><ele>339.0</ele><time>2026-05-03T16:05:17Z</time></trkpt><trkpt lat="43.56977177696876" lon="11.249541822208467"><ele>339.0</ele><time>2026-05-03T16:05:19Z</time></trkpt><trkpt lat="43.56969770805816" lon="11.249402625519526"><ele>339.0</ele><time>2026-05-03T16:05:21Z</time></trkpt><trkpt lat="43.56964769314526" lon="11.249300054077263"><ele>339.0</ele><time>2026-05-03T16:05:22Z</time></trkpt><trkpt lat="43.569616111859276" lon="11.249205478065374"><ele>339.0</ele><time>2026-05-03T16:05:23Z</time></trkpt><trkpt lat="43.569588402704774" lon="11.249114222302957"><ele>339.0</ele><time>2026-05-03T16:05:24Z</time></trkpt><trkpt lat="43.56955472918782" lon="11.249034725617388"><ele>339.0</ele><time>2026-05-03T16:05:25Z</time></trkpt><trkpt lat="43.56953145853929" lon="11.248939953193746"><ele>343.79999999999995</ele><time>2026-05-03T16:05:26Z</time></trkpt><trkpt lat="43.56951285602946" lon="11.24879283442457"><ele>348.59999999999997</ele><time>2026-05-03T16:05:28Z</time></trkpt><trkpt lat="43.56944951569286" lon="11.248664538673319"><ele>353.4</ele><time>2026-05-03T16:05:30Z</time></trkpt><trkpt lat="43.569425658035826" lon="11.248581129258637"><ele>358.2</ele><time>2026-05-03T16:05:31Z</time></trkpt><trkpt lat="43.569369918824066" lon="11.248462581129369"><ele>363.0</ele><time>2026-05-03T16:05:33Z</time></trkpt><trkpt lat="43.56927093335967" lon="11.248317918003165"><ele>363.0</ele><time>2026-05-03T16:05:35Z</time></trkpt><trkpt lat="43.56920562663112" lon="11.248241993517663"><ele>363.0</ele><time>2026-05-03T16:05:37Z</time></trkpt><trkpt lat="43.569128989549505" lon="11.248155205985073"><ele>363.0</ele><time>2026-05-03T16:05:40Z</time></trkpt><trkpt lat="43.56905237874322" lon="11.248012244393992"><ele>363.0</ele><time>2026-05-03T16:05:42Z</time></trkpt><trkpt lat="43.56901280640535" lon="11.24793900035579"><ele>363.0</ele><time>2026-05-03T16:05:43Z</time></trkpt><trkpt lat="43.56894473089907" lon="11.247791744557672"><ele>361.79999999999995</ele><time>2026-05-03T16:05:45Z</time></trkpt><trkpt lat="43.568871808211554" lon="11.247698715847397"><ele>360.6</ele><time>2026-05-03T16:05:47Z</time></trkpt><trkpt lat="43.56881031378019" lon="11.247625148857846"><ele>359.4</ele><time>2026-05-03T16:05:49Z</time></trkpt><trkpt lat="43.56875607137765" lon="11.247523361495386"><ele>358.20000000000005</ele><time>2026-05-03T16:05:50Z</time></trkpt><trkpt lat="43.56871764476805" lon="11.24740950398645"><ele>357.0</ele><time>2026-05-03T16:05:51Z</time></trkpt><trkpt lat="43.56863610911501" lon="11.247337159929552"><ele>357.6</ele><time>2026-05-03T16:05:53Z</time></trkpt><trkpt lat="43.56857546147054" lon="11.247230198581297"><ele>358.20000000000005</ele><time>2026-05-03T16:05:55Z</time></trkpt><trkpt lat="43.568616335109915" lon="11.247158831552273"><ele>358.8</ele><time>2026-05-03T16:06:13.999Z</time></trkpt><trkpt lat="43.56871405673568" lon="11.247141895219347"><ele>359.4</ele><time>2026-05-03T16:06:15.999Z</time></trkpt><trkpt lat="43.568809631260386" lon="11.24711308083799"><ele>360.0</ele><time>2026-05-03T16:06:17.999Z</time></trkpt><trkpt lat="43.568910758000094" lon="11.247076256946436"><ele>360.0</ele><time>2026-05-03T16:06:19.999Z</time></trkpt><trkpt lat="43.56902527535479" lon="11.247045326891547"><ele>360.0</ele><time>2026-05-03T16:06:21.999Z</time></trkpt><trkpt lat="43.56912105647719" lon="11.24699255521146"><ele>360.0</ele><time>2026-05-03T16:06:23.999Z</time></trkpt><trkpt lat="43.569186333680854" lon="11.246902316460684"><ele>360.0</ele><time>2026-05-03T16:06:26Z</time></trkpt><trkpt lat="43.56927109016919" lon="11.246818250388168"><ele>360.0</ele><time>2026-05-03T16:06:29Z</time></trkpt><trkpt lat="43.5693854960585" lon="11.246750418977733"><ele>360.0</ele><time>2026-05-03T16:06:31Z</time></trkpt><trkpt lat="43.56947922400541" lon="11.246652201175841"><ele>360.0</ele><time>2026-05-03T16:06:33Z</time></trkpt><trkpt lat="43.56953231152555" lon="11.24657321577353"><ele>360.0</ele><time>2026-05-03T16:06:34Z</time></trkpt><trkpt lat="43.56959191228837" lon="11.246512886997994"><ele>360.0</ele><time>2026-05-03T16:06:36Z</time></trkpt><trkpt lat="43.56968290439425" lon="11.246504122632649"><ele>360.0</ele><time>2026-05-03T16:06:38Z</time></trkpt><trkpt lat="43.56978760119333" lon="11.246465172410021"><ele>355.75</ele><time>2026-05-03T16:06:40Z</time></trkpt><trkpt lat="43.569892953797144" lon="11.246429967903566"><ele>351.5</ele><time>2026-05-03T16:06:42Z</time></trkpt><trkpt lat="43.56998875134238" lon="11.246342421093587"><ele>347.25</ele><time>2026-05-03T16:06:44Z</time></trkpt><trkpt lat="43.570079164687314" lon="11.246256008526895"><ele>343.0</ele><time>2026-05-03T16:06:46Z</time></trkpt><trkpt lat="43.57018997422739" lon="11.246176151972433"><ele>343.0</ele><time>2026-05-03T16:06:48Z</time></trkpt><trkpt lat="43.570230013468745" lon="11.246034423638116"><ele>343.0</ele><time>2026-05-03T16:06:50Z</time></trkpt><trkpt lat="43.570240731042695" lon="11.245945111154652"><ele>343.0</ele><time>2026-05-03T16:06:51Z</time></trkpt><trkpt lat="43.570244794667985" lon="11.24581538458236"><ele>343.0</ele><time>2026-05-03T16:06:53Z</time></trkpt><trkpt lat="43.57027095044639" lon="11.245718407071207"><ele>343.0</ele><time>2026-05-03T16:06:55Z</time></trkpt><trkpt lat="43.57031462868334" lon="11.245625595612655"><ele>343.0</ele><time>2026-05-03T16:06:57Z</time></trkpt><trkpt lat="43.570372264257706" lon="11.245539382041407"><ele>339.2</ele><time>2026-05-03T16:06:59Z</time></trkpt><trkpt lat="43.5704786061876" lon="11.245427533845435"><ele>335.4</ele><time>2026-05-03T16:07:01Z</time></trkpt><trkpt lat="43.570568585046445" lon="11.245374381912312"><ele>331.59999999999997</ele><time>2026-05-03T16:07:03Z</time></trkpt><trkpt lat="43.570650999108096" lon="11.245389284142181"><ele>327.79999999999995</ele><time>2026-05-03T16:07:05Z</time></trkpt><trkpt lat="43.570718797714115" lon="11.2453710983707"><ele>324.0</ele><time>2026-05-03T16:07:07Z</time></trkpt><trkpt lat="43.57079300042935" lon="11.245322847830094"><ele>324.0</ele><time>2026-05-03T16:07:09Z</time></trkpt><trkpt lat="43.5708983512286" lon="11.245284190004321"><ele>324.0</ele><time>2026-05-03T16:07:11Z</time></trkpt><trkpt lat="43.5710034283286" lon="11.245235933420787"><ele>324.0</ele><time>2026-05-03T16:07:13Z</time></trkpt><trkpt lat="43.57110489755325" lon="11.245180391395248"><ele>324.0</ele><time>2026-05-03T16:07:15Z</time></trkpt><trkpt lat="43.57116925609748" lon="11.24512308209914"><ele>324.0</ele><time>2026-05-03T16:07:17Z</time></trkpt><trkpt lat="43.571236514457574" lon="11.245094701342062"><ele>324.0</ele><time>2026-05-03T16:07:28Z</time></trkpt><trkpt lat="43.57127541964992" lon="11.245163911265466"><ele>324.0</ele><time>2026-05-03T16:07:33Z</time></trkpt><trkpt lat="43.57120985495468" lon="11.245148396388641"><ele>324.0</ele><time>2026-05-03T16:07:36Z</time></trkpt><trkpt lat="43.57113024703944" lon="11.245156070433104"><ele>324.0</ele><time>2026-05-03T16:07:39Z</time></trkpt><trkpt lat="43.571048508963116" lon="11.245228010308294"><ele>324.0</ele><time>2026-05-03T16:07:41Z</time></trkpt><trkpt lat="43.57095579116189" lon="11.2452751637265"><ele>324.0</ele><time>2026-05-03T16:07:43Z</time></trkpt><trkpt lat="43.57084665523442" lon="11.245324826494224"><ele>324.0</ele><time>2026-05-03T16:07:45Z</time></trkpt><trkpt lat="43.5707623128574" lon="11.245358658586685"><ele>324.0</ele><time>2026-05-03T16:07:47Z</time></trkpt><trkpt lat="43.57070196504993" lon="11.245412334438452"><ele>324.0</ele><time>2026-05-03T16:07:49.999Z</time></trkpt><trkpt lat="43.57078402977448" lon="11.24546910435286"><ele>324.0</ele><time>2026-05-03T16:07:59.999Z</time></trkpt><trkpt lat="43.57085529814635" lon="11.245518104947067"><ele>324.0</ele><time>2026-05-03T16:08:02.999Z</time></trkpt><trkpt lat="43.5709120894072" lon="11.245557379943456"><ele>324.0</ele><time>2026-05-03T16:08:12.999Z</time></trkpt><trkpt lat="43.57098386042402" lon="11.245565992901097"><ele>324.0</ele><time>2026-05-03T16:08:17.999Z</time></trkpt><trkpt lat="43.57105177606018" lon="11.245581548565509"><ele>324.0</ele><time>2026-05-03T16:08:20.999Z</time></trkpt><trkpt lat="43.571129994155015" lon="11.245586896636754"><ele>324.0</ele><time>2026-05-03T16:08:23.999Z</time></trkpt><trkpt lat="43.571206839482194" lon="11.245584955928402"><ele>324.0</ele><time>2026-05-03T16:08:26.999Z</time></trkpt><trkpt lat="43.57127722153414" lon="11.245591596977416"><ele>324.0</ele><time>2026-05-03T16:08:29.999Z</time></trkpt><trkpt lat="43.57134559880229" lon="11.245597134667934"><ele>324.0</ele><time>2026-05-03T16:08:32Z</time></trkpt><trkpt lat="43.57141007912308" lon="11.2455909845367"><ele>324.0</ele><time>2026-05-03T16:08:34Z</time></trkpt><trkpt lat="43.571499180057785" lon="11.24558528072289"><ele>322.7142857142857</ele><time>2026-05-03T16:08:37Z</time></trkpt><trkpt lat="43.57156696329906" lon="11.24561399231793"><ele>321.42857142857144</ele><time>2026-05-03T16:08:40Z</time></trkpt><trkpt lat="43.57162449448003" lon="11.245672422623933"><ele>320.1428571428571</ele><time>2026-05-03T16:08:43Z</time></trkpt><trkpt lat="43.571680260847266" lon="11.245734407863063"><ele>318.8571428571429</ele><time>2026-05-03T16:08:46Z</time></trkpt><trkpt lat="43.571740826501404" lon="11.245788828938986"><ele>317.57142857142856</ele><time>2026-05-03T16:08:48Z</time></trkpt><trkpt lat="43.5718092620124" lon="11.245836046938065"><ele>316.2857142857143</ele><time>2026-05-03T16:08:51Z</time></trkpt><trkpt lat="43.571868556896156" lon="11.24587847888547"><ele>315.0</ele><time>2026-05-03T16:08:55Z</time></trkpt><trkpt lat="43.5719441258386" lon="11.245899884538355"><ele>312.0</ele><time>2026-05-03T16:08:58Z</time></trkpt><trkpt lat="43.57202453329027" lon="11.245914428531236"><ele>309.0</ele><time>2026-05-03T16:09:00Z</time></trkpt><trkpt lat="43.57209281648196" lon="11.245912054925281"><ele>306.0</ele><time>2026-05-03T16:09:03Z</time></trkpt><trkpt lat="43.57216967689709" lon="11.245913325237286"><ele>303.0</ele><time>2026-05-03T16:09:06Z</time></trkpt><trkpt lat="43.572249060095686" lon="11.245931143933717"><ele>300.0</ele><time>2026-05-03T16:09:09Z</time></trkpt><trkpt lat="43.57232100846473" lon="11.245981007907133"><ele>297.0</ele><time>2026-05-03T16:09:12Z</time></trkpt><trkpt lat="43.57239429698028" lon="11.246036030110556"><ele>297.0</ele><time>2026-05-03T16:09:15Z</time></trkpt><trkpt lat="43.57242977125475" lon="11.2461123046001"><ele>297.0</ele><time>2026-05-03T16:09:18Z</time></trkpt><trkpt lat="43.572453695666695" lon="11.246218436951892"><ele>297.0</ele><time>2026-05-03T16:09:21Z</time></trkpt><trkpt lat="43.57250820949685" lon="11.246308848375161"><ele>297.0</ele><time>2026-05-03T16:09:24Z</time></trkpt><trkpt lat="43.57259202008629" lon="11.246376710229406"><ele>297.0</ele><time>2026-05-03T16:09:27Z</time></trkpt><trkpt lat="43.572639359985196" lon="11.24645737057957"><ele>297.0</ele><time>2026-05-03T16:09:30Z</time></trkpt><trkpt lat="43.57269315142572" lon="11.246517829618044"><ele>296.3333333333333</ele><time>2026-05-03T16:09:33Z</time></trkpt><trkpt lat="43.57276998302966" lon="11.24655595754262"><ele>295.6666666666667</ele><time>2026-05-03T16:09:36Z</time></trkpt><trkpt lat="43.5728363065503" lon="11.246621750531327"><ele>295.0</ele><time>2026-05-03T16:09:39Z</time></trkpt><trkpt lat="43.5728898738596" lon="11.246697180735834"><ele>294.33333333333337</ele><time>2026-05-03T16:09:44Z</time></trkpt><trkpt lat="43.57294376925654" lon="11.246758640000914"><ele>293.6666666666667</ele><time>2026-05-03T16:09:52.999Z</time></trkpt><trkpt lat="43.572989816999616" lon="11.246820225316581"><ele>293.0</ele><time>2026-05-03T16:09:57.999Z</time></trkpt><trkpt lat="43.572998511371935" lon="11.246943717379372"><ele>290.85714285714283</ele><time>2026-05-03T16:10:02.999Z</time></trkpt><trkpt lat="43.573013115639135" lon="11.247045530399637"><ele>288.7142857142857</ele><time>2026-05-03T16:10:05.999Z</time></trkpt><trkpt lat="43.57309188994755" lon="11.247067453681773"><ele>286.57142857142856</ele><time>2026-05-03T16:10:10.999Z</time></trkpt><trkpt lat="43.573157760872945" lon="11.247061101782117"><ele>284.42857142857144</ele><time>2026-05-03T16:10:33.999Z</time></trkpt><trkpt lat="43.57323382090276" lon="11.247065733553994"><ele>282.2857142857143</ele><time>2026-05-03T16:10:43Z</time></trkpt><trkpt lat="43.573284327624854" lon="11.247131643205334"><ele>280.1428571428571</ele><time>2026-05-03T16:10:50Z</time></trkpt><trkpt lat="43.573313290414276" lon="11.247225215856133"><ele>278.0</ele><time>2026-05-03T16:10:52Z</time></trkpt><trkpt lat="43.57336265443542" lon="11.24729453815495"><ele>278.0</ele><time>2026-05-03T16:10:54Z</time></trkpt><trkpt lat="43.57341082721708" lon="11.247371958569484"><ele>278.0</ele><time>2026-05-03T16:10:56Z</time></trkpt><trkpt lat="43.57343783962574" lon="11.247482926986795"><ele>278.0</ele><time>2026-05-03T16:10:58Z</time></trkpt><trkpt lat="43.573521519732104" lon="11.247529476803876"><ele>278.0</ele><time>2026-05-03T16:11:11.999Z</time></trkpt><trkpt lat="43.57359956581384" lon="11.247464073081424"><ele>278.0</ele><time>2026-05-03T16:11:14.999Z</time></trkpt><trkpt lat="43.57368386060185" lon="11.24742246938963"><ele>278.0</ele><time>2026-05-03T16:11:17.999Z</time></trkpt><trkpt lat="43.573760676670005" lon="11.247405135202607"><ele>277.6</ele><time>2026-05-03T16:11:19.999Z</time></trkpt><trkpt lat="43.57382941762021" lon="11.247331940890101"><ele>277.20000000000005</ele><time>2026-05-03T16:11:21.999Z</time></trkpt><trkpt lat="43.5738761743854" lon="11.247221500941142"><ele>276.8</ele><time>2026-05-03T16:11:23.999Z</time></trkpt><trkpt lat="43.57392002015664" lon="11.247135501063847"><ele>276.40000000000003</ele><time>2026-05-03T16:11:26.999Z</time></trkpt><trkpt lat="43.57400240281832" lon="11.247071712848651"><ele>276.0</ele><time>2026-05-03T16:11:28.999Z</time></trkpt><trkpt lat="43.57411092440996" lon="11.247001595264651"><ele>275.6</ele><time>2026-05-03T16:11:30.999Z</time></trkpt><trkpt lat="43.574199600994476" lon="11.246905253857474"><ele>275.20000000000005</ele><time>2026-05-03T16:11:32.999Z</time></trkpt><trkpt lat="43.574287223697034" lon="11.246854305084193"><ele>274.79999999999995</ele><time>2026-05-03T16:11:34.999Z</time></trkpt><trkpt lat="43.574376551490495" lon="11.246765980214736"><ele>274.4</ele><time>2026-05-03T16:11:36.999Z</time></trkpt><trkpt lat="43.57443163643002" lon="11.246706573982829"><ele>274.0</ele><time>2026-05-03T16:11:38.999Z</time></trkpt><trkpt lat="43.574523573963255" lon="11.246601012248776"><ele>275.0</ele><time>2026-05-03T16:11:40.999Z</time></trkpt><trkpt lat="43.574609174195196" lon="11.246534827738836"><ele>276.0</ele><time>2026-05-03T16:11:42.999Z</time></trkpt><trkpt lat="43.57467619458231" lon="11.246460908378978"><ele>277.0</ele><time>2026-05-03T16:11:44.999Z</time></trkpt><trkpt lat="43.57470599391849" lon="11.24638000612899"><ele>278.0</ele><time>2026-05-03T16:11:46.999Z</time></trkpt><trkpt lat="43.574651963036565" lon="11.246306167876067"><ele>279.0</ele><time>2026-05-03T16:11:48.999Z</time></trkpt><trkpt lat="43.574582844545034" lon="11.246274639457791"><ele>280.0</ele><time>2026-05-03T16:11:50.999Z</time></trkpt><trkpt lat="43.57451496300399" lon="11.24626854124925"><ele>280.0</ele><time>2026-05-03T16:11:52.999Z</time></trkpt><trkpt lat="43.57448554821435" lon="11.246184903260861"><ele>280.0</ele><time>2026-05-03T16:11:54.999Z</time></trkpt><trkpt lat="43.57448570106064" lon="11.246096448561074"><ele>280.0</ele><time>2026-05-03T16:11:55.999Z</time></trkpt><trkpt lat="43.574506265078" lon="11.245959180852761"><ele>280.0</ele><time>2026-05-03T16:11:57.999Z</time></trkpt><trkpt lat="43.574574027054744" lon="11.245864142750902"><ele>280.0</ele><time>2026-05-03T16:11:59.999Z</time></trkpt><trkpt lat="43.574608179547795" lon="11.245748565980469"><ele>280.0</ele><time>2026-05-03T16:12:01.999Z</time></trkpt><trkpt lat="43.57465698889666" lon="11.245640456913469"><ele>283.6</ele><time>2026-05-03T16:12:03.999Z</time></trkpt><trkpt lat="43.57471971029584" lon="11.24555834982938"><ele>287.2</ele><time>2026-05-03T16:12:05.999Z</time></trkpt><trkpt lat="43.57482608950342" lon="11.245582494242695"><ele>290.8</ele><time>2026-05-03T16:12:07.999Z</time></trkpt><trkpt lat="43.57492344964778" lon="11.245621356758887"><ele>294.4</ele><time>2026-05-03T16:12:09.999Z</time></trkpt><trkpt lat="43.57501373205573" lon="11.245639353568839"><ele>298.0</ele><time>2026-05-03T16:12:11.999Z</time></trkpt><trkpt lat="43.57509590287957" lon="11.245635685599154"><ele>298.6</ele><time>2026-05-03T16:12:13.999Z</time></trkpt><trkpt lat="43.5752070008949" lon="11.245619735555334"><ele>299.20000000000005</ele><time>2026-05-03T16:12:15.999Z</time></trkpt><trkpt lat="43.575285606970866" lon="11.245572494538695"><ele>299.8</ele><time>2026-05-03T16:12:17.999Z</time></trkpt><trkpt lat="43.575377219021206" lon="11.245520204999988"><ele>300.40000000000003</ele><time>2026-05-03T16:12:19.999Z</time></trkpt><trkpt lat="43.57547204632352" lon="11.245469745288503"><ele>301.0</ele><time>2026-05-03T16:12:21.999Z</time></trkpt><trkpt lat="43.575532418320485" lon="11.245430795625909"><ele>303.3333333333333</ele><time>2026-05-03T16:12:22.999Z</time></trkpt><trkpt lat="43.575587934927256" lon="11.24538925362732"><ele>305.66666666666663</ele><time>2026-05-03T16:12:23.999Z</time></trkpt><trkpt lat="43.57569347906738" lon="11.245346087221947"><ele>308.0</ele><time>2026-05-03T16:12:25.999Z</time></trkpt><trkpt lat="43.575753833965244" lon="11.24531735387784"><ele>310.3333333333333</ele><time>2026-05-03T16:12:26.999Z</time></trkpt><trkpt lat="43.57586389602696" lon="11.245251454576096"><ele>312.6666666666667</ele><time>2026-05-03T16:12:28.999Z</time></trkpt><trkpt lat="43.57594373476912" lon="11.245221371470214"><ele>315.0</ele><time>2026-05-03T16:12:30.999Z</time></trkpt><trkpt lat="43.57601006446175" lon="11.245279036084002"><ele>315.0</ele><time>2026-05-03T16:12:32.999Z</time></trkpt><trkpt lat="43.57606090910612" lon="11.24536542612273"><ele>315.0</ele><time>2026-05-03T16:12:34.999Z</time></trkpt><trkpt lat="43.576133852631756" lon="11.245436491015363"><ele>315.0</ele><time>2026-05-03T16:12:36.999Z</time></trkpt><trkpt lat="43.57622693740399" lon="11.245550568837041"><ele>315.0</ele><time>2026-05-03T16:12:38.999Z</time></trkpt><trkpt lat="43.576277469907716" lon="11.245610628439618"><ele>315.0</ele><time>2026-05-03T16:12:39.999Z</time></trkpt><trkpt lat="43.57636829773968" lon="11.245726058805088"><ele>318.4</ele><time>2026-05-03T16:12:41.999Z</time></trkpt><trkpt lat="43.57644570302802" lon="11.245823284415351"><ele>321.8</ele><time>2026-05-03T16:12:43.999Z</time></trkpt><trkpt lat="43.576526284522735" lon="11.245917664599505"><ele>325.20000000000005</ele><time>2026-05-03T16:12:45.999Z</time></trkpt><trkpt lat="43.57659326261477" lon="11.245998140868757"><ele>328.6</ele><time>2026-05-03T16:12:47.999Z</time></trkpt><trkpt lat="43.57664772872552" lon="11.246090114940927"><ele>332.0</ele><time>2026-05-03T16:12:49.999Z</time></trkpt><trkpt lat="43.57671385422368" lon="11.246148440052465"><ele>332.0</ele><time>2026-05-03T16:12:52Z</time></trkpt><trkpt lat="43.57678378536668" lon="11.246161677874955"><ele>332.0</ele><time>2026-05-03T16:12:54Z</time></trkpt><trkpt lat="43.57687571913196" lon="11.24615793891657"><ele>332.0</ele><time>2026-05-03T16:12:56Z</time></trkpt><trkpt lat="43.57694058460708" lon="11.246082624211454"><ele>332.0</ele><time>2026-05-03T16:12:58Z</time></trkpt><trkpt lat="43.57700081968068" lon="11.246007493930076"><ele>332.0</ele><time>2026-05-03T16:13:00Z</time></trkpt><trkpt lat="43.57706849700902" lon="11.24600738431559"><ele>332.0</ele><time>2026-05-03T16:13:02Z</time></trkpt><trkpt lat="43.577153080072115" lon="11.24612337965165"><ele>331.0</ele><time>2026-05-03T16:13:04Z</time></trkpt><trkpt lat="43.57719429305681" lon="11.246200792994525"><ele>330.0</ele><time>2026-05-03T16:13:05Z</time></trkpt><trkpt lat="43.577265929086714" lon="11.246342062196778"><ele>329.0</ele><time>2026-05-03T16:13:07Z</time></trkpt><trkpt lat="43.57730860845836" lon="11.246408263496747"><ele>328.0</ele><time>2026-05-03T16:13:08Z</time></trkpt><trkpt lat="43.577358744895385" lon="11.24647716198077"><ele>327.0</ele><time>2026-05-03T16:13:09Z</time></trkpt><trkpt lat="43.57741892181056" lon="11.246525938909231"><ele>326.0</ele><time>2026-05-03T16:13:10Z</time></trkpt><trkpt lat="43.577469084737025" lon="11.246600157945704"><ele>328.1666666666667</ele><time>2026-05-03T16:13:11Z</time></trkpt><trkpt lat="43.57752015841079" lon="11.246671572866992"><ele>330.33333333333337</ele><time>2026-05-03T16:13:12Z</time></trkpt><trkpt lat="43.57761349397907" lon="11.246814267315083"><ele>332.5</ele><time>2026-05-03T16:13:14Z</time></trkpt><trkpt lat="43.577655725255596" lon="11.246883787572951"><ele>334.6666666666667</ele><time>2026-05-03T16:13:15Z</time></trkpt><trkpt lat="43.577695479993295" lon="11.246956033639524"><ele>336.8333333333333</ele><time>2026-05-03T16:13:16Z</time></trkpt><trkpt lat="43.57773962234925" lon="11.247021103547826"><ele>339.0</ele><time>2026-05-03T16:13:17Z</time></trkpt><trkpt lat="43.57778534538157" lon="11.247092645337963"><ele>339.0</ele><time>2026-05-03T16:13:18Z</time></trkpt><trkpt lat="43.577827626827116" lon="11.247162216939312"><ele>339.0</ele><time>2026-05-03T16:13:19Z</time></trkpt><trkpt lat="43.577873287013546" lon="11.247235514645688"><ele>339.0</ele><time>2026-05-03T16:13:20Z</time></trkpt><trkpt lat="43.57792188663407" lon="11.247301283376228"><ele>339.0</ele><time>2026-05-03T16:13:21Z</time></trkpt><trkpt lat="43.577966235210425" lon="11.247375417261507"><ele>339.0</ele><time>2026-05-03T16:13:22Z</time></trkpt><trkpt lat="43.57801089478902" lon="11.247442672112866"><ele>339.0</ele><time>2026-05-03T16:13:23Z</time></trkpt><trkpt lat="43.57805949682721" lon="11.247517892934734"><ele>339.0</ele><time>2026-05-03T16:13:24Z</time></trkpt><trkpt lat="43.57810232768151" lon="11.247595597959503"><ele>339.1666666666667</ele><time>2026-05-03T16:13:25Z</time></trkpt><trkpt lat="43.57815113203708" lon="11.247661499457765"><ele>339.3333333333333</ele><time>2026-05-03T16:13:26Z</time></trkpt><trkpt lat="43.57819726862447" lon="11.247722870537803"><ele>339.5</ele><time>2026-05-03T16:13:27Z</time></trkpt><trkpt lat="43.57828940836163" lon="11.24782873531157"><ele>339.66666666666663</ele><time>2026-05-03T16:13:29Z</time></trkpt><trkpt lat="43.57832628148282" lon="11.247904506304229"><ele>339.8333333333333</ele><time>2026-05-03T16:13:30Z</time></trkpt><trkpt lat="43.57837830012381" lon="11.247974629518241"><ele>340.0</ele><time>2026-05-03T16:13:31Z</time></trkpt><trkpt lat="43.57845213963126" lon="11.248042491756113"><ele>340.0</ele><time>2026-05-03T16:13:32Z</time></trkpt><trkpt lat="43.57851386492789" lon="11.248121457380519"><ele>340.0</ele><time>2026-05-03T16:13:33Z</time></trkpt><trkpt lat="43.578569418028" lon="11.248194719168094"><ele>340.0</ele><time>2026-05-03T16:13:34Z</time></trkpt><trkpt lat="43.578611888202886" lon="11.248283190800269"><ele>340.0</ele><time>2026-05-03T16:13:35Z</time></trkpt><trkpt lat="43.578665755299525" lon="11.248355602304342"><ele>340.0</ele><time>2026-05-03T16:13:36Z</time></trkpt><trkpt lat="43.57873316950525" lon="11.24841461130648"><ele>340.0</ele><time>2026-05-03T16:13:36.999Z</time></trkpt><trkpt lat="43.57879040073291" lon="11.248483902029024"><ele>340.3333333333333</ele><time>2026-05-03T16:13:37.999Z</time></trkpt><trkpt lat="43.57884538724888" lon="11.2485528073012"><ele>340.66666666666663</ele><time>2026-05-03T16:13:38.999Z</time></trkpt><trkpt lat="43.57890273798653" lon="11.248615273463253"><ele>341.0</ele><time>2026-05-03T16:13:39.999Z</time></trkpt><trkpt lat="43.578956839010715" lon="11.248680106095028"><ele>341.3333333333333</ele><time>2026-05-03T16:13:40.999Z</time></trkpt><trkpt lat="43.57902220761773" lon="11.248718259447825"><ele>341.6666666666667</ele><time>2026-05-03T16:13:41.999Z</time></trkpt><trkpt lat="43.579084909309636" lon="11.248749283317427"><ele>342.0</ele><time>2026-05-03T16:13:42.999Z</time></trkpt><trkpt lat="43.57920629622001" lon="11.24881016604353"><ele>342.0</ele><time>2026-05-03T16:13:44.999Z</time></trkpt><trkpt lat="43.579265488624564" lon="11.248839852927299"><ele>342.0</ele><time>2026-05-03T16:13:45.999Z</time></trkpt><trkpt lat="43.579329078313194" lon="11.24887174518153"><ele>342.0</ele><time>2026-05-03T16:13:46.999Z</time></trkpt><trkpt lat="43.57939352883617" lon="11.248904069171987"><ele>342.0</ele><time>2026-05-03T16:13:47.999Z</time></trkpt><trkpt lat="43.57950811161573" lon="11.248943811148765"><ele>342.0</ele><time>2026-05-03T16:13:49.999Z</time></trkpt><trkpt lat="43.579567686063584" lon="11.248984534187105"><ele>342.0</ele><time>2026-05-03T16:13:51.999Z</time></trkpt><trkpt lat="43.57969618097032" lon="11.249035061555771"><ele>342.25</ele><time>2026-05-03T16:14:30.999Z</time></trkpt><trkpt lat="43.57978308095931" lon="11.249100187801622"><ele>342.5</ele><time>2026-05-03T16:14:31.999Z</time></trkpt><trkpt lat="43.5799087029891" lon="11.24916356587491"><ele>342.75</ele><time>2026-05-03T16:14:32.999Z</time></trkpt><trkpt lat="43.58005219645665" lon="11.249235960339215"><ele>343.0</ele><time>2026-05-03T16:14:33.999Z</time></trkpt><trkpt lat="43.58020403791606" lon="11.249312435575145"><ele>343.0</ele><time>2026-05-03T16:14:34.999Z</time></trkpt><trkpt lat="43.580336753018656" lon="11.249374026056776"><ele>343.0</ele><time>2026-05-03T16:14:35.999Z</time></trkpt><trkpt lat="43.580459706012746" lon="11.24940814178974"><ele>343.0</ele><time>2026-05-03T16:14:36.999Z</time></trkpt><trkpt lat="43.58056649439808" lon="11.249471249863587"><ele>343.0</ele><time>2026-05-03T16:14:37.999Z</time></trkpt><trkpt lat="43.58066488613051" lon="11.249570268955257"><ele>343.0</ele><time>2026-05-03T16:14:38.999Z</time></trkpt><trkpt lat="43.5807738267096" lon="11.24966349966673"><ele>343.0</ele><time>2026-05-03T16:14:39.999Z</time></trkpt><trkpt lat="43.580888649336735" lon="11.249780015731664"><ele>343.0</ele><time>2026-05-03T16:14:40.999Z</time></trkpt><trkpt lat="43.58100511221923" lon="11.249899684974189"><ele>343.0</ele><time>2026-05-03T16:14:41.999Z</time></trkpt><trkpt lat="43.58111713343765" lon="11.249987748891893"><ele>345.4</ele><time>2026-05-03T16:14:42.999Z</time></trkpt><trkpt lat="43.581201627186545" lon="11.2500718340352"><ele>347.79999999999995</ele><time>2026-05-03T16:14:43.999Z</time></trkpt><trkpt lat="43.58126748831977" lon="11.250139987462454"><ele>350.2</ele><time>2026-05-03T16:14:44.999Z</time></trkpt><trkpt lat="43.58132113814721" lon="11.250204562408397"><ele>352.6</ele><time>2026-05-03T16:14:45.999Z</time></trkpt><trkpt lat="43.58137999023626" lon="11.250329291193914"><ele>355.0</ele><time>2026-05-03T16:14:48Z</time></trkpt><trkpt lat="43.58150631758714" lon="11.250304967558808"><ele>355.0</ele><time>2026-05-03T16:14:50Z</time></trkpt><trkpt lat="43.581578330610334" lon="11.25026755039852"><ele>355.0</ele><time>2026-05-03T16:14:51Z</time></trkpt><trkpt lat="43.58165255626683" lon="11.250226586476472"><ele>355.0</ele><time>2026-05-03T16:14:52Z</time></trkpt><trkpt lat="43.58172878522738" lon="11.250193518087109"><ele>355.0</ele><time>2026-05-03T16:14:53Z</time></trkpt><trkpt lat="43.58179283277334" lon="11.250165302005986"><ele>355.0</ele><time>2026-05-03T16:14:54Z</time></trkpt><trkpt lat="43.581853361731234" lon="11.25013337093472"><ele>355.0</ele><time>2026-05-03T16:14:55Z</time></trkpt><trkpt lat="43.581914730099264" lon="11.250107108324837"><ele>355.0</ele><time>2026-05-03T16:14:56Z</time></trkpt><trkpt lat="43.582025017888455" lon="11.25005743128707"><ele>358.5</ele><time>2026-05-03T16:14:58Z</time></trkpt><trkpt lat="43.582134726225185" lon="11.25001146877548"><ele>362.0</ele><time>2026-05-03T16:15:00Z</time></trkpt><trkpt lat="43.582244328804556" lon="11.249961700685803"><ele>365.5</ele><time>2026-05-03T16:15:02Z</time></trkpt><trkpt lat="43.58235464342128" lon="11.249923260569487"><ele>369.0</ele><time>2026-05-03T16:15:04Z</time></trkpt><trkpt lat="43.58246046419664" lon="11.249869546330642"><ele>369.0</ele><time>2026-05-03T16:15:06Z</time></trkpt><trkpt lat="43.58257121046127" lon="11.249817761832603"><ele>369.0</ele><time>2026-05-03T16:15:08Z</time></trkpt><trkpt lat="43.58263190331798" lon="11.249784214509642"><ele>369.0</ele><time>2026-05-03T16:15:09Z</time></trkpt><trkpt lat="43.58270549323192" lon="11.249763077841715"><ele>369.0</ele><time>2026-05-03T16:15:10Z</time></trkpt><trkpt lat="43.582790097526136" lon="11.249764604746934"><ele>369.0</ele><time>2026-05-03T16:15:11Z</time></trkpt><trkpt lat="43.582899625272695" lon="11.249809591873017"><ele>370.0</ele><time>2026-05-03T16:15:12Z</time></trkpt><trkpt lat="43.58301361807541" lon="11.249888648969545"><ele>371.0</ele><time>2026-05-03T16:15:13Z</time></trkpt><trkpt lat="43.58307795218839" lon="11.250016320827406"><ele>372.0</ele><time>2026-05-03T16:15:14Z</time></trkpt><trkpt lat="43.583149979390605" lon="11.2501688802201"><ele>373.0</ele><time>2026-05-03T16:15:15Z</time></trkpt><trkpt lat="43.58324259489607" lon="11.250314846041066"><ele>373.0</ele><time>2026-05-03T16:15:16Z</time></trkpt><trkpt lat="43.58333301432026" lon="11.250474092931434"><ele>373.0</ele><time>2026-05-03T16:15:17Z</time></trkpt><trkpt lat="43.58342777418291" lon="11.250613651389921"><ele>373.0</ele><time>2026-05-03T16:15:18Z</time></trkpt><trkpt lat="43.58353129192969" lon="11.250738978686162"><ele>373.0</ele><time>2026-05-03T16:15:19Z</time></trkpt><trkpt lat="43.58364786665198" lon="11.250868644893163"><ele>374.5</ele><time>2026-05-03T16:15:20Z</time></trkpt><trkpt lat="43.58375342458946" lon="11.250986954597057"><ele>376.0</ele><time>2026-05-03T16:15:21Z</time></trkpt><trkpt lat="43.58387697618113" lon="11.25110801498198"><ele>377.5</ele><time>2026-05-03T16:15:22Z</time></trkpt><trkpt lat="43.583994755553206" lon="11.251228119867534"><ele>379.0</ele><time>2026-05-03T16:15:23Z</time></trkpt><trkpt lat="43.58409772797715" lon="11.251342463855003"><ele>379.0</ele><time>2026-05-03T16:15:24Z</time></trkpt><trkpt lat="43.58419217756991" lon="11.251437065127519"><ele>379.0</ele><time>2026-05-03T16:15:25Z</time></trkpt><trkpt lat="43.5843019401433" lon="11.251535278256886"><ele>379.0</ele><time>2026-05-03T16:15:26Z</time></trkpt><trkpt lat="43.5843932396013" lon="11.251615178226896"><ele>379.0</ele><time>2026-05-03T16:15:27Z</time></trkpt><trkpt lat="43.58448901373188" lon="11.251673479814439"><ele>379.8333333333333</ele><time>2026-05-03T16:15:28Z</time></trkpt><trkpt lat="43.58457885342121" lon="11.251714136519295"><ele>380.66666666666663</ele><time>2026-05-03T16:15:29Z</time></trkpt><trkpt lat="43.58466624248352" lon="11.25174492851675"><ele>381.5</ele><time>2026-05-03T16:15:30Z</time></trkpt><trkpt lat="43.58474998815658" lon="11.251760366060104"><ele>382.3333333333333</ele><time>2026-05-03T16:15:31Z</time></trkpt><trkpt lat="43.58483902268445" lon="11.251802783892341"><ele>383.1666666666667</ele><time>2026-05-03T16:15:33Z</time></trkpt><trkpt lat="43.58490210030567" lon="11.251846193217348"><ele>384.0</ele><time>2026-05-03T16:15:36Z</time></trkpt><trkpt lat="43.58495229469895" lon="11.251903318686894"><ele>384.0</ele><time>2026-05-03T16:15:39Z</time></trkpt><trkpt lat="43.585002317769955" lon="11.25196659560336"><ele>384.0</ele><time>2026-05-03T16:15:41Z</time></trkpt><trkpt lat="43.58507079955462" lon="11.252079716727987"><ele>384.0</ele><time>2026-05-03T16:15:42.999Z</time></trkpt><trkpt lat="43.58511798133929" lon="11.2521676700113"><ele>384.0</ele><time>2026-05-03T16:15:44.999Z</time></trkpt><trkpt lat="43.584891879115204" lon="11.252284771443001"><ele>384.0</ele><time>2026-05-03T16:15:46.999Z</time></trkpt><trkpt lat="43.584828235264716" lon="11.252223197467112"><ele>384.0</ele><time>2026-05-03T16:15:47.999Z</time></trkpt><trkpt lat="43.58476743060622" lon="11.252174924605468"><ele>384.0</ele><time>2026-05-03T16:15:48.999Z</time></trkpt><trkpt lat="43.58468439805885" lon="11.25227729569552"><ele>384.0</ele><time>2026-05-03T16:15:50.999Z</time></trkpt><trkpt lat="43.58461136796218" lon="11.252377632067613"><ele>384.0</ele><time>2026-05-03T16:15:52.999Z</time></trkpt><trkpt lat="43.58450008710628" lon="11.252388886031724"><ele>389.4</ele><time>2026-05-03T16:15:54.999Z</time></trkpt><trkpt lat="43.584396069901636" lon="11.252443462228383"><ele>394.79999999999995</ele><time>2026-05-03T16:15:56.999Z</time></trkpt><trkpt lat="43.584302819136155" lon="11.252518494013117"><ele>400.20000000000005</ele><time>2026-05-03T16:15:58.999Z</time></trkpt><trkpt lat="43.584194028995356" lon="11.25253300835779"><ele>405.6</ele><time>2026-05-03T16:16:00.999Z</time></trkpt><trkpt lat="43.58413804672838" lon="11.252572821780207"><ele>411.0</ele><time>2026-05-03T16:16:01.999Z</time></trkpt><trkpt lat="43.58408291630803" lon="11.25263530941004"><ele>411.0</ele><time>2026-05-03T16:16:02.999Z</time></trkpt><trkpt lat="43.58405134656105" lon="11.252731527539611"><ele>411.0</ele><time>2026-05-03T16:16:04.999Z</time></trkpt><trkpt lat="43.58404533668583" lon="11.25286555095182"><ele>411.0</ele><time>2026-05-03T16:16:06.999Z</time></trkpt><trkpt lat="43.58400666579934" lon="11.253007046232211"><ele>411.0</ele><time>2026-05-03T16:16:08.999Z</time></trkpt><trkpt lat="43.58399986309416" lon="11.25313143526158"><ele>411.0</ele><time>2026-05-03T16:16:10.999Z</time></trkpt><trkpt lat="43.58399822745123" lon="11.253226056239047"><ele>411.0</ele><time>2026-05-03T16:16:11.999Z</time></trkpt><trkpt lat="43.58395385610636" lon="11.253352262722453"><ele>413.0</ele><time>2026-05-03T16:16:13.999Z</time></trkpt><trkpt lat="43.58391183587573" lon="11.253466572863235"><ele>415.0</ele><time>2026-05-03T16:16:15.999Z</time></trkpt><trkpt lat="43.58385361184702" lon="11.253539527605986"><ele>417.0</ele><time>2026-05-03T16:16:17.999Z</time></trkpt><trkpt lat="43.58376347674266" lon="11.25362925541355"><ele>419.0</ele><time>2026-05-03T16:16:19.999Z</time></trkpt><trkpt lat="43.583735322220186" lon="11.253788567215036"><ele>421.0</ele><time>2026-05-03T16:16:21.999Z</time></trkpt><trkpt lat="43.58371749913507" lon="11.253897941745727"><ele>422.33333333333337</ele><time>2026-05-03T16:16:23.999Z</time></trkpt><trkpt lat="43.58374012605705" lon="11.253986590174817"><ele>423.6666666666667</ele><time>2026-05-03T16:16:25.999Z</time></trkpt><trkpt lat="43.583758098284605" lon="11.254094211975497"><ele>425.0</ele><time>2026-05-03T16:16:27.999Z</time></trkpt><trkpt lat="43.583818223323185" lon="11.25423545779432"><ele>426.33333333333337</ele><time>2026-05-03T16:16:29.999Z</time></trkpt><trkpt lat="43.583866563475546" lon="11.254308954946339"><ele>427.6666666666667</ele><time>2026-05-03T16:16:31.999Z</time></trkpt><trkpt lat="43.5839513802536" lon="11.254371449292416"><ele>429.0</ele><time>2026-05-03T16:16:33.999Z</time></trkpt><trkpt lat="43.584030468561465" lon="11.254437469594901"><ele>429.0</ele><time>2026-05-03T16:16:35.999Z</time></trkpt><trkpt lat="43.58403952343919" lon="11.25459421090596"><ele>429.0</ele><time>2026-05-03T16:16:38.999Z</time></trkpt><trkpt lat="43.58406425125782" lon="11.254740301183496"><ele>429.0</ele><time>2026-05-03T16:16:40.999Z</time></trkpt><trkpt lat="43.58410152904324" lon="11.25485506401433"><ele>429.0</ele><time>2026-05-03T16:16:42.999Z</time></trkpt><trkpt lat="43.584089545676584" lon="11.254979268177072"><ele>429.0</ele><time>2026-05-03T16:16:44.999Z</time></trkpt><trkpt lat="43.584065961710806" lon="11.255060268530036"><ele>430.2</ele><time>2026-05-03T16:16:45.999Z</time></trkpt><trkpt lat="43.58409134869493" lon="11.255205144357111"><ele>431.4</ele><time>2026-05-03T16:16:47.999Z</time></trkpt><trkpt lat="43.584107431496996" lon="11.255296988496767"><ele>432.6</ele><time>2026-05-03T16:16:49.999Z</time></trkpt><trkpt lat="43.584128700723994" lon="11.255391468408781"><ele>433.8</ele><time>2026-05-03T16:16:51.999Z</time></trkpt><trkpt lat="43.5841366139643" lon="11.255507464730623"><ele>435.0</ele><time>2026-05-03T16:16:53.999Z</time></trkpt><trkpt lat="43.584176051682974" lon="11.255663538652199"><ele>436.1666666666667</ele><time>2026-05-03T16:16:55.999Z</time></trkpt><trkpt lat="43.58422121224078" lon="11.255800643943507"><ele>437.33333333333337</ele><time>2026-05-03T16:16:57.999Z</time></trkpt><trkpt lat="43.58425911750475" lon="11.255905076078765"><ele>438.5</ele><time>2026-05-03T16:17:00.999Z</time></trkpt><trkpt lat="43.58427007039431" lon="11.256006888432209"><ele>439.6666666666667</ele><time>2026-05-03T16:17:03.999Z</time></trkpt><trkpt lat="43.58429077416827" lon="11.256113773077374"><ele>440.83333333333337</ele><time>2026-05-03T16:17:05.999Z</time></trkpt><trkpt lat="43.58427612700325" lon="11.256204460312137"><ele>442.0</ele><time>2026-05-03T16:17:07.999Z</time></trkpt><trkpt lat="43.58430583148807" lon="11.2563013050508"><ele>442.00000000000006</ele><time>2026-05-03T16:17:09.999Z</time></trkpt><trkpt lat="43.584379470104906" lon="11.256382133455446"><ele>442.0</ele><time>2026-05-03T16:17:12.999Z</time></trkpt><trkpt lat="43.58444596382419" lon="11.256405476286886"><ele>442.0</ele><time>2026-05-03T16:17:14.999Z</time></trkpt><trkpt lat="43.58448500474458" lon="11.256522159010764"><ele>442.0</ele><time>2026-05-03T16:17:17.999Z</time></trkpt><trkpt lat="43.58451170867568" lon="11.256660330924529"><ele>442.00000000000006</ele><time>2026-05-03T16:17:19.999Z</time></trkpt><trkpt lat="43.584582634756906" lon="11.256709923110034"><ele>442.0</ele><time>2026-05-03T16:17:21.999Z</time></trkpt><trkpt lat="43.584659828768196" lon="11.256722284380285"><ele>444.50000000000006</ele><time>2026-05-03T16:17:23.999Z</time></trkpt><trkpt lat="43.58474973719872" lon="11.25677726650825"><ele>447.0</ele><time>2026-05-03T16:17:26.999Z</time></trkpt><trkpt lat="43.58483454030484" lon="11.256812377834557"><ele>449.5</ele><time>2026-05-03T16:17:28.999Z</time></trkpt><trkpt lat="43.58492164109472" lon="11.256863885277006"><ele>452.0</ele><time>2026-05-03T16:17:30.999Z</time></trkpt><trkpt lat="43.585007217683305" lon="11.256893927196735"><ele>454.50000000000006</ele><time>2026-05-03T16:17:32.999Z</time></trkpt><trkpt lat="43.58506989168496" lon="11.256938156224"><ele>457.0</ele><time>2026-05-03T16:17:34.999Z</time></trkpt><trkpt lat="43.585130440321755" lon="11.257033701842749"><ele>457.00000000000006</ele><time>2026-05-03T16:17:38.999Z</time></trkpt><trkpt lat="43.5851763380532" lon="11.257112570173007"><ele>457.0</ele><time>2026-05-03T16:17:41.999Z</time></trkpt><trkpt lat="43.58522646332143" lon="11.257196681119302"><ele>457.0</ele><time>2026-05-03T16:17:44.999Z</time></trkpt><trkpt lat="43.58525994925053" lon="11.257274325062047"><ele>457.0</ele><time>2026-05-03T16:17:46.999Z</time></trkpt><trkpt lat="43.5853133296112" lon="11.257404759572795"><ele>457.00000000000006</ele><time>2026-05-03T16:17:48.999Z</time></trkpt><trkpt lat="43.585375912858005" lon="11.25749520052988"><ele>457.0</ele><time>2026-05-03T16:17:50.999Z</time></trkpt><trkpt lat="43.58540620216618" lon="11.257604335425507"><ele>459.00000000000006</ele><time>2026-05-03T16:17:52.999Z</time></trkpt><trkpt lat="43.58547574194335" lon="11.257623390087662"><ele>461.0</ele><time>2026-05-03T16:17:55.999Z</time></trkpt><trkpt lat="43.58555555581978" lon="11.257688329282866"><ele>463.0</ele><time>2026-05-03T16:17:57.999Z</time></trkpt><trkpt lat="43.585610765894906" lon="11.257754973621617"><ele>465.0</ele><time>2026-05-03T16:17:58.999Z</time></trkpt><trkpt lat="43.585658298979354" lon="11.257861691709865"><ele>467.00000000000006</ele><time>2026-05-03T16:18:00.999Z</time></trkpt><trkpt lat="43.585735274751045" lon="11.25795531059164"><ele>469.0</ele><time>2026-05-03T16:18:02.999Z</time></trkpt><trkpt lat="43.58578274187464" lon="11.258054552458493"><ele>469.00000000000006</ele><time>2026-05-03T16:18:04.999Z</time></trkpt><trkpt lat="43.585861404418914" lon="11.25809426273876"><ele>469.0</ele><time>2026-05-03T16:18:06.999Z</time></trkpt><trkpt lat="43.58592456330234" lon="11.258124350914821"><ele>469.0</ele><time>2026-05-03T16:18:08.999Z</time></trkpt><trkpt lat="43.585993068719404" lon="11.258095983014528"><ele>469.0</ele><time>2026-05-03T16:18:10.999Z</time></trkpt><trkpt lat="43.58608519416435" lon="11.258158711979082"><ele>469.00000000000006</ele><time>2026-05-03T16:18:12.999Z</time></trkpt><trkpt lat="43.58614213704663" lon="11.258250660025123"><ele>469.0</ele><time>2026-05-03T16:18:13.999Z</time></trkpt><trkpt lat="43.586186186589266" lon="11.258321788731868"><ele>472.6666666666667</ele><time>2026-05-03T16:18:15.999Z</time></trkpt><trkpt lat="43.58620567068022" lon="11.258438257518351"><ele>476.33333333333337</ele><time>2026-05-03T16:18:18.999Z</time></trkpt><trkpt lat="43.58628924783847" lon="11.258464795470932"><ele>480.0</ele><time>2026-05-03T16:22:42.999Z</time></trkpt><trkpt lat="43.58639801265975" lon="11.258512638142815"><ele>483.66666666666663</ele><time>2026-05-03T16:22:44.999Z</time></trkpt><trkpt lat="43.58646699946131" lon="11.25848691411081"><ele>487.3333333333333</ele><time>2026-05-03T16:22:47.999Z</time></trkpt><trkpt lat="43.586543820920525" lon="11.258512459104669"><ele>491.0</ele><time>2026-05-03T16:22:50.999Z</time></trkpt><trkpt lat="43.58661659503115" lon="11.258585083193436"><ele>491.0</ele><time>2026-05-03T16:22:52.999Z</time></trkpt><trkpt lat="43.586720126919026" lon="11.25859593273981"><ele>491.0</ele><time>2026-05-03T16:22:54.999Z</time></trkpt><trkpt lat="43.586815393339364" lon="11.25863322971684"><ele>491.0</ele><time>2026-05-03T16:22:56.999Z</time></trkpt><trkpt lat="43.58692319716579" lon="11.258722906369288"><ele>491.0</ele><time>2026-05-03T16:22:58.999Z</time></trkpt><trkpt lat="43.58697506358746" lon="11.258782061313138"><ele>491.0</ele><time>2026-05-03T16:22:59.999Z</time></trkpt><trkpt lat="43.58703254732354" lon="11.25883293232847"><ele>489.8</ele><time>2026-05-03T16:23:00.999Z</time></trkpt><trkpt lat="43.58712284230371" lon="11.258902647990812"><ele>488.6</ele><time>2026-05-03T16:23:02.999Z</time></trkpt><trkpt lat="43.587169907428994" lon="11.25899506629035"><ele>487.4</ele><time>2026-05-03T16:23:04.999Z</time></trkpt><trkpt lat="43.58721147782053" lon="11.259105978643756"><ele>486.2</ele><time>2026-05-03T16:23:06.999Z</time></trkpt><trkpt lat="43.58726555256578" lon="11.259187326250215"><ele>485.0</ele><time>2026-05-03T16:23:08.999Z</time></trkpt><trkpt lat="43.58733296262606" lon="11.25929400129666"><ele>489.4</ele><time>2026-05-03T16:23:11Z</time></trkpt><trkpt lat="43.587380485293295" lon="11.259407448379392"><ele>493.8</ele><time>2026-05-03T16:23:13Z</time></trkpt><trkpt lat="43.587434715512536" lon="11.259517164847356"><ele>498.20000000000005</ele><time>2026-05-03T16:23:15Z</time></trkpt><trkpt lat="43.587434156527486" lon="11.259644099949767"><ele>502.6</ele><time>2026-05-03T16:23:17Z</time></trkpt><trkpt lat="43.58749703028876" lon="11.259729565056405"><ele>507.0</ele><time>2026-05-03T16:23:19Z</time></trkpt><trkpt lat="43.58757208776615" lon="11.25976323608882"><ele>508.40000000000003</ele><time>2026-05-03T16:23:21Z</time></trkpt><trkpt lat="43.58765575523217" lon="11.259809330751914"><ele>509.80000000000007</ele><time>2026-05-03T16:23:23Z</time></trkpt><trkpt lat="43.587737346934546" lon="11.259925987968012"><ele>511.2</ele><time>2026-05-03T16:23:25Z</time></trkpt><trkpt lat="43.5878029182669" lon="11.260045676203573"><ele>512.6</ele><time>2026-05-03T16:23:27Z</time></trkpt><trkpt lat="43.58787401772495" lon="11.26019270194929"><ele>514.0</ele><time>2026-05-03T16:23:29Z</time></trkpt><trkpt lat="43.58798827448036" lon="11.260201710078338"><ele>516.1666666666667</ele><time>2026-05-03T16:23:32Z</time></trkpt><trkpt lat="43.58807403724868" lon="11.260257882965448"><ele>518.3333333333334</ele><time>2026-05-03T16:23:34Z</time></trkpt><trkpt lat="43.588130338162166" lon="11.260320780440878"><ele>520.5</ele><time>2026-05-03T16:23:35Z</time></trkpt><trkpt lat="43.58819503859469" lon="11.260388195872002"><ele>522.6666666666666</ele><time>2026-05-03T16:23:36Z</time></trkpt><trkpt lat="43.58826070967503" lon="11.260412385236286"><ele>524.8333333333333</ele><time>2026-05-03T16:23:37Z</time></trkpt><trkpt lat="43.588335555480214" lon="11.260417629642475"><ele>527.0</ele><time>2026-05-03T16:23:38Z</time></trkpt><trkpt lat="43.588397290958675" lon="11.260435491268568"><ele>527.0</ele><time>2026-05-03T16:23:39Z</time></trkpt><trkpt lat="43.588507220910905" lon="11.260461161456814"><ele>527.0</ele><time>2026-05-03T16:23:41Z</time></trkpt><trkpt lat="43.588590740400164" lon="11.260370566235995"><ele>527.0</ele><time>2026-05-03T16:23:43Z</time></trkpt><trkpt lat="43.58864627104247" lon="11.260324351071764"><ele>527.0</ele><time>2026-05-03T16:23:44Z</time></trkpt><trkpt lat="43.58873661653986" lon="11.260307877442315"><ele>527.0</ele><time>2026-05-03T16:23:46Z</time></trkpt><trkpt lat="43.58879872469959" lon="11.260237749299487"><ele>528.4</ele><time>2026-05-03T16:23:48Z</time></trkpt><trkpt lat="43.588896953954404" lon="11.260198408803625"><ele>529.8000000000001</ele><time>2026-05-03T16:23:50Z</time></trkpt><trkpt lat="43.588980030913184" lon="11.260155294278269"><ele>531.2</ele><time>2026-05-03T16:23:52Z</time></trkpt><trkpt lat="43.58905307801393" lon="11.260065069254892"><ele>532.6</ele><time>2026-05-03T16:23:54Z</time></trkpt><trkpt lat="43.58912608653849" lon="11.260025790682954"><ele>534.0</ele><time>2026-05-03T16:23:56Z</time></trkpt><trkpt lat="43.58920516604325" lon="11.259962191544602"><ele>534.0</ele><time>2026-05-03T16:23:58Z</time></trkpt><trkpt lat="43.58928671092903" lon="11.259953614041011"><ele>534.0</ele><time>2026-05-03T16:24:00Z</time></trkpt><trkpt lat="43.5893534314872" lon="11.259959672551743"><ele>534.0</ele><time>2026-05-03T16:24:02Z</time></trkpt><trkpt lat="43.58941785808136" lon="11.25990565927429"><ele>534.0</ele><time>2026-05-03T16:24:04Z</time></trkpt><trkpt lat="43.589496932561985" lon="11.259919429151214"><ele>534.0</ele><time>2026-05-03T16:24:06Z</time></trkpt><trkpt lat="43.589565756180896" lon="11.259962372272861"><ele>534.0</ele><time>2026-05-03T16:24:08Z</time></trkpt><trkpt lat="43.58962244868569" lon="11.25990056343034"><ele>534.2</ele><time>2026-05-03T16:24:10Z</time></trkpt><trkpt lat="43.589724243278724" lon="11.259971465716184"><ele>534.4</ele><time>2026-05-03T16:24:13Z</time></trkpt><trkpt lat="43.589809972861566" lon="11.260050021949896"><ele>534.6</ele><time>2026-05-03T16:24:15Z</time></trkpt><trkpt lat="43.589882420810554" lon="11.259978391815606"><ele>534.8</ele><time>2026-05-03T16:24:48.999Z</time></trkpt><trkpt lat="43.58993629962152" lon="11.25991357160144"><ele>535.0</ele><time>2026-05-03T16:24:50.999Z</time></trkpt><trkpt lat="43.59001208091667" lon="11.259884404618035"><ele>535.0</ele><time>2026-05-03T16:24:52.999Z</time></trkpt><trkpt lat="43.590059644025914" lon="11.25981563310483"><ele>535.0</ele><time>2026-05-03T16:24:55.999Z</time></trkpt><trkpt lat="43.59011598958613" lon="11.259725095310467"><ele>535.0</ele><time>2026-05-03T16:24:58.999Z</time></trkpt><trkpt lat="43.59017438181768" lon="11.25967008948194"><ele>535.0</ele><time>2026-05-03T16:25:00.999Z</time></trkpt><trkpt lat="43.59026271873631" lon="11.259661995774678"><ele>535.0</ele><time>2026-05-03T16:25:02.999Z</time></trkpt><trkpt lat="43.59033095594451" lon="11.25962869122611"><ele>535.0</ele><time>2026-05-03T16:25:03.999Z</time></trkpt><trkpt lat="43.590411476823256" lon="11.259567739556857"><ele>534.0</ele><time>2026-05-03T16:25:05.999Z</time></trkpt><trkpt lat="43.59047357821266" lon="11.259466401331924"><ele>533.0</ele><time>2026-05-03T16:25:07.999Z</time></trkpt><trkpt lat="43.59054470114632" lon="11.259429769285937"><ele>532.0</ele><time>2026-05-03T16:25:09.999Z</time></trkpt><trkpt lat="43.590626753536895" lon="11.25935606731416"><ele>531.0</ele><time>2026-05-03T16:25:12.999Z</time></trkpt><trkpt lat="43.5907137488596" lon="11.259300913489753"><ele>530.0</ele><time>2026-05-03T16:25:14.999Z</time></trkpt><trkpt lat="43.59077591362079" lon="11.25921801980988"><ele>530.0</ele><time>2026-05-03T16:25:17Z</time></trkpt><trkpt lat="43.590840510620936" lon="11.259177989819726"><ele>530.0</ele><time>2026-05-03T16:25:19Z</time></trkpt><trkpt lat="43.590905329055815" lon="11.259156944453167"><ele>530.0</ele><time>2026-05-03T16:25:21Z</time></trkpt><trkpt lat="43.59098831735822" lon="11.259153764365378"><ele>530.0</ele><time>2026-05-03T16:25:25Z</time></trkpt><trkpt lat="43.591053424651356" lon="11.259156756692425"><ele>530.0</ele><time>2026-05-03T16:25:33.001Z</time></trkpt><trkpt lat="43.5911180473169" lon="11.259181722207082"><ele>530.0</ele><time>2026-05-03T16:25:35.001Z</time></trkpt><trkpt lat="43.591218887560764" lon="11.259164366298554"><ele>530.2</ele><time>2026-05-03T16:25:37.001Z</time></trkpt><trkpt lat="43.59129231154925" lon="11.259109089563605"><ele>530.4</ele><time>2026-05-03T16:25:39.001Z</time></trkpt><trkpt lat="43.59137093844067" lon="11.25908578107752"><ele>530.6</ele><time>2026-05-03T16:25:41.001Z</time></trkpt><trkpt lat="43.591464398821486" lon="11.25914243322433"><ele>530.8</ele><time>2026-05-03T16:25:43.001Z</time></trkpt><trkpt lat="43.59157228415093" lon="11.259164002431286"><ele>531.0</ele><time>2026-05-03T16:25:45.001Z</time></trkpt><trkpt lat="43.59164975774128" lon="11.259088848535571"><ele>531.0</ele><time>2026-05-03T16:25:49.001Z</time></trkpt><trkpt lat="43.591660465311804" lon="11.258979513708606"><ele>531.0</ele><time>2026-05-03T16:25:52.001Z</time></trkpt><trkpt lat="43.591702139461994" lon="11.258901326770076"><ele>531.0</ele><time>2026-05-03T16:25:54.001Z</time></trkpt><trkpt lat="43.59176874268944" lon="11.258862997955749"><ele>531.0</ele><time>2026-05-03T16:25:58Z</time></trkpt><trkpt lat="43.59183876358227" lon="11.258854495239236"><ele>531.0</ele><time>2026-05-03T16:26:00Z</time></trkpt><trkpt lat="43.59192355456228" lon="11.258857727982042"><ele>531.0</ele><time>2026-05-03T16:26:03Z</time></trkpt><trkpt lat="43.59198666768856" lon="11.258857529886248"><ele>531.0</ele><time>2026-05-03T16:26:05Z</time></trkpt><trkpt lat="43.592054179849654" lon="11.258840798349015"><ele>527.0</ele><time>2026-05-03T16:26:07Z</time></trkpt><trkpt lat="43.59212067318392" lon="11.258842289874307"><ele>523.0</ele><time>2026-05-03T16:26:10Z</time></trkpt><trkpt lat="43.59214876119921" lon="11.258753178071494"><ele>519.0</ele><time>2026-05-03T16:26:13Z</time></trkpt><trkpt lat="43.59220950593941" lon="11.258698006958053"><ele>515.0</ele><time>2026-05-03T16:26:15Z</time></trkpt><trkpt lat="43.59227671793659" lon="11.258639635786881"><ele>511.00000000000006</ele><time>2026-05-03T16:26:18Z</time></trkpt><trkpt lat="43.59235706847823" lon="11.25864959568314"><ele>507.0</ele><time>2026-05-03T16:26:21Z</time></trkpt><trkpt lat="43.59243169175429" lon="11.258646041875828"><ele>503.0</ele><time>2026-05-03T16:26:24Z</time></trkpt><trkpt lat="43.59249713143606" lon="11.2585656595919"><ele>502.99999999999994</ele><time>2026-05-03T16:26:29Z</time></trkpt><trkpt lat="43.59252049483835" lon="11.25847200241106"><ele>503.0</ele><time>2026-05-03T16:26:32Z</time></trkpt><trkpt lat="43.592483377197254" lon="11.258390209597989"><ele>503.0</ele><time>2026-05-03T16:26:35Z</time></trkpt><trkpt lat="43.592491111023406" lon="11.25827059002916"><ele>503.0</ele><time>2026-05-03T16:26:40Z</time></trkpt><trkpt lat="43.59242849713681" lon="11.258212495915641"><ele>502.99999999999994</ele><time>2026-05-03T16:26:43Z</time></trkpt><trkpt lat="43.59246304345061" lon="11.258096002742409"><ele>503.0</ele><time>2026-05-03T16:26:48Z</time></trkpt><trkpt lat="43.592491632511155" lon="11.258011955632933"><ele>500.49999999999994</ele><time>2026-05-03T16:26:50Z</time></trkpt><trkpt lat="43.59255386481929" lon="11.257939117049755"><ele>498.0</ele><time>2026-05-03T16:26:53Z</time></trkpt><trkpt lat="43.59261433049394" lon="11.257899590501893"><ele>495.5</ele><time>2026-05-03T16:26:56Z</time></trkpt><trkpt lat="43.5926854743973" lon="11.25785050189631"><ele>493.0</ele><time>2026-05-03T16:26:59Z</time></trkpt><trkpt lat="43.59269593663929" lon="11.257760411554447"><ele>490.49999999999994</ele><time>2026-05-03T16:27:01Z</time></trkpt><trkpt lat="43.59263763847691" lon="11.257665532462436"><ele>488.0</ele><time>2026-05-03T16:27:03Z</time></trkpt><trkpt lat="43.59255394191474" lon="11.257567652652408"><ele>487.99999999999994</ele><time>2026-05-03T16:27:05Z</time></trkpt><trkpt lat="43.59247236781005" lon="11.257500738550933"><ele>488.0</ele><time>2026-05-03T16:27:07Z</time></trkpt><trkpt lat="43.59245327226965" lon="11.257387519345011"><ele>488.0</ele><time>2026-05-03T16:27:10Z</time></trkpt><trkpt lat="43.592415982849616" lon="11.257294729982615"><ele>488.0</ele><time>2026-05-03T16:27:13Z</time></trkpt><trkpt lat="43.59235769408213" lon="11.257196029808851"><ele>487.99999999999994</ele><time>2026-05-03T16:27:15Z</time></trkpt><trkpt lat="43.5923022228334" lon="11.257137461842207"><ele>488.0</ele><time>2026-05-03T16:27:17Z</time></trkpt><trkpt lat="43.59223594616316" lon="11.25708752758764"><ele>487.79999999999995</ele><time>2026-05-03T16:27:19Z</time></trkpt><trkpt lat="43.59215671984683" lon="11.257007542182643"><ele>487.59999999999997</ele><time>2026-05-03T16:27:21Z</time></trkpt><trkpt lat="43.592091098235585" lon="11.256954640220934"><ele>487.40000000000003</ele><time>2026-05-03T16:27:23.001Z</time></trkpt><trkpt lat="43.59201172461612" lon="11.256948857644938"><ele>487.20000000000005</ele><time>2026-05-03T16:27:25.001Z</time></trkpt><trkpt lat="43.59193407142367" lon="11.256917794273406"><ele>487.0</ele><time>2026-05-03T16:27:27.001Z</time></trkpt><trkpt lat="43.59188631267691" lon="11.25677247335185"><ele>487.00000000000006</ele><time>2026-05-03T16:27:30.001Z</time></trkpt><trkpt lat="43.59182454435779" lon="11.256708474823094"><ele>487.0</ele><time>2026-05-03T16:27:32.001Z</time></trkpt><trkpt lat="43.59177247828992" lon="11.256649544098838"><ele>487.0</ele><time>2026-05-03T16:27:34.001Z</time></trkpt><trkpt lat="43.59169246570433" lon="11.256565138311101"><ele>487.0</ele><time>2026-05-03T16:27:36.001Z</time></trkpt><trkpt lat="43.591635624878435" lon="11.256479488483516"><ele>487.00000000000006</ele><time>2026-05-03T16:27:38.001Z</time></trkpt><trkpt lat="43.59160597028868" lon="11.256373885842974"><ele>487.0</ele><time>2026-05-03T16:27:57Z</time></trkpt><trkpt lat="43.59157362050644" lon="11.256298356832058"><ele>484.33333333333337</ele><time>2026-05-03T16:28:00Z</time></trkpt><trkpt lat="43.59149759144784" lon="11.256212892376208"><ele>481.6666666666667</ele><time>2026-05-03T16:28:03Z</time></trkpt><trkpt lat="43.59143766080594" lon="11.256151674536424"><ele>479.0</ele><time>2026-05-03T16:28:05Z</time></trkpt><trkpt lat="43.5915022740144" lon="11.256094576750845"><ele>476.33333333333337</ele><time>2026-05-03T16:28:09Z</time></trkpt><trkpt lat="43.59156599739987" lon="11.256070746164188"><ele>473.6666666666667</ele><time>2026-05-03T16:28:23Z</time></trkpt><trkpt lat="43.591564914234105" lon="11.255973652183027"><ele>471.0</ele><time>2026-05-03T16:28:29Z</time></trkpt><trkpt lat="43.591602693957256" lon="11.255889146275377"><ele>471.00000000000006</ele><time>2026-05-03T16:28:43Z</time></trkpt><trkpt lat="43.5916311447315" lon="11.255801507586462"><ele>471.0</ele><time>2026-05-03T16:28:48Z</time></trkpt><trkpt lat="43.59157151482894" lon="11.255735479199036"><ele>471.00000000000006</ele><time>2026-05-03T16:28:51Z</time></trkpt><trkpt lat="43.59153530580851" lon="11.255652886182471"><ele>471.00000000000006</ele><time>2026-05-03T16:28:54Z</time></trkpt><trkpt lat="43.59147589963991" lon="11.255610224244423"><ele>471.0</ele><time>2026-05-03T16:28:56Z</time></trkpt><trkpt lat="43.59140227812016" lon="11.255555455255715"><ele>471.00000000000006</ele><time>2026-05-03T16:28:59Z</time></trkpt><trkpt lat="43.59133006676877" lon="11.255527447812662"><ele>471.00000000000006</ele><time>2026-05-03T16:29:01Z</time></trkpt><trkpt lat="43.59126156164416" lon="11.255476413369754"><ele>470.5</ele><time>2026-05-03T16:29:03Z</time></trkpt><trkpt lat="43.59120084687484" lon="11.255446069752244"><ele>470.0</ele><time>2026-05-03T16:29:05Z</time></trkpt><trkpt lat="43.59112443922722" lon="11.25538030759288"><ele>469.5</ele><time>2026-05-03T16:29:07Z</time></trkpt><trkpt lat="43.591045853606886" lon="11.255333372512007"><ele>469.0</ele><time>2026-05-03T16:29:09Z</time></trkpt><trkpt lat="43.59096674546565" lon="11.255283526921536"><ele>468.5</ele><time>2026-05-03T16:29:12Z</time></trkpt><trkpt lat="43.59089170743205" lon="11.255226043005287"><ele>468.0</ele><time>2026-05-03T16:29:14Z</time></trkpt><trkpt lat="43.5908355438961" lon="11.255163903352173"><ele>468.0</ele><time>2026-05-03T16:29:17Z</time></trkpt><trkpt lat="43.59076713172" lon="11.255132566107445"><ele>468.0</ele><time>2026-05-03T16:29:19Z</time></trkpt><trkpt lat="43.59071056117235" lon="11.255071716570663"><ele>468.0</ele><time>2026-05-03T16:29:21Z</time></trkpt><trkpt lat="43.59064407013277" lon="11.255048523582044"><ele>468.0</ele><time>2026-05-03T16:29:23Z</time></trkpt><trkpt lat="43.59059097232816" lon="11.254990196335916"><ele>468.0</ele><time>2026-05-03T16:29:25Z</time></trkpt><trkpt lat="43.59051264581123" lon="11.254898039626188"><ele>468.0</ele><time>2026-05-03T16:29:27Z</time></trkpt><trkpt lat="43.59045367071733" lon="11.25478227918214"><ele>466.5</ele><time>2026-05-03T16:29:29.001Z</time></trkpt><trkpt lat="43.59042576636194" lon="11.254699389301107"><ele>465.0</ele><time>2026-05-03T16:29:30.001Z</time></trkpt><trkpt lat="43.59038179635361" lon="11.254566006470492"><ele>463.5</ele><time>2026-05-03T16:29:32.001Z</time></trkpt><trkpt lat="43.59035794368561" lon="11.25444844116276"><ele>462.0</ele><time>2026-05-03T16:29:34.001Z</time></trkpt><trkpt lat="43.59033783379438" lon="11.254350694257884"><ele>460.5</ele><time>2026-05-03T16:29:36.001Z</time></trkpt><trkpt lat="43.59027036575489" lon="11.25430775848034"><ele>459.0</ele><time>2026-05-03T16:29:38Z</time></trkpt><trkpt lat="43.59019450814011" lon="11.254222251559913"><ele>459.0</ele><time>2026-05-03T16:29:40Z</time></trkpt><trkpt lat="43.59011902882044" lon="11.254170633793372"><ele>459.0</ele><time>2026-05-03T16:29:42Z</time></trkpt><trkpt lat="43.590060331742556" lon="11.254088982317054"><ele>459.0</ele><time>2026-05-03T16:29:44Z</time></trkpt><trkpt lat="43.59003296104498" lon="11.254008743041352"><ele>459.0</ele><time>2026-05-03T16:29:46Z</time></trkpt><trkpt lat="43.590005521356716" lon="11.253923723366313"><ele>459.0</ele><time>2026-05-03T16:29:48Z</time></trkpt><trkpt lat="43.589966367598755" lon="11.253828522400575"><ele>459.0</ele><time>2026-05-03T16:29:50Z</time></trkpt><trkpt lat="43.589898032082516" lon="11.253744099333883"><ele>457.8333333333333</ele><time>2026-05-03T16:29:52Z</time></trkpt><trkpt lat="43.58989966854778" lon="11.25362554411032"><ele>456.66666666666663</ele><time>2026-05-03T16:29:54Z</time></trkpt><trkpt lat="43.58992925978747" lon="11.253504471625298"><ele>455.5</ele><time>2026-05-03T16:29:56Z</time></trkpt><trkpt lat="43.58992824500902" lon="11.25340832769924"><ele>454.3333333333333</ele><time>2026-05-03T16:29:58Z</time></trkpt><trkpt lat="43.58984326867291" lon="11.253369688777473"><ele>453.16666666666663</ele><time>2026-05-03T16:30:00Z</time></trkpt><trkpt lat="43.5897589800137" lon="11.253370697665634"><ele>452.0</ele><time>2026-05-03T16:30:02Z</time></trkpt><trkpt lat="43.58963969158662" lon="11.253351513863915"><ele>451.99999999999994</ele><time>2026-05-03T16:30:04Z</time></trkpt><trkpt lat="43.58960684634021" lon="11.25321181954112"><ele>452.0</ele><time>2026-05-03T16:30:06Z</time></trkpt><trkpt lat="43.58956394480353" lon="11.253122934176439"><ele>452.0</ele><time>2026-05-03T16:30:07Z</time></trkpt><trkpt lat="43.58951254525024" lon="11.253041028679549"><ele>452.0</ele><time>2026-05-03T16:30:08Z</time></trkpt><trkpt lat="43.58945845288565" lon="11.252986221816554"><ele>451.99999999999994</ele><time>2026-05-03T16:30:09Z</time></trkpt><trkpt lat="43.58942237116764" lon="11.252865499302983"><ele>452.0</ele><time>2026-05-03T16:30:11Z</time></trkpt><trkpt lat="43.58942834414207" lon="11.252702721927417"><ele>451.49999999999994</ele><time>2026-05-03T16:30:13Z</time></trkpt><trkpt lat="43.589403707231995" lon="11.252606824928218"><ele>451.0</ele><time>2026-05-03T16:30:15Z</time></trkpt><trkpt lat="43.58935042982983" lon="11.252521318293764"><ele>450.5</ele><time>2026-05-03T16:30:17Z</time></trkpt><trkpt lat="43.58923414594279" lon="11.252494266609345"><ele>450.0</ele><time>2026-05-03T16:30:19Z</time></trkpt><trkpt lat="43.589157518732094" lon="11.252460980909685"><ele>449.49999999999994</ele><time>2026-05-03T16:30:21Z</time></trkpt><trkpt lat="43.58911743524927" lon="11.252384109519415"><ele>449.0</ele><time>2026-05-03T16:30:23Z</time></trkpt><trkpt lat="43.589059456261424" lon="11.252293178011053"><ele>447.3333333333333</ele><time>2026-05-03T16:30:25Z</time></trkpt><trkpt lat="43.58901610210023" lon="11.25218571467424"><ele>445.66666666666663</ele><time>2026-05-03T16:30:27Z</time></trkpt><trkpt lat="43.58897654114017" lon="11.252076948210997"><ele>444.0</ele><time>2026-05-03T16:30:29Z</time></trkpt><trkpt lat="43.58889639584177" lon="11.25199967702952"><ele>442.33333333333337</ele><time>2026-05-03T16:30:32Z</time></trkpt><trkpt lat="43.58882272905668" lon="11.251952318411583"><ele>440.6666666666667</ele><time>2026-05-03T16:30:34Z</time></trkpt><trkpt lat="43.588794294863916" lon="11.25184250301351"><ele>439.0</ele><time>2026-05-03T16:30:36Z</time></trkpt><trkpt lat="43.58876060652331" lon="11.25174041023883"><ele>439.0</ele><time>2026-05-03T16:30:38Z</time></trkpt><trkpt lat="43.58870776243668" lon="11.251665187026788"><ele>439.0</ele><time>2026-05-03T16:30:41Z</time></trkpt><trkpt lat="43.58863716184149" lon="11.251735097872029"><ele>439.0</ele><time>2026-05-03T16:30:45Z</time></trkpt><trkpt lat="43.588579709829474" lon="11.251685167755017"><ele>439.0</ele><time>2026-05-03T16:31:02Z</time></trkpt><trkpt lat="43.588599396140886" lon="11.251591083509135"><ele>439.0</ele><time>2026-05-03T16:31:14Z</time></trkpt><trkpt lat="43.58859066064256" lon="11.25167814302875"><ele>439.0</ele><time>2026-05-03T16:32:00Z</time></trkpt><trkpt lat="43.58859283574448" lon="11.251768070918237"><ele>439.0</ele><time>2026-05-03T16:32:07Z</time></trkpt><trkpt lat="43.58853773640906" lon="11.25181140827775"><ele>436.83333333333337</ele><time>2026-05-03T16:32:27Z</time></trkpt><trkpt lat="43.58843753481321" lon="11.251875478642381"><ele>434.6666666666667</ele><time>2026-05-03T16:33:31Z</time></trkpt><trkpt lat="43.58835693626533" lon="11.251845754244103"><ele>432.5</ele><time>2026-05-03T16:34:12Z</time></trkpt><trkpt lat="43.58828297901572" lon="11.251860015272314"><ele>430.33333333333337</ele><time>2026-05-03T16:34:17Z</time></trkpt><trkpt lat="43.588252310535474" lon="11.251773185882163"><ele>428.1666666666667</ele><time>2026-05-03T16:34:37Z</time></trkpt><trkpt lat="43.58818259254558" lon="11.251722509124392"><ele>426.0</ele><time>2026-05-03T16:34:42Z</time></trkpt><trkpt lat="43.588113267654364" lon="11.25168384011981"><ele>425.99999999999994</ele><time>2026-05-03T16:34:51Z</time></trkpt><trkpt lat="43.588054480724566" lon="11.25164717159939"><ele>426.0</ele><time>2026-05-03T16:35:06Z</time></trkpt><trkpt lat="43.58800274092844" lon="11.251559779796953"><ele>426.0</ele><time>2026-05-03T16:35:11Z</time></trkpt><trkpt lat="43.588051092635126" lon="11.25147843043717"><ele>426.0</ele><time>2026-05-03T16:35:28Z</time></trkpt><trkpt lat="43.58812238101356" lon="11.25142721718241"><ele>426.0</ele><time>2026-05-03T16:35:31Z</time></trkpt><trkpt lat="43.58814914649123" lon="11.251342654075193"><ele>425.99999999999994</ele><time>2026-05-03T16:35:33Z</time></trkpt><trkpt lat="43.58817516716916" lon="11.251253634713903"><ele>426.0</ele><time>2026-05-03T16:35:35Z</time></trkpt><trkpt lat="43.58821568632862" lon="11.251179984323345"><ele>424.5</ele><time>2026-05-03T16:35:37Z</time></trkpt><trkpt lat="43.58826761043908" lon="11.251099917792677"><ele>423.0</ele><time>2026-05-03T16:35:40Z</time></trkpt><trkpt lat="43.588327689000586" lon="11.251129204556168"><ele>421.5</ele><time>2026-05-03T16:36:00Z</time></trkpt><trkpt lat="43.588370082797226" lon="11.25103106924787"><ele>420.0</ele><time>2026-05-03T16:36:04Z</time></trkpt><trkpt lat="43.58836790512202" lon="11.250916771210745"><ele>418.5</ele><time>2026-05-03T16:36:07Z</time></trkpt><trkpt lat="43.58840230754181" lon="11.250843346188418"><ele>417.0</ele><time>2026-05-03T16:36:12Z</time></trkpt><trkpt lat="43.588508696714236" lon="11.25083411413304"><ele>417.0</ele><time>2026-05-03T16:36:14Z</time></trkpt><trkpt lat="43.58858346376478" lon="11.25085852527881"><ele>417.0</ele><time>2026-05-03T16:36:16Z</time></trkpt><trkpt lat="43.58865955039911" lon="11.25084622470813"><ele>417.0</ele><time>2026-05-03T16:36:18Z</time></trkpt><trkpt lat="43.588765208267176" lon="11.25088143958606"><ele>417.0</ele><time>2026-05-03T16:36:20Z</time></trkpt><trkpt lat="43.58887434228862" lon="11.25093939412953"><ele>417.0</ele><time>2026-05-03T16:36:22Z</time></trkpt><trkpt lat="43.58893548543922" lon="11.250972936840146"><ele>417.0</ele><time>2026-05-03T16:36:23Z</time></trkpt><trkpt lat="43.58901388499748" lon="11.25100953419831"><ele>417.5</ele><time>2026-05-03T16:36:24Z</time></trkpt><trkpt lat="43.589079364000796" lon="11.251031178277518"><ele>418.0</ele><time>2026-05-03T16:36:25Z</time></trkpt><trkpt lat="43.58917196646216" lon="11.251090735482494"><ele>418.5</ele><time>2026-05-03T16:36:26Z</time></trkpt><trkpt lat="43.58926143993432" lon="11.251129140534285"><ele>419.0</ele><time>2026-05-03T16:36:27Z</time></trkpt><trkpt lat="43.5893311736713" lon="11.25118288734678"><ele>419.5</ele><time>2026-05-03T16:36:28Z</time></trkpt><trkpt lat="43.58940075389569" lon="11.251241080464206"><ele>420.0</ele><time>2026-05-03T16:36:29Z</time></trkpt><trkpt lat="43.58947874454138" lon="11.251317114247101"><ele>420.8</ele><time>2026-05-03T16:36:30Z</time></trkpt><trkpt lat="43.58956075285275" lon="11.251397072895667"><ele>421.6</ele><time>2026-05-03T16:36:31Z</time></trkpt><trkpt lat="43.58963557344685" lon="11.251480572494557"><ele>422.4</ele><time>2026-05-03T16:36:32Z</time></trkpt><trkpt lat="43.589701671186546" lon="11.251570547554863"><ele>423.2</ele><time>2026-05-03T16:36:33Z</time></trkpt><trkpt lat="43.58976789368573" lon="11.251663155470869"><ele>424.0</ele><time>2026-05-03T16:36:34Z</time></trkpt><trkpt lat="43.58983360563315" lon="11.25176634528221"><ele>424.0</ele><time>2026-05-03T16:36:35Z</time></trkpt><trkpt lat="43.58989543627102" lon="11.251878460760427"><ele>424.0</ele><time>2026-05-03T16:36:36Z</time></trkpt><trkpt lat="43.589949510397155" lon="11.251992293309256"><ele>424.0</ele><time>2026-05-03T16:36:37Z</time></trkpt><trkpt lat="43.5900126423837" lon="11.25209234183108"><ele>424.0</ele><time>2026-05-03T16:36:38Z</time></trkpt><trkpt lat="43.59006723025013" lon="11.252190279782296"><ele>424.0</ele><time>2026-05-03T16:36:39Z</time></trkpt><trkpt lat="43.59012659061422" lon="11.252297076503458"><ele>424.6</ele><time>2026-05-03T16:36:40Z</time></trkpt><trkpt lat="43.59018860608087" lon="11.252406050269059"><ele>425.2</ele><time>2026-05-03T16:36:41Z</time></trkpt><trkpt lat="43.59026113944714" lon="11.252505727111954"><ele>425.80000000000007</ele><time>2026-05-03T16:36:42Z</time></trkpt><trkpt lat="43.590333787031966" lon="11.252602099348477"><ele>426.40000000000003</ele><time>2026-05-03T16:36:43Z</time></trkpt><trkpt lat="43.59041111984294" lon="11.252691639721569"><ele>427.0</ele><time>2026-05-03T16:36:44Z</time></trkpt><trkpt lat="43.59048524524397" lon="11.252785482020395"><ele>427.0</ele><time>2026-05-03T16:36:45Z</time></trkpt><trkpt lat="43.59056111969367" lon="11.252880720932248"><ele>427.00000000000006</ele><time>2026-05-03T16:36:46Z</time></trkpt><trkpt lat="43.590635087564635" lon="11.252971260799828"><ele>427.00000000000006</ele><time>2026-05-03T16:36:47Z</time></trkpt><trkpt lat="43.59071364257372" lon="11.253065944612334"><ele>427.0</ele><time>2026-05-03T16:36:48Z</time></trkpt><trkpt lat="43.59079543370635" lon="11.253161540762195"><ele>427.0</ele><time>2026-05-03T16:36:49Z</time></trkpt><trkpt lat="43.590878576256145" lon="11.25326384021563"><ele>428.75</ele><time>2026-05-03T16:36:50Z</time></trkpt><trkpt lat="43.59096081533983" lon="11.253386190345395"><ele>430.5</ele><time>2026-05-03T16:36:51Z</time></trkpt><trkpt lat="43.59103995841504" lon="11.253510213125837"><ele>432.25</ele><time>2026-05-03T16:36:52Z</time></trkpt><trkpt lat="43.5911222429867" lon="11.253629918418879"><ele>434.0</ele><time>2026-05-03T16:36:53Z</time></trkpt><trkpt lat="43.59120213778386" lon="11.2537472426129"><ele>434.0</ele><time>2026-05-03T16:36:54Z</time></trkpt><trkpt lat="43.59127158974217" lon="11.253847122339327"><ele>434.0</ele><time>2026-05-03T16:36:55Z</time></trkpt><trkpt lat="43.59133604250548" lon="11.253944661195868"><ele>434.0</ele><time>2026-05-03T16:36:56Z</time></trkpt><trkpt lat="43.59140178912359" lon="11.25404281226741"><ele>434.0</ele><time>2026-05-03T16:36:57Z</time></trkpt><trkpt lat="43.59146916116119" lon="11.254137364422705"><ele>434.0</ele><time>2026-05-03T16:36:58Z</time></trkpt><trkpt lat="43.59153658617604" lon="11.25423070104147"><ele>435.3333333333333</ele><time>2026-05-03T16:36:59Z</time></trkpt><trkpt lat="43.59160280826132" lon="11.254322023324816"><ele>436.66666666666663</ele><time>2026-05-03T16:37:00Z</time></trkpt><trkpt lat="43.591665526500414" lon="11.254412035101124"><ele>438.0</ele><time>2026-05-03T16:37:01Z</time></trkpt><trkpt lat="43.591730111560885" lon="11.254493915339838"><ele>439.33333333333337</ele><time>2026-05-03T16:37:02Z</time></trkpt><trkpt lat="43.591794546871206" lon="11.254573243117864"><ele>440.6666666666667</ele><time>2026-05-03T16:37:03Z</time></trkpt><trkpt lat="43.59185766810035" lon="11.254642416981138"><ele>442.0</ele><time>2026-05-03T16:37:04Z</time></trkpt><trkpt lat="43.591932432969706" lon="11.254698760676854"><ele>443.1666666666667</ele><time>2026-05-03T16:37:05Z</time></trkpt><trkpt lat="43.5920072318389" lon="11.254782035855497"><ele>444.33333333333337</ele><time>2026-05-03T16:37:06Z</time></trkpt><trkpt lat="43.592085035934694" lon="11.254830890950604"><ele>445.5</ele><time>2026-05-03T16:37:07Z</time></trkpt><trkpt lat="43.592169817914424" lon="11.2548574514113"><ele>446.66666666666663</ele><time>2026-05-03T16:37:08Z</time></trkpt><trkpt lat="43.59224490768153" lon="11.254894435910842"><ele>447.8333333333333</ele><time>2026-05-03T16:37:09Z</time></trkpt><trkpt lat="43.59230841966613" lon="11.254905512633481"><ele>449.0</ele><time>2026-05-03T16:37:10Z</time></trkpt><trkpt lat="43.59237138519914" lon="11.254886721563578"><ele>448.99999999999994</ele><time>2026-05-03T16:37:11Z</time></trkpt><trkpt lat="43.59244592655441" lon="11.254768665570577"><ele>449.0</ele><time>2026-05-03T16:37:13Z</time></trkpt><trkpt lat="43.59246852245538" lon="11.254683149784162"><ele>449.0</ele><time>2026-05-03T16:37:15Z</time></trkpt><trkpt lat="43.5925225183115" lon="11.254735272886183"><ele>449.0</ele><time>2026-05-03T16:37:18Z</time></trkpt><trkpt lat="43.5925677153783" lon="11.254801302959162"><ele>448.99999999999994</ele><time>2026-05-03T16:37:20Z</time></trkpt><trkpt lat="43.592622329630295" lon="11.254881090976939"><ele>449.0</ele><time>2026-05-03T16:37:22Z</time></trkpt><trkpt lat="43.59270513014898" lon="11.25500124556147"><ele>449.0</ele><time>2026-05-03T16:37:24Z</time></trkpt><trkpt lat="43.592760648812195" lon="11.255081439123106"><ele>449.0</ele><time>2026-05-03T16:37:25Z</time></trkpt><trkpt lat="43.59281782066315" lon="11.255153272428615"><ele>449.0</ele><time>2026-05-03T16:37:26Z</time></trkpt><trkpt lat="43.59286645530689" lon="11.255217272323206"><ele>449.0</ele><time>2026-05-03T16:37:27Z</time></trkpt><trkpt lat="43.5929541374393" lon="11.255326885004454"><ele>449.0</ele><time>2026-05-03T16:37:29Z</time></trkpt><trkpt lat="43.59304151056378" lon="11.255459274145858"><ele>450.8333333333333</ele><time>2026-05-03T16:37:31Z</time></trkpt><trkpt lat="43.59308318496943" lon="11.255528350594039"><ele>452.66666666666663</ele><time>2026-05-03T16:37:32Z</time></trkpt><trkpt lat="43.59314285741913" lon="11.2555966412369"><ele>454.5</ele><time>2026-05-03T16:37:33Z</time></trkpt><trkpt lat="43.593191471526495" lon="11.255652710650928"><ele>456.33333333333337</ele><time>2026-05-03T16:37:34Z</time></trkpt><trkpt lat="43.59323969364634" lon="11.25571240787807"><ele>458.1666666666667</ele><time>2026-05-03T16:37:35Z</time></trkpt><trkpt lat="43.593295381561816" lon="11.255784625549497"><ele>460.0</ele><time>2026-05-03T16:37:36Z</time></trkpt><trkpt lat="43.593371915552176" lon="11.255901173180012"><ele>460.00000000000006</ele><time>2026-05-03T16:37:38Z</time></trkpt><trkpt lat="43.59348778767126" lon="11.25596072647466"><ele>460.0</ele><time>2026-05-03T16:37:40Z</time></trkpt><trkpt lat="43.59355097239495" lon="11.255978277851126"><ele>460.0</ele><time>2026-05-03T16:37:41Z</time></trkpt><trkpt lat="43.593615847816686" lon="11.256002005891679"><ele>460.0</ele><time>2026-05-03T16:37:42Z</time></trkpt><trkpt lat="43.59371537523425" lon="11.256061323471386"><ele>460.00000000000006</ele><time>2026-05-03T16:37:44Z</time></trkpt><trkpt lat="43.59378598909991" lon="11.256107581738224"><ele>460.0</ele><time>2026-05-03T16:37:46Z</time></trkpt><trkpt lat="43.59385913342276" lon="11.256078860094131"><ele>463.4</ele><time>2026-05-03T16:37:48Z</time></trkpt><trkpt lat="43.59396245706191" lon="11.256048815031134"><ele>466.8</ele><time>2026-05-03T16:37:50Z</time></trkpt><trkpt lat="43.59406085000933" lon="11.256044774137838"><ele>470.20000000000005</ele><time>2026-05-03T16:37:52Z</time></trkpt><trkpt lat="43.5941484456743" lon="11.256043502127246"><ele>473.6</ele><time>2026-05-03T16:37:54Z</time></trkpt><trkpt lat="43.59424197654306" lon="11.256044096977064"><ele>477.0</ele><time>2026-05-03T16:37:56Z</time></trkpt><trkpt lat="43.594304198352035" lon="11.256011351825084"><ele>477.0</ele><time>2026-05-03T16:38:00Z</time></trkpt><trkpt lat="43.594226258819944" lon="11.256023882973725"><ele>477.0</ele><time>2026-05-03T16:38:13Z</time></trkpt><trkpt lat="43.594153878450804" lon="11.256028019817386"><ele>477.0</ele><time>2026-05-03T16:38:15Z</time></trkpt><trkpt lat="43.59407902124311" lon="11.25591094751765"><ele>477.0</ele><time>2026-05-03T16:38:22Z</time></trkpt><trkpt lat="43.594063076003536" lon="11.255815469489574"><ele>477.0</ele><time>2026-05-03T16:38:25Z</time></trkpt><trkpt lat="43.594036925742856" lon="11.255688280965021"><ele>477.0</ele><time>2026-05-03T16:38:28Z</time></trkpt><trkpt lat="43.59398892746174" lon="11.255609805475867"><ele>478.5</ele><time>2026-05-03T16:38:30Z</time></trkpt><trkpt lat="43.59394666424847" lon="11.255511295236365"><ele>480.0</ele><time>2026-05-03T16:38:32Z</time></trkpt><trkpt lat="43.59386415928007" lon="11.255450937356393"><ele>481.5</ele><time>2026-05-03T16:38:34Z</time></trkpt><trkpt lat="43.593839346113654" lon="11.255361720228636"><ele>483.0</ele><time>2026-05-03T16:38:36Z</time></trkpt><trkpt lat="43.593804410743395" lon="11.25526821873586"><ele>484.5</ele><time>2026-05-03T16:38:38Z</time></trkpt><trkpt lat="43.59378156257077" lon="11.255178375159423"><ele>486.0</ele><time>2026-05-03T16:38:42Z</time></trkpt><trkpt lat="43.59372772036765" lon="11.255092012778833"><ele>486.0</ele><time>2026-05-03T16:38:48Z</time></trkpt><trkpt lat="43.59378567582317" lon="11.255027297634495"><ele>486.0</ele><time>2026-05-03T16:39:02Z</time></trkpt><trkpt lat="43.593849905323616" lon="11.254999094540388"><ele>486.0</ele><time>2026-05-03T16:39:05Z</time></trkpt><trkpt lat="43.59384420176946" lon="11.254880505633794"><ele>486.0</ele><time>2026-05-03T16:39:16Z</time></trkpt><trkpt lat="43.59379278812839" lon="11.254789718945085"><ele>486.0</ele><time>2026-05-03T16:39:18Z</time></trkpt><trkpt lat="43.59375602808753" lon="11.254716914841943"><ele>486.0</ele><time>2026-05-03T16:39:20Z</time></trkpt><trkpt lat="43.593736905663356" lon="11.254607909610172"><ele>486.5</ele><time>2026-05-03T16:39:23Z</time></trkpt><trkpt lat="43.593756438569315" lon="11.254513407278955"><ele>487.0</ele><time>2026-05-03T16:39:26Z</time></trkpt><trkpt lat="43.59378007633961" lon="11.254423633570896"><ele>487.5</ele><time>2026-05-03T16:39:28Z</time></trkpt><trkpt lat="43.59385031774187" lon="11.254416008661002"><ele>488.0</ele><time>2026-05-03T16:39:31Z</time></trkpt><trkpt lat="43.59394832954432" lon="11.254419159828776"><ele>488.5</ele><time>2026-05-03T16:39:34Z</time></trkpt><trkpt lat="43.5939959786478" lon="11.254341949505767"><ele>489.0</ele><time>2026-05-03T16:39:43Z</time></trkpt><trkpt lat="43.59397143154507" lon="11.254243571853666"><ele>489.0</ele><time>2026-05-03T16:39:46Z</time></trkpt><trkpt lat="43.59404996198174" lon="11.254186792346772"><ele>489.0</ele><time>2026-05-03T16:39:49Z</time></trkpt><trkpt lat="43.59411604320259" lon="11.254123356317862"><ele>489.0</ele><time>2026-05-03T16:39:52Z</time></trkpt><trkpt lat="43.59415736208998" lon="11.254054296541458"><ele>489.0</ele><time>2026-05-03T16:39:54Z</time></trkpt><trkpt lat="43.594200748659674" lon="11.253986612168681"><ele>489.0</ele><time>2026-05-03T16:39:56Z</time></trkpt><trkpt lat="43.594260859684105" lon="11.253903363707133"><ele>489.0</ele><time>2026-05-03T16:39:59Z</time></trkpt><trkpt lat="43.59432742220114" lon="11.253909030505698"><ele>489.0</ele><time>2026-05-03T16:40:01Z</time></trkpt><trkpt lat="43.59439140100888" lon="11.253971960798246"><ele>489.0</ele><time>2026-05-03T16:40:03Z</time></trkpt><trkpt lat="43.59443992233213" lon="11.254053312116607"><ele>489.0</ele><time>2026-05-03T16:40:05Z</time></trkpt><trkpt lat="43.59448375257223" lon="11.254144032884994"><ele>489.0</ele><time>2026-05-03T16:40:07Z</time></trkpt><trkpt lat="43.59451569335701" lon="11.254232951942123"><ele>489.0</ele><time>2026-05-03T16:40:09Z</time></trkpt><trkpt lat="43.59452686088546" lon="11.254340738040513"><ele>489.0</ele><time>2026-05-03T16:40:11Z</time></trkpt><trkpt lat="43.594545909161766" lon="11.254466494835075"><ele>487.3333333333333</ele><time>2026-05-03T16:40:14Z</time></trkpt><trkpt lat="43.59457464596797" lon="11.254572493572317"><ele>485.66666666666663</ele><time>2026-05-03T16:40:16Z</time></trkpt><trkpt lat="43.5946065526234" lon="11.254664448782103"><ele>484.0</ele><time>2026-05-03T16:40:18Z</time></trkpt><trkpt lat="43.594654362850534" lon="11.254756576752994"><ele>482.3333333333333</ele><time>2026-05-03T16:40:20Z</time></trkpt><trkpt lat="43.594700431926036" lon="11.254859795229855"><ele>480.66666666666663</ele><time>2026-05-03T16:40:22Z</time></trkpt><trkpt lat="43.59475287737003" lon="11.254939689681153"><ele>479.0</ele><time>2026-05-03T16:40:24Z</time></trkpt><trkpt lat="43.594803551211164" lon="11.255018096590916"><ele>478.99999999999994</ele><time>2026-05-03T16:40:26Z</time></trkpt><trkpt lat="43.594829268784295" lon="11.25511075563274"><ele>479.0</ele><time>2026-05-03T16:40:28Z</time></trkpt><trkpt lat="43.5948023762362" lon="11.255196550092442"><ele>479.0</ele><time>2026-05-03T16:40:30Z</time></trkpt><trkpt lat="43.59476240404442" lon="11.255278689967067"><ele>479.0</ele><time>2026-05-03T16:40:32Z</time></trkpt><trkpt lat="43.59477405383587" lon="11.255368046993041"><ele>478.99999999999994</ele><time>2026-05-03T16:40:35Z</time></trkpt><trkpt lat="43.5948352961079" lon="11.255447153482185"><ele>479.0</ele><time>2026-05-03T16:40:37Z</time></trkpt><trkpt lat="43.59489914805924" lon="11.255541630993013"><ele>479.79999999999995</ele><time>2026-05-03T16:40:39Z</time></trkpt><trkpt lat="43.59496467379357" lon="11.255638586180039"><ele>480.59999999999997</ele><time>2026-05-03T16:40:41Z</time></trkpt><trkpt lat="43.59503822854054" lon="11.25572265564722"><ele>481.4</ele><time>2026-05-03T16:40:43Z</time></trkpt><trkpt lat="43.59509199526466" lon="11.255826977782403"><ele>482.2</ele><time>2026-05-03T16:40:45Z</time></trkpt><trkpt lat="43.595156506279" lon="11.255919513270156"><ele>483.0</ele><time>2026-05-03T16:40:47Z</time></trkpt><trkpt lat="43.595217298212056" lon="11.256010760249715"><ele>483.0</ele><time>2026-05-03T16:40:49Z</time></trkpt><trkpt lat="43.595284867733106" lon="11.256118334084075"><ele>483.0</ele><time>2026-05-03T16:40:51Z</time></trkpt><trkpt lat="43.595356094682295" lon="11.256236176936772"><ele>483.0</ele><time>2026-05-03T16:40:53Z</time></trkpt><trkpt lat="43.59543321684094" lon="11.256363326353075"><ele>483.0</ele><time>2026-05-03T16:40:55Z</time></trkpt><trkpt lat="43.59550777258852" lon="11.256486244609869"><ele>484.75</ele><time>2026-05-03T16:40:57Z</time></trkpt><trkpt lat="43.5955714238564" lon="11.256593671128133"><ele>486.5</ele><time>2026-05-03T16:40:59Z</time></trkpt><trkpt lat="43.59563762038905" lon="11.256709053133712"><ele>488.25</ele><time>2026-05-03T16:41:01Z</time></trkpt><trkpt lat="43.59572597353859" lon="11.256824323352776"><ele>490.0</ele><time>2026-05-03T16:41:03Z</time></trkpt><trkpt lat="43.5957933020718" lon="11.256971751829141"><ele>490.0</ele><time>2026-05-03T16:41:05Z</time></trkpt><trkpt lat="43.59587863577088" lon="11.257114585730939"><ele>490.0</ele><time>2026-05-03T16:41:07Z</time></trkpt><trkpt lat="43.59593724954562" lon="11.257209102293167"><ele>490.0</ele><time>2026-05-03T16:41:08Z</time></trkpt><trkpt lat="43.596001698613705" lon="11.257313430684045"><ele>490.0</ele><time>2026-05-03T16:41:09Z</time></trkpt><trkpt lat="43.59606910851155" lon="11.257425630411111"><ele>490.0</ele><time>2026-05-03T16:41:10Z</time></trkpt><trkpt lat="43.59612991284046" lon="11.257526835637844"><ele>491.1666666666667</ele><time>2026-05-03T16:41:11Z</time></trkpt><trkpt lat="43.59618471147334" lon="11.257617040361456"><ele>492.33333333333337</ele><time>2026-05-03T16:41:12Z</time></trkpt><trkpt lat="43.59624203716549" lon="11.257707219650237"><ele>493.5</ele><time>2026-05-03T16:41:13Z</time></trkpt><trkpt lat="43.59630912498073" lon="11.257783574320428"><ele>494.66666666666663</ele><time>2026-05-03T16:41:14Z</time></trkpt><trkpt lat="43.59634128955288" lon="11.25787198697912"><ele>495.8333333333333</ele><time>2026-05-03T16:41:15Z</time></trkpt><trkpt lat="43.596388449514734" lon="11.257971083251963"><ele>497.0</ele><time>2026-05-03T16:41:17Z</time></trkpt><trkpt lat="43.59643076190232" lon="11.258089317820637"><ele>497.0</ele><time>2026-05-03T16:41:21Z</time></trkpt><trkpt lat="43.59655757213325" lon="11.258087960681966"><ele>497.00000000000006</ele><time>2026-05-03T16:41:23Z</time></trkpt><trkpt lat="43.596639795642496" lon="11.258095660481803"><ele>497.00000000000006</ele><time>2026-05-03T16:41:25Z</time></trkpt><trkpt lat="43.59654859089328" lon="11.258023935895967"><ele>497.0</ele><time>2026-05-03T16:41:29Z</time></trkpt><trkpt lat="43.59648219335219" lon="11.258103938551537"><ele>497.0</ele><time>2026-05-03T16:41:31Z</time></trkpt><trkpt lat="43.59648518677998" lon="11.258244268112335"><ele>499.8</ele><time>2026-05-03T16:41:34Z</time></trkpt><trkpt lat="43.59656128664606" lon="11.258307078319666"><ele>502.6</ele><time>2026-05-03T16:41:38Z</time></trkpt><trkpt lat="43.596571247709555" lon="11.258434438297547"><ele>505.40000000000003</ele><time>2026-05-03T16:41:50Z</time></trkpt><trkpt lat="43.596597865705576" lon="11.25855313092027"><ele>508.20000000000005</ele><time>2026-05-03T16:41:53Z</time></trkpt><trkpt lat="43.59670691883522" lon="11.258555944789249"><ele>511.0</ele><time>2026-05-03T16:48:27Z</time></trkpt><trkpt lat="43.596780485062716" lon="11.258521722219584"><ele>511.0</ele><time>2026-05-03T16:48:29Z</time></trkpt><trkpt lat="43.59684728404896" lon="11.25852983470179"><ele>511.0</ele><time>2026-05-03T16:48:33Z</time></trkpt><trkpt lat="43.5968960026321" lon="11.258467376867001"><ele>511.0</ele><time>2026-05-03T16:48:35Z</time></trkpt><trkpt lat="43.59696263130175" lon="11.258454987670007"><ele>511.0</ele><time>2026-05-03T16:48:37Z</time></trkpt><trkpt lat="43.59687313596555" lon="11.25848497046944"><ele>511.0</ele><time>2026-05-03T16:50:59Z</time></trkpt><trkpt lat="43.59681296475919" lon="11.258550970346196"><ele>511.0</ele><time>2026-05-03T16:51:01Z</time></trkpt><trkpt lat="43.59673995725169" lon="11.2585347845514"><ele>511.0</ele><time>2026-05-03T16:51:04Z</time></trkpt><trkpt lat="43.59663054534979" lon="11.258563595728276"><ele>511.0</ele><time>2026-05-03T16:51:06Z</time></trkpt><trkpt lat="43.59657377623046" lon="11.258495009539379"><ele>511.0</ele><time>2026-05-03T16:51:10Z</time></trkpt><trkpt lat="43.59659551955898" lon="11.258396155637852"><ele>511.0</ele><time>2026-05-03T16:51:13Z</time></trkpt><trkpt lat="43.59655821029215" lon="11.258317068393444"><ele>511.0</ele><time>2026-05-03T16:51:18Z</time></trkpt><trkpt lat="43.59649858314648" lon="11.258271166054534"><ele>511.0</ele><time>2026-05-03T16:51:21Z</time></trkpt><trkpt lat="43.596474317775034" lon="11.258184267417343"><ele>511.0</ele><time>2026-05-03T16:51:24Z</time></trkpt><trkpt lat="43.59651723548486" lon="11.258084908120814"><ele>511.0</ele><time>2026-05-03T16:51:27Z</time></trkpt><trkpt lat="43.59663357432539" lon="11.258085512250005"><ele>511.0</ele><time>2026-05-03T16:51:29Z</time></trkpt><trkpt lat="43.596705186220696" lon="11.258096375559113"><ele>511.0</ele><time>2026-05-03T16:51:30Z</time></trkpt><trkpt lat="43.5967747743567" lon="11.258107284021563"><ele>511.0</ele><time>2026-05-03T16:51:31Z</time></trkpt><trkpt lat="43.59683873750449" lon="11.258119169959524"><ele>511.0</ele><time>2026-05-03T16:51:32Z</time></trkpt><trkpt lat="43.596908048282565" lon="11.25812729186378"><ele>511.0</ele><time>2026-05-03T16:51:33Z</time></trkpt><trkpt lat="43.59698090549299" lon="11.258135311002066"><ele>511.0</ele><time>2026-05-03T16:51:34Z</time></trkpt><trkpt lat="43.59705498724188" lon="11.25814542175482"><ele>511.0</ele><time>2026-05-03T16:51:35Z</time></trkpt><trkpt lat="43.597138913009616" lon="11.258153921912628"><ele>510.6666666666667</ele><time>2026-05-03T16:51:36Z</time></trkpt><trkpt lat="43.597221148643854" lon="11.258158885618688"><ele>510.33333333333337</ele><time>2026-05-03T16:51:37Z</time></trkpt><trkpt lat="43.59730939511435" lon="11.258163792650414"><ele>510.0</ele><time>2026-05-03T16:51:38Z</time></trkpt><trkpt lat="43.59739871973251" lon="11.258162433511057"><ele>509.66666666666663</ele><time>2026-05-03T16:51:39Z</time></trkpt><trkpt lat="43.597495485196994" lon="11.258148837992964"><ele>509.3333333333333</ele><time>2026-05-03T16:51:40Z</time></trkpt><trkpt lat="43.59758654218603" lon="11.258135357360711"><ele>509.0</ele><time>2026-05-03T16:51:41Z</time></trkpt><trkpt lat="43.597678382852735" lon="11.258127697190563"><ele>506.4</ele><time>2026-05-03T16:51:42Z</time></trkpt><trkpt lat="43.59777263094243" lon="11.258115657804307"><ele>503.79999999999995</ele><time>2026-05-03T16:51:43Z</time></trkpt><trkpt lat="43.59787142641697" lon="11.258096053127694"><ele>501.20000000000005</ele><time>2026-05-03T16:51:44Z</time></trkpt><trkpt lat="43.59797008322254" lon="11.258077480283525"><ele>498.6</ele><time>2026-05-03T16:51:45Z</time></trkpt><trkpt lat="43.59806736514864" lon="11.25806572641892"><ele>496.0</ele><time>2026-05-03T16:51:46Z</time></trkpt><trkpt lat="43.59825356315929" lon="11.258029019167695"><ele>496.0</ele><time>2026-05-03T16:51:48Z</time></trkpt><trkpt lat="43.59834373270816" lon="11.258017099977991"><ele>496.0</ele><time>2026-05-03T16:51:49Z</time></trkpt><trkpt lat="43.598438295640804" lon="11.258004528531664"><ele>496.0</ele><time>2026-05-03T16:51:50Z</time></trkpt><trkpt lat="43.59853344540935" lon="11.257991004206426"><ele>496.0</ele><time>2026-05-03T16:51:50.999Z</time></trkpt><trkpt lat="43.59863297915973" lon="11.25797781417889"><ele>496.0</ele><time>2026-05-03T16:51:51.999Z</time></trkpt><trkpt lat="43.59872541071966" lon="11.25796358780878"><ele>496.6666666666667</ele><time>2026-05-03T16:51:52.999Z</time></trkpt><trkpt lat="43.59881046588489" lon="11.257946512042182"><ele>497.33333333333337</ele><time>2026-05-03T16:51:53.999Z</time></trkpt><trkpt lat="43.59888863561132" lon="11.257927993838404"><ele>498.0</ele><time>2026-05-03T16:51:54.999Z</time></trkpt><trkpt lat="43.59896787886398" lon="11.25790959792321"><ele>498.66666666666663</ele><time>2026-05-03T16:51:55.999Z</time></trkpt><trkpt lat="43.59904565179311" lon="11.257897302840389"><ele>499.3333333333333</ele><time>2026-05-03T16:51:56.999Z</time></trkpt><trkpt lat="43.59912666283641" lon="11.257885969979963"><ele>500.0</ele><time>2026-05-03T16:51:57.999Z</time></trkpt><trkpt lat="43.59921418333852" lon="11.257870336243395"><ele>500.0</ele><time>2026-05-03T16:51:58.999Z</time></trkpt><trkpt lat="43.59930289409052" lon="11.257856231014916"><ele>500.0</ele><time>2026-05-03T16:51:59.999Z</time></trkpt><trkpt lat="43.599393051707345" lon="11.257843784538746"><ele>500.0</ele><time>2026-05-03T16:52:00.999Z</time></trkpt><trkpt lat="43.599487397536244" lon="11.257826127752205"><ele>500.0</ele><time>2026-05-03T16:52:01.999Z</time></trkpt><trkpt lat="43.59958508154507" lon="11.25780920853569"><ele>500.0</ele><time>2026-05-03T16:52:02.999Z</time></trkpt><trkpt lat="43.5996854947388" lon="11.257798005322684"><ele>500.2</ele><time>2026-05-03T16:52:03.999Z</time></trkpt><trkpt lat="43.59978253005175" lon="11.257780641337556"><ele>500.4</ele><time>2026-05-03T16:52:04.999Z</time></trkpt><trkpt lat="43.59987556691013" lon="11.257769204936025"><ele>500.6</ele><time>2026-05-03T16:52:05.999Z</time></trkpt><trkpt lat="43.59996530906937" lon="11.257760631896073"><ele>500.8</ele><time>2026-05-03T16:52:06.999Z</time></trkpt><trkpt lat="43.60005327500701" lon="11.257757605115643"><ele>501.0</ele><time>2026-05-03T16:52:07.999Z</time></trkpt><trkpt lat="43.60014573529702" lon="11.25775227799799"><ele>501.0</ele><time>2026-05-03T16:52:08.999Z</time></trkpt><trkpt lat="43.600239914859344" lon="11.257743852599699"><ele>501.0</ele><time>2026-05-03T16:52:09.999Z</time></trkpt><trkpt lat="43.600335043981175" lon="11.25774059465801"><ele>501.0</ele><time>2026-05-03T16:52:10.999Z</time></trkpt><trkpt lat="43.60042877537325" lon="11.257744754484541"><ele>501.0</ele><time>2026-05-03T16:52:11.999Z</time></trkpt><trkpt lat="43.6005227331515" lon="11.257757207730378"><ele>501.0</ele><time>2026-05-03T16:52:12.999Z</time></trkpt><trkpt lat="43.600611287925965" lon="11.257777431932944"><ele>500.8333333333333</ele><time>2026-05-03T16:52:13.999Z</time></trkpt><trkpt lat="43.60070438846775" lon="11.257796535722054"><ele>500.66666666666663</ele><time>2026-05-03T16:52:14.999Z</time></trkpt><trkpt lat="43.60078493532688" lon="11.25781702377607"><ele>500.5</ele><time>2026-05-03T16:52:15.999Z</time></trkpt><trkpt lat="43.60086133577564" lon="11.257842619290557"><ele>500.3333333333333</ele><time>2026-05-03T16:52:16.999Z</time></trkpt><trkpt lat="43.600930924493596" lon="11.257861976355787"><ele>500.16666666666663</ele><time>2026-05-03T16:52:17.999Z</time></trkpt><trkpt lat="43.601045576647884" lon="11.257892339989775"><ele>500.0</ele><time>2026-05-03T16:52:19.999Z</time></trkpt><trkpt lat="43.60112789404185" lon="11.257919042064147"><ele>500.0</ele><time>2026-05-03T16:52:21.999Z</time></trkpt><trkpt lat="43.60112532529274" lon="11.257740363180966"><ele>500.0</ele><time>2026-05-03T16:52:25.999Z</time></trkpt><trkpt lat="43.60106640452846" lon="11.257660445035125"><ele>500.0</ele><time>2026-05-03T16:52:34Z</time></trkpt><trkpt lat="43.60100946738022" lon="11.257608026880153"><ele>500.0</ele><time>2026-05-03T16:52:35Z</time></trkpt><trkpt lat="43.60095503914642" lon="11.257529189831434"><ele>500.0</ele><time>2026-05-03T16:52:36Z</time></trkpt><trkpt lat="43.60089364812558" lon="11.257434139256441"><ele>499.99999999999994</ele><time>2026-05-03T16:52:37Z</time></trkpt><trkpt lat="43.60084454499719" lon="11.257336383987248"><ele>500.0</ele><time>2026-05-03T16:52:38Z</time></trkpt><trkpt lat="43.6008005358343" lon="11.25723450440184"><ele>500.0</ele><time>2026-05-03T16:52:39Z</time></trkpt><trkpt lat="43.60074648604903" lon="11.257143504816035"><ele>500.0</ele><time>2026-05-03T16:52:40Z</time></trkpt><trkpt lat="43.60069110922118" lon="11.257064519487848"><ele>499.99999999999994</ele><time>2026-05-03T16:52:41Z</time></trkpt><trkpt lat="43.600637927508" lon="11.256999905332249"><ele>500.0</ele><time>2026-05-03T16:52:42Z</time></trkpt><trkpt lat="43.60056529548593" lon="11.256877112828837"><ele>500.66666666666663</ele><time>2026-05-03T16:52:44Z</time></trkpt><trkpt lat="43.60054093267558" lon="11.256782016938848"><ele>501.3333333333333</ele><time>2026-05-03T16:52:45Z</time></trkpt><trkpt lat="43.60046610167565" lon="11.256695588744897"><ele>502.0</ele><time>2026-05-03T16:52:47Z</time></trkpt><trkpt lat="43.60040309610172" lon="11.256645676038675"><ele>502.66666666666663</ele><time>2026-05-03T16:52:48Z</time></trkpt><trkpt lat="43.60034338756295" lon="11.256612189587752"><ele>503.3333333333333</ele><time>2026-05-03T16:52:49Z</time></trkpt><trkpt lat="43.60029156699278" lon="11.256517950674676"><ele>504.0</ele><time>2026-05-03T16:52:51Z</time></trkpt><trkpt lat="43.600289734005095" lon="11.256420528758758"><ele>505.4</ele><time>2026-05-03T16:52:52Z</time></trkpt><trkpt lat="43.6002646593536" lon="11.25632334379211"><ele>506.79999999999995</ele><time>2026-05-03T16:52:53Z</time></trkpt><trkpt lat="43.60021823087785" lon="11.256208288476495"><ele>508.20000000000005</ele><time>2026-05-03T16:52:54Z</time></trkpt><trkpt lat="43.600177472478975" lon="11.256115706188456"><ele>509.6</ele><time>2026-05-03T16:52:55Z</time></trkpt><trkpt lat="43.60010076611811" lon="11.25598584265745"><ele>511.0</ele><time>2026-05-03T16:52:57Z</time></trkpt><trkpt lat="43.60002116397949" lon="11.255910254875351"><ele>511.00000000000006</ele><time>2026-05-03T16:52:59Z</time></trkpt><trkpt lat="43.60001722144395" lon="11.255802420108418"><ele>511.0</ele><time>2026-05-03T16:53:01Z</time></trkpt><trkpt lat="43.599969522892536" lon="11.255722500769984"><ele>511.0</ele><time>2026-05-03T16:53:06Z</time></trkpt><trkpt lat="43.5999265899507" lon="11.255642993928474"><ele>511.0</ele><time>2026-05-03T16:53:09Z</time></trkpt><trkpt lat="43.599866645326834" lon="11.255546927939616"><ele>511.00000000000006</ele><time>2026-05-03T16:53:11Z</time></trkpt><trkpt lat="43.59984946835417" lon="11.255451111575066"><ele>511.0</ele><time>2026-05-03T16:53:13Z</time></trkpt><trkpt lat="43.59986102988043" lon="11.255319135245966"><ele>509.20000000000005</ele><time>2026-05-03T16:53:16Z</time></trkpt><trkpt lat="43.59981390984455" lon="11.255243707534646"><ele>507.40000000000003</ele><time>2026-05-03T16:53:18Z</time></trkpt><trkpt lat="43.59974057132701" lon="11.255174754770728"><ele>505.6</ele><time>2026-05-03T16:53:21Z</time></trkpt><trkpt lat="43.59962897397309" lon="11.255118707911278"><ele>503.8</ele><time>2026-05-03T16:53:23Z</time></trkpt><trkpt lat="43.599563434290985" lon="11.255044370298418"><ele>502.0</ele><time>2026-05-03T16:53:25Z</time></trkpt><trkpt lat="43.59964894050095" lon="11.255095558447275"><ele>502.00000000000006</ele><time>2026-05-03T16:53:52.999Z</time></trkpt><trkpt lat="43.59971667989754" lon="11.255132974545583"><ele>502.0</ele><time>2026-05-03T16:53:53.999Z</time></trkpt><trkpt lat="43.599775643106675" lon="11.25517014775991"><ele>502.0</ele><time>2026-05-03T16:53:54.999Z</time></trkpt><trkpt lat="43.59982669931585" lon="11.255242541038383"><ele>502.0</ele><time>2026-05-03T16:53:56.999Z</time></trkpt><trkpt lat="43.59976104002277" lon="11.255165907269676"><ele>502.00000000000006</ele><time>2026-05-03T16:54:26.999Z</time></trkpt><trkpt lat="43.599661796632745" lon="11.255107626509881"><ele>502.0</ele><time>2026-05-03T16:54:28.999Z</time></trkpt><trkpt lat="43.59959810852374" lon="11.255074294558579"><ele>502.0</ele><time>2026-05-03T16:54:29.999Z</time></trkpt><trkpt lat="43.599529642178204" lon="11.255001687755648"><ele>502.00000000000006</ele><time>2026-05-03T16:54:31.999Z</time></trkpt><trkpt lat="43.59947535435853" lon="11.254949192203737"><ele>502.00000000000006</ele><time>2026-05-03T16:54:32.999Z</time></trkpt><trkpt lat="43.59938594438969" lon="11.254863998978742"><ele>502.0</ele><time>2026-05-03T16:54:34.999Z</time></trkpt><trkpt lat="43.59930656265063" lon="11.254821927443851"><ele>502.0</ele><time>2026-05-03T16:54:36.999Z</time></trkpt><trkpt lat="43.59920301672106" lon="11.25478316211628"><ele>499.40000000000003</ele><time>2026-05-03T16:54:39Z</time></trkpt><trkpt lat="43.59914292257984" lon="11.254747161717182"><ele>496.80000000000007</ele><time>2026-05-03T16:54:40Z</time></trkpt><trkpt lat="43.59907628562666" lon="11.254735263046648"><ele>494.2</ele><time>2026-05-03T16:54:41Z</time></trkpt><trkpt lat="43.59896041770273" lon="11.254675228929461"><ele>491.6</ele><time>2026-05-03T16:54:43Z</time></trkpt><trkpt lat="43.59887624910632" lon="11.254584558136237"><ele>489.0</ele><time>2026-05-03T16:54:45Z</time></trkpt><trkpt lat="43.59877787743217" lon="11.254539353735797"><ele>490.4</ele><time>2026-05-03T16:54:47Z</time></trkpt><trkpt lat="43.59865915650544" lon="11.25449007532297"><ele>491.79999999999995</ele><time>2026-05-03T16:54:49Z</time></trkpt><trkpt lat="43.59859439907017" lon="11.254445842990759"><ele>493.20000000000005</ele><time>2026-05-03T16:54:50Z</time></trkpt><trkpt lat="43.598531859170706" lon="11.254321434664778"><ele>494.6</ele><time>2026-05-03T16:54:52Z</time></trkpt><trkpt lat="43.598502618062454" lon="11.254224782942702"><ele>496.0</ele><time>2026-05-03T16:54:53Z</time></trkpt><trkpt lat="43.59843002932517" lon="11.254083647274186"><ele>496.00000000000006</ele><time>2026-05-03T16:54:55Z</time></trkpt><trkpt lat="43.59833535165993" lon="11.254008721985121"><ele>496.0</ele><time>2026-05-03T16:54:57Z</time></trkpt><trkpt lat="43.59828330976377" lon="11.253952905497732"><ele>496.0</ele><time>2026-05-03T16:54:58Z</time></trkpt><trkpt lat="43.59822299214387" lon="11.253804258908252"><ele>496.0</ele><time>2026-05-03T16:55:00Z</time></trkpt><trkpt lat="43.598210020182584" lon="11.253718009963627"><ele>496.00000000000006</ele><time>2026-05-03T16:55:01Z</time></trkpt><trkpt lat="43.598191632209655" lon="11.253625857941374"><ele>496.0</ele><time>2026-05-03T16:55:02Z</time></trkpt><trkpt lat="43.598182237566895" lon="11.253530086083655"><ele>495.6</ele><time>2026-05-03T16:55:03Z</time></trkpt><trkpt lat="43.59814648616538" lon="11.253398884623142"><ele>495.20000000000005</ele><time>2026-05-03T16:55:05Z</time></trkpt><trkpt lat="43.598213149460264" lon="11.25328279444346"><ele>494.79999999999995</ele><time>2026-05-03T16:55:07Z</time></trkpt><trkpt lat="43.59826257971052" lon="11.253148769354118"><ele>494.4</ele><time>2026-05-03T16:55:09Z</time></trkpt><trkpt lat="43.59821082387674" lon="11.253093104937845"><ele>494.0</ele><time>2026-05-03T16:55:12Z</time></trkpt><trkpt lat="43.59812476781287" lon="11.253049148266205"><ele>493.79999999999995</ele><time>2026-05-03T16:55:14Z</time></trkpt><trkpt lat="43.59801273034838" lon="11.252990958336087"><ele>493.59999999999997</ele><time>2026-05-03T16:55:16Z</time></trkpt><trkpt lat="43.59797114708211" lon="11.252876385711382"><ele>493.4</ele><time>2026-05-03T16:55:18Z</time></trkpt><trkpt lat="43.59790501615318" lon="11.252768190308073"><ele>493.2</ele><time>2026-05-03T16:55:20Z</time></trkpt><trkpt lat="43.59783197138342" lon="11.252749347154829"><ele>493.0</ele><time>2026-05-03T16:55:22Z</time></trkpt><trkpt lat="43.597743360631526" lon="11.252733935034707"><ele>493.0</ele><time>2026-05-03T16:55:24Z</time></trkpt><trkpt lat="43.59771106390318" lon="11.252612103506213"><ele>492.99999999999994</ele><time>2026-05-03T16:55:26Z</time></trkpt><trkpt lat="43.59763925143931" lon="11.25250864450241"><ele>492.99999999999994</ele><time>2026-05-03T16:55:28Z</time></trkpt><trkpt lat="43.59756368717273" lon="11.252423715742605"><ele>493.0</ele><time>2026-05-03T16:55:30Z</time></trkpt><trkpt lat="43.59747155335987" lon="11.252383291368892"><ele>493.0</ele><time>2026-05-03T16:55:31.999Z</time></trkpt><trkpt lat="43.597383934453866" lon="11.25236507289689"><ele>490.6666666666667</ele><time>2026-05-03T16:55:33.999Z</time></trkpt><trkpt lat="43.59736003047655" lon="11.252259485639737"><ele>488.33333333333337</ele><time>2026-05-03T16:55:35.999Z</time></trkpt><trkpt lat="43.5973328140814" lon="11.252155581933694"><ele>486.0</ele><time>2026-05-03T16:55:37.999Z</time></trkpt><trkpt lat="43.597274229066514" lon="11.252058435813934"><ele>483.66666666666663</ele><time>2026-05-03T16:55:39.999Z</time></trkpt><trkpt lat="43.597220266340805" lon="11.25200820895302"><ele>481.3333333333333</ele><time>2026-05-03T16:55:40.999Z</time></trkpt><trkpt lat="43.59711704256274" lon="11.251969708660324"><ele>479.0</ele><time>2026-05-03T16:55:42.999Z</time></trkpt><trkpt lat="43.597059626420865" lon="11.251933455362494"><ele>477.2</ele><time>2026-05-03T16:55:43.999Z</time></trkpt><trkpt lat="43.59696044575059" lon="11.251871111687233"><ele>475.4</ele><time>2026-05-03T16:55:45.999Z</time></trkpt><trkpt lat="43.59688818156945" lon="11.251801764890695"><ele>473.6</ele><time>2026-05-03T16:55:47.999Z</time></trkpt><trkpt lat="43.5967882068516" lon="11.251676101069442"><ele>471.8</ele><time>2026-05-03T16:55:49.999Z</time></trkpt><trkpt lat="43.59674376689168" lon="11.251607628179999"><ele>470.0</ele><time>2026-05-03T16:55:50.999Z</time></trkpt><trkpt lat="43.59666053559011" lon="11.25150131150693"><ele>467.4</ele><time>2026-05-03T16:55:52.999Z</time></trkpt><trkpt lat="43.596572565200375" lon="11.251409578028484"><ele>464.8</ele><time>2026-05-03T16:55:54.999Z</time></trkpt><trkpt lat="43.59648978412663" lon="11.251285881921897"><ele>462.20000000000005</ele><time>2026-05-03T16:55:56.999Z</time></trkpt><trkpt lat="43.596446806819685" lon="11.251151639940856"><ele>459.6</ele><time>2026-05-03T16:55:58.999Z</time></trkpt><trkpt lat="43.59637317872453" lon="11.251053603585534"><ele>457.0</ele><time>2026-05-03T16:56:00.999Z</time></trkpt><trkpt lat="43.596328654066205" lon="11.250936052961064"><ele>457.00000000000006</ele><time>2026-05-03T16:56:02.999Z</time></trkpt><trkpt lat="43.59623475222287" lon="11.250845062591798"><ele>457.0</ele><time>2026-05-03T16:56:04.999Z</time></trkpt><trkpt lat="43.59617156226255" lon="11.250791115252861"><ele>457.0</ele><time>2026-05-03T16:56:05.999Z</time></trkpt><trkpt lat="43.59616226865927" lon="11.250690809029297"><ele>457.0</ele><time>2026-05-03T16:56:07.999Z</time></trkpt><trkpt lat="43.59616690721301" lon="11.250602509399311"><ele>457.00000000000006</ele><time>2026-05-03T16:56:08.999Z</time></trkpt><trkpt lat="43.596150955235515" lon="11.250494756089672"><ele>457.0</ele><time>2026-05-03T16:56:10.999Z</time></trkpt><trkpt lat="43.596179551258665" lon="11.25041685570102"><ele>453.1666666666667</ele><time>2026-05-03T16:56:12.999Z</time></trkpt><trkpt lat="43.59622960605498" lon="11.250322403132236"><ele>449.33333333333337</ele><time>2026-05-03T16:56:15.999Z</time></trkpt><trkpt lat="43.59626520410851" lon="11.250232967267051"><ele>445.5</ele><time>2026-05-03T16:56:18.999Z</time></trkpt><trkpt lat="43.59631783900158" lon="11.250137853916243"><ele>441.66666666666663</ele><time>2026-05-03T16:56:21.999Z</time></trkpt><trkpt lat="43.59637427602792" lon="11.250044718268034"><ele>437.8333333333333</ele><time>2026-05-03T16:56:23.999Z</time></trkpt><trkpt lat="43.59642667656957" lon="11.249970467232068"><ele>434.0</ele><time>2026-05-03T16:56:25.999Z</time></trkpt><trkpt lat="43.59648813036505" lon="11.24992438682264"><ele>433.99999999999994</ele><time>2026-05-03T16:56:27.999Z</time></trkpt><trkpt lat="43.596543070980445" lon="11.249832832780791"><ele>434.0</ele><time>2026-05-03T16:56:30.999Z</time></trkpt><trkpt lat="43.596579480340566" lon="11.249752128479942"><ele>434.0</ele><time>2026-05-03T16:56:33.999Z</time></trkpt><trkpt lat="43.59656716490416" lon="11.24964382212481"><ele>434.0</ele><time>2026-05-03T16:56:36.999Z</time></trkpt><trkpt lat="43.59647845199114" lon="11.249552981845229"><ele>433.99999999999994</ele><time>2026-05-03T16:56:39.999Z</time></trkpt><trkpt lat="43.59640220240063" lon="11.249518079558237"><ele>434.0</ele><time>2026-05-03T16:56:41.999Z</time></trkpt><trkpt lat="43.59631832738954" lon="11.249506931624108"><ele>429.8333333333333</ele><time>2026-05-03T16:56:43.999Z</time></trkpt><trkpt lat="43.59624230438785" lon="11.249426966702723"><ele>425.66666666666663</ele><time>2026-05-03T16:56:46Z</time></trkpt><trkpt lat="43.59617807624067" lon="11.249367908128887"><ele>421.5</ele><time>2026-05-03T16:56:49Z</time></trkpt><trkpt lat="43.5961184523967" lon="11.249311568065067"><ele>417.33333333333337</ele><time>2026-05-03T16:56:52Z</time></trkpt><trkpt lat="43.59603982354008" lon="11.249245952966186"><ele>413.1666666666667</ele><time>2026-05-03T16:56:54Z</time></trkpt><trkpt lat="43.595974360952205" lon="11.24921118311008"><ele>409.0</ele><time>2026-05-03T16:56:56Z</time></trkpt><trkpt lat="43.59589457382206" lon="11.249176465671331"><ele>409.00000000000006</ele><time>2026-05-03T16:56:58Z</time></trkpt><trkpt lat="43.59582321652198" lon="11.249161279772018"><ele>409.0</ele><time>2026-05-03T16:57:00Z</time></trkpt><trkpt lat="43.59572387578696" lon="11.249150655310608"><ele>409.0</ele><time>2026-05-03T16:57:03Z</time></trkpt><trkpt lat="43.595641635623664" lon="11.24918434315191"><ele>409.0</ele><time>2026-05-03T16:57:05Z</time></trkpt><trkpt lat="43.5955562155195" lon="11.249187773536148"><ele>409.00000000000006</ele><time>2026-05-03T16:57:08Z</time></trkpt><trkpt lat="43.595480902522425" lon="11.24917357328911"><ele>409.0</ele><time>2026-05-03T16:57:11Z</time></trkpt><trkpt lat="43.59540278013868" lon="11.249172407480424"><ele>406.6666666666667</ele><time>2026-05-03T16:57:14Z</time></trkpt><trkpt lat="43.59532615403217" lon="11.249188332373404"><ele>404.33333333333337</ele><time>2026-05-03T16:57:18Z</time></trkpt><trkpt lat="43.59524052700836" lon="11.249181840913815"><ele>402.0</ele><time>2026-05-03T16:57:21Z</time></trkpt><trkpt lat="43.59523092155774" lon="11.249066288909363"><ele>399.66666666666663</ele><time>2026-05-03T16:57:24Z</time></trkpt><trkpt lat="43.595273990405815" lon="11.248946529250881"><ele>397.3333333333333</ele><time>2026-05-03T16:57:27Z</time></trkpt><trkpt lat="43.59531942372857" lon="11.248835820830102"><ele>395.0</ele><time>2026-05-03T16:57:30Z</time></trkpt><trkpt lat="43.59536432467628" lon="11.248759779853133"><ele>393.99999999999994</ele><time>2026-05-03T16:57:31.999Z</time></trkpt><trkpt lat="43.5953915590746" lon="11.248658583687515"><ele>393.0</ele><time>2026-05-03T16:57:34.999Z</time></trkpt><trkpt lat="43.59543426066922" lon="11.24856094514867"><ele>392.0</ele><time>2026-05-03T16:57:36.999Z</time></trkpt><trkpt lat="43.59542518800942" lon="11.248455075304458"><ele>391.0</ele><time>2026-05-03T16:57:38.999Z</time></trkpt><trkpt lat="43.595395055018656" lon="11.248365886102617"><ele>389.99999999999994</ele><time>2026-05-03T16:57:40.999Z</time></trkpt><trkpt lat="43.595404134468865" lon="11.24825692181154"><ele>389.0</ele><time>2026-05-03T16:57:42.999Z</time></trkpt><trkpt lat="43.595429880878896" lon="11.248152522157323"><ele>386.16666666666663</ele><time>2026-05-03T16:57:44.999Z</time></trkpt><trkpt lat="43.595474088042344" lon="11.248085098069426"><ele>383.3333333333333</ele><time>2026-05-03T16:57:45.999Z</time></trkpt><trkpt lat="43.59553779580883" lon="11.247986949700492"><ele>380.5</ele><time>2026-05-03T16:57:47.999Z</time></trkpt><trkpt lat="43.595594156258045" lon="11.247903459282917"><ele>377.66666666666663</ele><time>2026-05-03T16:57:49.999Z</time></trkpt><trkpt lat="43.59563804885687" lon="11.247773095788483"><ele>374.8333333333333</ele><time>2026-05-03T16:57:51.999Z</time></trkpt><trkpt lat="43.59569183861173" lon="11.247701792272627"><ele>372.0</ele><time>2026-05-03T16:57:53.999Z</time></trkpt><trkpt lat="43.59575654248159" lon="11.247648569933386"><ele>372.0</ele><time>2026-05-03T16:57:56.999Z</time></trkpt><trkpt lat="43.595715241140816" lon="11.247571803705148"><ele>372.0</ele><time>2026-05-03T16:57:58.999Z</time></trkpt><trkpt lat="43.595683777689" lon="11.247482663734989"><ele>372.0</ele><time>2026-05-03T16:58:00.999Z</time></trkpt><trkpt lat="43.59572524418497" lon="11.247389504579253"><ele>372.0</ele><time>2026-05-03T16:58:03.999Z</time></trkpt><trkpt lat="43.59581253537882" lon="11.247378575659203"><ele>372.0</ele><time>2026-05-03T16:58:12.999Z</time></trkpt><trkpt lat="43.59589519154305" lon="11.24742456132583"><ele>372.0</ele><time>2026-05-03T16:58:14.999Z</time></trkpt><trkpt lat="43.59599797863673" lon="11.247421384040205"><ele>372.0</ele><time>2026-05-03T16:58:16.999Z</time></trkpt><trkpt lat="43.59607939795679" lon="11.24742528048399"><ele>372.0</ele><time>2026-05-03T16:58:18.999Z</time></trkpt><trkpt lat="43.596149293859675" lon="11.247476855237785"><ele>372.0</ele><time>2026-05-03T16:58:20.999Z</time></trkpt><trkpt lat="43.59603437783398" lon="11.247449787010131"><ele>372.0</ele><time>2026-05-03T16:58:41.999Z</time></trkpt><trkpt lat="43.59596018620115" lon="11.247439236254685"><ele>372.0</ele><time>2026-05-03T16:58:42.999Z</time></trkpt><trkpt lat="43.59585190973901" lon="11.247414603034006"><ele>372.0</ele><time>2026-05-03T16:58:44.999Z</time></trkpt><trkpt lat="43.59575975778199" lon="11.247354586334627"><ele>372.0</ele><time>2026-05-03T16:58:46.999Z</time></trkpt><trkpt lat="43.59568283754795" lon="11.247264171418154"><ele>372.0</ele><time>2026-05-03T16:58:48.999Z</time></trkpt><trkpt lat="43.595611188795345" lon="11.247236368908615"><ele>372.0</ele><time>2026-05-03T16:58:53Z</time></trkpt><trkpt lat="43.59554946344857" lon="11.247202001618174"><ele>372.0</ele><time>2026-05-03T16:58:55Z</time></trkpt><trkpt lat="43.595443033976466" lon="11.24715248984938"><ele>369.8333333333333</ele><time>2026-05-03T16:58:57Z</time></trkpt><trkpt lat="43.5953504562707" lon="11.247123542975457"><ele>367.6666666666667</ele><time>2026-05-03T16:58:59Z</time></trkpt><trkpt lat="43.59530086073327" lon="11.247053318137173"><ele>365.5</ele><time>2026-05-03T16:59:02Z</time></trkpt><trkpt lat="43.59531970527892" lon="11.246947377709663"><ele>363.33333333333337</ele><time>2026-05-03T16:59:10Z</time></trkpt><trkpt lat="43.595250691615234" lon="11.246960955134421"><ele>361.1666666666667</ele><time>2026-05-03T16:59:13Z</time></trkpt><trkpt lat="43.59531070211405" lon="11.247073363591127"><ele>359.0</ele><time>2026-05-03T16:59:15Z</time></trkpt><trkpt lat="43.59538615025952" lon="11.247130432785225"><ele>359.0</ele><time>2026-05-03T16:59:17Z</time></trkpt><trkpt lat="43.595512307708105" lon="11.247157800886624"><ele>359.0</ele><time>2026-05-03T16:59:19Z</time></trkpt><trkpt lat="43.59562721208362" lon="11.247227868657664"><ele>359.0</ele><time>2026-05-03T16:59:21Z</time></trkpt><trkpt lat="43.59568860445357" lon="11.24725578674648"><ele>359.0</ele><time>2026-05-03T16:59:22Z</time></trkpt><trkpt lat="43.59576188172377" lon="11.247328859110594"><ele>359.0</ele><time>2026-05-03T16:59:24Z</time></trkpt><trkpt lat="43.59583312228526" lon="11.247373317789531"><ele>359.0</ele><time>2026-05-03T16:59:28Z</time></trkpt><trkpt lat="43.595724637285464" lon="11.247295872304822"><ele>359.0</ele><time>2026-05-03T16:59:38.999Z</time></trkpt><trkpt lat="43.59565704015918" lon="11.247260202057493"><ele>359.0</ele><time>2026-05-03T16:59:40.999Z</time></trkpt><trkpt lat="43.59575425282948" lon="11.247203346442731"><ele>359.0</ele><time>2026-05-03T16:59:44.999Z</time></trkpt><trkpt lat="43.59585740942148" lon="11.247213756593279"><ele>359.0</ele><time>2026-05-03T16:59:46.999Z</time></trkpt><trkpt lat="43.59591430111761" lon="11.247171108617973"><ele>359.0</ele><time>2026-05-03T16:59:54.999Z</time></trkpt><trkpt lat="43.595956368819046" lon="11.247095483026161"><ele>359.0</ele><time>2026-05-03T16:59:58.999Z</time></trkpt><trkpt lat="43.59600797197141" lon="11.247016641502638"><ele>359.0</ele><time>2026-05-03T17:00:02.999Z</time></trkpt><trkpt lat="43.595968012153236" lon="11.247113849962442"><ele>359.0</ele><time>2026-05-03T17:00:19.999Z</time></trkpt><trkpt lat="43.59591706154735" lon="11.247172449455919"><ele>359.0</ele><time>2026-05-03T17:00:21.999Z</time></trkpt><trkpt lat="43.59579797771756" lon="11.247176318396333"><ele>359.0</ele><time>2026-05-03T17:00:23.999Z</time></trkpt><trkpt lat="43.5957248881072" lon="11.247196591137365"><ele>359.0</ele><time>2026-05-03T17:00:24.999Z</time></trkpt><trkpt lat="43.595632891484534" lon="11.246940933402534"><ele>359.0</ele><time>2026-05-03T17:00:25.999Z</time></trkpt><trkpt lat="43.59554777275773" lon="11.246974598962918"><ele>359.0</ele><time>2026-05-03T17:00:27.999Z</time></trkpt><trkpt lat="43.59552412782417" lon="11.247169321322732"><ele>359.0</ele><time>2026-05-03T17:00:28.999Z</time></trkpt><trkpt lat="43.59545819860392" lon="11.247135270552615"><ele>359.0</ele><time>2026-05-03T17:00:29.999Z</time></trkpt><trkpt lat="43.595410108064414" lon="11.247018234002953"><ele>359.0</ele><time>2026-05-03T17:00:30.999Z</time></trkpt><trkpt lat="43.59531757455472" lon="11.246993465258132"><ele>359.0</ele><time>2026-05-03T17:00:32.999Z</time></trkpt><trkpt lat="43.59543063493853" lon="11.246987214303145"><ele>359.0</ele><time>2026-05-03T17:00:36.999Z</time></trkpt><trkpt lat="43.59550576595928" lon="11.246987177589714"><ele>359.0</ele><time>2026-05-03T17:00:37.999Z</time></trkpt><trkpt lat="43.595595413835895" lon="11.246967468890139"><ele>359.0</ele><time>2026-05-03T17:00:38.999Z</time></trkpt><trkpt lat="43.59570798835451" lon="11.246930272365182"><ele>359.0</ele><time>2026-05-03T17:00:39.999Z</time></trkpt><trkpt lat="43.5958554996398" lon="11.246891689239828"><ele>359.0</ele><time>2026-05-03T17:00:40.999Z</time></trkpt><trkpt lat="43.59600495083696" lon="11.246857110852739"><ele>359.0</ele><time>2026-05-03T17:00:41.999Z</time></trkpt><trkpt lat="43.596144487947605" lon="11.246798397382655"><ele>357.6666666666667</ele><time>2026-05-03T17:00:42.999Z</time></trkpt><trkpt lat="43.59628040686838" lon="11.246761812746774"><ele>356.3333333333333</ele><time>2026-05-03T17:00:43.999Z</time></trkpt><trkpt lat="43.596441223063266" lon="11.246715967396195"><ele>355.0</ele><time>2026-05-03T17:00:44.999Z</time></trkpt><trkpt lat="43.59661520775" lon="11.246669634317144"><ele>355.0</ele><time>2026-05-03T17:00:45.999Z</time></trkpt><trkpt lat="43.59678539505947" lon="11.246619452537864"><ele>355.0</ele><time>2026-05-03T17:00:46.999Z</time></trkpt><trkpt lat="43.59694856854588" lon="11.246557683523138"><ele>355.0</ele><time>2026-05-03T17:00:47.999Z</time></trkpt><trkpt lat="43.597104559043494" lon="11.246501686052781"><ele>354.75</ele><time>2026-05-03T17:00:48.999Z</time></trkpt><trkpt lat="43.59723228730852" lon="11.246467652101623"><ele>354.5</ele><time>2026-05-03T17:00:49.999Z</time></trkpt><trkpt lat="43.597324387022944" lon="11.246452212464286"><ele>354.25</ele><time>2026-05-03T17:00:50.999Z</time></trkpt><trkpt lat="43.597427270074924" lon="11.24640133848771"><ele>354.0</ele><time>2026-05-03T17:00:52.999Z</time></trkpt><trkpt lat="43.597550364538385" lon="11.246375541047712"><ele>352.79999999999995</ele><time>2026-05-03T17:00:54.999Z</time></trkpt><trkpt lat="43.59764336145111" lon="11.246330809695412"><ele>351.59999999999997</ele><time>2026-05-03T17:00:57Z</time></trkpt><trkpt lat="43.59768460356024" lon="11.246152058364046"><ele>350.4</ele><time>2026-05-03T17:00:59Z</time></trkpt><trkpt lat="43.5976954432636" lon="11.2460464816381"><ele>349.2</ele><time>2026-05-03T17:01:00Z</time></trkpt><trkpt lat="43.59773192942935" lon="11.245937372214208"><ele>348.0</ele><time>2026-05-03T17:01:01Z</time></trkpt><trkpt lat="43.59777573462636" lon="11.245856248684522"><ele>348.0</ele><time>2026-05-03T17:01:02Z</time></trkpt><trkpt lat="43.59783329069484" lon="11.24577214336403"><ele>348.0</ele><time>2026-05-03T17:01:03Z</time></trkpt><trkpt lat="43.59791517747676" lon="11.245676008029825"><ele>348.0</ele><time>2026-05-03T17:01:04Z</time></trkpt><trkpt lat="43.59799342491974" lon="11.245577034498739"><ele>348.0</ele><time>2026-05-03T17:01:05Z</time></trkpt><trkpt lat="43.598077459519764" lon="11.245490338208391"><ele>348.0</ele><time>2026-05-03T17:01:06Z</time></trkpt><trkpt lat="43.59817045034562" lon="11.245392378028908"><ele>351.59999999999997</ele><time>2026-05-03T17:01:07Z</time></trkpt><trkpt lat="43.59825486741442" lon="11.2452857534225"><ele>355.2</ele><time>2026-05-03T17:01:08Z</time></trkpt><trkpt lat="43.59834263923004" lon="11.245184858277984"><ele>358.8</ele><time>2026-05-03T17:01:09Z</time></trkpt><trkpt lat="43.59843248765565" lon="11.245099629631955"><ele>362.4</ele><time>2026-05-03T17:01:10Z</time></trkpt><trkpt lat="43.59852003385047" lon="11.24501602346943"><ele>366.0</ele><time>2026-05-03T17:01:11Z</time></trkpt><trkpt lat="43.598606206509714" lon="11.244932624489667"><ele>368.3333333333333</ele><time>2026-05-03T17:01:12Z</time></trkpt><trkpt lat="43.59869257716139" lon="11.244855713548992"><ele>370.6666666666667</ele><time>2026-05-03T17:01:13Z</time></trkpt><trkpt lat="43.59877087237182" lon="11.244804724075356"><ele>373.0</ele><time>2026-05-03T17:01:14Z</time></trkpt><trkpt lat="43.598855138314754" lon="11.244754758016233"><ele>375.33333333333337</ele><time>2026-05-03T17:01:15Z</time></trkpt><trkpt lat="43.59892176494186" lon="11.244707359570361"><ele>377.6666666666667</ele><time>2026-05-03T17:01:16Z</time></trkpt><trkpt lat="43.59898810498585" lon="11.244653898977703"><ele>380.0</ele><time>2026-05-03T17:01:17Z</time></trkpt><trkpt lat="43.59907940232242" lon="11.244583735675764"><ele>380.0</ele><time>2026-05-03T17:01:18Z</time></trkpt><trkpt lat="43.59915609178662" lon="11.244526826076282"><ele>380.0</ele><time>2026-05-03T17:01:19Z</time></trkpt><trkpt lat="43.59923342646369" lon="11.24449055612136"><ele>380.0</ele><time>2026-05-03T17:01:20Z</time></trkpt><trkpt lat="43.599309188391636" lon="11.244476259805316"><ele>380.0</ele><time>2026-05-03T17:01:21Z</time></trkpt><trkpt lat="43.599392280375994" lon="11.244460079931477"><ele>380.0</ele><time>2026-05-03T17:01:22Z</time></trkpt><trkpt lat="43.599469243296916" lon="11.244430060528403"><ele>380.0</ele><time>2026-05-03T17:01:23Z</time></trkpt><trkpt lat="43.59952801859391" lon="11.24438835040706"><ele>380.33333333333337</ele><time>2026-05-03T17:01:24Z</time></trkpt><trkpt lat="43.59959799456914" lon="11.244349601977376"><ele>380.6666666666667</ele><time>2026-05-03T17:01:25Z</time></trkpt><trkpt lat="43.59970298666454" lon="11.244308928384818"><ele>381.0</ele><time>2026-05-03T17:01:27Z</time></trkpt><trkpt lat="43.59977327290327" lon="11.244316154593921"><ele>381.3333333333333</ele><time>2026-05-03T17:01:28.999Z</time></trkpt><trkpt lat="43.59986955917687" lon="11.244325275921334"><ele>381.66666666666663</ele><time>2026-05-03T17:01:30.999Z</time></trkpt><trkpt lat="43.59996627828078" lon="11.244326311519284"><ele>382.0</ele><time>2026-05-03T17:01:32.999Z</time></trkpt><trkpt lat="43.600049886285916" lon="11.244466855452943"><ele>382.0</ele><time>2026-05-03T17:01:35.999Z</time></trkpt><trkpt lat="43.60010086471524" lon="11.24455750400811"><ele>382.0</ele><time>2026-05-03T17:01:36.999Z</time></trkpt><trkpt lat="43.60015995391981" lon="11.244655476929008"><ele>382.0</ele><time>2026-05-03T17:01:37.999Z</time></trkpt><trkpt lat="43.60021654624444" lon="11.244746935085107"><ele>382.0</ele><time>2026-05-03T17:01:38.999Z</time></trkpt><trkpt lat="43.6002607705875" lon="11.244823279082938"><ele>382.0</ele><time>2026-05-03T17:01:39.999Z</time></trkpt><trkpt lat="43.60031233462971" lon="11.244915067932142"><ele>382.0</ele><time>2026-05-03T17:01:40.999Z</time></trkpt><trkpt lat="43.600365819854815" lon="11.24500127635182"><ele>385.20000000000005</ele><time>2026-05-03T17:01:41.999Z</time></trkpt><trkpt lat="43.60041626170835" lon="11.245076223651958"><ele>388.4</ele><time>2026-05-03T17:01:42.999Z</time></trkpt><trkpt lat="43.60046468703816" lon="11.245176599721397"><ele>391.6</ele><time>2026-05-03T17:01:44.999Z</time></trkpt><trkpt lat="43.60053401551624" lon="11.245256872887925"><ele>394.79999999999995</ele><time>2026-05-03T17:01:47.999Z</time></trkpt><trkpt lat="43.600611714214175" lon="11.245281225225446"><ele>398.0</ele><time>2026-05-03T17:01:50.999Z</time></trkpt><trkpt lat="43.6007239128112" lon="11.245165701552363"><ele>397.99999999999994</ele><time>2026-05-03T17:01:52.999Z</time></trkpt><trkpt lat="43.60078920483798" lon="11.245106990045315"><ele>398.0</ele><time>2026-05-03T17:01:53.999Z</time></trkpt><trkpt lat="43.600866022412035" lon="11.245043442069857"><ele>398.0</ele><time>2026-05-03T17:01:54.999Z</time></trkpt><trkpt lat="43.600938954221554" lon="11.244983518682131"><ele>398.0</ele><time>2026-05-03T17:01:55.999Z</time></trkpt><trkpt lat="43.60100283034372" lon="11.244924999112962"><ele>397.99999999999994</ele><time>2026-05-03T17:01:56.999Z</time></trkpt><trkpt lat="43.60107139718616" lon="11.244869339730863"><ele>398.0</ele><time>2026-05-03T17:01:57.999Z</time></trkpt><trkpt lat="43.601143295294754" lon="11.244815367948739"><ele>399.99999999999994</ele><time>2026-05-03T17:01:58.999Z</time></trkpt><trkpt lat="43.60121388122381" lon="11.244755221350015"><ele>402.0</ele><time>2026-05-03T17:01:59.999Z</time></trkpt><trkpt lat="43.60130182782701" lon="11.244715490125357"><ele>404.0</ele><time>2026-05-03T17:02:00.999Z</time></trkpt><trkpt lat="43.60137351693532" lon="11.244639678959993"><ele>406.0</ele><time>2026-05-03T17:02:01.999Z</time></trkpt><trkpt lat="43.60144915050391" lon="11.244582863644297"><ele>407.99999999999994</ele><time>2026-05-03T17:02:02.999Z</time></trkpt><trkpt lat="43.601530958486116" lon="11.244522692942844"><ele>410.0</ele><time>2026-05-03T17:02:03.999Z</time></trkpt><trkpt lat="43.601609551314446" lon="11.244467927694377"><ele>409.99999999999994</ele><time>2026-05-03T17:02:04.999Z</time></trkpt><trkpt lat="43.601672117276706" lon="11.244421204251102"><ele>410.0</ele><time>2026-05-03T17:02:05.999Z</time></trkpt><trkpt lat="43.60176474339059" lon="11.244341961165977"><ele>410.0</ele><time>2026-05-03T17:02:07.999Z</time></trkpt><trkpt lat="43.6018147895014" lon="11.244285756188898"><ele>410.0</ele><time>2026-05-03T17:02:09.999Z</time></trkpt><trkpt lat="43.60184185749108" lon="11.244195591991188"><ele>409.99999999999994</ele><time>2026-05-03T17:02:16.999Z</time></trkpt><trkpt lat="43.60182007216467" lon="11.244075924173563"><ele>410.0</ele><time>2026-05-03T17:02:18.999Z</time></trkpt><trkpt lat="43.60177387384518" lon="11.243934372806441"><ele>408.2</ele><time>2026-05-03T17:02:20.999Z</time></trkpt><trkpt lat="43.60168230016032" lon="11.243780870848877"><ele>406.4</ele><time>2026-05-03T17:02:22.999Z</time></trkpt><trkpt lat="43.601620125735536" lon="11.243715971440576"><ele>404.6</ele><time>2026-05-03T17:02:23.999Z</time></trkpt><trkpt lat="43.601572285912944" lon="11.24363024831333"><ele>402.8</ele><time>2026-05-03T17:02:24.999Z</time></trkpt><trkpt lat="43.60150057992993" lon="11.243494376158234"><ele>401.0</ele><time>2026-05-03T17:02:26.999Z</time></trkpt><trkpt lat="43.60146613861887" lon="11.243413067287085"><ele>401.0</ele><time>2026-05-03T17:02:27.999Z</time></trkpt><trkpt lat="43.60138312366708" lon="11.243282326851341"><ele>401.0</ele><time>2026-05-03T17:02:29.999Z</time></trkpt><trkpt lat="43.601302890073804" lon="11.24317725200218"><ele>401.0</ele><time>2026-05-03T17:02:31.999Z</time></trkpt><trkpt lat="43.60122082765497" lon="11.243044499938735"><ele>401.0</ele><time>2026-05-03T17:02:33.999Z</time></trkpt><trkpt lat="43.60117834041796" lon="11.242962451605678"><ele>401.0</ele><time>2026-05-03T17:02:34.999Z</time></trkpt><trkpt lat="43.60115967204787" lon="11.24286699855354"><ele>399.99999999999994</ele><time>2026-05-03T17:02:35.999Z</time></trkpt><trkpt lat="43.60116978550265" lon="11.242764093721844"><ele>399.0</ele><time>2026-05-03T17:02:36.999Z</time></trkpt><trkpt lat="43.60116028718874" lon="11.242648913881139"><ele>398.0</ele><time>2026-05-03T17:02:37.999Z</time></trkpt><trkpt lat="43.60117262035979" lon="11.242543658104722"><ele>397.0</ele><time>2026-05-03T17:02:38.999Z</time></trkpt><trkpt lat="43.60118543546953" lon="11.242448040259918"><ele>395.99999999999994</ele><time>2026-05-03T17:02:39.999Z</time></trkpt><trkpt lat="43.601202129315276" lon="11.24235119674107"><ele>395.0</ele><time>2026-05-03T17:02:40.999Z</time></trkpt><trkpt lat="43.60122349054481" lon="11.242249087557225"><ele>393.66666666666663</ele><time>2026-05-03T17:02:41.999Z</time></trkpt><trkpt lat="43.60125001752317" lon="11.242148588205591"><ele>392.3333333333333</ele><time>2026-05-03T17:02:42.999Z</time></trkpt><trkpt lat="43.60126968876624" lon="11.242059507601542"><ele>391.0</ele><time>2026-05-03T17:02:43.999Z</time></trkpt><trkpt lat="43.60128055585455" lon="11.241968416339914"><ele>389.66666666666663</ele><time>2026-05-03T17:02:44.999Z</time></trkpt><trkpt lat="43.60131318116896" lon="11.241821634373245"><ele>388.3333333333333</ele><time>2026-05-03T17:02:46.999Z</time></trkpt><trkpt lat="43.601376432971904" lon="11.241705781126841"><ele>387.0</ele><time>2026-05-03T17:02:48.999Z</time></trkpt><trkpt lat="43.601473658166064" lon="11.241671633500127"><ele>387.0</ele><time>2026-05-03T17:02:50.999Z</time></trkpt><trkpt lat="43.60154238125468" lon="11.241674383981449"><ele>387.0</ele><time>2026-05-03T17:02:51.999Z</time></trkpt><trkpt lat="43.601629366469716" lon="11.241682279124518"><ele>387.0</ele><time>2026-05-03T17:02:52.999Z</time></trkpt><trkpt lat="43.601720650927156" lon="11.241682841270034"><ele>387.0</ele><time>2026-05-03T17:02:53.999Z</time></trkpt><trkpt lat="43.60179363454406" lon="11.241711130404623"><ele>387.0</ele><time>2026-05-03T17:02:54.999Z</time></trkpt><trkpt lat="43.60187988414348" lon="11.241718858855327"><ele>387.0</ele><time>2026-05-03T17:02:55.999Z</time></trkpt><trkpt lat="43.60197228280452" lon="11.24172275812049"><ele>386.0</ele><time>2026-05-03T17:02:56.999Z</time></trkpt><trkpt lat="43.602065605656605" lon="11.241756315571143"><ele>385.0</ele><time>2026-05-03T17:02:57.999Z</time></trkpt><trkpt lat="43.602165840967615" lon="11.241786136680473"><ele>384.0</ele><time>2026-05-03T17:02:58.999Z</time></trkpt><trkpt lat="43.60225340373151" lon="11.241814034264076"><ele>383.0</ele><time>2026-05-03T17:02:59.999Z</time></trkpt><trkpt lat="43.60233872390494" lon="11.241842132414824"><ele>382.0</ele><time>2026-05-03T17:03:00.999Z</time></trkpt><trkpt lat="43.6024273116279" lon="11.241879966140067"><ele>382.0</ele><time>2026-05-03T17:03:01.999Z</time></trkpt><trkpt lat="43.602507832613696" lon="11.241909550478177"><ele>382.0</ele><time>2026-05-03T17:03:02.999Z</time></trkpt><trkpt lat="43.602596916545565" lon="11.241966397202239"><ele>382.0</ele><time>2026-05-03T17:03:03.999Z</time></trkpt><trkpt lat="43.60269944721496" lon="11.242004566879475"><ele>382.0</ele><time>2026-05-03T17:03:04.999Z</time></trkpt><trkpt lat="43.60280392987309" lon="11.242020609272853"><ele>382.0</ele><time>2026-05-03T17:03:05.999Z</time></trkpt><trkpt lat="43.602902829595145" lon="11.242055864030899"><ele>382.40000000000003</ele><time>2026-05-03T17:03:06.999Z</time></trkpt><trkpt lat="43.602995795773644" lon="11.24209383938179"><ele>382.8</ele><time>2026-05-03T17:03:07.999Z</time></trkpt><trkpt lat="43.603095033226296" lon="11.242135878997004"><ele>383.2</ele><time>2026-05-03T17:03:08.999Z</time></trkpt><trkpt lat="43.60318411357111" lon="11.242175077292043"><ele>383.6</ele><time>2026-05-03T17:03:09.999Z</time></trkpt><trkpt lat="43.603276002900834" lon="11.242213820790061"><ele>384.0</ele><time>2026-05-03T17:03:10.999Z</time></trkpt><trkpt lat="43.603358510277985" lon="11.242259178315406"><ele>384.0</ele><time>2026-05-03T17:03:11.999Z</time></trkpt><trkpt lat="43.60342337283446" lon="11.242276991231574"><ele>384.0</ele><time>2026-05-03T17:03:12.999Z</time></trkpt><trkpt lat="43.60351246527826" lon="11.24230645224984"><ele>384.0</ele><time>2026-05-03T17:03:14.999Z</time></trkpt><trkpt lat="43.60361338882847" lon="11.242288724235877"><ele>384.0</ele><time>2026-05-03T17:03:16.999Z</time></trkpt><trkpt lat="43.60370924107109" lon="11.242249402367124"><ele>384.0</ele><time>2026-05-03T17:03:18.999Z</time></trkpt><trkpt lat="43.603774969977124" lon="11.24223519092354"><ele>384.0</ele><time>2026-05-03T17:03:20.999Z</time></trkpt><trkpt lat="43.60395009238538" lon="11.242607002693957"><ele>385.6</ele><time>2026-05-03T17:03:44Z</time></trkpt><trkpt lat="43.60400094287433" lon="11.242671882163824"><ele>387.2</ele><time>2026-05-03T17:03:46Z</time></trkpt><trkpt lat="43.60409679484704" lon="11.242760580579352"><ele>388.8</ele><time>2026-05-03T17:03:49Z</time></trkpt><trkpt lat="43.6041908043399" lon="11.242866585828976"><ele>390.40000000000003</ele><time>2026-05-03T17:03:51Z</time></trkpt><trkpt lat="43.60426656797051" lon="11.242954070377321"><ele>392.0</ele><time>2026-05-03T17:03:52Z</time></trkpt><trkpt lat="43.604337675351175" lon="11.243026539511263"><ele>391.99999999999994</ele><time>2026-05-03T17:03:53Z</time></trkpt><trkpt lat="43.60438313270118" lon="11.243113902865232"><ele>392.0</ele><time>2026-05-03T17:03:54Z</time></trkpt><trkpt lat="43.60443926368718" lon="11.243219366706114"><ele>392.0</ele><time>2026-05-03T17:03:55Z</time></trkpt><trkpt lat="43.60451831905363" lon="11.24333714247792"><ele>392.0</ele><time>2026-05-03T17:03:56Z</time></trkpt><trkpt lat="43.60458079796998" lon="11.243413491576067"><ele>391.99999999999994</ele><time>2026-05-03T17:03:57Z</time></trkpt><trkpt lat="43.604632610488416" lon="11.243480919231803"><ele>392.0</ele><time>2026-05-03T17:03:58Z</time></trkpt><trkpt lat="43.60466775704865" lon="11.24363131785542"><ele>391.40000000000003</ele><time>2026-05-03T17:04:00Z</time></trkpt><trkpt lat="43.60468611410786" lon="11.243720984200536"><ele>390.8</ele><time>2026-05-03T17:04:01Z</time></trkpt><trkpt lat="43.6047008746991" lon="11.243809061964399"><ele>390.2</ele><time>2026-05-03T17:04:02Z</time></trkpt><trkpt lat="43.60470464515536" lon="11.243984935055872"><ele>389.6</ele><time>2026-05-03T17:04:04Z</time></trkpt><trkpt lat="43.604713263263804" lon="11.244132787756914"><ele>389.0</ele><time>2026-05-03T17:04:06Z</time></trkpt><trkpt lat="43.60476876552184" lon="11.244219603124698"><ele>391.4</ele><time>2026-05-03T17:04:07Z</time></trkpt><trkpt lat="43.60481257786849" lon="11.244316738003233"><ele>393.79999999999995</ele><time>2026-05-03T17:04:08Z</time></trkpt><trkpt lat="43.60484819636358" lon="11.244415248674432"><ele>396.20000000000005</ele><time>2026-05-03T17:04:09Z</time></trkpt><trkpt lat="43.604894739325026" lon="11.244481090404815"><ele>398.6</ele><time>2026-05-03T17:04:10Z</time></trkpt><trkpt lat="43.60496135679052" lon="11.244568888434523"><ele>401.0</ele><time>2026-05-03T17:04:11Z</time></trkpt><trkpt lat="43.605073361085246" lon="11.24466982351114"><ele>400.99999999999994</ele><time>2026-05-03T17:04:13Z</time></trkpt><trkpt lat="43.605112312856626" lon="11.244752755898894"><ele>401.0</ele><time>2026-05-03T17:04:14Z</time></trkpt><trkpt lat="43.605159902249085" lon="11.244823307914361"><ele>401.0</ele><time>2026-05-03T17:04:15Z</time></trkpt><trkpt lat="43.60522327403208" lon="11.244887061155923"><ele>401.0</ele><time>2026-05-03T17:04:16Z</time></trkpt><trkpt lat="43.605298216697946" lon="11.244957045311088"><ele>400.99999999999994</ele><time>2026-05-03T17:04:17Z</time></trkpt><trkpt lat="43.605358030025705" lon="11.24501985232724"><ele>401.0</ele><time>2026-05-03T17:04:18Z</time></trkpt><trkpt lat="43.60542257665994" lon="11.245079388211517"><ele>403.4</ele><time>2026-05-03T17:04:19Z</time></trkpt><trkpt lat="43.60549830846471" lon="11.245130746430295"><ele>405.8</ele><time>2026-05-03T17:04:20Z</time></trkpt><trkpt lat="43.60556457908357" lon="11.245170000898334"><ele>408.2</ele><time>2026-05-03T17:04:21Z</time></trkpt><trkpt lat="43.60565979377593" lon="11.24522903295609"><ele>410.59999999999997</ele><time>2026-05-03T17:04:23Z</time></trkpt><trkpt lat="43.60577544048417" lon="11.245211316328863"><ele>413.0</ele><time>2026-05-03T17:04:25Z</time></trkpt><trkpt lat="43.60588439679679" lon="11.2450752872983"><ele>412.99999999999994</ele><time>2026-05-03T17:04:27Z</time></trkpt><trkpt lat="43.6059548501252" lon="11.245035047965494"><ele>413.0</ele><time>2026-05-03T17:04:28Z</time></trkpt><trkpt lat="43.60606731469122" lon="11.244984826182163"><ele>413.0</ele><time>2026-05-03T17:04:29Z</time></trkpt><trkpt lat="43.60614488807949" lon="11.24494017784135"><ele>413.0</ele><time>2026-05-03T17:04:30Z</time></trkpt><trkpt lat="43.6062081695701" lon="11.24490627277229"><ele>412.99999999999994</ele><time>2026-05-03T17:04:31Z</time></trkpt><trkpt lat="43.60627819283669" lon="11.244877847438781"><ele>413.0</ele><time>2026-05-03T17:04:32Z</time></trkpt><trkpt lat="43.60634998057915" lon="11.244853902645586"><ele>413.79999999999995</ele><time>2026-05-03T17:04:33Z</time></trkpt><trkpt lat="43.606485366556214" lon="11.24482496209098"><ele>414.6</ele><time>2026-05-03T17:04:35Z</time></trkpt><trkpt lat="43.60657327522356" lon="11.244842331085863"><ele>415.4</ele><time>2026-05-03T17:04:36Z</time></trkpt><trkpt lat="43.60664090436977" lon="11.244864301653571"><ele>416.20000000000005</ele><time>2026-05-03T17:04:37Z</time></trkpt><trkpt lat="43.60672474887608" lon="11.244928326206288"><ele>417.0</ele><time>2026-05-03T17:04:39Z</time></trkpt><trkpt lat="43.60678034182288" lon="11.244975971414197"><ele>417.0</ele><time>2026-05-03T17:04:40Z</time></trkpt><trkpt lat="43.60689097058581" lon="11.245068860473468"><ele>417.0</ele><time>2026-05-03T17:04:42Z</time></trkpt><trkpt lat="43.60699131225495" lon="11.24516972970118"><ele>417.0</ele><time>2026-05-03T17:04:44Z</time></trkpt><trkpt lat="43.607102660249524" lon="11.24526871207341"><ele>417.0</ele><time>2026-05-03T17:04:46Z</time></trkpt><trkpt lat="43.6071605676257" lon="11.24532912274732"><ele>415.8333333333333</ele><time>2026-05-03T17:04:47Z</time></trkpt><trkpt lat="43.607230013564234" lon="11.24539414407386"><ele>414.66666666666663</ele><time>2026-05-03T17:04:48Z</time></trkpt><trkpt lat="43.6072978351088" lon="11.245472718569701"><ele>413.5</ele><time>2026-05-03T17:04:49Z</time></trkpt><trkpt lat="43.60736884118523" lon="11.24553632159722"><ele>412.3333333333333</ele><time>2026-05-03T17:04:50Z</time></trkpt><trkpt lat="43.60743202083127" lon="11.245611829081856"><ele>411.16666666666663</ele><time>2026-05-03T17:04:51Z</time></trkpt><trkpt lat="43.607483608487996" lon="11.245681857490894"><ele>410.0</ele><time>2026-05-03T17:04:52Z</time></trkpt><trkpt lat="43.60754728246828" lon="11.245748304546112"><ele>409.8333333333333</ele><time>2026-05-03T17:04:53Z</time></trkpt><trkpt lat="43.607605531760946" lon="11.245815997212535"><ele>409.66666666666663</ele><time>2026-05-03T17:04:54Z</time></trkpt><trkpt lat="43.60766804493355" lon="11.24589596246454"><ele>409.5</ele><time>2026-05-03T17:04:55Z</time></trkpt><trkpt lat="43.60772070596806" lon="11.245968108332182"><ele>409.33333333333337</ele><time>2026-05-03T17:04:56Z</time></trkpt><trkpt lat="43.60778762952489" lon="11.246057807460359"><ele>409.1666666666667</ele><time>2026-05-03T17:04:57Z</time></trkpt><trkpt lat="43.60785062749602" lon="11.246122509852253"><ele>409.0</ele><time>2026-05-03T17:04:58Z</time></trkpt><trkpt lat="43.60791393073033" lon="11.24616601048843"><ele>409.00000000000006</ele><time>2026-05-03T17:04:59Z</time></trkpt><trkpt lat="43.607962021819176" lon="11.246237588057062"><ele>409.0</ele><time>2026-05-03T17:05:00Z</time></trkpt><trkpt lat="43.60802526804579" lon="11.246311659326388"><ele>409.0</ele><time>2026-05-03T17:05:01Z</time></trkpt><trkpt lat="43.60808638173878" lon="11.24636751091933"><ele>409.0</ele><time>2026-05-03T17:05:02Z</time></trkpt><trkpt lat="43.60815191250387" lon="11.24643241266993"><ele>409.00000000000006</ele><time>2026-05-03T17:05:03Z</time></trkpt><trkpt lat="43.60821367819572" lon="11.246506260447097"><ele>409.0</ele><time>2026-05-03T17:05:04Z</time></trkpt><trkpt lat="43.608289428418715" lon="11.246657549779993"><ele>411.00000000000006</ele><time>2026-05-03T17:05:06Z</time></trkpt><trkpt lat="43.60831583085787" lon="11.246752049915846"><ele>413.0</ele><time>2026-05-03T17:05:07Z</time></trkpt><trkpt lat="43.60834585818095" lon="11.2468550233259"><ele>415.0</ele><time>2026-05-03T17:05:08Z</time></trkpt><trkpt lat="43.608379497493075" lon="11.246943367960123"><ele>417.0</ele><time>2026-05-03T17:05:09Z</time></trkpt><trkpt lat="43.60842605990062" lon="11.247033162404795"><ele>419.00000000000006</ele><time>2026-05-03T17:05:10Z</time></trkpt><trkpt lat="43.60846409996358" lon="11.247133806598685"><ele>421.0</ele><time>2026-05-03T17:05:11Z</time></trkpt><trkpt lat="43.608519327615745" lon="11.247230041547583"><ele>421.83333333333337</ele><time>2026-05-03T17:05:12Z</time></trkpt><trkpt lat="43.60856103019299" lon="11.247332787888144"><ele>422.6666666666667</ele><time>2026-05-03T17:05:13Z</time></trkpt><trkpt lat="43.6085921393973" lon="11.24741744851801"><ele>423.5</ele><time>2026-05-03T17:05:14Z</time></trkpt><trkpt lat="43.608626360745646" lon="11.247535549411321"><ele>424.33333333333337</ele><time>2026-05-03T17:05:16Z</time></trkpt><trkpt lat="43.60871491175321" lon="11.247545356674186"><ele>425.1666666666667</ele><time>2026-05-03T17:05:18Z</time></trkpt><trkpt lat="43.60878888056162" lon="11.247547316603283"><ele>426.0</ele><time>2026-05-03T17:05:19Z</time></trkpt><trkpt lat="43.60890243291972" lon="11.247577798178963"><ele>426.0</ele><time>2026-05-03T17:05:21Z</time></trkpt><trkpt lat="43.609013400029845" lon="11.247566975051706"><ele>426.0</ele><time>2026-05-03T17:05:23Z</time></trkpt><trkpt lat="43.60911357202871" lon="11.24753193919344"><ele>426.0</ele><time>2026-05-03T17:05:25Z</time></trkpt><trkpt lat="43.60922496499428" lon="11.247469179270208"><ele>426.0</ele><time>2026-05-03T17:05:27Z</time></trkpt><trkpt lat="43.60929602061875" lon="11.247435768274682"><ele>426.0</ele><time>2026-05-03T17:05:28Z</time></trkpt><trkpt lat="43.60941040550996" lon="11.247442971359904"><ele>424.3333333333333</ele><time>2026-05-03T17:05:30Z</time></trkpt><trkpt lat="43.60950812243764" lon="11.247511704533704"><ele>422.66666666666663</ele><time>2026-05-03T17:05:32Z</time></trkpt><trkpt lat="43.60955943114448" lon="11.247563303563524"><ele>421.0</ele><time>2026-05-03T17:05:33Z</time></trkpt><trkpt lat="43.609620264226365" lon="11.24765807981072"><ele>419.3333333333333</ele><time>2026-05-03T17:05:35Z</time></trkpt><trkpt lat="43.60967439019558" lon="11.24779261651268"><ele>417.66666666666663</ele><time>2026-05-03T17:05:37Z</time></trkpt><trkpt lat="43.60971211050466" lon="11.24786284098863"><ele>416.0</ele><time>2026-05-03T17:05:38Z</time></trkpt><trkpt lat="43.60978524723903" lon="11.247999579483125"><ele>416.0</ele><time>2026-05-03T17:05:40Z</time></trkpt><trkpt lat="43.60984690779133" lon="11.248088808898762"><ele>416.0</ele><time>2026-05-03T17:05:41Z</time></trkpt><trkpt lat="43.609925405626385" lon="11.248194069151399"><ele>416.0</ele><time>2026-05-03T17:05:42Z</time></trkpt><trkpt lat="43.61000684416149" lon="11.24830302262"><ele>416.0</ele><time>2026-05-03T17:05:43Z</time></trkpt><trkpt lat="43.61006513206447" lon="11.24839832862993"><ele>416.0</ele><time>2026-05-03T17:05:44Z</time></trkpt><trkpt lat="43.61012086530409" lon="11.248478802543918"><ele>417.16666666666663</ele><time>2026-05-03T17:05:45Z</time></trkpt><trkpt lat="43.61016751196808" lon="11.248538518902675"><ele>418.3333333333333</ele><time>2026-05-03T17:05:46Z</time></trkpt><trkpt lat="43.6102274740433" lon="11.248604428432879"><ele>419.5</ele><time>2026-05-03T17:05:47Z</time></trkpt><trkpt lat="43.61027617661439" lon="11.248676183296796"><ele>420.66666666666663</ele><time>2026-05-03T17:05:48Z</time></trkpt><trkpt lat="43.61033064140309" lon="11.248748448652066"><ele>421.8333333333333</ele><time>2026-05-03T17:05:49Z</time></trkpt><trkpt lat="43.61039227541805" lon="11.248845656810184"><ele>423.0</ele><time>2026-05-03T17:05:50Z</time></trkpt><trkpt lat="43.61044503410464" lon="11.248917425507338"><ele>421.1666666666667</ele><time>2026-05-03T17:05:51Z</time></trkpt><trkpt lat="43.61049802505914" lon="11.248991373312997"><ele>419.33333333333337</ele><time>2026-05-03T17:05:52Z</time></trkpt><trkpt lat="43.610554656995774" lon="11.249069833505448"><ele>417.5</ele><time>2026-05-03T17:05:53Z</time></trkpt><trkpt lat="43.61060672893517" lon="11.249149872507274"><ele>415.6666666666667</ele><time>2026-05-03T17:05:54Z</time></trkpt><trkpt lat="43.610655414141775" lon="11.24921987636217"><ele>413.83333333333337</ele><time>2026-05-03T17:05:55Z</time></trkpt><trkpt lat="43.61070900280095" lon="11.249276092772494"><ele>412.0</ele><time>2026-05-03T17:05:56Z</time></trkpt><trkpt lat="43.610781097831406" lon="11.249326721658878"><ele>412.00000000000006</ele><time>2026-05-03T17:05:57Z</time></trkpt><trkpt lat="43.610845849942784" lon="11.249372407780024"><ele>412.0</ele><time>2026-05-03T17:05:58Z</time></trkpt><trkpt lat="43.61090782703407" lon="11.249402009077768"><ele>412.0</ele><time>2026-05-03T17:05:59Z</time></trkpt><trkpt lat="43.611038885360585" lon="11.24938005371946"><ele>412.0</ele><time>2026-05-03T17:06:01Z</time></trkpt><trkpt lat="43.611124942131866" lon="11.2493671107855"><ele>412.00000000000006</ele><time>2026-05-03T17:06:02Z</time></trkpt><trkpt lat="43.611204677450026" lon="11.249349899546122"><ele>412.0</ele><time>2026-05-03T17:06:03Z</time></trkpt><trkpt lat="43.61127588834459" lon="11.249314629538398"><ele>410.83333333333337</ele><time>2026-05-03T17:06:04Z</time></trkpt><trkpt lat="43.611370677929116" lon="11.249189664232844"><ele>409.6666666666667</ele><time>2026-05-03T17:06:06Z</time></trkpt><trkpt lat="43.61141020396316" lon="11.24910792529215"><ele>408.5</ele><time>2026-05-03T17:06:07Z</time></trkpt><trkpt lat="43.61144855688628" lon="11.249025793128185"><ele>407.33333333333337</ele><time>2026-05-03T17:06:08Z</time></trkpt><trkpt lat="43.61149340518677" lon="11.248937608730394"><ele>406.1666666666667</ele><time>2026-05-03T17:06:09Z</time></trkpt><trkpt lat="43.61154668415274" lon="11.248874297706065"><ele>405.0</ele><time>2026-05-03T17:06:10Z</time></trkpt><trkpt lat="43.61159299268986" lon="11.248769707212235"><ele>405.0</ele><time>2026-05-03T17:06:12Z</time></trkpt><trkpt lat="43.611660431607454" lon="11.24872820585792"><ele>405.0</ele><time>2026-05-03T17:06:25Z</time></trkpt><trkpt lat="43.61173360143621" lon="11.248780539621121"><ele>405.0</ele><time>2026-05-03T17:06:27Z</time></trkpt><trkpt lat="43.61170222877375" lon="11.248910677919161"><ele>405.0</ele><time>2026-05-03T17:06:29Z</time></trkpt><trkpt lat="43.611664581645734" lon="11.249008192214806"><ele>405.0</ele><time>2026-05-03T17:06:31Z</time></trkpt><trkpt lat="43.611639835494614" lon="11.24910765857073"><ele>405.0</ele><time>2026-05-03T17:06:33Z</time></trkpt><trkpt lat="43.61162030682636" lon="11.249197993404646"><ele>407.6666666666667</ele><time>2026-05-03T17:06:34Z</time></trkpt><trkpt lat="43.61162831930752" lon="11.249295055826359"><ele>410.33333333333337</ele><time>2026-05-03T17:06:35Z</time></trkpt><trkpt lat="43.61164022904757" lon="11.249394150243669"><ele>413.0</ele><time>2026-05-03T17:06:36Z</time></trkpt><trkpt lat="43.611629742657485" lon="11.249530974317492"><ele>415.6666666666667</ele><time>2026-05-03T17:06:38Z</time></trkpt><trkpt lat="43.61162426168233" lon="11.249625677371766"><ele>418.33333333333337</ele><time>2026-05-03T17:06:39Z</time></trkpt><trkpt lat="43.611621563180655" lon="11.249720261389529"><ele>421.0</ele><time>2026-05-03T17:06:40Z</time></trkpt><trkpt lat="43.61164448198897" lon="11.249813731841185"><ele>423.6</ele><time>2026-05-03T17:06:41Z</time></trkpt><trkpt lat="43.61164785335892" lon="11.249993192122233"><ele>426.20000000000005</ele><time>2026-05-03T17:06:43Z</time></trkpt><trkpt lat="43.611655873536655" lon="11.25014076043607"><ele>428.79999999999995</ele><time>2026-05-03T17:06:45Z</time></trkpt><trkpt lat="43.61169310676206" lon="11.25024805294248"><ele>431.4</ele><time>2026-05-03T17:06:46Z</time></trkpt><trkpt lat="43.61173050773001" lon="11.250329495144005"><ele>434.0</ele><time>2026-05-03T17:06:47Z</time></trkpt><trkpt lat="43.61176635971311" lon="11.250448706048093"><ele>433.99999999999994</ele><time>2026-05-03T17:06:49Z</time></trkpt><trkpt lat="43.611804678107276" lon="11.25053769682067"><ele>434.0</ele><time>2026-05-03T17:06:50Z</time></trkpt><trkpt lat="43.611830953135986" lon="11.250674829449448"><ele>434.0</ele><time>2026-05-03T17:06:52Z</time></trkpt><trkpt lat="43.61181696210388" lon="11.25076405066033"><ele>434.0</ele><time>2026-05-03T17:06:53Z</time></trkpt><trkpt lat="43.61178561050824" lon="11.250853433154678"><ele>433.99999999999994</ele><time>2026-05-03T17:06:54Z</time></trkpt><trkpt lat="43.61176081208424" lon="11.250949137876272"><ele>434.0</ele><time>2026-05-03T17:06:55Z</time></trkpt><trkpt lat="43.61177546219122" lon="11.251105178715765"><ele>436.0</ele><time>2026-05-03T17:06:57Z</time></trkpt><trkpt lat="43.61175579629149" lon="11.251235961315448"><ele>438.0</ele><time>2026-05-03T17:06:59Z</time></trkpt><trkpt lat="43.61176046011146" lon="11.251385873374229"><ele>440.0</ele><time>2026-05-03T17:07:01Z</time></trkpt><trkpt lat="43.61181366327865" lon="11.251490578817997"><ele>442.0</ele><time>2026-05-03T17:07:03Z</time></trkpt><trkpt lat="43.61178313682624" lon="11.251603122245882"><ele>444.0</ele><time>2026-05-03T17:07:05Z</time></trkpt><trkpt lat="43.611726301106145" lon="11.251697886192485"><ele>445.3333333333333</ele><time>2026-05-03T17:07:07Z</time></trkpt><trkpt lat="43.6116983184896" lon="11.251838227550309"><ele>446.66666666666663</ele><time>2026-05-03T17:07:08.999Z</time></trkpt><trkpt lat="43.61172478596793" lon="11.251748658269504"><ele>448.0</ele><time>2026-05-03T17:07:20Z</time></trkpt><trkpt lat="43.61178944247529" lon="11.2516830063436"><ele>449.3333333333333</ele><time>2026-05-03T17:07:24Z</time></trkpt><trkpt lat="43.61186300351578" lon="11.25172859521772"><ele>450.66666666666663</ele><time>2026-05-03T17:07:26Z</time></trkpt><trkpt lat="43.611939957679276" lon="11.251768354354946"><ele>452.0</ele><time>2026-05-03T17:07:28Z</time></trkpt><trkpt lat="43.61204547060131" lon="11.251742953115945"><ele>452.0</ele><time>2026-05-03T17:07:30Z</time></trkpt><trkpt lat="43.61194935427053" lon="11.251792398328414"><ele>452.0</ele><time>2026-05-03T17:07:31Z</time></trkpt><trkpt lat="43.61219451684548" lon="11.25174489041247"><ele>452.0</ele><time>2026-05-03T17:07:32Z</time></trkpt><trkpt lat="43.61230884651451" lon="11.251765022282859"><ele>452.0</ele><time>2026-05-03T17:07:34Z</time></trkpt><trkpt lat="43.612421209843376" lon="11.251809360898744"><ele>452.00000000000006</ele><time>2026-05-03T17:07:36Z</time></trkpt><trkpt lat="43.61248059366038" lon="11.251840171504236"><ele>452.00000000000006</ele><time>2026-05-03T17:07:37Z</time></trkpt><trkpt lat="43.61255782073691" lon="11.251875312176521"><ele>452.0</ele><time>2026-05-03T17:07:38Z</time></trkpt><trkpt lat="43.61268563273706" lon="11.251907191994801"><ele>452.0</ele><time>2026-05-03T17:07:40Z</time></trkpt><trkpt lat="43.61274804189569" lon="11.251939270830263"><ele>451.99999999999994</ele><time>2026-05-03T17:07:41Z</time></trkpt><trkpt lat="43.61281528402317" lon="11.251993634945853"><ele>452.0</ele><time>2026-05-03T17:07:42Z</time></trkpt><trkpt lat="43.61287946513459" lon="11.252039250052082"><ele>452.0</ele><time>2026-05-03T17:07:43Z</time></trkpt><trkpt lat="43.6129418927276" lon="11.252084262398578"><ele>452.0</ele><time>2026-05-03T17:07:44Z</time></trkpt><trkpt lat="43.61299334815765" lon="11.252160812000392"><ele>451.99999999999994</ele><time>2026-05-03T17:07:45Z</time></trkpt><trkpt lat="43.613022578788275" lon="11.252238606553083"><ele>452.0</ele><time>2026-05-03T17:07:46Z</time></trkpt><trkpt lat="43.61314733139768" lon="11.252341918631641"><ele>449.49999999999994</ele><time>2026-05-03T17:07:48Z</time></trkpt><trkpt lat="43.613206369524946" lon="11.252411817176512"><ele>447.0</ele><time>2026-05-03T17:07:49Z</time></trkpt><trkpt lat="43.61328007270976" lon="11.252496003973327"><ele>444.5</ele><time>2026-05-03T17:07:50Z</time></trkpt><trkpt lat="43.61332728558311" lon="11.252602601369933"><ele>442.0</ele><time>2026-05-03T17:07:52Z</time></trkpt><trkpt lat="43.61333292901813" lon="11.25270278569915"><ele>439.49999999999994</ele><time>2026-05-03T17:07:54Z</time></trkpt><trkpt lat="43.61336011065869" lon="11.25279817963826"><ele>437.0</ele><time>2026-05-03T17:07:57Z</time></trkpt><trkpt lat="43.61339238588363" lon="11.252884329871291"><ele>437.0</ele><time>2026-05-03T17:07:58Z</time></trkpt><trkpt lat="43.613465327707644" lon="11.252967083734713"><ele>437.0</ele><time>2026-05-03T17:07:59Z</time></trkpt><trkpt lat="43.61356712638509" lon="11.253059852496992"><ele>437.0</ele><time>2026-05-03T17:08:00Z</time></trkpt><trkpt lat="43.613687433950304" lon="11.25316007929302"><ele>437.0</ele><time>2026-05-03T17:08:01Z</time></trkpt><trkpt lat="43.613831507259064" lon="11.253281604952312"><ele>435.20000000000005</ele><time>2026-05-03T17:08:02Z</time></trkpt><trkpt lat="43.61393832890661" lon="11.253371014421026"><ele>433.40000000000003</ele><time>2026-05-03T17:08:03Z</time></trkpt><trkpt lat="43.614036531657334" lon="11.25344825770029"><ele>431.59999999999997</ele><time>2026-05-03T17:08:04Z</time></trkpt><trkpt lat="43.61412622135057" lon="11.253517900820533"><ele>429.79999999999995</ele><time>2026-05-03T17:08:05Z</time></trkpt><trkpt lat="43.61420366194472" lon="11.253589094732122"><ele>428.0</ele><time>2026-05-03T17:08:06Z</time></trkpt><trkpt lat="43.614275706813444" lon="11.253648618314534"><ele>427.99999999999994</ele><time>2026-05-03T17:08:07Z</time></trkpt><trkpt lat="43.61434607302898" lon="11.253700438184815"><ele>428.0</ele><time>2026-05-03T17:08:08Z</time></trkpt><trkpt lat="43.61441237412019" lon="11.253754725391309"><ele>428.0</ele><time>2026-05-03T17:08:09Z</time></trkpt><trkpt lat="43.614479261855344" lon="11.253811065062465"><ele>428.0</ele><time>2026-05-03T17:08:10Z</time></trkpt><trkpt lat="43.61455089577052" lon="11.253854893249883"><ele>427.99999999999994</ele><time>2026-05-03T17:08:11Z</time></trkpt><trkpt lat="43.61460940152481" lon="11.253897728719538"><ele>428.0</ele><time>2026-05-03T17:08:12Z</time></trkpt><trkpt lat="43.6146819319951" lon="11.253954379910512"><ele>426.0</ele><time>2026-05-03T17:08:14Z</time></trkpt><trkpt lat="43.61470338228369" lon="11.254067527773588"><ele>423.99999999999994</ele><time>2026-05-03T17:08:17Z</time></trkpt><trkpt lat="43.61463822443665" lon="11.254277984479335"><ele>422.0</ele><time>2026-05-03T17:08:18Z</time></trkpt><trkpt lat="43.61461445338948" lon="11.254446026723766"><ele>420.0</ele><time>2026-05-03T17:08:20Z</time></trkpt><trkpt lat="43.61460718906433" lon="11.254536826143497"><ele>418.0</ele><time>2026-05-03T17:08:21Z</time></trkpt><trkpt lat="43.61459209057473" lon="11.254672215690366"><ele>416.2</ele><time>2026-05-03T17:08:23Z</time></trkpt><trkpt lat="43.614636662569524" lon="11.25480122844806"><ele>414.4</ele><time>2026-05-03T17:08:25Z</time></trkpt><trkpt lat="43.61466084667228" lon="11.25492136873262"><ele>412.59999999999997</ele><time>2026-05-03T17:08:26Z</time></trkpt><trkpt lat="43.61468381215142" lon="11.25505762977054"><ele>410.79999999999995</ele><time>2026-05-03T17:08:27Z</time></trkpt><trkpt lat="43.61470826171864" lon="11.255166730788796"><ele>409.0</ele><time>2026-05-03T17:08:28Z</time></trkpt><trkpt lat="43.61473928553636" lon="11.25527949039857"><ele>409.0</ele><time>2026-05-03T17:08:29Z</time></trkpt><trkpt lat="43.61476458074754" lon="11.255403697990701"><ele>409.0</ele><time>2026-05-03T17:08:30Z</time></trkpt><trkpt lat="43.614786659921066" lon="11.25551065801799"><ele>409.0</ele><time>2026-05-03T17:08:31Z</time></trkpt><trkpt lat="43.61481624034152" lon="11.255620323583697"><ele>409.0</ele><time>2026-05-03T17:08:32Z</time></trkpt><trkpt lat="43.61484412360805" lon="11.255737429927084"><ele>409.0</ele><time>2026-05-03T17:08:33Z</time></trkpt><trkpt lat="43.61488248265311" lon="11.255891224928547"><ele>407.2</ele><time>2026-05-03T17:08:34Z</time></trkpt><trkpt lat="43.61492290452807" lon="11.256026030201939"><ele>405.4</ele><time>2026-05-03T17:08:35Z</time></trkpt><trkpt lat="43.61496658163436" lon="11.256161439003966"><ele>403.6</ele><time>2026-05-03T17:08:36Z</time></trkpt><trkpt lat="43.61501459816903" lon="11.256291930348059"><ele>401.8</ele><time>2026-05-03T17:08:37Z</time></trkpt><trkpt lat="43.61503885423031" lon="11.256387422356434"><ele>400.0</ele><time>2026-05-03T17:08:38Z</time></trkpt><trkpt lat="43.61509037017266" lon="11.256511866873542"><ele>397.8</ele><time>2026-05-03T17:08:39Z</time></trkpt><trkpt lat="43.615151951346235" lon="11.256638781244368"><ele>395.6</ele><time>2026-05-03T17:08:40Z</time></trkpt><trkpt lat="43.615209250967276" lon="11.256772145912358"><ele>393.4</ele><time>2026-05-03T17:08:41Z</time></trkpt><trkpt lat="43.615285636977546" lon="11.256914485064206"><ele>391.2</ele><time>2026-05-03T17:08:42Z</time></trkpt><trkpt lat="43.615201400757385" lon="11.256955013833377"><ele>389.0</ele><time>2026-05-03T17:08:43Z</time></trkpt><trkpt lat="43.61523506492946" lon="11.25703838239631"><ele>389.0</ele><time>2026-05-03T17:08:44Z</time></trkpt><trkpt lat="43.615267559465764" lon="11.25712778510201"><ele>389.0</ele><time>2026-05-03T17:08:45Z</time></trkpt><trkpt lat="43.61534376082588" lon="11.257246149876773"><ele>389.0</ele><time>2026-05-03T17:08:47Z</time></trkpt><trkpt lat="43.615460331988714" lon="11.257247308634085"><ele>389.0</ele><time>2026-05-03T17:08:49Z</time></trkpt><trkpt lat="43.61553085468432" lon="11.257181161774765"><ele>389.0</ele><time>2026-05-03T17:08:51Z</time></trkpt><trkpt lat="43.6155548567426" lon="11.257297150231459"><ele>385.79999999999995</ele><time>2026-05-03T17:08:53Z</time></trkpt><trkpt lat="43.615496184983726" lon="11.25742925930556"><ele>382.59999999999997</ele><time>2026-05-03T17:08:54Z</time></trkpt><trkpt lat="43.615512806534944" lon="11.257556070404808"><ele>379.4</ele><time>2026-05-03T17:08:55Z</time></trkpt><trkpt lat="43.615529479793864" lon="11.257667392471609"><ele>376.2</ele><time>2026-05-03T17:08:56Z</time></trkpt><trkpt lat="43.61554185950115" lon="11.257756126476712"><ele>373.0</ele><time>2026-05-03T17:08:57Z</time></trkpt><trkpt lat="43.61555447077302" lon="11.257891633619199"><ele>373.0</ele><time>2026-05-03T17:08:59Z</time></trkpt><trkpt lat="43.61555395203664" lon="11.258007815522515"><ele>373.0</ele><time>2026-05-03T17:09:01Z</time></trkpt><trkpt lat="43.61552796173198" lon="11.25809477485572"><ele>373.0</ele><time>2026-05-03T17:09:04Z</time></trkpt><trkpt lat="43.61539763227952" lon="11.258072851266496"><ele>373.0</ele><time>2026-05-03T17:09:05Z</time></trkpt><trkpt lat="43.615274177764945" lon="11.258113137405747"><ele>373.0</ele><time>2026-05-03T17:09:07Z</time></trkpt><trkpt lat="43.615200958133805" lon="11.258131472530168"><ele>372.8571428571429</ele><time>2026-05-03T17:09:08Z</time></trkpt><trkpt lat="43.61512400978922" lon="11.2581507884086"><ele>372.7142857142857</ele><time>2026-05-03T17:09:09Z</time></trkpt><trkpt lat="43.61505059383535" lon="11.25816789022695"><ele>372.57142857142856</ele><time>2026-05-03T17:09:10Z</time></trkpt><trkpt lat="43.614981670922255" lon="11.25818356239247"><ele>372.42857142857144</ele><time>2026-05-03T17:09:11Z</time></trkpt><trkpt lat="43.61490692053725" lon="11.2581980043338"><ele>372.2857142857143</ele><time>2026-05-03T17:09:12Z</time></trkpt><trkpt lat="43.61483383023203" lon="11.258210083049665"><ele>372.14285714285717</ele><time>2026-05-03T17:09:13Z</time></trkpt><trkpt lat="43.61475947804445" lon="11.258223870205589"><ele>372.0</ele><time>2026-05-03T17:09:14Z</time></trkpt><trkpt lat="43.61467962422925" lon="11.258239107552278"><ele>372.0</ele><time>2026-05-03T17:09:15Z</time></trkpt><trkpt lat="43.61458733122917" lon="11.258261299355487"><ele>372.0</ele><time>2026-05-03T17:09:16Z</time></trkpt><trkpt lat="43.614505185952254" lon="11.258307998366758"><ele>372.0</ele><time>2026-05-03T17:09:17Z</time></trkpt><trkpt lat="43.61441070262515" lon="11.258344550716792"><ele>372.0</ele><time>2026-05-03T17:09:17.999Z</time></trkpt><trkpt lat="43.6143163001346" lon="11.258359574492012"><ele>372.0</ele><time>2026-05-03T17:09:18.999Z</time></trkpt><trkpt lat="43.61423043039226" lon="11.25839785697987"><ele>371.5</ele><time>2026-05-03T17:09:20Z</time></trkpt><trkpt lat="43.61416596364204" lon="11.258447004588062"><ele>371.0</ele><time>2026-05-03T17:09:21Z</time></trkpt><trkpt lat="43.61409361160389" lon="11.258473660341219"><ele>370.5</ele><time>2026-05-03T17:09:22Z</time></trkpt><trkpt lat="43.614008717172446" lon="11.258510518224904"><ele>370.0</ele><time>2026-05-03T17:09:23Z</time></trkpt><trkpt lat="43.613919270590664" lon="11.258557644996795"><ele>369.5</ele><time>2026-05-03T17:09:24Z</time></trkpt><trkpt lat="43.61383748509287" lon="11.258619119815428"><ele>369.0</ele><time>2026-05-03T17:09:25Z</time></trkpt><trkpt lat="43.61376626307008" lon="11.258667185644287"><ele>369.0</ele><time>2026-05-03T17:09:26Z</time></trkpt><trkpt lat="43.61369665893612" lon="11.258711689071731"><ele>369.0</ele><time>2026-05-03T17:09:27Z</time></trkpt><trkpt lat="43.61362235005922" lon="11.25876673258428"><ele>369.0</ele><time>2026-05-03T17:09:28Z</time></trkpt><trkpt lat="43.61354281131631" lon="11.258814841620081"><ele>369.0</ele><time>2026-05-03T17:09:29Z</time></trkpt><trkpt lat="43.613447249810584" lon="11.258840158224467"><ele>369.0</ele><time>2026-05-03T17:09:30Z</time></trkpt><trkpt lat="43.613366627438914" lon="11.258896546345555"><ele>369.0</ele><time>2026-05-03T17:09:31Z</time></trkpt><trkpt lat="43.61330129159314" lon="11.258911528561867"><ele>369.5</ele><time>2026-05-03T17:09:32Z</time></trkpt><trkpt lat="43.61320559452071" lon="11.258977481815785"><ele>370.0</ele><time>2026-05-03T17:09:34Z</time></trkpt><trkpt lat="43.61313826694262" lon="11.259014651024948"><ele>370.5</ele><time>2026-05-03T17:09:35Z</time></trkpt><trkpt lat="43.61303797272616" lon="11.259040679898485"><ele>371.0</ele><time>2026-05-03T17:09:37Z</time></trkpt><trkpt lat="43.61294506774488" lon="11.25908156508591"><ele>371.5</ele><time>2026-05-03T17:09:39Z</time></trkpt><trkpt lat="43.61288719328918" lon="11.259125729182099"><ele>372.0</ele><time>2026-05-03T17:09:42Z</time></trkpt><trkpt lat="43.612815359356716" lon="11.259069867295826"><ele>374.6666666666667</ele><time>2026-05-03T17:09:46Z</time></trkpt><trkpt lat="43.61274180011606" lon="11.259066345841685"><ele>377.33333333333337</ele><time>2026-05-03T17:09:51Z</time></trkpt><trkpt lat="43.61256102246192" lon="11.25905170671488"><ele>380.0</ele><time>2026-05-03T17:09:52Z</time></trkpt><trkpt lat="43.61269028825402" lon="11.259482288754231"><ele>380.0</ele><time>2026-05-03T17:09:55Z</time></trkpt><trkpt lat="43.61275300813687" lon="11.259524460263162"><ele>380.0</ele><time>2026-05-03T17:09:58Z</time></trkpt><trkpt lat="43.612822752929944" lon="11.259562747920178"><ele>372.0</ele><time>2026-05-03T17:10:00Z</time></trkpt><trkpt lat="43.61288996353656" lon="11.259492286015433"><ele>372.0</ele><time>2026-05-03T17:10:04Z</time></trkpt><trkpt lat="43.61295585717796" lon="11.259424513997129"><ele>372.0</ele><time>2026-05-03T17:10:07Z</time></trkpt><trkpt lat="43.61301687807795" lon="11.259387630235222"><ele>372.0</ele><time>2026-05-03T17:10:13Z</time></trkpt></trkseg><trkseg><trkpt lat="43.61292705481916" lon="11.259284186815801"><ele>372.0</ele><time>2026-05-03T17:26:45Z</time></trkpt><trkpt lat="43.61282304274198" lon="11.259151704461761"><ele>372.0</ele><time>2026-05-03T17:26:47Z</time></trkpt><trkpt lat="43.61275939320787" lon="11.259052867278628"><ele>372.0</ele><time>2026-05-03T17:26:48Z</time></trkpt><trkpt lat="43.61268202582788" lon="11.259015922157008"><ele>372.0</ele><time>2026-05-03T17:26:49Z</time></trkpt><trkpt lat="43.61261051177846" lon="11.258999828586932"><ele>372.0</ele><time>2026-05-03T17:26:50Z</time></trkpt><trkpt lat="43.61252811992469" lon="11.259084430215998"><ele>373.6</ele><time>2026-05-03T17:26:51Z</time></trkpt><trkpt lat="43.61242601611949" lon="11.259139388694582"><ele>375.20000000000005</ele><time>2026-05-03T17:26:52Z</time></trkpt><trkpt lat="43.61232421428948" lon="11.259219415233915"><ele>376.8</ele><time>2026-05-03T17:26:53Z</time></trkpt><trkpt lat="43.61222599792812" lon="11.25930603381805"><ele>378.4</ele><time>2026-05-03T17:26:54Z</time></trkpt><trkpt lat="43.612165013168195" lon="11.25939622759158"><ele>380.0</ele><time>2026-05-03T17:26:55Z</time></trkpt><trkpt lat="43.61211764297315" lon="11.259498208882277"><ele>380.0</ele><time>2026-05-03T17:26:56Z</time></trkpt><trkpt lat="43.612086969056264" lon="11.259623437663205"><ele>380.0</ele><time>2026-05-03T17:26:57Z</time></trkpt><trkpt lat="43.61206788261248" lon="11.259777225950923"><ele>380.0</ele><time>2026-05-03T17:26:58Z</time></trkpt><trkpt lat="43.6120335702983" lon="11.259938059324893"><ele>380.0</ele><time>2026-05-03T17:26:59Z</time></trkpt><trkpt lat="43.6119851552092" lon="11.260095868134615"><ele>383.0</ele><time>2026-05-03T17:27:00Z</time></trkpt><trkpt lat="43.611928774311295" lon="11.260242210323083"><ele>386.0</ele><time>2026-05-03T17:27:01Z</time></trkpt><trkpt lat="43.61188716776842" lon="11.260395275043287"><ele>389.0</ele><time>2026-05-03T17:27:02Z</time></trkpt><trkpt lat="43.61184949303726" lon="11.26054510436426"><ele>392.0</ele><time>2026-05-03T17:27:03Z</time></trkpt><trkpt lat="43.61181646063301" lon="11.2606994493702"><ele>392.75</ele><time>2026-05-03T17:27:04Z</time></trkpt><trkpt lat="43.611789832102566" lon="11.260848939727934"><ele>393.5</ele><time>2026-05-03T17:27:05Z</time></trkpt><trkpt lat="43.6117631767747" lon="11.261011450078316"><ele>394.25</ele><time>2026-05-03T17:27:06Z</time></trkpt><trkpt lat="43.61173132432784" lon="11.261191465145881"><ele>395.0</ele><time>2026-05-03T17:27:07Z</time></trkpt><trkpt lat="43.61169120361797" lon="11.26138162952289"><ele>395.75</ele><time>2026-05-03T17:27:08Z</time></trkpt><trkpt lat="43.61166555886942" lon="11.261555083591553"><ele>396.5</ele><time>2026-05-03T17:27:09Z</time></trkpt><trkpt lat="43.61165818206516" lon="11.26171566353918"><ele>397.25</ele><time>2026-05-03T17:27:10Z</time></trkpt><trkpt lat="43.611659263723375" lon="11.261887059571519"><ele>398.0</ele><time>2026-05-03T17:27:11Z</time></trkpt><trkpt lat="43.611671801127045" lon="11.262075829676338"><ele>398.0</ele><time>2026-05-03T17:27:11.999Z</time></trkpt><trkpt lat="43.61170189521911" lon="11.262266945313222"><ele>398.0</ele><time>2026-05-03T17:27:12.999Z</time></trkpt><trkpt lat="43.61173939028895" lon="11.262456264755812"><ele>398.0</ele><time>2026-05-03T17:27:13.999Z</time></trkpt><trkpt lat="43.61177918182315" lon="11.262628605366032"><ele>398.0</ele><time>2026-05-03T17:27:14.999Z</time></trkpt><trkpt lat="43.611816918616576" lon="11.262751423592418"><ele>398.79999999999995</ele><time>2026-05-03T17:27:15.999Z</time></trkpt><trkpt lat="43.61181803919524" lon="11.262892449726293"><ele>399.6</ele><time>2026-05-03T17:27:16.999Z</time></trkpt><trkpt lat="43.61181745008997" lon="11.26298809609713"><ele>400.4</ele><time>2026-05-03T17:27:17.999Z</time></trkpt><trkpt lat="43.61173243021883" lon="11.263038482543546"><ele>401.20000000000005</ele><time>2026-05-03T17:27:20.999Z</time></trkpt><trkpt lat="43.61161718236179" lon="11.263010806919974"><ele>402.0</ele><time>2026-05-03T17:27:22.999Z</time></trkpt><trkpt lat="43.61152943720913" lon="11.263044069702488"><ele>402.0</ele><time>2026-05-03T17:27:23.999Z</time></trkpt><trkpt lat="43.611374145510815" lon="11.263113917496291"><ele>402.0</ele><time>2026-05-03T17:27:25.999Z</time></trkpt><trkpt lat="43.611264703232436" lon="11.263110510578935"><ele>402.0</ele><time>2026-05-03T17:27:26.999Z</time></trkpt><trkpt lat="43.611162637128594" lon="11.26311634554016"><ele>402.0</ele><time>2026-05-03T17:27:27.999Z</time></trkpt><trkpt lat="43.61107950096447" lon="11.263126066523407"><ele>402.85714285714283</ele><time>2026-05-03T17:27:28.999Z</time></trkpt><trkpt lat="43.61099966467707" lon="11.263143603372134"><ele>403.7142857142857</ele><time>2026-05-03T17:27:29.999Z</time></trkpt><trkpt lat="43.610930793125824" lon="11.263177361346154"><ele>404.57142857142856</ele><time>2026-05-03T17:27:30.999Z</time></trkpt><trkpt lat="43.610858233054685" lon="11.263222945979987"><ele>405.42857142857144</ele><time>2026-05-03T17:27:31.999Z</time></trkpt><trkpt lat="43.61079612376345" lon="11.263260559067287"><ele>406.28571428571433</ele><time>2026-05-03T17:27:32.999Z</time></trkpt><trkpt lat="43.610733801219915" lon="11.263297397245811"><ele>407.14285714285717</ele><time>2026-05-03T17:27:33.999Z</time></trkpt><trkpt lat="43.61066395337009" lon="11.263338683548577"><ele>408.0</ele><time>2026-05-03T17:27:34.999Z</time></trkpt><trkpt lat="43.61058927364989" lon="11.263382721052063"><ele>408.0</ele><time>2026-05-03T17:27:35.999Z</time></trkpt><trkpt lat="43.61051729652267" lon="11.263424914538914"><ele>408.0</ele><time>2026-05-03T17:27:36.999Z</time></trkpt><trkpt lat="43.61043842742219" lon="11.263471148144612"><ele>408.0</ele><time>2026-05-03T17:27:37.999Z</time></trkpt><trkpt lat="43.61034003927606" lon="11.263525007718753"><ele>408.0</ele><time>2026-05-03T17:27:38.999Z</time></trkpt><trkpt lat="43.61023017076181" lon="11.26357153532862"><ele>408.0</ele><time>2026-05-03T17:27:39.999Z</time></trkpt><trkpt lat="43.610126083094656" lon="11.263572827572286"><ele>408.2</ele><time>2026-05-03T17:27:40.999Z</time></trkpt><trkpt lat="43.61001469545727" lon="11.263556973194218"><ele>408.4</ele><time>2026-05-03T17:27:41.999Z</time></trkpt><trkpt lat="43.6099121791747" lon="11.263550669348204"><ele>408.59999999999997</ele><time>2026-05-03T17:27:42.999Z</time></trkpt><trkpt lat="43.60979943152871" lon="11.263555632885025"><ele>408.79999999999995</ele><time>2026-05-03T17:27:43.999Z</time></trkpt><trkpt lat="43.60969439380193" lon="11.263599785587278"><ele>409.0</ele><time>2026-05-03T17:27:44.999Z</time></trkpt><trkpt lat="43.60958997962326" lon="11.263656993157502"><ele>407.5</ele><time>2026-05-03T17:27:45.999Z</time></trkpt><trkpt lat="43.60947343521099" lon="11.263720851223301"><ele>406.0</ele><time>2026-05-03T17:27:46.999Z</time></trkpt><trkpt lat="43.60934229016454" lon="11.263796859721646"><ele>404.5</ele><time>2026-05-03T17:27:47.999Z</time></trkpt><trkpt lat="43.60922353613507" lon="11.263861077637426"><ele>403.0</ele><time>2026-05-03T17:27:48.999Z</time></trkpt><trkpt lat="43.609117310057634" lon="11.263914020995692"><ele>401.2</ele><time>2026-05-03T17:27:49.999Z</time></trkpt><trkpt lat="43.609012831662966" lon="11.263960415257463"><ele>399.4</ele><time>2026-05-03T17:27:50.999Z</time></trkpt><trkpt lat="43.60891538681064" lon="11.263999682666043"><ele>397.59999999999997</ele><time>2026-05-03T17:27:51.999Z</time></trkpt><trkpt lat="43.6088207238217" lon="11.264021298780387"><ele>395.79999999999995</ele><time>2026-05-03T17:27:52.999Z</time></trkpt><trkpt lat="43.60872033054711" lon="11.263996600150934"><ele>394.0</ele><time>2026-05-03T17:27:53.999Z</time></trkpt><trkpt lat="43.60861478032045" lon="11.263955610613895"><ele>395.4</ele><time>2026-05-03T17:27:54.999Z</time></trkpt><trkpt lat="43.608518026649726" lon="11.263906666938604"><ele>396.79999999999995</ele><time>2026-05-03T17:27:55.999Z</time></trkpt><trkpt lat="43.608419582275246" lon="11.263850345094841"><ele>398.20000000000005</ele><time>2026-05-03T17:27:56.999Z</time></trkpt><trkpt lat="43.6083216523407" lon="11.2637874789303"><ele>399.6</ele><time>2026-05-03T17:27:57.999Z</time></trkpt><trkpt lat="43.608239597379324" lon="11.263707970823337"><ele>401.0</ele><time>2026-05-03T17:27:58.999Z</time></trkpt><trkpt lat="43.608154009753335" lon="11.26365508729981"><ele>401.0</ele><time>2026-05-03T17:27:59.999Z</time></trkpt><trkpt lat="43.608080500946144" lon="11.263622530996992"><ele>401.0</ele><time>2026-05-03T17:28:00.999Z</time></trkpt><trkpt lat="43.607979840343205" lon="11.263674476063802"><ele>401.0</ele><time>2026-05-03T17:28:02.999Z</time></trkpt><trkpt lat="43.60790735295925" lon="11.26373836379331"><ele>401.0</ele><time>2026-05-03T17:28:04.999Z</time></trkpt><trkpt lat="43.60781462433007" lon="11.263850837544805"><ele>401.0</ele><time>2026-05-03T17:28:07Z</time></trkpt><trkpt lat="43.60776174447111" lon="11.263910305466744"><ele>400.20000000000005</ele><time>2026-05-03T17:28:08Z</time></trkpt><trkpt lat="43.60770023455129" lon="11.263970929947817"><ele>399.40000000000003</ele><time>2026-05-03T17:28:09Z</time></trkpt><trkpt lat="43.607629501457254" lon="11.264042529126602"><ele>398.6</ele><time>2026-05-03T17:28:10Z</time></trkpt><trkpt lat="43.60756068644311" lon="11.26412297833979"><ele>397.8</ele><time>2026-05-03T17:28:11Z</time></trkpt><trkpt lat="43.60750150467493" lon="11.264250328707936"><ele>397.0</ele><time>2026-05-03T17:28:12Z</time></trkpt><trkpt lat="43.60742709858654" lon="11.264382817163185"><ele>397.0</ele><time>2026-05-03T17:28:13Z</time></trkpt><trkpt lat="43.60734852887351" lon="11.264488692660759"><ele>397.0</ele><time>2026-05-03T17:28:14Z</time></trkpt><trkpt lat="43.607286310548574" lon="11.264603683521939"><ele>397.0</ele><time>2026-05-03T17:28:15Z</time></trkpt><trkpt lat="43.60722991235479" lon="11.264717907115923"><ele>397.0</ele><time>2026-05-03T17:28:16Z</time></trkpt><trkpt lat="43.607192720104365" lon="11.26483989927462"><ele>397.0</ele><time>2026-05-03T17:28:17Z</time></trkpt><trkpt lat="43.60715473657473" lon="11.264959437027198"><ele>395.00000000000006</ele><time>2026-05-03T17:28:18Z</time></trkpt><trkpt lat="43.60711434634548" lon="11.265074232536174"><ele>393.0</ele><time>2026-05-03T17:28:19Z</time></trkpt><trkpt lat="43.60708006326157" lon="11.265188051998177"><ele>391.0</ele><time>2026-05-03T17:28:20Z</time></trkpt><trkpt lat="43.60705061065927" lon="11.265302734243802"><ele>389.0</ele><time>2026-05-03T17:28:21Z</time></trkpt><trkpt lat="43.6070353263197" lon="11.26539796642782"><ele>387.00000000000006</ele><time>2026-05-03T17:28:22Z</time></trkpt><trkpt lat="43.60700006405805" lon="11.265525658798323"><ele>385.0</ele><time>2026-05-03T17:28:24Z</time></trkpt><trkpt lat="43.607064297259946" lon="11.26557136436325"><ele>384.50000000000006</ele><time>2026-05-03T17:28:25Z</time></trkpt><trkpt lat="43.60709484467413" lon="11.265652511669474"><ele>384.0</ele><time>2026-05-03T17:28:27Z</time></trkpt><trkpt lat="43.60717780683734" lon="11.265753439216148"><ele>383.5</ele><time>2026-05-03T17:28:29Z</time></trkpt><trkpt lat="43.60722877449136" lon="11.265808852338811"><ele>383.0</ele><time>2026-05-03T17:28:30Z</time></trkpt><trkpt lat="43.60732836851204" lon="11.265903653599686"><ele>382.5</ele><time>2026-05-03T17:28:32Z</time></trkpt><trkpt lat="43.60738395185256" lon="11.265955970735591"><ele>382.0</ele><time>2026-05-03T17:28:33Z</time></trkpt><trkpt lat="43.60744916893227" lon="11.266018136520998"><ele>382.0</ele><time>2026-05-03T17:28:35Z</time></trkpt><trkpt lat="43.60753757647573" lon="11.266106193908094"><ele>382.0</ele><time>2026-05-03T17:28:38Z</time></trkpt><trkpt lat="43.607595448989585" lon="11.266165425164788"><ele>382.0</ele><time>2026-05-03T17:28:39Z</time></trkpt><trkpt lat="43.60767596396332" lon="11.266225484580486"><ele>382.0</ele><time>2026-05-03T17:28:40Z</time></trkpt><trkpt lat="43.60776233286089" lon="11.266309927257671"><ele>382.0</ele><time>2026-05-03T17:28:41Z</time></trkpt><trkpt lat="43.60784871040288" lon="11.266392920849832"><ele>381.8</ele><time>2026-05-03T17:28:42Z</time></trkpt><trkpt lat="43.60793657484525" lon="11.266476170090586"><ele>381.6</ele><time>2026-05-03T17:28:43Z</time></trkpt><trkpt lat="43.608030377150435" lon="11.266550577864056"><ele>381.40000000000003</ele><time>2026-05-03T17:28:44Z</time></trkpt><trkpt lat="43.60812481691414" lon="11.266616306345755"><ele>381.20000000000005</ele><time>2026-05-03T17:28:45Z</time></trkpt><trkpt lat="43.60821352287621" lon="11.266676107412154"><ele>381.0</ele><time>2026-05-03T17:28:46Z</time></trkpt><trkpt lat="43.60829894241014" lon="11.266732906685485"><ele>381.0</ele><time>2026-05-03T17:28:47Z</time></trkpt><trkpt lat="43.608377009865535" lon="11.266781064998977"><ele>381.0</ele><time>2026-05-03T17:28:48Z</time></trkpt><trkpt lat="43.608456883384825" lon="11.266841417666862"><ele>381.0</ele><time>2026-05-03T17:28:49Z</time></trkpt><trkpt lat="43.60853175832523" lon="11.266900337609625"><ele>381.0</ele><time>2026-05-03T17:28:50Z</time></trkpt><trkpt lat="43.60860187617962" lon="11.266947252136566"><ele>381.0</ele><time>2026-05-03T17:28:51Z</time></trkpt><trkpt lat="43.60868658281017" lon="11.266985053804417"><ele>381.0</ele><time>2026-05-03T17:28:52Z</time></trkpt><trkpt lat="43.608767593949004" lon="11.267023617921181"><ele>381.0</ele><time>2026-05-03T17:28:53Z</time></trkpt><trkpt lat="43.608862324466074" lon="11.267056839278958"><ele>381.0</ele><time>2026-05-03T17:28:54Z</time></trkpt><trkpt lat="43.60895106000726" lon="11.267094784994935"><ele>381.0</ele><time>2026-05-03T17:28:55Z</time></trkpt><trkpt lat="43.60904215313274" lon="11.26713452474641"><ele>381.0</ele><time>2026-05-03T17:28:56Z</time></trkpt><trkpt lat="43.60911901522172" lon="11.267172775436462"><ele>381.0</ele><time>2026-05-03T17:28:57Z</time></trkpt><trkpt lat="43.60919527995744" lon="11.267208366360125"><ele>381.0</ele><time>2026-05-03T17:28:57.999Z</time></trkpt><trkpt lat="43.609271684540715" lon="11.267249837272603"><ele>381.8333333333333</ele><time>2026-05-03T17:28:58.999Z</time></trkpt><trkpt lat="43.60933534717417" lon="11.267278632601434"><ele>382.66666666666663</ele><time>2026-05-03T17:28:59.999Z</time></trkpt><trkpt lat="43.60942744276721" lon="11.267364887427627"><ele>383.5</ele><time>2026-05-03T17:29:01.999Z</time></trkpt><trkpt lat="43.609474324304955" lon="11.267425159073934"><ele>384.3333333333333</ele><time>2026-05-03T17:29:02.999Z</time></trkpt><trkpt lat="43.60953182153405" lon="11.267499226547661"><ele>385.16666666666663</ele><time>2026-05-03T17:29:03.999Z</time></trkpt><trkpt lat="43.60958589446928" lon="11.267573084903217"><ele>386.0</ele><time>2026-05-03T17:29:04.999Z</time></trkpt><trkpt lat="43.609646708307174" lon="11.26765456978385"><ele>385.99999999999994</ele><time>2026-05-03T17:29:05.999Z</time></trkpt><trkpt lat="43.609710801437764" lon="11.267731884773628"><ele>386.0</ele><time>2026-05-03T17:29:06.999Z</time></trkpt><trkpt lat="43.60975955204147" lon="11.267797138254528"><ele>386.0</ele><time>2026-05-03T17:29:07.999Z</time></trkpt><trkpt lat="43.6098164231106" lon="11.267869015581761"><ele>386.0</ele><time>2026-05-03T17:29:08.999Z</time></trkpt><trkpt lat="43.609870888170825" lon="11.26792854388216"><ele>385.99999999999994</ele><time>2026-05-03T17:29:09.999Z</time></trkpt><trkpt lat="43.609959699816805" lon="11.267971998314035"><ele>386.0</ele><time>2026-05-03T17:29:11.999Z</time></trkpt><trkpt lat="43.61002552658029" lon="11.268027277970868"><ele>386.4</ele><time>2026-05-03T17:29:13.999Z</time></trkpt><trkpt lat="43.61003188593583" lon="11.268132677660965"><ele>386.8</ele><time>2026-05-03T17:29:15.999Z</time></trkpt><trkpt lat="43.60996839856355" lon="11.268275633803738"><ele>387.2</ele><time>2026-05-03T17:29:17.999Z</time></trkpt><trkpt lat="43.609920563608135" lon="11.268344464769047"><ele>387.59999999999997</ele><time>2026-05-03T17:29:18.999Z</time></trkpt><trkpt lat="43.60985813964498" lon="11.268429411562131"><ele>388.0</ele><time>2026-05-03T17:29:20.999Z</time></trkpt><trkpt lat="43.609811678150166" lon="11.26856993690175"><ele>388.0</ele><time>2026-05-03T17:29:22.999Z</time></trkpt><trkpt lat="43.609802730743304" lon="11.26872291549315"><ele>388.0</ele><time>2026-05-03T17:29:24.999Z</time></trkpt><trkpt lat="43.609728551861835" lon="11.268808130579176"><ele>388.0</ele><time>2026-05-03T17:29:26.999Z</time></trkpt><trkpt lat="43.60966274418402" lon="11.268784047957247"><ele>388.0</ele><time>2026-05-03T17:29:28.999Z</time></trkpt><trkpt lat="43.609566805793" lon="11.26883314178142"><ele>388.0</ele><time>2026-05-03T17:29:31.999Z</time></trkpt><trkpt lat="43.60949988201385" lon="11.268884102222335"><ele>387.79999999999995</ele><time>2026-05-03T17:29:32.999Z</time></trkpt><trkpt lat="43.60942829045823" lon="11.268940028377894"><ele>387.6</ele><time>2026-05-03T17:29:33.999Z</time></trkpt><trkpt lat="43.60936819419985" lon="11.268990556489722"><ele>387.4</ele><time>2026-05-03T17:29:34.999Z</time></trkpt><trkpt lat="43.60929181485153" lon="11.269106049355837"><ele>387.20000000000005</ele><time>2026-05-03T17:29:36.999Z</time></trkpt><trkpt lat="43.60925358238943" lon="11.269250818339357"><ele>387.0</ele><time>2026-05-03T17:29:38.999Z</time></trkpt><trkpt lat="43.609192257689685" lon="11.26935975380105"><ele>385.0</ele><time>2026-05-03T17:29:40.999Z</time></trkpt><trkpt lat="43.609102750992804" lon="11.269411861359053"><ele>383.0</ele><time>2026-05-03T17:29:42.999Z</time></trkpt><trkpt lat="43.6090054990044" lon="11.269424653667809"><ele>381.0</ele><time>2026-05-03T17:29:44.999Z</time></trkpt><trkpt lat="43.60888510384201" lon="11.269362205035963"><ele>379.0</ele><time>2026-05-03T17:29:46.999Z</time></trkpt><trkpt lat="43.608815336020584" lon="11.269353525339694"><ele>377.0</ele><time>2026-05-03T17:29:47.999Z</time></trkpt><trkpt lat="43.608698542952546" lon="11.26935587148889"><ele>373.8</ele><time>2026-05-03T17:29:49.999Z</time></trkpt><trkpt lat="43.608580075301006" lon="11.26936508223256"><ele>370.6</ele><time>2026-05-03T17:29:51.999Z</time></trkpt><trkpt lat="43.60847926315631" lon="11.269380827120346"><ele>367.40000000000003</ele><time>2026-05-03T17:29:53.999Z</time></trkpt><trkpt lat="43.608385020138066" lon="11.269497862543533"><ele>364.20000000000005</ele><time>2026-05-03T17:29:55.999Z</time></trkpt><trkpt lat="43.60834276150456" lon="11.269586504256788"><ele>361.0</ele><time>2026-05-03T17:29:56.999Z</time></trkpt><trkpt lat="43.608310547888976" lon="11.269675028983865"><ele>361.0</ele><time>2026-05-03T17:29:57.999Z</time></trkpt><trkpt lat="43.60828734407946" lon="11.2697712419111"><ele>361.0</ele><time>2026-05-03T17:29:58.999Z</time></trkpt><trkpt lat="43.608294984023395" lon="11.269947388594987"><ele>361.0</ele><time>2026-05-03T17:30:00.999Z</time></trkpt><trkpt lat="43.60833304466883" lon="11.270043104032585"><ele>361.0</ele><time>2026-05-03T17:30:01.999Z</time></trkpt><trkpt lat="43.608381237092615" lon="11.270138555622395"><ele>361.0</ele><time>2026-05-03T17:30:02.999Z</time></trkpt><trkpt lat="43.60843682183235" lon="11.270294370418723"><ele>359.66666666666663</ele><time>2026-05-03T17:30:03.999Z</time></trkpt><trkpt lat="43.6084945105455" lon="11.270441962396111"><ele>358.3333333333333</ele><time>2026-05-03T17:30:04.999Z</time></trkpt><trkpt lat="43.60853471515129" lon="11.270545077444865"><ele>357.0</ele><time>2026-05-03T17:30:05.999Z</time></trkpt><trkpt lat="43.60855728131845" lon="11.27064758906048"><ele>355.6666666666667</ele><time>2026-05-03T17:30:06.999Z</time></trkpt><trkpt lat="43.6085692629029" lon="11.270746724438169"><ele>354.33333333333337</ele><time>2026-05-03T17:30:07.999Z</time></trkpt><trkpt lat="43.608561000794936" lon="11.270842844117611"><ele>353.0</ele><time>2026-05-03T17:30:08.999Z</time></trkpt><trkpt lat="43.60854018793888" lon="11.270927975101824"><ele>351.83333333333337</ele><time>2026-05-03T17:30:09.999Z</time></trkpt><trkpt lat="43.608509267417055" lon="11.271012414300017"><ele>350.6666666666667</ele><time>2026-05-03T17:30:10.999Z</time></trkpt><trkpt lat="43.60848063394859" lon="11.271097065377361"><ele>349.5</ele><time>2026-05-03T17:30:11.999Z</time></trkpt><trkpt lat="43.6084273352344" lon="11.271208050090182"><ele>348.3333333333333</ele><time>2026-05-03T17:30:12.999Z</time></trkpt><trkpt lat="43.60835408789804" lon="11.271328417171011"><ele>347.16666666666663</ele><time>2026-05-03T17:30:13.999Z</time></trkpt><trkpt lat="43.608299802933956" lon="11.27144619390533"><ele>346.0</ele><time>2026-05-03T17:30:14.999Z</time></trkpt><trkpt lat="43.608246680561884" lon="11.27153975454496"><ele>344.20000000000005</ele><time>2026-05-03T17:30:15.999Z</time></trkpt><trkpt lat="43.60819815162879" lon="11.271632677849102"><ele>342.40000000000003</ele><time>2026-05-03T17:30:16.999Z</time></trkpt><trkpt lat="43.608160213058184" lon="11.27172967469066"><ele>340.6</ele><time>2026-05-03T17:30:18Z</time></trkpt><trkpt lat="43.60807461625396" lon="11.27185460154575"><ele>338.8</ele><time>2026-05-03T17:30:20Z</time></trkpt><trkpt lat="43.60801593557957" lon="11.27200221442777"><ele>337.0</ele><time>2026-05-03T17:30:22Z</time></trkpt><trkpt lat="43.60795516655262" lon="11.272138884834632"><ele>334.8333333333333</ele><time>2026-05-03T17:30:24Z</time></trkpt><trkpt lat="43.60796433175126" lon="11.272286991765679"><ele>332.66666666666663</ele><time>2026-05-03T17:30:26Z</time></trkpt><trkpt lat="43.60801920578057" lon="11.272336119504603"><ele>330.5</ele><time>2026-05-03T17:30:27Z</time></trkpt><trkpt lat="43.608082105719014" lon="11.27237431030033"><ele>328.3333333333333</ele><time>2026-05-03T17:30:28Z</time></trkpt><trkpt lat="43.60816335283552" lon="11.272392046508624"><ele>326.1666666666667</ele><time>2026-05-03T17:30:29Z</time></trkpt><trkpt lat="43.608244054062204" lon="11.27239112544212"><ele>324.0</ele><time>2026-05-03T17:30:30Z</time></trkpt><trkpt lat="43.608332437573615" lon="11.27235673042501"><ele>324.0</ele><time>2026-05-03T17:30:31Z</time></trkpt><trkpt lat="43.60844475050157" lon="11.272314872445468"><ele>324.0</ele><time>2026-05-03T17:30:32Z</time></trkpt><trkpt lat="43.608552839237404" lon="11.272264737113094"><ele>324.0</ele><time>2026-05-03T17:30:33Z</time></trkpt><trkpt lat="43.60863990204232" lon="11.272226067935286"><ele>324.0</ele><time>2026-05-03T17:30:34Z</time></trkpt><trkpt lat="43.60872279691607" lon="11.272167275763547"><ele>324.0</ele><time>2026-05-03T17:30:35Z</time></trkpt><trkpt lat="43.60881204872666" lon="11.27210803542657"><ele>324.6666666666667</ele><time>2026-05-03T17:30:36Z</time></trkpt><trkpt lat="43.60889191162598" lon="11.272074416562022"><ele>325.3333333333333</ele><time>2026-05-03T17:30:37Z</time></trkpt><trkpt lat="43.60896879432563" lon="11.272033060490873"><ele>326.0</ele><time>2026-05-03T17:30:38Z</time></trkpt><trkpt lat="43.609047912753596" lon="11.272017864769039"><ele>326.66666666666663</ele><time>2026-05-03T17:30:39Z</time></trkpt><trkpt lat="43.60913231686422" lon="11.27201688246696"><ele>327.3333333333333</ele><time>2026-05-03T17:30:40Z</time></trkpt><trkpt lat="43.6092206481829" lon="11.272024989980261"><ele>328.0</ele><time>2026-05-03T17:30:41Z</time></trkpt><trkpt lat="43.60929767034527" lon="11.272026248234159"><ele>328.0</ele><time>2026-05-03T17:30:42Z</time></trkpt><trkpt lat="43.60938881036048" lon="11.27203517975575"><ele>328.0</ele><time>2026-05-03T17:30:43Z</time></trkpt><trkpt lat="43.60946731086131" lon="11.272052292282808"><ele>328.0</ele><time>2026-05-03T17:30:44Z</time></trkpt><trkpt lat="43.60952828969229" lon="11.272100160565182"><ele>328.0</ele><time>2026-05-03T17:30:45Z</time></trkpt><trkpt lat="43.60958239266326" lon="11.272169589405271"><ele>328.0</ele><time>2026-05-03T17:30:46Z</time></trkpt><trkpt lat="43.609643320580226" lon="11.272231336521937"><ele>328.0</ele><time>2026-05-03T17:30:47Z</time></trkpt><trkpt lat="43.60970109900244" lon="11.272304810977424"><ele>325.0</ele><time>2026-05-03T17:30:48Z</time></trkpt><trkpt lat="43.60975497696711" lon="11.272384327445677"><ele>322.0</ele><time>2026-05-03T17:30:49Z</time></trkpt><trkpt lat="43.6098020915564" lon="11.27245434727335"><ele>319.0</ele><time>2026-05-03T17:30:50Z</time></trkpt><trkpt lat="43.60983701181287" lon="11.27253170057117"><ele>316.0</ele><time>2026-05-03T17:30:51Z</time></trkpt><trkpt lat="43.60986586404637" lon="11.27262136972653"><ele>313.0</ele><time>2026-05-03T17:30:51.999Z</time></trkpt><trkpt lat="43.60990008995782" lon="11.272754837212865"><ele>310.0</ele><time>2026-05-03T17:30:53.999Z</time></trkpt><trkpt lat="43.61000196656102" lon="11.272804804559199"><ele>310.0</ele><time>2026-05-03T17:30:55.999Z</time></trkpt><trkpt lat="43.61006687597487" lon="11.27280103111565"><ele>310.0</ele><time>2026-05-03T17:30:56.999Z</time></trkpt><trkpt lat="43.610131154613725" lon="11.272793896504734"><ele>310.0</ele><time>2026-05-03T17:30:57.999Z</time></trkpt><trkpt lat="43.610246026085065" lon="11.272811920664367"><ele>310.0</ele><time>2026-05-03T17:30:59.999Z</time></trkpt><trkpt lat="43.61037511155059" lon="11.272888755128669"><ele>310.0</ele><time>2026-05-03T17:31:01.999Z</time></trkpt><trkpt lat="43.610456552661525" lon="11.272937642491824"><ele>309.3333333333333</ele><time>2026-05-03T17:31:02.999Z</time></trkpt><trkpt lat="43.61051884772385" lon="11.272976566488891"><ele>308.66666666666663</ele><time>2026-05-03T17:31:03.999Z</time></trkpt><trkpt lat="43.61057938307" lon="11.273017728881133"><ele>308.0</ele><time>2026-05-03T17:31:04.999Z</time></trkpt><trkpt lat="43.61063677950506" lon="11.273059348837783"><ele>307.3333333333333</ele><time>2026-05-03T17:31:05.999Z</time></trkpt><trkpt lat="43.610698224912085" lon="11.273108836442114"><ele>306.6666666666667</ele><time>2026-05-03T17:31:06.999Z</time></trkpt><trkpt lat="43.610757033756016" lon="11.27316477044461"><ele>306.0</ele><time>2026-05-03T17:31:07.999Z</time></trkpt><trkpt lat="43.61085969052118" lon="11.27326439237852"><ele>306.0</ele><time>2026-05-03T17:31:09.999Z</time></trkpt><trkpt lat="43.61091447913934" lon="11.27331477683366"><ele>306.0</ele><time>2026-05-03T17:31:10.999Z</time></trkpt><trkpt lat="43.61096912280445" lon="11.273377394550858"><ele>306.0</ele><time>2026-05-03T17:31:11.999Z</time></trkpt><trkpt lat="43.6110389675143" lon="11.27345081101161"><ele>306.0</ele><time>2026-05-03T17:31:12.999Z</time></trkpt><trkpt lat="43.611085812658764" lon="11.273538567296743"><ele>306.0</ele><time>2026-05-03T17:31:13.999Z</time></trkpt><trkpt lat="43.611131235117014" lon="11.273606896756032"><ele>306.0</ele><time>2026-05-03T17:31:14.999Z</time></trkpt><trkpt lat="43.61117385751779" lon="11.273676968889244"><ele>306.0</ele><time>2026-05-03T17:31:15.999Z</time></trkpt><trkpt lat="43.611211025633764" lon="11.273748139312923"><ele>305.8</ele><time>2026-05-03T17:31:16.999Z</time></trkpt><trkpt lat="43.61124571776377" lon="11.273831692355815"><ele>305.6</ele><time>2026-05-03T17:31:17.999Z</time></trkpt><trkpt lat="43.61127704464334" lon="11.273919151818792"><ele>305.4</ele><time>2026-05-03T17:31:18.999Z</time></trkpt><trkpt lat="43.61132481658986" lon="11.274062729973323"><ele>305.2</ele><time>2026-05-03T17:31:20.999Z</time></trkpt><trkpt lat="43.611372604966256" lon="11.274260598489839"><ele>305.0</ele><time>2026-05-03T17:31:22.999Z</time></trkpt><trkpt lat="43.611428871686634" lon="11.274359101678522"><ele>305.0</ele><time>2026-05-03T17:31:23.999Z</time></trkpt><trkpt lat="43.611520597685264" lon="11.274456897986022"><ele>305.0</ele><time>2026-05-03T17:31:24.999Z</time></trkpt><trkpt lat="43.61159866024379" lon="11.27450779748109"><ele>305.0</ele><time>2026-05-03T17:31:25.999Z</time></trkpt><trkpt lat="43.6116663002717" lon="11.274543960890973"><ele>305.0</ele><time>2026-05-03T17:31:26.999Z</time></trkpt><trkpt lat="43.61174691682596" lon="11.27458513265361"><ele>305.0</ele><time>2026-05-03T17:31:27.999Z</time></trkpt><trkpt lat="43.61181368214685" lon="11.274603610947528"><ele>305.0</ele><time>2026-05-03T17:31:28.999Z</time></trkpt><trkpt lat="43.61187873846413" lon="11.274614895226046"><ele>299.0</ele><time>2026-05-03T17:31:29.999Z</time></trkpt><trkpt lat="43.61211474296489" lon="11.2739583836459"><ele>300.6666666666667</ele><time>2026-05-03T17:31:30.999Z</time></trkpt><trkpt lat="43.61223101030797" lon="11.273818470934176"><ele>302.3333333333333</ele><time>2026-05-03T17:31:31.999Z</time></trkpt><trkpt lat="43.612351712330195" lon="11.273655751984485"><ele>304.0</ele><time>2026-05-03T17:31:32.999Z</time></trkpt><trkpt lat="43.61248963115657" lon="11.273477746671816"><ele>304.0</ele><time>2026-05-03T17:31:33.999Z</time></trkpt><trkpt lat="43.61259816088167" lon="11.273347658854826"><ele>304.0</ele><time>2026-05-03T17:31:34.999Z</time></trkpt><trkpt lat="43.612694141662494" lon="11.273257862161127"><ele>304.0</ele><time>2026-05-03T17:31:35.999Z</time></trkpt><trkpt lat="43.612819394574004" lon="11.273173493951617"><ele>304.0</ele><time>2026-05-03T17:31:36.999Z</time></trkpt><trkpt lat="43.61295339866493" lon="11.273112260446531"><ele>305.25</ele><time>2026-05-03T17:31:37.999Z</time></trkpt><trkpt lat="43.613084818990146" lon="11.27308192388138"><ele>306.5</ele><time>2026-05-03T17:31:38.999Z</time></trkpt><trkpt lat="43.61322931265006" lon="11.273068292404004"><ele>307.75</ele><time>2026-05-03T17:31:39.999Z</time></trkpt><trkpt lat="43.61339013412741" lon="11.273069738048997"><ele>309.0</ele><time>2026-05-03T17:31:40.999Z</time></trkpt><trkpt lat="43.6135389252796" lon="11.273071582372841"><ele>309.4</ele><time>2026-05-03T17:31:41.999Z</time></trkpt><trkpt lat="43.6136686194364" lon="11.273063887773255"><ele>309.79999999999995</ele><time>2026-05-03T17:31:42.999Z</time></trkpt><trkpt lat="43.613785740949616" lon="11.273053227913069"><ele>310.20000000000005</ele><time>2026-05-03T17:31:43.999Z</time></trkpt><trkpt lat="43.613876234032325" lon="11.273060527372552"><ele>310.6</ele><time>2026-05-03T17:31:44.999Z</time></trkpt><trkpt lat="43.61395797929958" lon="11.273094999648292"><ele>311.0</ele><time>2026-05-03T17:31:46.999Z</time></trkpt><trkpt lat="43.61403461223894" lon="11.273084673049288"><ele>311.0</ele><time>2026-05-03T17:31:54.999Z</time></trkpt><trkpt lat="43.6139896409463" lon="11.273156302096739"><ele>311.0</ele><time>2026-05-03T17:31:56.999Z</time></trkpt><trkpt lat="43.61386773533984" lon="11.273125726465048"><ele>311.0</ele><time>2026-05-03T17:31:58.999Z</time></trkpt><trkpt lat="43.61377557472505" lon="11.273055242806633"><ele>311.0</ele><time>2026-05-03T17:32:00.999Z</time></trkpt><trkpt lat="43.61376320116427" lon="11.272958197000081"><ele>311.0</ele><time>2026-05-03T17:32:02.999Z</time></trkpt><trkpt lat="43.61383213488707" lon="11.272899515463768"><ele>311.0</ele><time>2026-05-03T17:32:04.999Z</time></trkpt><trkpt lat="43.613899184922694" lon="11.272878359871346"><ele>311.0</ele><time>2026-05-03T17:32:05.999Z</time></trkpt><trkpt lat="43.613974450299196" lon="11.272776471168218"><ele>311.0</ele><time>2026-05-03T17:32:07.999Z</time></trkpt><trkpt lat="43.61402531435911" lon="11.272703555031963"><ele>311.0</ele><time>2026-05-03T17:32:08.999Z</time></trkpt><trkpt lat="43.61409908974429" lon="11.272626554509495"><ele>311.0</ele><time>2026-05-03T17:32:10.999Z</time></trkpt><trkpt lat="43.614168904178584" lon="11.272642749103285"><ele>311.0</ele><time>2026-05-03T17:32:12.999Z</time></trkpt><trkpt lat="43.61423066963048" lon="11.272624150664129"><ele>311.0</ele><time>2026-05-03T17:32:15.999Z</time></trkpt><trkpt lat="43.61421084258438" lon="11.272520857162979"><ele>311.0</ele><time>2026-05-03T17:32:21Z</time></trkpt><trkpt lat="43.61412834013867" lon="11.272512554735183"><ele>311.0</ele><time>2026-05-03T17:32:23Z</time></trkpt><trkpt lat="43.61409464612525" lon="11.27260671254721"><ele>311.0</ele><time>2026-05-03T17:32:26Z</time></trkpt><trkpt lat="43.614150121471994" lon="11.272653082510386"><ele>311.0</ele><time>2026-05-03T17:32:33Z</time></trkpt><trkpt lat="43.61422967530226" lon="11.272732209653427"><ele>311.0</ele><time>2026-05-03T17:32:35Z</time></trkpt><trkpt lat="43.61428726396172" lon="11.27282352730035"><ele>311.0</ele><time>2026-05-03T17:32:37Z</time></trkpt><trkpt lat="43.614319643708285" lon="11.272943398391869"><ele>311.0</ele><time>2026-05-03T17:32:39Z</time></trkpt><trkpt lat="43.614391642845725" lon="11.27301917892735"><ele>311.0</ele><time>2026-05-03T17:32:41Z</time></trkpt><trkpt lat="43.61438864196686" lon="11.272909077449404"><ele>311.0</ele><time>2026-05-03T17:32:44Z</time></trkpt><trkpt lat="43.61436546290357" lon="11.272812375142681"><ele>311.0</ele><time>2026-05-03T17:32:47Z</time></trkpt><trkpt lat="43.614325874262754" lon="11.272735313600228"><ele>311.0</ele><time>2026-05-03T17:32:49Z</time></trkpt><trkpt lat="43.61423958623891" lon="11.272736883146123"><ele>311.0</ele><time>2026-05-03T17:32:52Z</time></trkpt><trkpt lat="43.61418248943403" lon="11.272689312358542"><ele>311.0</ele><time>2026-05-03T17:32:54Z</time></trkpt><trkpt lat="43.61412008456453" lon="11.272641000309633"><ele>311.0</ele><time>2026-05-03T17:32:57Z</time></trkpt><trkpt lat="43.614044506559296" lon="11.272665847431712"><ele>311.0</ele><time>2026-05-03T17:33:01Z</time></trkpt><trkpt lat="43.61398596037324" lon="11.27273826641662"><ele>311.0</ele><time>2026-05-03T17:33:03Z</time></trkpt><trkpt lat="43.613919181477534" lon="11.272840278475536"><ele>311.0</ele><time>2026-05-03T17:33:03.999Z</time></trkpt><trkpt lat="43.613844913385556" lon="11.27291914182257"><ele>311.0</ele><time>2026-05-03T17:33:04.999Z</time></trkpt><trkpt lat="43.613764104681536" lon="11.273004491052372"><ele>311.0</ele><time>2026-05-03T17:33:06.999Z</time></trkpt><trkpt lat="43.61373782530561" lon="11.273101938859723"><ele>311.0</ele><time>2026-05-03T17:33:09.999Z</time></trkpt><trkpt lat="43.613822132689165" lon="11.273123150464441"><ele>311.0</ele><time>2026-05-03T17:33:11.999Z</time></trkpt><trkpt lat="43.61388482176762" lon="11.273112288791722"><ele>311.0</ele><time>2026-05-03T17:33:12.999Z</time></trkpt><trkpt lat="43.614016880357426" lon="11.273097834271919"><ele>311.0</ele><time>2026-05-03T17:33:14.999Z</time></trkpt><trkpt lat="43.61408898927918" lon="11.273094012224258"><ele>311.0</ele><time>2026-05-03T17:33:15.999Z</time></trkpt><trkpt lat="43.614218165649106" lon="11.273074675646566"><ele>311.0</ele><time>2026-05-03T17:33:17.999Z</time></trkpt><trkpt lat="43.61430706881874" lon="11.273082620796572"><ele>311.0</ele><time>2026-05-03T17:33:19.999Z</time></trkpt><trkpt lat="43.61437008297949" lon="11.273182953500145"><ele>311.0</ele><time>2026-05-03T17:33:21.999Z</time></trkpt><trkpt lat="43.61443150010031" lon="11.273319836139644"><ele>310.2</ele><time>2026-05-03T17:33:23.999Z</time></trkpt><trkpt lat="43.61449309272494" lon="11.273422606956911"><ele>309.40000000000003</ele><time>2026-05-03T17:33:25.999Z</time></trkpt><trkpt lat="43.61458976114192" lon="11.273529528287984"><ele>308.6</ele><time>2026-05-03T17:33:27.999Z</time></trkpt><trkpt lat="43.614640989861975" lon="11.27360248067723"><ele>307.8</ele><time>2026-05-03T17:33:28.999Z</time></trkpt><trkpt lat="43.614691206494676" lon="11.273699284400601"><ele>307.0</ele><time>2026-05-03T17:33:29.999Z</time></trkpt><trkpt lat="43.61472807984775" lon="11.273802732167132"><ele>307.0</ele><time>2026-05-03T17:33:30.999Z</time></trkpt><trkpt lat="43.614767508765325" lon="11.273903234328527"><ele>307.0</ele><time>2026-05-03T17:33:31.999Z</time></trkpt><trkpt lat="43.61481585664703" lon="11.273981838383984"><ele>307.0</ele><time>2026-05-03T17:33:32.999Z</time></trkpt><trkpt lat="43.614871993225705" lon="11.274043630860854"><ele>307.0</ele><time>2026-05-03T17:33:33.999Z</time></trkpt><trkpt lat="43.61496327776605" lon="11.274139250338699"><ele>307.0</ele><time>2026-05-03T17:33:35.999Z</time></trkpt><trkpt lat="43.615024862350104" lon="11.274235001014086"><ele>307.0</ele><time>2026-05-03T17:33:37.999Z</time></trkpt><trkpt lat="43.61507382026019" lon="11.274342860650545"><ele>306.16666666666663</ele><time>2026-05-03T17:33:39.999Z</time></trkpt><trkpt lat="43.615118178761726" lon="11.27443545581525"><ele>305.3333333333333</ele><time>2026-05-03T17:33:41.999Z</time></trkpt><trkpt lat="43.61522534965269" lon="11.27447448119209"><ele>304.5</ele><time>2026-05-03T17:33:44.999Z</time></trkpt><trkpt lat="43.61529696417686" lon="11.27447043969737"><ele>303.6666666666667</ele><time>2026-05-03T17:33:45.999Z</time></trkpt><trkpt lat="43.61541613255045" lon="11.274452973844806"><ele>302.83333333333337</ele><time>2026-05-03T17:33:47.999Z</time></trkpt><trkpt lat="43.61546924356773" lon="11.274502318454756"><ele>302.0</ele><time>2026-05-03T17:33:48.999Z</time></trkpt><trkpt lat="43.61552284822834" lon="11.274549292861524"><ele>299.5</ele><time>2026-05-03T17:33:49.999Z</time></trkpt><trkpt lat="43.61561747169441" lon="11.274624336470755"><ele>297.0</ele><time>2026-05-03T17:33:51.999Z</time></trkpt><trkpt lat="43.61562558140174" lon="11.274719227652824"><ele>294.5</ele><time>2026-05-03T17:33:52.999Z</time></trkpt><trkpt lat="43.61564360836614" lon="11.274844565593613"><ele>292.0</ele><time>2026-05-03T17:33:53.999Z</time></trkpt><trkpt lat="43.61568302959542" lon="11.274977123300562"><ele>289.5</ele><time>2026-05-03T17:33:54.999Z</time></trkpt><trkpt lat="43.615722501641756" lon="11.275049944865787"><ele>287.0</ele><time>2026-05-03T17:33:55.999Z</time></trkpt><trkpt lat="43.61577371975259" lon="11.275109675023742"><ele>286.8</ele><time>2026-05-03T17:33:56.999Z</time></trkpt><trkpt lat="43.61582938230192" lon="11.275165389632702"><ele>286.6</ele><time>2026-05-03T17:33:57.999Z</time></trkpt><trkpt lat="43.61588477891651" lon="11.275230003491977"><ele>286.40000000000003</ele><time>2026-05-03T17:33:58.999Z</time></trkpt><trkpt lat="43.615918611258735" lon="11.275318290956854"><ele>286.2</ele><time>2026-05-03T17:33:59.999Z</time></trkpt><trkpt lat="43.61603401735799" lon="11.275467698999856"><ele>286.0</ele><time>2026-05-03T17:34:01.999Z</time></trkpt><trkpt lat="43.61610952675288" lon="11.275540930220485"><ele>284.8333333333333</ele><time>2026-05-03T17:34:02.999Z</time></trkpt><trkpt lat="43.61616452955833" lon="11.27562528895958"><ele>283.66666666666663</ele><time>2026-05-03T17:34:03.999Z</time></trkpt><trkpt lat="43.616213369067516" lon="11.275695934335399"><ele>282.5</ele><time>2026-05-03T17:34:04.999Z</time></trkpt><trkpt lat="43.61627283251938" lon="11.27578515004322"><ele>281.3333333333333</ele><time>2026-05-03T17:34:05.999Z</time></trkpt><trkpt lat="43.61632210922116" lon="11.27587861010844"><ele>280.1666666666667</ele><time>2026-05-03T17:34:06.999Z</time></trkpt><trkpt lat="43.61638566335936" lon="11.275976657663376"><ele>279.0</ele><time>2026-05-03T17:34:07.999Z</time></trkpt><trkpt lat="43.616445299656476" lon="11.276072180058561"><ele>279.0</ele><time>2026-05-03T17:34:08.999Z</time></trkpt><trkpt lat="43.61650547108988" lon="11.276166879614584"><ele>279.0</ele><time>2026-05-03T17:34:09.999Z</time></trkpt><trkpt lat="43.616563047353225" lon="11.276243304410647"><ele>279.0</ele><time>2026-05-03T17:34:10.999Z</time></trkpt><trkpt lat="43.61661293135102" lon="11.276318311520717"><ele>279.0</ele><time>2026-05-03T17:34:11.999Z</time></trkpt><trkpt lat="43.61666352037232" lon="11.276399542681368"><ele>279.0</ele><time>2026-05-03T17:34:12.999Z</time></trkpt><trkpt lat="43.6167021130448" lon="11.276471369352924"><ele>279.0</ele><time>2026-05-03T17:34:13.999Z</time></trkpt><trkpt lat="43.6167492601545" lon="11.276555006899283"><ele>279.59999999999997</ele><time>2026-05-03T17:34:14.999Z</time></trkpt><trkpt lat="43.616845034128076" lon="11.276658388875928"><ele>280.2</ele><time>2026-05-03T17:34:16.999Z</time></trkpt><trkpt lat="43.616937395608154" lon="11.276750369458288"><ele>280.79999999999995</ele><time>2026-05-03T17:34:18.999Z</time></trkpt><trkpt lat="43.61701291203507" lon="11.276865818222236"><ele>281.4</ele><time>2026-05-03T17:34:20.999Z</time></trkpt><trkpt lat="43.61705259062251" lon="11.276951567843625"><ele>282.0</ele><time>2026-05-03T17:34:21.999Z</time></trkpt><trkpt lat="43.61711730378749" lon="11.277037983882034"><ele>280.6</ele><time>2026-05-03T17:34:22.999Z</time></trkpt><trkpt lat="43.6171830676195" lon="11.277112783759968"><ele>279.2</ele><time>2026-05-03T17:34:24Z</time></trkpt><trkpt lat="43.617248503718685" lon="11.277193890587633"><ele>277.8</ele><time>2026-05-03T17:34:25Z</time></trkpt><trkpt lat="43.61729977526569" lon="11.277257155511418"><ele>276.4</ele><time>2026-05-03T17:34:26Z</time></trkpt><trkpt lat="43.61739534413908" lon="11.277379292662477"><ele>275.0</ele><time>2026-05-03T17:34:28Z</time></trkpt><trkpt lat="43.61744635893468" lon="11.277465970382273"><ele>275.0</ele><time>2026-05-03T17:34:29Z</time></trkpt><trkpt lat="43.61750103284492" lon="11.277532776201324"><ele>275.0</ele><time>2026-05-03T17:34:31Z</time></trkpt><trkpt lat="43.61757682512551" lon="11.277623183479902"><ele>275.0</ele><time>2026-05-03T17:34:33Z</time></trkpt><trkpt lat="43.61764526465786" lon="11.27773157735878"><ele>275.0</ele><time>2026-05-03T17:34:35Z</time></trkpt><trkpt lat="43.61771162818153" lon="11.277880778354866"><ele>275.0</ele><time>2026-05-03T17:34:37Z</time></trkpt><trkpt lat="43.6177534027472" lon="11.277953184620202"><ele>273.83333333333337</ele><time>2026-05-03T17:34:38Z</time></trkpt><trkpt lat="43.61782378868392" lon="11.2780771142686"><ele>272.6666666666667</ele><time>2026-05-03T17:34:40Z</time></trkpt><trkpt lat="43.61784774210877" lon="11.2781590363896"><ele>271.5</ele><time>2026-05-03T17:34:41Z</time></trkpt><trkpt lat="43.61788018920934" lon="11.278260128322916"><ele>270.3333333333333</ele><time>2026-05-03T17:34:42Z</time></trkpt><trkpt lat="43.61790649221015" lon="11.278373292110322"><ele>269.16666666666663</ele><time>2026-05-03T17:34:44Z</time></trkpt><trkpt lat="43.61796370955808" lon="11.278452617664962"><ele>268.0</ele><time>2026-05-03T17:34:45Z</time></trkpt><trkpt lat="43.61799530936665" lon="11.27854343958087"><ele>267.66666666666663</ele><time>2026-05-03T17:34:46Z</time></trkpt><trkpt lat="43.61803177122344" lon="11.278626767767122"><ele>267.3333333333333</ele><time>2026-05-03T17:34:47Z</time></trkpt><trkpt lat="43.61807844948099" lon="11.27869681285844"><ele>267.0</ele><time>2026-05-03T17:34:48Z</time></trkpt><trkpt lat="43.61812323553208" lon="11.278760123959172"><ele>266.6666666666667</ele><time>2026-05-03T17:34:49Z</time></trkpt><trkpt lat="43.61817219927138" lon="11.278816874873689"><ele>266.33333333333337</ele><time>2026-05-03T17:34:50Z</time></trkpt><trkpt lat="43.61826889613173" lon="11.278913685472636"><ele>266.0</ele><time>2026-05-03T17:34:52Z</time></trkpt><trkpt lat="43.618319554103664" lon="11.278968820570958"><ele>263.5</ele><time>2026-05-03T17:34:53Z</time></trkpt><trkpt lat="43.61840393124938" lon="11.279063740071395"><ele>261.0</ele><time>2026-05-03T17:34:55Z</time></trkpt><trkpt lat="43.618467267614584" lon="11.27913818001853"><ele>258.5</ele><time>2026-05-03T17:34:57Z</time></trkpt><trkpt lat="43.618505423841995" lon="11.279230271210036"><ele>256.0</ele><time>2026-05-03T17:34:59Z</time></trkpt><trkpt lat="43.618559704294285" lon="11.279332612872699"><ele>253.50000000000003</ele><time>2026-05-03T17:35:01Z</time></trkpt><trkpt lat="43.61862449250492" lon="11.279362834338752"><ele>251.0</ele><time>2026-05-03T17:35:02Z</time></trkpt><trkpt lat="43.618719118380675" lon="11.279402689955852"><ele>249.4</ele><time>2026-05-03T17:35:03Z</time></trkpt><trkpt lat="43.61881586371561" lon="11.279435647738902"><ele>247.8</ele><time>2026-05-03T17:35:04Z</time></trkpt><trkpt lat="43.61888978194468" lon="11.279470588769485"><ele>246.20000000000002</ele><time>2026-05-03T17:35:05Z</time></trkpt><trkpt lat="43.61903385813611" lon="11.27947375637609"><ele>244.60000000000002</ele><time>2026-05-03T17:35:07Z</time></trkpt><trkpt lat="43.61913636614274" lon="11.279539025965652"><ele>243.0</ele><time>2026-05-03T17:35:08.999Z</time></trkpt><trkpt lat="43.6192394394743" lon="11.279655698850778"><ele>243.0</ele><time>2026-05-03T17:35:10.999Z</time></trkpt><trkpt lat="43.61931844567811" lon="11.27970913798366"><ele>243.0</ele><time>2026-05-03T17:35:11.999Z</time></trkpt><trkpt lat="43.619449749568965" lon="11.27974978923976"><ele>243.0</ele><time>2026-05-03T17:35:13.999Z</time></trkpt><trkpt lat="43.6195690377727" lon="11.279767283949278"><ele>243.0</ele><time>2026-05-03T17:35:15.999Z</time></trkpt><trkpt lat="43.61968130882469" lon="11.27979410803322"><ele>239.33333333333334</ele><time>2026-05-03T17:35:17.999Z</time></trkpt><trkpt lat="43.6197531338118" lon="11.279827295449904"><ele>235.66666666666669</ele><time>2026-05-03T17:35:18.999Z</time></trkpt><trkpt lat="43.61983419996414" lon="11.279880846066366"><ele>232.0</ele><time>2026-05-03T17:35:19.999Z</time></trkpt><trkpt lat="43.61990622644449" lon="11.279927993351608"><ele>228.33333333333334</ele><time>2026-05-03T17:35:20.999Z</time></trkpt><trkpt lat="43.61997503572538" lon="11.279942011949274"><ele>224.66666666666669</ele><time>2026-05-03T17:35:21.999Z</time></trkpt><trkpt lat="43.620095745621846" lon="11.279954577136493"><ele>221.0</ele><time>2026-05-03T17:35:23.999Z</time></trkpt><trkpt lat="43.62019202591865" lon="11.279989247033225"><ele>221.00000000000003</ele><time>2026-05-03T17:35:25.999Z</time></trkpt><trkpt lat="43.62024336969508" lon="11.280063333036987"><ele>221.0</ele><time>2026-05-03T17:35:28.999Z</time></trkpt><trkpt lat="43.620255726834756" lon="11.280206905134401"><ele>221.0</ele><time>2026-05-03T17:35:30.999Z</time></trkpt><trkpt lat="43.620229769087594" lon="11.280357609064973"><ele>221.0</ele><time>2026-05-03T17:35:32.999Z</time></trkpt><trkpt lat="43.620206618996605" lon="11.280439141572026"><ele>221.00000000000003</ele><time>2026-05-03T17:35:33.999Z</time></trkpt><trkpt lat="43.62014987238174" lon="11.280541521944516"><ele>221.0</ele><time>2026-05-03T17:35:35.999Z</time></trkpt><trkpt lat="43.62009730089985" lon="11.280611758932524"><ele>220.66666666666669</ele><time>2026-05-03T17:35:37.999Z</time></trkpt><trkpt lat="43.620064272441944" lon="11.28070092800126"><ele>220.33333333333334</ele><time>2026-05-03T17:35:40.999Z</time></trkpt><trkpt lat="43.620013868614244" lon="11.280774633275394"><ele>220.0</ele><time>2026-05-03T17:35:42.999Z</time></trkpt><trkpt lat="43.61992977966885" lon="11.280860604833924"><ele>219.66666666666669</ele><time>2026-05-03T17:35:44.999Z</time></trkpt><trkpt lat="43.619859066943214" lon="11.280897903214148"><ele>219.33333333333334</ele><time>2026-05-03T17:35:46.999Z</time></trkpt><trkpt lat="43.61974812358984" lon="11.28090491432599"><ele>219.0</ele><time>2026-05-03T17:35:48.999Z</time></trkpt><trkpt lat="43.619672422644356" lon="11.280910144952024"><ele>219.0</ele><time>2026-05-03T17:35:49.999Z</time></trkpt><trkpt lat="43.619545064947886" lon="11.280916606237692"><ele>218.99999999999997</ele><time>2026-05-03T17:35:51.999Z</time></trkpt><trkpt lat="43.61943639219739" lon="11.280927453192414"><ele>218.99999999999997</ele><time>2026-05-03T17:35:53.999Z</time></trkpt><trkpt lat="43.619371791095816" lon="11.280937757890058"><ele>219.0</ele><time>2026-05-03T17:35:54.999Z</time></trkpt><trkpt lat="43.61923720781053" lon="11.280965736296077"><ele>219.0</ele><time>2026-05-03T17:35:56.999Z</time></trkpt><trkpt lat="43.61916787426666" lon="11.280970756427442"><ele>219.66666666666666</ele><time>2026-05-03T17:35:57.999Z</time></trkpt><trkpt lat="43.61907224039589" lon="11.281028365677887"><ele>220.33333333333331</ele><time>2026-05-03T17:35:59.999Z</time></trkpt><trkpt lat="43.61900692242841" lon="11.281046138831666"><ele>221.0</ele><time>2026-05-03T17:36:09.999Z</time></trkpt><trkpt lat="43.61892943753036" lon="11.28110458158046"><ele>221.66666666666666</ele><time>2026-05-03T17:36:17.999Z</time></trkpt><trkpt lat="43.61884666764367" lon="11.281190129874497"><ele>222.33333333333331</ele><time>2026-05-03T17:36:19.999Z</time></trkpt><trkpt lat="43.618800437834146" lon="11.281268140219149"><ele>223.0</ele><time>2026-05-03T17:36:21.999Z</time></trkpt><trkpt lat="43.61876636677028" lon="11.281373703154895"><ele>221.16666666666666</ele><time>2026-05-03T17:36:24.999Z</time></trkpt><trkpt lat="43.618760133324294" lon="11.281470246385451"><ele>219.33333333333331</ele><time>2026-05-03T17:36:27.999Z</time></trkpt><trkpt lat="43.61878386391632" lon="11.281572598569996"><ele>217.5</ele><time>2026-05-03T17:36:37Z</time></trkpt><trkpt lat="43.61885144264928" lon="11.281555405027948"><ele>215.66666666666669</ele><time>2026-05-03T17:36:40Z</time></trkpt><trkpt lat="43.61893491937611" lon="11.281590607500432"><ele>213.83333333333334</ele><time>2026-05-03T17:36:43Z</time></trkpt><trkpt lat="43.619029940119766" lon="11.281609308370738"><ele>212.0</ele><time>2026-05-03T17:36:46Z</time></trkpt><trkpt lat="43.619128243700004" lon="11.281648862562939"><ele>212.0</ele><time>2026-05-03T17:36:48Z</time></trkpt><trkpt lat="43.61922988377057" lon="11.281678685629494"><ele>212.0</ele><time>2026-05-03T17:36:50Z</time></trkpt><trkpt lat="43.61934229464659" lon="11.281701933238832"><ele>212.0</ele><time>2026-05-03T17:36:52Z</time></trkpt><trkpt lat="43.619450409339684" lon="11.28173069122196"><ele>212.0</ele><time>2026-05-03T17:36:54Z</time></trkpt><trkpt lat="43.6195505632879" lon="11.281748296762697"><ele>212.0</ele><time>2026-05-03T17:36:56Z</time></trkpt><trkpt lat="43.619644529789156" lon="11.281788235093709"><ele>210.66666666666669</ele><time>2026-05-03T17:36:58Z</time></trkpt><trkpt lat="43.619733587545134" lon="11.281809868139808"><ele>209.33333333333334</ele><time>2026-05-03T17:37:00Z</time></trkpt><trkpt lat="43.61980705085489" lon="11.281824516612655"><ele>208.0</ele><time>2026-05-03T17:37:02Z</time></trkpt><trkpt lat="43.61988671056265" lon="11.281847323191746"><ele>206.66666666666669</ele><time>2026-05-03T17:37:04Z</time></trkpt><trkpt lat="43.6199666720184" lon="11.2818367933177"><ele>205.33333333333334</ele><time>2026-05-03T17:37:06Z</time></trkpt><trkpt lat="43.620041359180284" lon="11.281822219738533"><ele>204.0</ele><time>2026-05-03T17:37:08Z</time></trkpt><trkpt lat="43.6201263368519" lon="11.281824163350127"><ele>204.0</ele><time>2026-05-03T17:37:10Z</time></trkpt><trkpt lat="43.620207369675384" lon="11.281811245456815"><ele>204.0</ele><time>2026-05-03T17:37:12Z</time></trkpt><trkpt lat="43.62028076389225" lon="11.281796900244489"><ele>204.0</ele><time>2026-05-03T17:37:14Z</time></trkpt><trkpt lat="43.62036319641615" lon="11.28175388311742"><ele>204.0</ele><time>2026-05-03T17:37:17Z</time></trkpt><trkpt lat="43.62038557498555" lon="11.281656124117843"><ele>204.0</ele><time>2026-05-03T17:37:19Z</time></trkpt><trkpt lat="43.62036944105968" lon="11.28155799075864"><ele>204.0</ele><time>2026-05-03T17:37:21Z</time></trkpt><trkpt lat="43.62037199868602" lon="11.281440284226756"><ele>203.66666666666666</ele><time>2026-05-03T17:37:23Z</time></trkpt><trkpt lat="43.62039199349698" lon="11.281353810863548"><ele>203.33333333333331</ele><time>2026-05-03T17:37:24Z</time></trkpt><trkpt lat="43.620437615289795" lon="11.28122847579098"><ele>203.0</ele><time>2026-05-03T17:37:25.999Z</time></trkpt><trkpt lat="43.62047699632625" lon="11.28115291124804"><ele>202.66666666666666</ele><time>2026-05-03T17:37:26.999Z</time></trkpt><trkpt lat="43.62054204564607" lon="11.281017246418703"><ele>202.33333333333331</ele><time>2026-05-03T17:37:28.999Z</time></trkpt><trkpt lat="43.62057204544626" lon="11.280933039243605"><ele>202.0</ele><time>2026-05-03T17:37:29.999Z</time></trkpt><trkpt lat="43.62062480541282" lon="11.28081426572221"><ele>202.0</ele><time>2026-05-03T17:37:31.999Z</time></trkpt><trkpt lat="43.620674513271396" lon="11.280686083013212"><ele>202.0</ele><time>2026-05-03T17:37:33.999Z</time></trkpt><trkpt lat="43.62070226770622" lon="11.28057645432747"><ele>202.0</ele><time>2026-05-03T17:37:35.999Z</time></trkpt><trkpt lat="43.62065014215963" lon="11.28049088154241"><ele>202.0</ele><time>2026-05-03T17:37:38.999Z</time></trkpt><trkpt lat="43.620601038881674" lon="11.280378580759294"><ele>202.0</ele><time>2026-05-03T17:37:41.999Z</time></trkpt><trkpt lat="43.62052340618948" lon="11.280316962875554"><ele>202.33333333333331</ele><time>2026-05-03T17:37:43.999Z</time></trkpt><trkpt lat="43.62041904959144" lon="11.280250346629527"><ele>202.66666666666666</ele><time>2026-05-03T17:37:45.999Z</time></trkpt><trkpt lat="43.62033047810736" lon="11.280165504358903"><ele>203.0</ele><time>2026-05-03T17:37:47.999Z</time></trkpt><trkpt lat="43.620313799388114" lon="11.280070886608158"><ele>203.33333333333331</ele><time>2026-05-03T17:37:50.999Z</time></trkpt><trkpt lat="43.62031264660332" lon="11.279980451931047"><ele>203.66666666666666</ele><time>2026-05-03T17:38:36Z</time></trkpt><trkpt lat="43.62037918955662" lon="11.279986055634026"><ele>204.0</ele><time>2026-05-03T17:39:52.999Z</time></trkpt><trkpt lat="43.62046983533607" lon="11.280030742470924"><ele>204.0</ele><time>2026-05-03T17:40:01.999Z</time></trkpt><trkpt lat="43.62052878983985" lon="11.28009956944895"><ele>204.0</ele><time>2026-05-03T17:40:04.999Z</time></trkpt><trkpt lat="43.62060628505785" lon="11.280174321877654"><ele>204.0</ele><time>2026-05-03T17:40:07.999Z</time></trkpt><trkpt lat="43.6206815695368" lon="11.28022119385743"><ele>204.0</ele><time>2026-05-03T17:40:09.999Z</time></trkpt><trkpt lat="43.62074612419288" lon="11.280264945537585"><ele>204.0</ele><time>2026-05-03T17:40:10.999Z</time></trkpt><trkpt lat="43.62080799765207" lon="11.280306339475949"><ele>204.0</ele><time>2026-05-03T17:40:11.999Z</time></trkpt><trkpt lat="43.62090184132015" lon="11.280353998458972"><ele>204.0</ele><time>2026-05-03T17:40:13.999Z</time></trkpt><trkpt lat="43.62096392222595" lon="11.28038329698998"><ele>204.0</ele><time>2026-05-03T17:40:14.999Z</time></trkpt><trkpt lat="43.62102372227283" lon="11.280421552514131"><ele>204.0</ele><time>2026-05-03T17:40:15.999Z</time></trkpt><trkpt lat="43.62108700297816" lon="11.280465783015535"><ele>204.0</ele><time>2026-05-03T17:40:16.999Z</time></trkpt><trkpt lat="43.6211576311042" lon="11.280507184431393"><ele>204.0</ele><time>2026-05-03T17:40:17.999Z</time></trkpt><trkpt lat="43.62123455485702" lon="11.280547930533698"><ele>204.0</ele><time>2026-05-03T17:40:18.999Z</time></trkpt><trkpt lat="43.62131760323072" lon="11.28057257336542"><ele>204.0</ele><time>2026-05-03T17:40:19.999Z</time></trkpt><trkpt lat="43.621397187066165" lon="11.28056948100303"><ele>201.0</ele><time>2026-05-03T17:40:20.999Z</time></trkpt><trkpt lat="43.62148571743759" lon="11.280562624436374"><ele>198.0</ele><time>2026-05-03T17:40:21.999Z</time></trkpt><trkpt lat="43.6215776104177" lon="11.280564782977455"><ele>195.0</ele><time>2026-05-03T17:40:22.999Z</time></trkpt><trkpt lat="43.621666971782176" lon="11.280570784268473"><ele>192.0</ele><time>2026-05-03T17:40:23.999Z</time></trkpt><trkpt lat="43.62175474857968" lon="11.28057232853378"><ele>189.0</ele><time>2026-05-03T17:40:24.999Z</time></trkpt><trkpt lat="43.62185301243113" lon="11.280572634307031"><ele>189.0</ele><time>2026-05-03T17:40:25.999Z</time></trkpt><trkpt lat="43.62194439454059" lon="11.280594105093684"><ele>189.0</ele><time>2026-05-03T17:40:26.999Z</time></trkpt><trkpt lat="43.622027691985906" lon="11.28063413986273"><ele>189.0</ele><time>2026-05-03T17:40:27.999Z</time></trkpt><trkpt lat="43.622114949978865" lon="11.280674647005176"><ele>189.0</ele><time>2026-05-03T17:40:28.999Z</time></trkpt><trkpt lat="43.622205325289485" lon="11.280714043008375"><ele>189.0</ele><time>2026-05-03T17:40:29.999Z</time></trkpt><trkpt lat="43.622293436179625" lon="11.280748847212745"><ele>187.5</ele><time>2026-05-03T17:40:30.999Z</time></trkpt><trkpt lat="43.62238739520219" lon="11.28077047797522"><ele>186.0</ele><time>2026-05-03T17:40:31.999Z</time></trkpt><trkpt lat="43.6224733828336" lon="11.28078202160665"><ele>184.5</ele><time>2026-05-03T17:40:32.999Z</time></trkpt><trkpt lat="43.622565126227066" lon="11.28077942070717"><ele>183.0</ele><time>2026-05-03T17:40:33.999Z</time></trkpt><trkpt lat="43.62264945214984" lon="11.280754663527953"><ele>181.5</ele><time>2026-05-03T17:40:34.999Z</time></trkpt><trkpt lat="43.622731210702405" lon="11.28072402724786"><ele>180.0</ele><time>2026-05-03T17:40:35.999Z</time></trkpt><trkpt lat="43.62283196461383" lon="11.280677996115271"><ele>177.8</ele><time>2026-05-03T17:40:36.999Z</time></trkpt><trkpt lat="43.62293439624441" lon="11.280637107705065"><ele>175.6</ele><time>2026-05-03T17:40:37.999Z</time></trkpt><trkpt lat="43.62303558965104" lon="11.280599069632741"><ele>173.39999999999998</ele><time>2026-05-03T17:40:38.999Z</time></trkpt><trkpt lat="43.62314485603874" lon="11.280560764336595"><ele>171.2</ele><time>2026-05-03T17:40:39.999Z</time></trkpt><trkpt lat="43.62324879071856" lon="11.28053284000079"><ele>169.0</ele><time>2026-05-03T17:40:41Z</time></trkpt><trkpt lat="43.62334809956167" lon="11.280524895072505"><ele>169.0</ele><time>2026-05-03T17:40:42Z</time></trkpt><trkpt lat="43.62344456880653" lon="11.280540796755657"><ele>169.0</ele><time>2026-05-03T17:40:43Z</time></trkpt><trkpt lat="43.623536237902286" lon="11.28057991377571"><ele>169.0</ele><time>2026-05-03T17:40:44Z</time></trkpt><trkpt lat="43.623609499381246" lon="11.280633492992399"><ele>169.0</ele><time>2026-05-03T17:40:45Z</time></trkpt><trkpt lat="43.62367008106445" lon="11.280677921485585"><ele>169.0</ele><time>2026-05-03T17:40:46Z</time></trkpt><trkpt lat="43.6237496778916" lon="11.280722371837063"><ele>169.0</ele><time>2026-05-03T17:40:48Z</time></trkpt><trkpt lat="43.623814561918685" lon="11.280698243569656"><ele>167.83333333333334</ele><time>2026-05-03T17:41:25Z</time></trkpt><trkpt lat="43.62388877954723" lon="11.280724659797615"><ele>166.66666666666669</ele><time>2026-05-03T17:42:25.999Z</time></trkpt><trkpt lat="43.623924674199365" lon="11.280646437161792"><ele>165.5</ele><time>2026-05-03T17:42:28.999Z</time></trkpt><trkpt lat="43.623953469477975" lon="11.28054109027538"><ele>164.33333333333334</ele><time>2026-05-03T17:42:30.999Z</time></trkpt><trkpt lat="43.62399309603657" lon="11.280409793459883"><ele>163.16666666666666</ele><time>2026-05-03T17:42:32.999Z</time></trkpt><trkpt lat="43.624042023701485" lon="11.280304310506857"><ele>162.0</ele><time>2026-05-03T17:42:34.999Z</time></trkpt><trkpt lat="43.62412720695299" lon="11.28032834884973"><ele>162.0</ele><time>2026-05-03T17:42:37.999Z</time></trkpt><trkpt lat="43.62416197832646" lon="11.280446437540567"><ele>162.0</ele><time>2026-05-03T17:42:39.999Z</time></trkpt><trkpt lat="43.62421898866941" lon="11.280553493946831"><ele>162.0</ele><time>2026-05-03T17:42:41.999Z</time></trkpt><trkpt lat="43.62427994345942" lon="11.28065425963832"><ele>162.0</ele><time>2026-05-03T17:42:43.999Z</time></trkpt><trkpt lat="43.62427425978109" lon="11.28079718853373"><ele>162.0</ele><time>2026-05-03T17:42:46Z</time></trkpt><trkpt lat="43.624248211005884" lon="11.280945440505079"><ele>161.83333333333334</ele><time>2026-05-03T17:42:48Z</time></trkpt><trkpt lat="43.62426470914109" lon="11.281084065442224"><ele>161.66666666666666</ele><time>2026-05-03T17:42:50Z</time></trkpt><trkpt lat="43.624307000086546" lon="11.281170522346452"><ele>161.5</ele><time>2026-05-03T17:42:51Z</time></trkpt><trkpt lat="43.624345918449556" lon="11.28124962483976"><ele>161.33333333333331</ele><time>2026-05-03T17:42:52Z</time></trkpt><trkpt lat="43.624390153715716" lon="11.281326588731403"><ele>161.16666666666666</ele><time>2026-05-03T17:42:53Z</time></trkpt><trkpt lat="43.62443988449862" lon="11.281411506767633"><ele>161.0</ele><time>2026-05-03T17:42:54Z</time></trkpt><trkpt lat="43.624488533201465" lon="11.281491054473468"><ele>161.5</ele><time>2026-05-03T17:42:55Z</time></trkpt><trkpt lat="43.62453275750112" lon="11.28157196663416"><ele>162.0</ele><time>2026-05-03T17:42:56Z</time></trkpt><trkpt lat="43.62457439179095" lon="11.281649442959083"><ele>162.5</ele><time>2026-05-03T17:42:57Z</time></trkpt><trkpt lat="43.62461681584037" lon="11.281729320299089"><ele>163.0</ele><time>2026-05-03T17:42:58Z</time></trkpt><trkpt lat="43.62465280924086" lon="11.281801635008177"><ele>163.5</ele><time>2026-05-03T17:42:59Z</time></trkpt><trkpt lat="43.624695021174354" lon="11.28187407523725"><ele>164.0</ele><time>2026-05-03T17:43:00Z</time></trkpt><trkpt lat="43.624770385635124" lon="11.282011246280467"><ele>164.0</ele><time>2026-05-03T17:43:02Z</time></trkpt><trkpt lat="43.62484629475133" lon="11.28214953982635"><ele>164.0</ele><time>2026-05-03T17:43:04Z</time></trkpt><trkpt lat="43.6248994219084" lon="11.282244742418694"><ele>164.0</ele><time>2026-05-03T17:43:06Z</time></trkpt><trkpt lat="43.625066133344355" lon="11.282055201112078"><ele>164.0</ele><time>2026-05-03T17:43:13Z</time></trkpt><trkpt lat="43.625118723157804" lon="11.281938628583658"><ele>164.0</ele><time>2026-05-03T17:43:14Z</time></trkpt><trkpt lat="43.62517739714992" lon="11.281809801032294"><ele>164.0</ele><time>2026-05-03T17:43:15Z</time></trkpt><trkpt lat="43.62523190743261" lon="11.281675310224001"><ele>164.0</ele><time>2026-05-03T17:43:16Z</time></trkpt><trkpt lat="43.625291792607484" lon="11.281544226862517"><ele>164.0</ele><time>2026-05-03T17:43:17Z</time></trkpt><trkpt lat="43.625354578882636" lon="11.28140617607373"><ele>164.25</ele><time>2026-05-03T17:43:18Z</time></trkpt><trkpt lat="43.62541710157656" lon="11.281267503835231"><ele>164.5</ele><time>2026-05-03T17:43:19Z</time></trkpt><trkpt lat="43.62547786004342" lon="11.28112534646372"><ele>164.75</ele><time>2026-05-03T17:43:20Z</time></trkpt><trkpt lat="43.6255415793165" lon="11.280977073808462"><ele>165.0</ele><time>2026-05-03T17:43:21Z</time></trkpt><trkpt lat="43.625607224566416" lon="11.280825016922563"><ele>165.0</ele><time>2026-05-03T17:43:22Z</time></trkpt><trkpt lat="43.625672363154315" lon="11.28066798707682"><ele>165.0</ele><time>2026-05-03T17:43:23Z</time></trkpt><trkpt lat="43.62573686204839" lon="11.280511074848969"><ele>165.0</ele><time>2026-05-03T17:43:24Z</time></trkpt><trkpt lat="43.625803495416804" lon="11.280355419862584"><ele>165.0</ele><time>2026-05-03T17:43:25Z</time></trkpt><trkpt lat="43.625872529647076" lon="11.28020213462202"><ele>164.75</ele><time>2026-05-03T17:43:26Z</time></trkpt><trkpt lat="43.62594084633988" lon="11.2800506695649"><ele>164.5</ele><time>2026-05-03T17:43:27Z</time></trkpt><trkpt lat="43.62601037579919" lon="11.279893245857089"><ele>164.25</ele><time>2026-05-03T17:43:28Z</time></trkpt><trkpt lat="43.626082895468166" lon="11.279737398231779"><ele>164.0</ele><time>2026-05-03T17:43:29Z</time></trkpt><trkpt lat="43.62615951190622" lon="11.27957210382732"><ele>165.0</ele><time>2026-05-03T17:43:30Z</time></trkpt><trkpt lat="43.62625162742893" lon="11.27940913868104"><ele>166.0</ele><time>2026-05-03T17:43:31Z</time></trkpt><trkpt lat="43.62635355806552" lon="11.279251548506226"><ele>167.0</ele><time>2026-05-03T17:43:32Z</time></trkpt><trkpt lat="43.62646128246199" lon="11.279096687519031"><ele>167.0</ele><time>2026-05-03T17:43:33Z</time></trkpt><trkpt lat="43.62656728964453" lon="11.278942106042361"><ele>167.0</ele><time>2026-05-03T17:43:34Z</time></trkpt><trkpt lat="43.62667229631164" lon="11.278787039224841"><ele>167.0</ele><time>2026-05-03T17:43:35Z</time></trkpt><trkpt lat="43.62677581229168" lon="11.2786292647028"><ele>168.33333333333331</ele><time>2026-05-03T17:43:36Z</time></trkpt><trkpt lat="43.62687922391502" lon="11.278468962210427"><ele>169.66666666666666</ele><time>2026-05-03T17:43:37Z</time></trkpt><trkpt lat="43.62698938755806" lon="11.278311630535342"><ele>171.0</ele><time>2026-05-03T17:43:38Z</time></trkpt><trkpt lat="43.627100582745925" lon="11.278157769235051"><ele>168.0</ele><time>2026-05-03T17:43:39Z</time></trkpt><trkpt lat="43.62721935913131" lon="11.278016518390935"><ele>165.0</ele><time>2026-05-03T17:43:39.999Z</time></trkpt><trkpt lat="43.62734397498766" lon="11.277884165721934"><ele>162.0</ele><time>2026-05-03T17:43:40.999Z</time></trkpt><trkpt lat="43.62747224496797" lon="11.27776058178105"><ele>162.0</ele><time>2026-05-03T17:43:41.999Z</time></trkpt><trkpt lat="43.62760298974101" lon="11.277642910051956"><ele>162.0</ele><time>2026-05-03T17:43:42.999Z</time></trkpt><trkpt lat="43.62773762449126" lon="11.277536198974813"><ele>162.0</ele><time>2026-05-03T17:43:43.999Z</time></trkpt><trkpt lat="43.627874784281786" lon="11.277433554000151"><ele>162.0</ele><time>2026-05-03T17:43:44.999Z</time></trkpt><trkpt lat="43.62801162233262" lon="11.277336405738266"><ele>162.0</ele><time>2026-05-03T17:43:45.999Z</time></trkpt><trkpt lat="43.62815373864587" lon="11.27724875301635"><ele>162.0</ele><time>2026-05-03T17:43:46.999Z</time></trkpt><trkpt lat="43.62829616513858" lon="11.277170533701497"><ele>162.0</ele><time>2026-05-03T17:43:47.999Z</time></trkpt><trkpt lat="43.628439717722344" lon="11.277093880807344"><ele>162.0</ele><time>2026-05-03T17:43:48.999Z</time></trkpt><trkpt lat="43.628584449480854" lon="11.277019178695994"><ele>162.0</ele><time>2026-05-03T17:43:49.999Z</time></trkpt><trkpt lat="43.62873172888408" lon="11.27694786760426"><ele>162.66666666666666</ele><time>2026-05-03T17:43:50.999Z</time></trkpt><trkpt lat="43.62888055999751" lon="11.276877330814107"><ele>163.33333333333331</ele><time>2026-05-03T17:43:51.999Z</time></trkpt><trkpt lat="43.62902754709404" lon="11.276802468599428"><ele>164.0</ele><time>2026-05-03T17:43:52.999Z</time></trkpt><trkpt lat="43.62917162231303" lon="11.276707920634117"><ele>164.0</ele><time>2026-05-03T17:43:53.999Z</time></trkpt><trkpt lat="43.629308421484595" lon="11.276595043824141"><ele>164.0</ele><time>2026-05-03T17:43:54.999Z</time></trkpt><trkpt lat="43.62943243643521" lon="11.276456223480038"><ele>164.0</ele><time>2026-05-03T17:43:55.999Z</time></trkpt><trkpt lat="43.62954996572755" lon="11.276315323157345"><ele>163.0</ele><time>2026-05-03T17:43:56.999Z</time></trkpt><trkpt lat="43.629663484671546" lon="11.27616885910918"><ele>162.0</ele><time>2026-05-03T17:43:57.999Z</time></trkpt><trkpt lat="43.62978132764717" lon="11.276019527853494"><ele>161.0</ele><time>2026-05-03T17:43:58.999Z</time></trkpt><trkpt lat="43.62990554685729" lon="11.275882510918247"><ele>161.0</ele><time>2026-05-03T17:43:59.999Z</time></trkpt><trkpt lat="43.630036653120136" lon="11.275763372286084"><ele>161.0</ele><time>2026-05-03T17:44:00.999Z</time></trkpt><trkpt lat="43.630168209175025" lon="11.275647118298219"><ele>161.0</ele><time>2026-05-03T17:44:01.999Z</time></trkpt><trkpt lat="43.63029973776016" lon="11.275538042001244"><ele>160.0</ele><time>2026-05-03T17:44:02.999Z</time></trkpt><trkpt lat="43.63043006449216" lon="11.275434817658985"><ele>159.0</ele><time>2026-05-03T17:44:03.999Z</time></trkpt><trkpt lat="43.630554028710044" lon="11.27533746808094"><ele>158.0</ele><time>2026-05-03T17:44:04.999Z</time></trkpt><trkpt lat="43.63068051188017" lon="11.275247138984314"><ele>157.0</ele><time>2026-05-03T17:44:05.999Z</time></trkpt><trkpt lat="43.63081564083366" lon="11.275157046945123"><ele>157.0</ele><time>2026-05-03T17:44:06.999Z</time></trkpt><trkpt lat="43.630951533964314" lon="11.27508034901154"><ele>157.0</ele><time>2026-05-03T17:44:07.999Z</time></trkpt><trkpt lat="43.631086344343174" lon="11.275013845264645"><ele>157.0</ele><time>2026-05-03T17:44:08.999Z</time></trkpt><trkpt lat="43.63122029525189" lon="11.274963667128945"><ele>157.0</ele><time>2026-05-03T17:44:09.999Z</time></trkpt><trkpt lat="43.63134546009589" lon="11.274927152393662"><ele>157.0</ele><time>2026-05-03T17:44:10.999Z</time></trkpt><trkpt lat="43.63146509643172" lon="11.274896227782444"><ele>157.0</ele><time>2026-05-03T17:44:11.999Z</time></trkpt><trkpt lat="43.63157474022367" lon="11.274864247231372"><ele>157.0</ele><time>2026-05-03T17:44:12.999Z</time></trkpt><trkpt lat="43.63166879440892" lon="11.274831007316871"><ele>157.0</ele><time>2026-05-03T17:44:13.999Z</time></trkpt><trkpt lat="43.631735166128095" lon="11.27480791226486"><ele>157.0</ele><time>2026-05-03T17:44:14.999Z</time></trkpt><trkpt lat="43.63181707235095" lon="11.274850134009393"><ele>157.0</ele><time>2026-05-03T17:44:16.999Z</time></trkpt><trkpt lat="43.631855847566825" lon="11.27509535712708"><ele>157.0</ele><time>2026-05-03T17:44:18.999Z</time></trkpt><trkpt lat="43.631872448043964" lon="11.275249313365677"><ele>157.0</ele><time>2026-05-03T17:44:19.999Z</time></trkpt><trkpt lat="43.63190775494907" lon="11.275444528933143"><ele>157.0</ele><time>2026-05-03T17:44:20.999Z</time></trkpt><trkpt lat="43.63193650473501" lon="11.27565832694067"><ele>157.25</ele><time>2026-05-03T17:44:21.999Z</time></trkpt><trkpt lat="43.63196657489962" lon="11.275879156034993"><ele>157.5</ele><time>2026-05-03T17:44:22.999Z</time></trkpt><trkpt lat="43.632001233663686" lon="11.276060141889056"><ele>157.75</ele><time>2026-05-03T17:44:23.999Z</time></trkpt><trkpt lat="43.632038106528654" lon="11.2762040893916"><ele>158.0</ele><time>2026-05-03T17:44:24.999Z</time></trkpt><trkpt lat="43.632078499374174" lon="11.2763395041108"><ele>158.4</ele><time>2026-05-03T17:44:25.999Z</time></trkpt><trkpt lat="43.63210470196099" lon="11.276470900678671"><ele>158.8</ele><time>2026-05-03T17:44:26.999Z</time></trkpt><trkpt lat="43.632129690165236" lon="11.276613576425163"><ele>159.2</ele><time>2026-05-03T17:44:27.999Z</time></trkpt><trkpt lat="43.63216330291855" lon="11.276763772107696"><ele>159.6</ele><time>2026-05-03T17:44:28.999Z</time></trkpt><trkpt lat="43.63218275366337" lon="11.276920470522326"><ele>160.0</ele><time>2026-05-03T17:44:29.999Z</time></trkpt><trkpt lat="43.63217937032312" lon="11.277076732421762"><ele>160.0</ele><time>2026-05-03T17:44:30.999Z</time></trkpt><trkpt lat="43.63217331073763" lon="11.277257787304386"><ele>160.0</ele><time>2026-05-03T17:44:31.999Z</time></trkpt><trkpt lat="43.63218409711771" lon="11.277420547448418"><ele>160.0</ele><time>2026-05-03T17:44:32.999Z</time></trkpt><trkpt lat="43.632203245741565" lon="11.277548006816478"><ele>160.0</ele><time>2026-05-03T17:44:33.999Z</time></trkpt><trkpt lat="43.63224029589719" lon="11.27769889021343"><ele>160.0</ele><time>2026-05-03T17:44:34.999Z</time></trkpt><trkpt lat="43.63229797963365" lon="11.277868002003165"><ele>160.0</ele><time>2026-05-03T17:44:35.999Z</time></trkpt><trkpt lat="43.63233982513016" lon="11.278029712275947"><ele>160.0</ele><time>2026-05-03T17:44:36.999Z</time></trkpt><trkpt lat="43.6323726107702" lon="11.278180031630933"><ele>160.0</ele><time>2026-05-03T17:44:37.999Z</time></trkpt><trkpt lat="43.63238010932487" lon="11.278346559948414"><ele>160.2</ele><time>2026-05-03T17:44:38.999Z</time></trkpt><trkpt lat="43.63237528398976" lon="11.278523344230392"><ele>160.4</ele><time>2026-05-03T17:44:39.999Z</time></trkpt><trkpt lat="43.63238990837588" lon="11.278683093605819"><ele>160.60000000000002</ele><time>2026-05-03T17:44:40.999Z</time></trkpt><trkpt lat="43.63241107758603" lon="11.278798678393079"><ele>160.8</ele><time>2026-05-03T17:44:41.999Z</time></trkpt><trkpt lat="43.63245607337502" lon="11.27892840034482"><ele>161.0</ele><time>2026-05-03T17:44:43.999Z</time></trkpt><trkpt lat="43.63249320377191" lon="11.279038351176947"><ele>161.20000000000002</ele><time>2026-05-03T17:44:45.999Z</time></trkpt><trkpt lat="43.632526107976126" lon="11.279214746114542"><ele>161.4</ele><time>2026-05-03T17:49:26Z</time></trkpt><trkpt lat="43.632516815804074" lon="11.279321244100425"><ele>161.6</ele><time>2026-05-03T17:49:27Z</time></trkpt><trkpt lat="43.63247995230475" lon="11.279429165535703"><ele>161.8</ele><time>2026-05-03T17:49:28Z</time></trkpt><trkpt lat="43.632418412146045" lon="11.279543200953295"><ele>162.0</ele><time>2026-05-03T17:49:29Z</time></trkpt><trkpt lat="43.63234589573145" lon="11.279650153062006"><ele>162.0</ele><time>2026-05-03T17:49:30Z</time></trkpt><trkpt lat="43.63226199722706" lon="11.279753928188429"><ele>162.0</ele><time>2026-05-03T17:49:31Z</time></trkpt><trkpt lat="43.6321667075939" lon="11.279871127177005"><ele>162.0</ele><time>2026-05-03T17:49:32Z</time></trkpt><trkpt lat="43.63205963331119" lon="11.279983060671189"><ele>162.0</ele><time>2026-05-03T17:49:33Z</time></trkpt><trkpt lat="43.63198923872934" lon="11.280038407944659"><ele>163.2</ele><time>2026-05-03T17:49:34Z</time></trkpt><trkpt lat="43.63194067497749" lon="11.280100506907397"><ele>164.39999999999998</ele><time>2026-05-03T17:49:35Z</time></trkpt><trkpt lat="43.631870686473455" lon="11.280149378795516"><ele>165.60000000000002</ele><time>2026-05-03T17:49:36Z</time></trkpt><trkpt lat="43.63178219272575" lon="11.280144257045936"><ele>166.8</ele><time>2026-05-03T17:49:37Z</time></trkpt><trkpt lat="43.631694396143565" lon="11.280072625407815"><ele>168.0</ele><time>2026-05-03T17:49:38Z</time></trkpt><trkpt lat="43.63160184648039" lon="11.279978834701215"><ele>168.0</ele><time>2026-05-03T17:49:39Z</time></trkpt><trkpt lat="43.631569636103755" lon="11.279881678459805"><ele>168.0</ele><time>2026-05-03T17:49:40Z</time></trkpt><trkpt lat="43.63153843459261" lon="11.279767836079373"><ele>168.0</ele><time>2026-05-03T17:49:41Z</time></trkpt><trkpt lat="43.631467583813354" lon="11.279679394610925"><ele>168.0</ele><time>2026-05-03T17:49:42Z</time></trkpt><trkpt lat="43.631392670780954" lon="11.279671063161453"><ele>168.0</ele><time>2026-05-03T17:49:44Z</time></trkpt><trkpt lat="43.63131283730518" lon="11.279857098049726"><ele>168.0</ele><time>2026-05-03T17:49:46Z</time></trkpt><trkpt lat="43.63127005035769" lon="11.280003301022614"><ele>168.0</ele><time>2026-05-03T17:49:47Z</time></trkpt><trkpt lat="43.631219265329044" lon="11.280155395718786"><ele>168.0</ele><time>2026-05-03T17:49:48Z</time></trkpt><trkpt lat="43.63114281126252" lon="11.280276546026323"><ele>168.0</ele><time>2026-05-03T17:49:49Z</time></trkpt><trkpt lat="43.631087779964275" lon="11.280409099240961"><ele>169.4</ele><time>2026-05-03T17:49:50Z</time></trkpt><trkpt lat="43.63102971897898" lon="11.28047662797467"><ele>170.8</ele><time>2026-05-03T17:49:51Z</time></trkpt><trkpt lat="43.630936448206306" lon="11.28054607941264"><ele>172.2</ele><time>2026-05-03T17:49:52Z</time></trkpt><trkpt lat="43.63086796429994" lon="11.280631984667034"><ele>173.6</ele><time>2026-05-03T17:49:53Z</time></trkpt><trkpt lat="43.63076521447595" lon="11.280707232905595"><ele>175.0</ele><time>2026-05-03T17:49:54Z</time></trkpt><trkpt lat="43.63070426431927" lon="11.2808087258503"><ele>175.0</ele><time>2026-05-03T17:49:55Z</time></trkpt><trkpt lat="43.63063401796484" lon="11.280962333349727"><ele>175.0</ele><time>2026-05-03T17:49:56Z</time></trkpt><trkpt lat="43.63055089826117" lon="11.281081101380911"><ele>175.0</ele><time>2026-05-03T17:49:57Z</time></trkpt><trkpt lat="43.63047049104429" lon="11.281170642693727"><ele>175.0</ele><time>2026-05-03T17:49:58Z</time></trkpt><trkpt lat="43.63039406943814" lon="11.281219267702918"><ele>175.0</ele><time>2026-05-03T17:49:59Z</time></trkpt><trkpt lat="43.63029882745792" lon="11.281246041807789"><ele>177.0</ele><time>2026-05-03T17:50:00Z</time></trkpt><trkpt lat="43.630201572655224" lon="11.281256848196398"><ele>179.0</ele><time>2026-05-03T17:50:01Z</time></trkpt><trkpt lat="43.63009888211817" lon="11.281266379416405"><ele>181.0</ele><time>2026-05-03T17:50:02Z</time></trkpt><trkpt lat="43.63000870631158" lon="11.281299045218967"><ele>183.0</ele><time>2026-05-03T17:50:03Z</time></trkpt><trkpt lat="43.62993652933917" lon="11.281365562302833"><ele>185.0</ele><time>2026-05-03T17:50:04Z</time></trkpt><trkpt lat="43.6298652438421" lon="11.281438924353182"><ele>185.0</ele><time>2026-05-03T17:50:05Z</time></trkpt><trkpt lat="43.62977837590431" lon="11.28149452787243"><ele>185.0</ele><time>2026-05-03T17:50:06Z</time></trkpt><trkpt lat="43.629679118131655" lon="11.281553438203021"><ele>185.0</ele><time>2026-05-03T17:50:07Z</time></trkpt><trkpt lat="43.62957017549019" lon="11.281641737748606"><ele>185.0</ele><time>2026-05-03T17:50:08Z</time></trkpt><trkpt lat="43.62947595282541" lon="11.281687403729217"><ele>185.0</ele><time>2026-05-03T17:50:09Z</time></trkpt><trkpt lat="43.62937732940647" lon="11.281700890773743"><ele>186.66666666666666</ele><time>2026-05-03T17:50:10Z</time></trkpt><trkpt lat="43.62929644482886" lon="11.281695382121258"><ele>188.33333333333331</ele><time>2026-05-03T17:50:11Z</time></trkpt><trkpt lat="43.62923184571342" lon="11.281723486875407"><ele>190.0</ele><time>2026-05-03T17:50:12Z</time></trkpt><trkpt lat="43.6291828946722" lon="11.281811882203687"><ele>191.66666666666666</ele><time>2026-05-03T17:50:13Z</time></trkpt><trkpt lat="43.62915707482059" lon="11.281908609894238"><ele>193.33333333333334</ele><time>2026-05-03T17:50:14Z</time></trkpt><trkpt lat="43.629141891403634" lon="11.28203732349799"><ele>195.0</ele><time>2026-05-03T17:50:15Z</time></trkpt><trkpt lat="43.629127281080876" lon="11.282167595630103"><ele>195.0</ele><time>2026-05-03T17:50:16Z</time></trkpt><trkpt lat="43.62911415369844" lon="11.282286567690306"><ele>195.0</ele><time>2026-05-03T17:50:17Z</time></trkpt><trkpt lat="43.62911603327386" lon="11.28238392317004"><ele>195.0</ele><time>2026-05-03T17:50:18Z</time></trkpt><trkpt lat="43.62913324474922" lon="11.282494180913897"><ele>195.0</ele><time>2026-05-03T17:50:19Z</time></trkpt><trkpt lat="43.629157937445" lon="11.282635107742134"><ele>195.0</ele><time>2026-05-03T17:50:20Z</time></trkpt><trkpt lat="43.62918763001624" lon="11.282770187313169"><ele>195.0</ele><time>2026-05-03T17:50:21Z</time></trkpt><trkpt lat="43.62920713373567" lon="11.282902278881922"><ele>195.0</ele><time>2026-05-03T17:50:22Z</time></trkpt><trkpt lat="43.629205300517704" lon="11.283045535636886"><ele>195.0</ele><time>2026-05-03T17:50:23Z</time></trkpt><trkpt lat="43.62919310393815" lon="11.283225954315496"><ele>195.0</ele><time>2026-05-03T17:50:24Z</time></trkpt><trkpt lat="43.62917358106057" lon="11.283413581291962"><ele>195.0</ele><time>2026-05-03T17:50:25Z</time></trkpt><trkpt lat="43.629157710378266" lon="11.283570206812666"><ele>195.0</ele><time>2026-05-03T17:50:26Z</time></trkpt><trkpt lat="43.62914051506749" lon="11.283700256874262"><ele>195.0</ele><time>2026-05-03T17:50:27Z</time></trkpt><trkpt lat="43.62912381609784" lon="11.283829172862898"><ele>195.0</ele><time>2026-05-03T17:50:28Z</time></trkpt><trkpt lat="43.62912103322277" lon="11.283948138916285"><ele>195.0</ele><time>2026-05-03T17:50:29Z</time></trkpt><trkpt lat="43.62910817474628" lon="11.284062195512824"><ele>195.0</ele><time>2026-05-03T17:50:30Z</time></trkpt><trkpt lat="43.62910318742328" lon="11.284183656241295"><ele>195.0</ele><time>2026-05-03T17:50:31Z</time></trkpt><trkpt lat="43.62909845315683" lon="11.28432132350301"><ele>195.57142857142856</ele><time>2026-05-03T17:50:32Z</time></trkpt><trkpt lat="43.629109386374765" lon="11.284429378218704"><ele>196.14285714285714</ele><time>2026-05-03T17:50:33Z</time></trkpt><trkpt lat="43.629115002927044" lon="11.284528407040836"><ele>196.71428571428572</ele><time>2026-05-03T17:50:34Z</time></trkpt><trkpt lat="43.62911835214264" lon="11.284626781230786"><ele>197.28571428571428</ele><time>2026-05-03T17:50:35Z</time></trkpt><trkpt lat="43.62912712964046" lon="11.284715471543722"><ele>197.85714285714286</ele><time>2026-05-03T17:50:36Z</time></trkpt><trkpt lat="43.62912771814211" lon="11.284803791128214"><ele>198.42857142857142</ele><time>2026-05-03T17:50:37Z</time></trkpt><trkpt lat="43.62912393366871" lon="11.284892877351414"><ele>199.0</ele><time>2026-05-03T17:50:38Z</time></trkpt><trkpt lat="43.62913021413207" lon="11.285070594533662"><ele>199.2</ele><time>2026-05-03T17:50:40Z</time></trkpt><trkpt lat="43.62914452337049" lon="11.285242724337635"><ele>199.39999999999998</ele><time>2026-05-03T17:50:42Z</time></trkpt><trkpt lat="43.62915878415177" lon="11.28542439509737"><ele>199.6</ele><time>2026-05-03T17:50:44Z</time></trkpt><trkpt lat="43.62915148316754" lon="11.285593646782715"><ele>199.8</ele><time>2026-05-03T17:50:46Z</time></trkpt><trkpt lat="43.62914325411338" lon="11.285680439582684"><ele>200.0</ele><time>2026-05-03T17:50:48Z</time></trkpt><trkpt lat="43.62914251415621" lon="11.285788162411578"><ele>199.5</ele><time>2026-05-03T17:51:06.999Z</time></trkpt><trkpt lat="43.629185212757996" lon="11.285868195116272"><ele>199.0</ele><time>2026-05-03T17:51:08.999Z</time></trkpt><trkpt lat="43.629338895764675" lon="11.285928556598181"><ele>198.5</ele><time>2026-05-03T17:51:11Z</time></trkpt><trkpt lat="43.62946982303744" lon="11.285991994578087"><ele>198.0</ele><time>2026-05-03T17:51:12Z</time></trkpt><trkpt lat="43.629603713799035" lon="11.28606220485384"><ele>197.2</ele><time>2026-05-03T17:51:13Z</time></trkpt><trkpt lat="43.62971121715608" lon="11.286130953642079"><ele>196.4</ele><time>2026-05-03T17:51:14Z</time></trkpt><trkpt lat="43.62979343357934" lon="11.286180237591939"><ele>195.6</ele><time>2026-05-03T17:51:15Z</time></trkpt><trkpt lat="43.629849446223375" lon="11.286327651056663"><ele>194.79999999999998</ele><time>2026-05-03T17:51:17Z</time></trkpt><trkpt lat="43.629882764043494" lon="11.286452075376095"><ele>194.0</ele><time>2026-05-03T17:51:18Z</time></trkpt><trkpt lat="43.62996373870891" lon="11.286577124584861"><ele>194.0</ele><time>2026-05-03T17:51:19Z</time></trkpt><trkpt lat="43.63007272093994" lon="11.286689453942168"><ele>194.0</ele><time>2026-05-03T17:51:20Z</time></trkpt><trkpt lat="43.63019274232511" lon="11.286783917472636"><ele>194.0</ele><time>2026-05-03T17:51:21Z</time></trkpt><trkpt lat="43.63028758168614" lon="11.286858518122752"><ele>194.0</ele><time>2026-05-03T17:51:22Z</time></trkpt><trkpt lat="43.630360254440546" lon="11.286890199873149"><ele>192.66666666666669</ele><time>2026-05-03T17:51:23Z</time></trkpt><trkpt lat="43.630429791526424" lon="11.286899123977816"><ele>191.33333333333334</ele><time>2026-05-03T17:51:24Z</time></trkpt><trkpt lat="43.630494468978675" lon="11.286913915714637"><ele>190.0</ele><time>2026-05-03T17:51:25Z</time></trkpt><trkpt lat="43.63057514056127" lon="11.286952397786234"><ele>188.66666666666669</ele><time>2026-05-03T17:51:26Z</time></trkpt><trkpt lat="43.63063525740269" lon="11.28703008683582"><ele>187.33333333333334</ele><time>2026-05-03T17:51:27Z</time></trkpt><trkpt lat="43.63068764976252" lon="11.287122934818383"><ele>186.0</ele><time>2026-05-03T17:51:28Z</time></trkpt><trkpt lat="43.63071141943594" lon="11.287267243189797"><ele>186.0</ele><time>2026-05-03T17:51:29Z</time></trkpt><trkpt lat="43.630716884419954" lon="11.287397796866776"><ele>186.0</ele><time>2026-05-03T17:51:30Z</time></trkpt><trkpt lat="43.63079488865727" lon="11.28751392091217"><ele>186.0</ele><time>2026-05-03T17:51:32Z</time></trkpt><trkpt lat="43.63086012211842" lon="11.287504675467247"><ele>186.0</ele><time>2026-05-03T17:51:33Z</time></trkpt><trkpt lat="43.63095679918233" lon="11.287484425144594"><ele>186.0</ele><time>2026-05-03T17:51:34Z</time></trkpt><trkpt lat="43.63105873830451" lon="11.287509756486902"><ele>183.60000000000002</ele><time>2026-05-03T17:51:35Z</time></trkpt><trkpt lat="43.63116464477221" lon="11.287561743822152"><ele>181.2</ele><time>2026-05-03T17:51:36Z</time></trkpt><trkpt lat="43.631263324388264" lon="11.287624188790122"><ele>178.8</ele><time>2026-05-03T17:51:37Z</time></trkpt><trkpt lat="43.63133082687636" lon="11.287695378933785"><ele>176.39999999999998</ele><time>2026-05-03T17:51:38Z</time></trkpt><trkpt lat="43.63142517599749" lon="11.287789714148524"><ele>174.0</ele><time>2026-05-03T17:51:40Z</time></trkpt><trkpt lat="43.63150907394032" lon="11.287805661678757"><ele>174.0</ele><time>2026-05-03T17:51:41Z</time></trkpt><trkpt lat="43.6315824649703" lon="11.287833309323117"><ele>174.0</ele><time>2026-05-03T17:51:42Z</time></trkpt><trkpt lat="43.631725292807175" lon="11.287860465105954"><ele>174.0</ele><time>2026-05-03T17:51:44Z</time></trkpt><trkpt lat="43.63182619755373" lon="11.287841521192187"><ele>174.0</ele><time>2026-05-03T17:51:46Z</time></trkpt><trkpt lat="43.63189325177337" lon="11.287695913275247"><ele>174.0</ele><time>2026-05-03T17:51:48Z</time></trkpt><trkpt lat="43.63191074063787" lon="11.28758548016603"><ele>174.0</ele><time>2026-05-03T17:51:49Z</time></trkpt><trkpt lat="43.631926152024526" lon="11.287466025031705"><ele>174.0</ele><time>2026-05-03T17:51:50Z</time></trkpt><trkpt lat="43.631938176061894" lon="11.287360957391716"><ele>174.0</ele><time>2026-05-03T17:51:51Z</time></trkpt><trkpt lat="43.63196182978173" lon="11.287258154067654"><ele>174.0</ele><time>2026-05-03T17:51:52Z</time></trkpt><trkpt lat="43.632009053774375" lon="11.287123126571483"><ele>174.0</ele><time>2026-05-03T17:51:53Z</time></trkpt><trkpt lat="43.63204921790359" lon="11.28699097872541"><ele>175.39999999999998</ele><time>2026-05-03T17:51:54Z</time></trkpt><trkpt lat="43.632090885022066" lon="11.286907807899022"><ele>176.8</ele><time>2026-05-03T17:51:55Z</time></trkpt><trkpt lat="43.63210642098592" lon="11.286760391254237"><ele>178.2</ele><time>2026-05-03T17:51:57Z</time></trkpt><trkpt lat="43.632064392094414" lon="11.286601881587966"><ele>179.60000000000002</ele><time>2026-05-03T17:51:59Z</time></trkpt><trkpt lat="43.63203966884889" lon="11.286450687454751"><ele>181.0</ele><time>2026-05-03T17:52:01Z</time></trkpt><trkpt lat="43.632038599194395" lon="11.28628689692069"><ele>181.0</ele><time>2026-05-03T17:52:03Z</time></trkpt><trkpt lat="43.63205397492413" lon="11.286166019325162"><ele>181.0</ele><time>2026-05-03T17:52:05Z</time></trkpt><trkpt lat="43.63205981488673" lon="11.286306578520197"><ele>181.0</ele><time>2026-05-03T17:52:11Z</time></trkpt><trkpt lat="43.63204500310636" lon="11.2864014547406"><ele>181.0</ele><time>2026-05-03T17:52:12Z</time></trkpt><trkpt lat="43.63207139049422" lon="11.286549306192589"><ele>181.0</ele><time>2026-05-03T17:52:14Z</time></trkpt><trkpt lat="43.632160715900696" lon="11.286493509087205"><ele>181.0</ele><time>2026-05-03T17:52:17Z</time></trkpt><trkpt lat="43.63220556246931" lon="11.286388614429782"><ele>181.0</ele><time>2026-05-03T17:52:18Z</time></trkpt><trkpt lat="43.632248890915996" lon="11.286323870851739"><ele>181.0</ele><time>2026-05-03T17:52:19Z</time></trkpt><trkpt lat="43.63236453758855" lon="11.286218237882034"><ele>181.0</ele><time>2026-05-03T17:52:21Z</time></trkpt><trkpt lat="43.63242551333475" lon="11.286155473162289"><ele>181.0</ele><time>2026-05-03T17:52:22Z</time></trkpt><trkpt lat="43.63247062135626" lon="11.286093173896237"><ele>181.0</ele><time>2026-05-03T17:52:23Z</time></trkpt><trkpt lat="43.63251539955883" lon="11.286014991120066"><ele>181.0</ele><time>2026-05-03T17:52:24Z</time></trkpt><trkpt lat="43.63256809251841" lon="11.285938923401721"><ele>181.0</ele><time>2026-05-03T17:52:25Z</time></trkpt><trkpt lat="43.632639697110186" lon="11.285892633701208"><ele>181.0</ele><time>2026-05-03T17:52:27Z</time></trkpt><trkpt lat="43.63268737250689" lon="11.285783823657757"><ele>181.0</ele><time>2026-05-03T17:52:38Z</time></trkpt><trkpt lat="43.63264456418734" lon="11.285852309943598"><ele>181.0</ele><time>2026-05-03T17:53:04.999Z</time></trkpt><trkpt lat="43.63259029617397" lon="11.285939461085064"><ele>181.0</ele><time>2026-05-03T17:53:07.999Z</time></trkpt><trkpt lat="43.63251350247834" lon="11.286016147321783"><ele>181.0</ele><time>2026-05-03T17:53:15.999Z</time></trkpt><trkpt lat="43.63246764158329" lon="11.286080675346836"><ele>181.0</ele><time>2026-05-03T17:53:18Z</time></trkpt><trkpt lat="43.63241945314569" lon="11.286143573524516"><ele>181.0</ele><time>2026-05-03T17:53:20Z</time></trkpt><trkpt lat="43.63249737245795" lon="11.286045270698747"><ele>181.0</ele><time>2026-05-03T17:53:31Z</time></trkpt><trkpt lat="43.63257348266409" lon="11.28595496955583"><ele>181.0</ele><time>2026-05-03T17:53:33Z</time></trkpt><trkpt lat="43.63264893793777" lon="11.285914681735672"><ele>181.0</ele><time>2026-05-03T17:53:36Z</time></trkpt><trkpt lat="43.63272755346808" lon="11.285954658263925"><ele>181.0</ele><time>2026-05-03T17:53:41Z</time></trkpt><trkpt lat="43.632783906817934" lon="11.286025276155565"><ele>181.0</ele><time>2026-05-03T17:53:50Z</time></trkpt><trkpt lat="43.632822918298785" lon="11.286095544522018"><ele>181.0</ele><time>2026-05-03T17:53:53Z</time></trkpt><trkpt lat="43.63283864717755" lon="11.28618323213891"><ele>181.0</ele><time>2026-05-03T17:53:56Z</time></trkpt><trkpt lat="43.63289561677122" lon="11.286240457901522"><ele>181.0</ele><time>2026-05-03T17:54:05Z</time></trkpt><trkpt lat="43.632968235767976" lon="11.286236877555313"><ele>181.0</ele><time>2026-05-03T17:54:08Z</time></trkpt><trkpt lat="43.63304102972807" lon="11.286260392058985"><ele>181.0</ele><time>2026-05-03T17:54:11Z</time></trkpt><trkpt lat="43.63310814968081" lon="11.286225756643603"><ele>181.0</ele><time>2026-05-03T17:54:18Z</time></trkpt><trkpt lat="43.63311656889009" lon="11.286129147637746"><ele>181.0</ele><time>2026-05-03T17:54:22Z</time></trkpt><trkpt lat="43.63305092140816" lon="11.286148094890343"><ele>181.0</ele><time>2026-05-03T17:54:25Z</time></trkpt><trkpt lat="43.63297946502187" lon="11.286133685757216"><ele>181.0</ele><time>2026-05-03T17:54:28Z</time></trkpt><trkpt lat="43.63291390675713" lon="11.286139462201938"><ele>181.0</ele><time>2026-05-03T17:54:39Z</time></trkpt><trkpt lat="43.63284804584535" lon="11.286176318888527"><ele>181.0</ele><time>2026-05-03T17:54:42Z</time></trkpt><trkpt lat="43.632782424098465" lon="11.286211790898587"><ele>181.0</ele><time>2026-05-03T17:54:46Z</time></trkpt><trkpt lat="43.63274852070776" lon="11.286297422736967"><ele>181.0</ele><time>2026-05-03T17:54:49Z</time></trkpt><trkpt lat="43.63269056063318" lon="11.286347331409246"><ele>181.0</ele><time>2026-05-03T17:54:51Z</time></trkpt><trkpt lat="43.63261231769224" lon="11.286403182027044"><ele>181.0</ele><time>2026-05-03T17:54:53.999Z</time></trkpt><trkpt lat="43.63253434209615" lon="11.286444601142229"><ele>181.0</ele><time>2026-05-03T17:54:56.999Z</time></trkpt><trkpt lat="43.632476804186346" lon="11.286485870448825"><ele>181.0</ele><time>2026-05-03T17:54:58.999Z</time></trkpt><trkpt lat="43.6324079148904" lon="11.286509641014181"><ele>181.0</ele><time>2026-05-03T17:55:00.999Z</time></trkpt><trkpt lat="43.63235771689414" lon="11.28657278653997"><ele>181.0</ele><time>2026-05-03T17:55:06.999Z</time></trkpt><trkpt lat="43.63234005013278" lon="11.286663273111532"><ele>181.0</ele><time>2026-05-03T17:55:08.999Z</time></trkpt><trkpt lat="43.632299389701075" lon="11.286772264350752"><ele>181.0</ele><time>2026-05-03T17:55:10.999Z</time></trkpt><trkpt lat="43.63224985016271" lon="11.286838826638009"><ele>181.0</ele><time>2026-05-03T17:55:13.999Z</time></trkpt><trkpt lat="43.63220443452962" lon="11.286924457732814"><ele>181.0</ele><time>2026-05-03T17:55:16.999Z</time></trkpt><trkpt lat="43.632234040564875" lon="11.287014078158066"><ele>181.0</ele><time>2026-05-03T17:55:18.999Z</time></trkpt><trkpt lat="43.6322798804398" lon="11.287076392793585"><ele>181.0</ele><time>2026-05-03T17:55:19.999Z</time></trkpt><trkpt lat="43.63233332330815" lon="11.287164435124058"><ele>180.20000000000002</ele><time>2026-05-03T17:55:20.999Z</time></trkpt><trkpt lat="43.63236647870422" lon="11.28730333726638"><ele>179.4</ele><time>2026-05-03T17:55:23Z</time></trkpt><trkpt lat="43.63237106716882" lon="11.287465731622076"><ele>178.6</ele><time>2026-05-03T17:55:25Z</time></trkpt><trkpt lat="43.63238453070694" lon="11.287601720838289"><ele>177.8</ele><time>2026-05-03T17:55:27Z</time></trkpt><trkpt lat="43.63240080679583" lon="11.28770114854522"><ele>177.0</ele><time>2026-05-03T17:55:28Z</time></trkpt><trkpt lat="43.63244447159098" lon="11.287813018186178"><ele>177.0</ele><time>2026-05-03T17:55:29Z</time></trkpt><trkpt lat="43.63250464113547" lon="11.287935398052593"><ele>177.0</ele><time>2026-05-03T17:55:30Z</time></trkpt><trkpt lat="43.63253267589852" lon="11.288046632528337"><ele>177.0</ele><time>2026-05-03T17:55:31Z</time></trkpt><trkpt lat="43.63254543668305" lon="11.288160014938585"><ele>177.0</ele><time>2026-05-03T17:55:32Z</time></trkpt><trkpt lat="43.63256686761435" lon="11.288280496836059"><ele>177.0</ele><time>2026-05-03T17:55:33Z</time></trkpt><trkpt lat="43.632568126362926" lon="11.288402123090826"><ele>176.6</ele><time>2026-05-03T17:55:34Z</time></trkpt><trkpt lat="43.63258208555528" lon="11.288489115956066"><ele>176.2</ele><time>2026-05-03T17:55:35Z</time></trkpt><trkpt lat="43.63266900212694" lon="11.288597252091689"><ele>175.8</ele><time>2026-05-03T17:55:37Z</time></trkpt><trkpt lat="43.632779774928316" lon="11.28861034763321"><ele>175.4</ele><time>2026-05-03T17:55:39Z</time></trkpt><trkpt lat="43.6328854524237" lon="11.288604652633875"><ele>175.0</ele><time>2026-05-03T17:55:41Z</time></trkpt><trkpt lat="43.632948385129346" lon="11.288594335769936"><ele>177.33333333333334</ele><time>2026-05-03T17:55:42Z</time></trkpt><trkpt lat="43.6330161991467" lon="11.288590561560989"><ele>179.66666666666669</ele><time>2026-05-03T17:55:43Z</time></trkpt><trkpt lat="43.633080607428944" lon="11.288577678032567"><ele>182.0</ele><time>2026-05-03T17:55:44Z</time></trkpt><trkpt lat="43.633178280514464" lon="11.288595657671546"><ele>184.33333333333334</ele><time>2026-05-03T17:55:46Z</time></trkpt><trkpt lat="43.63311106776366" lon="11.288670977317922"><ele>186.66666666666666</ele><time>2026-05-03T17:56:24Z</time></trkpt><trkpt lat="43.63303517881944" lon="11.288721858208179"><ele>189.0</ele><time>2026-05-03T17:56:26Z</time></trkpt><trkpt lat="43.63298018260769" lon="11.288770139243884"><ele>189.0</ele><time>2026-05-03T17:56:28Z</time></trkpt><trkpt lat="43.632926329261714" lon="11.288829842103677"><ele>189.0</ele><time>2026-05-03T17:56:30Z</time></trkpt><trkpt lat="43.63286768708653" lon="11.288870714111036"><ele>189.0</ele><time>2026-05-03T17:56:32Z</time></trkpt><trkpt lat="43.6327997996175" lon="11.288921236014266"><ele>189.0</ele><time>2026-05-03T17:56:34Z</time></trkpt><trkpt lat="43.632748033984186" lon="11.288975917006274"><ele>189.0</ele><time>2026-05-03T17:56:36Z</time></trkpt><trkpt lat="43.632677034212634" lon="11.289010984458288"><ele>189.0</ele><time>2026-05-03T17:56:42Z</time></trkpt><trkpt lat="43.63262521738824" lon="11.289061642738758"><ele>189.0</ele><time>2026-05-03T17:56:45Z</time></trkpt><trkpt lat="43.63255313748345" lon="11.289104371752792"><ele>187.0</ele><time>2026-05-03T17:57:21.999Z</time></trkpt><trkpt lat="43.63250374920543" lon="11.28916725186446"><ele>185.0</ele><time>2026-05-03T17:57:23.999Z</time></trkpt><trkpt lat="43.632430661555865" lon="11.289230917334157"><ele>183.0</ele><time>2026-05-03T17:57:26.999Z</time></trkpt><trkpt lat="43.63236014761416" lon="11.289308028231265"><ele>181.0</ele><time>2026-05-03T17:57:30Z</time></trkpt><trkpt lat="43.63234294423001" lon="11.289397703152654"><ele>179.0</ele><time>2026-05-03T17:57:34Z</time></trkpt><trkpt lat="43.632319674432516" lon="11.289501665979268"><ele>177.0</ele><time>2026-05-03T17:57:38Z</time></trkpt><trkpt lat="43.63228443271175" lon="11.289609298531026"><ele>177.0</ele><time>2026-05-03T17:57:41Z</time></trkpt><trkpt lat="43.632301502594224" lon="11.289719712807967"><ele>177.0</ele><time>2026-05-03T17:57:43Z</time></trkpt><trkpt lat="43.63229965425784" lon="11.289808903937773"><ele>177.0</ele><time>2026-05-03T17:57:45Z</time></trkpt><trkpt lat="43.632265577458895" lon="11.289908804729611"><ele>177.0</ele><time>2026-05-03T17:57:48Z</time></trkpt><trkpt lat="43.632274433522575" lon="11.290020841744804"><ele>177.0</ele><time>2026-05-03T17:57:51Z</time></trkpt><trkpt lat="43.632286871436186" lon="11.290153567219098"><ele>177.0</ele><time>2026-05-03T17:57:53Z</time></trkpt><trkpt lat="43.63234533439845" lon="11.290348205242129"><ele>177.83333333333334</ele><time>2026-05-03T17:57:55Z</time></trkpt><trkpt lat="43.6323572709555" lon="11.290434750426714"><ele>178.66666666666666</ele><time>2026-05-03T17:57:57Z</time></trkpt><trkpt lat="43.632450253756375" lon="11.290392569611056"><ele>179.5</ele><time>2026-05-03T17:58:11Z</time></trkpt><trkpt lat="43.63250101975918" lon="11.290327640498722"><ele>180.33333333333331</ele><time>2026-05-03T17:58:13Z</time></trkpt><trkpt lat="43.632585873599254" lon="11.290346415267186"><ele>181.16666666666666</ele><time>2026-05-03T17:58:16Z</time></trkpt><trkpt lat="43.63264961865528" lon="11.290382675555762"><ele>182.0</ele><time>2026-05-03T17:58:19Z</time></trkpt><trkpt lat="43.63256092393323" lon="11.290340225640382"><ele>182.0</ele><time>2026-05-03T17:58:37Z</time></trkpt><trkpt lat="43.63248420852367" lon="11.290348992105628"><ele>182.0</ele><time>2026-05-03T17:58:39Z</time></trkpt><trkpt lat="43.632421115774434" lon="11.290413621752055"><ele>182.0</ele><time>2026-05-03T17:58:41Z</time></trkpt><trkpt lat="43.632346171376724" lon="11.29047613881176"><ele>182.0</ele><time>2026-05-03T17:58:43Z</time></trkpt><trkpt lat="43.63229789092477" lon="11.290414568028615"><ele>182.0</ele><time>2026-05-03T17:58:47Z</time></trkpt><trkpt lat="43.632234326025035" lon="11.290329627307129"><ele>182.0</ele><time>2026-05-03T17:58:50Z</time></trkpt><trkpt lat="43.63217712797555" lon="11.290263984373304"><ele>182.0</ele><time>2026-05-03T17:58:53Z</time></trkpt><trkpt lat="43.63210539109803" lon="11.290185036812312"><ele>182.0</ele><time>2026-05-03T17:58:55Z</time></trkpt><trkpt lat="43.63206316568156" lon="11.290109126022807"><ele>182.0</ele><time>2026-05-03T17:58:57Z</time></trkpt><trkpt lat="43.63200950079214" lon="11.290003709141855"><ele>182.0</ele><time>2026-05-03T17:59:00Z</time></trkpt><trkpt lat="43.63197703407606" lon="11.28990318422213"><ele>182.0</ele><time>2026-05-03T17:59:02Z</time></trkpt><trkpt lat="43.63197261319727" lon="11.289814975661445"><ele>182.0</ele><time>2026-05-03T17:59:03.999Z</time></trkpt><trkpt lat="43.63195921231044" lon="11.289714384868654"><ele>182.6</ele><time>2026-05-03T17:59:05.999Z</time></trkpt><trkpt lat="43.63193797727815" lon="11.28961968661174"><ele>183.2</ele><time>2026-05-03T17:59:07.999Z</time></trkpt><trkpt lat="43.63193444552155" lon="11.289492407487332"><ele>183.8</ele><time>2026-05-03T17:59:10.999Z</time></trkpt><trkpt lat="43.63191829869718" lon="11.289345124230513"><ele>184.4</ele><time>2026-05-03T17:59:12.999Z</time></trkpt><trkpt lat="43.63191242270005" lon="11.289177048784094"><ele>185.0</ele><time>2026-05-03T17:59:14.999Z</time></trkpt><trkpt lat="43.63189639816677" lon="11.28906004136939"><ele>185.0</ele><time>2026-05-03T17:59:16.999Z</time></trkpt><trkpt lat="43.631859745720774" lon="11.288949501391995"><ele>185.0</ele><time>2026-05-03T17:59:18.999Z</time></trkpt><trkpt lat="43.63183680289421" lon="11.288820538336758"><ele>185.0</ele><time>2026-05-03T17:59:20.999Z</time></trkpt><trkpt lat="43.63183060662899" lon="11.288709486816726"><ele>185.0</ele><time>2026-05-03T17:59:22.999Z</time></trkpt><trkpt lat="43.63177749208754" lon="11.288589108023155"><ele>185.0</ele><time>2026-05-03T17:59:25.999Z</time></trkpt><trkpt lat="43.631702373982506" lon="11.288510766218565"><ele>184.0</ele><time>2026-05-03T17:59:27.999Z</time></trkpt><trkpt lat="43.631635581932244" lon="11.288423707207778"><ele>183.0</ele><time>2026-05-03T17:59:30.999Z</time></trkpt><trkpt lat="43.63157451623742" lon="11.288331234177736"><ele>182.0</ele><time>2026-05-03T17:59:41Z</time></trkpt><trkpt lat="43.63147962181209" lon="11.288235933391285"><ele>181.0</ele><time>2026-05-03T17:59:44Z</time></trkpt><trkpt lat="43.63146090335734" lon="11.288123245923998"><ele>180.0</ele><time>2026-05-03T17:59:47Z</time></trkpt><trkpt lat="43.63145662218754" lon="11.288031984631507"><ele>178.5</ele><time>2026-05-03T17:59:50Z</time></trkpt><trkpt lat="43.63141192197696" lon="11.287945191098878"><ele>177.0</ele><time>2026-05-03T17:59:53Z</time></trkpt><trkpt lat="43.631378814732365" lon="11.287810141116495"><ele>175.5</ele><time>2026-05-03T17:59:55Z</time></trkpt><trkpt lat="43.63125683355792" lon="11.287635847968275"><ele>174.0</ele><time>2026-05-03T17:59:57Z</time></trkpt><trkpt lat="43.63116280792125" lon="11.287572941538881"><ele>176.39999999999998</ele><time>2026-05-03T17:59:58Z</time></trkpt><trkpt lat="43.63105291211464" lon="11.287527799679797"><ele>178.8</ele><time>2026-05-03T17:59:59Z</time></trkpt><trkpt lat="43.63095188624182" lon="11.287499590457827"><ele>181.2</ele><time>2026-05-03T18:00:00Z</time></trkpt><trkpt lat="43.630863708324874" lon="11.287496921847143"><ele>183.60000000000002</ele><time>2026-05-03T18:00:01Z</time></trkpt><trkpt lat="43.63078880568843" lon="11.287520068130894"><ele>186.0</ele><time>2026-05-03T18:00:02Z</time></trkpt><trkpt lat="43.630703602436405" lon="11.287419220027235"><ele>186.0</ele><time>2026-05-03T18:00:04Z</time></trkpt><trkpt lat="43.630701838272145" lon="11.28731318842833"><ele>186.0</ele><time>2026-05-03T18:00:05Z</time></trkpt><trkpt lat="43.63069400145623" lon="11.287178219339054"><ele>186.0</ele><time>2026-05-03T18:00:06Z</time></trkpt><trkpt lat="43.63066338839693" lon="11.287068600914315"><ele>186.0</ele><time>2026-05-03T18:00:07Z</time></trkpt><trkpt lat="43.630613283622246" lon="11.286995961814284"><ele>186.0</ele><time>2026-05-03T18:00:08Z</time></trkpt><trkpt lat="43.63055484250254" lon="11.286935650290637"><ele>186.0</ele><time>2026-05-03T18:00:09Z</time></trkpt><trkpt lat="43.6304800564929" lon="11.286904986045098"><ele>185.5</ele><time>2026-05-03T18:00:10Z</time></trkpt><trkpt lat="43.63038123857697" lon="11.286884769837094"><ele>185.0</ele><time>2026-05-03T18:00:11Z</time></trkpt><trkpt lat="43.63030075517458" lon="11.28686339220943"><ele>184.5</ele><time>2026-05-03T18:00:12Z</time></trkpt><trkpt lat="43.630209735704234" lon="11.286830948268925"><ele>184.0</ele><time>2026-05-03T18:00:13Z</time></trkpt><trkpt lat="43.630148324898606" lon="11.286769876981296"><ele>183.5</ele><time>2026-05-03T18:00:14Z</time></trkpt><trkpt lat="43.63008517662813" lon="11.286716761958807"><ele>183.0</ele><time>2026-05-03T18:00:15Z</time></trkpt><trkpt lat="43.63001441474837" lon="11.286640396415308"><ele>184.66666666666666</ele><time>2026-05-03T18:00:16Z</time></trkpt><trkpt lat="43.62994782287332" lon="11.286555328612"><ele>186.33333333333331</ele><time>2026-05-03T18:00:17Z</time></trkpt><trkpt lat="43.629895425367444" lon="11.28646466430269"><ele>188.0</ele><time>2026-05-03T18:00:18Z</time></trkpt><trkpt lat="43.629842389764846" lon="11.28635884741636"><ele>189.66666666666666</ele><time>2026-05-03T18:00:19Z</time></trkpt><trkpt lat="43.629805483759135" lon="11.286258084667072"><ele>191.33333333333331</ele><time>2026-05-03T18:00:20Z</time></trkpt><trkpt lat="43.62978099763538" lon="11.28617782781776"><ele>193.0</ele><time>2026-05-03T18:00:21Z</time></trkpt><trkpt lat="43.629668860801125" lon="11.286078463400987"><ele>193.0</ele><time>2026-05-03T18:00:23Z</time></trkpt><trkpt lat="43.629586014057494" lon="11.286063161827215"><ele>193.0</ele><time>2026-05-03T18:00:24Z</time></trkpt><trkpt lat="43.62948798065596" lon="11.28600593546621"><ele>193.0</ele><time>2026-05-03T18:00:25Z</time></trkpt><trkpt lat="43.629385080970685" lon="11.285955956154021"><ele>193.0</ele><time>2026-05-03T18:00:26Z</time></trkpt><trkpt lat="43.629295169145884" lon="11.285913041972416"><ele>193.0</ele><time>2026-05-03T18:00:27Z</time></trkpt><trkpt lat="43.62923634435418" lon="11.28588079577162"><ele>194.0</ele><time>2026-05-03T18:00:28Z</time></trkpt><trkpt lat="43.62913786440644" lon="11.285855871783557"><ele>195.0</ele><time>2026-05-03T18:00:30Z</time></trkpt><trkpt lat="43.629064286264665" lon="11.285986420271776"><ele>196.0</ele><time>2026-05-03T18:00:32Z</time></trkpt><trkpt lat="43.62904002136783" lon="11.286082326398569"><ele>197.0</ele><time>2026-05-03T18:00:33Z</time></trkpt><trkpt lat="43.629022320950504" lon="11.286181770701482"><ele>198.0</ele><time>2026-05-03T18:00:34Z</time></trkpt><trkpt lat="43.62898764495942" lon="11.286289914115951"><ele>198.0</ele><time>2026-05-03T18:00:35Z</time></trkpt><trkpt lat="43.62894783214384" lon="11.28640952634809"><ele>198.0</ele><time>2026-05-03T18:00:36Z</time></trkpt><trkpt lat="43.62890871314348" lon="11.286518675405409"><ele>198.0</ele><time>2026-05-03T18:00:37Z</time></trkpt><trkpt lat="43.6288667224698" lon="11.286631824077553"><ele>198.0</ele><time>2026-05-03T18:00:38Z</time></trkpt><trkpt lat="43.62883998824168" lon="11.286727183371026"><ele>198.0</ele><time>2026-05-03T18:00:39Z</time></trkpt><trkpt lat="43.6287999196999" lon="11.28682659354284"><ele>198.0</ele><time>2026-05-03T18:00:40Z</time></trkpt><trkpt lat="43.62875895977883" lon="11.286910668529387"><ele>198.14285714285714</ele><time>2026-05-03T18:00:41Z</time></trkpt><trkpt lat="43.628707722112516" lon="11.286974950115773"><ele>198.28571428571428</ele><time>2026-05-03T18:00:42Z</time></trkpt><trkpt lat="43.62864173144567" lon="11.28702779369893"><ele>198.42857142857142</ele><time>2026-05-03T18:00:43Z</time></trkpt><trkpt lat="43.628578026828905" lon="11.28707499117129"><ele>198.57142857142856</ele><time>2026-05-03T18:00:44Z</time></trkpt><trkpt lat="43.62850878998015" lon="11.287100498812116"><ele>198.71428571428572</ele><time>2026-05-03T18:00:45Z</time></trkpt><trkpt lat="43.62844704386064" lon="11.287158050359956"><ele>198.85714285714283</ele><time>2026-05-03T18:00:46Z</time></trkpt><trkpt lat="43.628378403397676" lon="11.28715923467308"><ele>199.0</ele><time>2026-05-03T18:00:47Z</time></trkpt><trkpt lat="43.62831673383802" lon="11.287086427561041"><ele>200.39999999999998</ele><time>2026-05-03T18:00:48Z</time></trkpt><trkpt lat="43.62824130933153" lon="11.287079176009433"><ele>201.8</ele><time>2026-05-03T18:00:49Z</time></trkpt><trkpt lat="43.6281777460271" lon="11.287087133236765"><ele>203.2</ele><time>2026-05-03T18:00:50Z</time></trkpt><trkpt lat="43.62808093305861" lon="11.287158209908917"><ele>204.60000000000002</ele><time>2026-05-03T18:00:52Z</time></trkpt><trkpt lat="43.628130649933574" lon="11.287382001754793"><ele>206.0</ele><time>2026-05-03T18:00:53Z</time></trkpt><trkpt lat="43.62816113245877" lon="11.287533863466129"><ele>207.5</ele><time>2026-05-03T18:00:54Z</time></trkpt><trkpt lat="43.62819024067022" lon="11.287708623284253"><ele>209.0</ele><time>2026-05-03T18:00:55Z</time></trkpt><trkpt lat="43.628213496831066" lon="11.287914185399972"><ele>210.5</ele><time>2026-05-03T18:00:56Z</time></trkpt><trkpt lat="43.628231703924584" lon="11.288139458460076"><ele>212.0</ele><time>2026-05-03T18:00:57Z</time></trkpt><trkpt lat="43.62825466580242" lon="11.28834992968959"><ele>213.0</ele><time>2026-05-03T18:00:58Z</time></trkpt><trkpt lat="43.62827172662381" lon="11.288539266147849"><ele>214.0</ele><time>2026-05-03T18:00:59Z</time></trkpt><trkpt lat="43.62829158759539" lon="11.2887003483299"><ele>215.0</ele><time>2026-05-03T18:01:00Z</time></trkpt><trkpt lat="43.62831071570905" lon="11.288853860592498"><ele>216.0</ele><time>2026-05-03T18:01:01Z</time></trkpt><trkpt lat="43.628325679861526" lon="11.289003908787334"><ele>216.60000000000002</ele><time>2026-05-03T18:01:01.999Z</time></trkpt><trkpt lat="43.628338675199736" lon="11.289152845613964"><ele>217.20000000000002</ele><time>2026-05-03T18:01:02.999Z</time></trkpt><trkpt lat="43.6283427557626" lon="11.289287768750343"><ele>217.79999999999998</ele><time>2026-05-03T18:01:03.999Z</time></trkpt><trkpt lat="43.62833735820311" lon="11.2894174159224"><ele>218.39999999999998</ele><time>2026-05-03T18:01:04.999Z</time></trkpt><trkpt lat="43.62833082376694" lon="11.2895542399041"><ele>219.0</ele><time>2026-05-03T18:01:05.999Z</time></trkpt><trkpt lat="43.62834489976011" lon="11.289693282266537"><ele>219.6</ele><time>2026-05-03T18:01:06.999Z</time></trkpt><trkpt lat="43.62837342239047" lon="11.289830840002914"><ele>220.2</ele><time>2026-05-03T18:01:07.999Z</time></trkpt><trkpt lat="43.628408796976316" lon="11.289960158023579"><ele>220.79999999999998</ele><time>2026-05-03T18:01:08.999Z</time></trkpt><trkpt lat="43.62844987323944" lon="11.29008018338825"><ele>221.39999999999998</ele><time>2026-05-03T18:01:09.999Z</time></trkpt><trkpt lat="43.62851147195885" lon="11.290181805432296"><ele>222.0</ele><time>2026-05-03T18:01:10.999Z</time></trkpt><trkpt lat="43.62858929555725" lon="11.290262487772834"><ele>222.0</ele><time>2026-05-03T18:01:11.999Z</time></trkpt><trkpt lat="43.62868276482795" lon="11.29031599245664"><ele>222.0</ele><time>2026-05-03T18:01:12.999Z</time></trkpt><trkpt lat="43.62877407988639" lon="11.2903720600978"><ele>222.0</ele><time>2026-05-03T18:01:13.999Z</time></trkpt><trkpt lat="43.62886774047723" lon="11.290433649715807"><ele>222.0</ele><time>2026-05-03T18:01:14.999Z</time></trkpt><trkpt lat="43.62895604568927" lon="11.29050250893851"><ele>222.0</ele><time>2026-05-03T18:01:15.999Z</time></trkpt><trkpt lat="43.6290353207037" lon="11.29057372928641"><ele>223.33333333333334</ele><time>2026-05-03T18:01:16.999Z</time></trkpt><trkpt lat="43.62911146639184" lon="11.290634563121335"><ele>224.66666666666669</ele><time>2026-05-03T18:01:17.999Z</time></trkpt><trkpt lat="43.62919453876315" lon="11.290706973552332"><ele>226.0</ele><time>2026-05-03T18:01:18.999Z</time></trkpt><trkpt lat="43.629253864850455" lon="11.290777640081274"><ele>227.33333333333334</ele><time>2026-05-03T18:01:19.999Z</time></trkpt><trkpt lat="43.629309422338665" lon="11.290870783313514"><ele>228.66666666666669</ele><time>2026-05-03T18:01:20.999Z</time></trkpt><trkpt lat="43.62934389390672" lon="11.29098458539801"><ele>230.0</ele><time>2026-05-03T18:01:21.999Z</time></trkpt><trkpt lat="43.62935968987329" lon="11.291117752192852"><ele>230.0</ele><time>2026-05-03T18:01:22.999Z</time></trkpt><trkpt lat="43.629367135920994" lon="11.291274838977934"><ele>230.0</ele><time>2026-05-03T18:01:23.999Z</time></trkpt><trkpt lat="43.62936099243054" lon="11.291436921981092"><ele>230.0</ele><time>2026-05-03T18:01:24.999Z</time></trkpt><trkpt lat="43.629358262201116" lon="11.291593046812809"><ele>230.0</ele><time>2026-05-03T18:01:25.999Z</time></trkpt><trkpt lat="43.62935779335642" lon="11.291739534503323"><ele>230.66666666666669</ele><time>2026-05-03T18:01:26.999Z</time></trkpt><trkpt lat="43.62936016452866" lon="11.291864384603139"><ele>231.33333333333334</ele><time>2026-05-03T18:01:27.999Z</time></trkpt><trkpt lat="43.62936373574934" lon="11.291970764241926"><ele>232.0</ele><time>2026-05-03T18:01:28.999Z</time></trkpt><trkpt lat="43.62935314340818" lon="11.292069705056386"><ele>232.66666666666669</ele><time>2026-05-03T18:01:29.999Z</time></trkpt><trkpt lat="43.629329176597004" lon="11.2921790616684"><ele>233.33333333333334</ele><time>2026-05-03T18:01:30.999Z</time></trkpt><trkpt lat="43.62926727044072" lon="11.292258630799328"><ele>234.0</ele><time>2026-05-03T18:01:31.999Z</time></trkpt><trkpt lat="43.62919583313544" lon="11.29228445265781"><ele>234.0</ele><time>2026-05-03T18:01:32.999Z</time></trkpt><trkpt lat="43.62911983955976" lon="11.292232945973165"><ele>233.99999999999997</ele><time>2026-05-03T18:01:33.999Z</time></trkpt><trkpt lat="43.62902928518579" lon="11.292231481844444"><ele>233.99999999999997</ele><time>2026-05-03T18:01:34.999Z</time></trkpt><trkpt lat="43.62891447722302" lon="11.292210164615227"><ele>234.0</ele><time>2026-05-03T18:01:35.999Z</time></trkpt><trkpt lat="43.62881455619815" lon="11.292181377849397"><ele>234.0</ele><time>2026-05-03T18:01:36.999Z</time></trkpt><trkpt lat="43.62873919070225" lon="11.292220112237986"><ele>235.16666666666666</ele><time>2026-05-03T18:01:37.999Z</time></trkpt><trkpt lat="43.62868642735302" lon="11.292269560924169"><ele>236.33333333333331</ele><time>2026-05-03T18:01:38.999Z</time></trkpt><trkpt lat="43.62862468982716" lon="11.292362212943274"><ele>237.5</ele><time>2026-05-03T18:01:40Z</time></trkpt><trkpt lat="43.62854943081136" lon="11.292443123643183"><ele>238.66666666666666</ele><time>2026-05-03T18:01:41Z</time></trkpt><trkpt lat="43.62849246090347" lon="11.292542815593906"><ele>239.83333333333331</ele><time>2026-05-03T18:01:42Z</time></trkpt><trkpt lat="43.6284616949897" lon="11.29263794273315"><ele>241.0</ele><time>2026-05-03T18:01:43Z</time></trkpt><trkpt lat="43.6284455196975" lon="11.29274822090939"><ele>241.0</ele><time>2026-05-03T18:01:44Z</time></trkpt><trkpt lat="43.62846996115324" lon="11.29286852072632"><ele>241.00000000000003</ele><time>2026-05-03T18:01:45Z</time></trkpt><trkpt lat="43.62854524090087" lon="11.292965120882924"><ele>241.00000000000003</ele><time>2026-05-03T18:01:46Z</time></trkpt><trkpt lat="43.62865688903255" lon="11.292991091743202"><ele>241.0</ele><time>2026-05-03T18:01:47Z</time></trkpt><trkpt lat="43.62871982855337" lon="11.293060499995434"><ele>241.0</ele><time>2026-05-03T18:01:48Z</time></trkpt><trkpt lat="43.62875149100577" lon="11.29314611052781"><ele>242.20000000000002</ele><time>2026-05-03T18:01:49Z</time></trkpt><trkpt lat="43.62876516366396" lon="11.293265309483518"><ele>243.40000000000003</ele><time>2026-05-03T18:01:50Z</time></trkpt><trkpt lat="43.62877014255247" lon="11.293400716292071"><ele>244.6</ele><time>2026-05-03T18:01:51Z</time></trkpt><trkpt lat="43.62876792743479" lon="11.293550366312775"><ele>245.8</ele><time>2026-05-03T18:01:52Z</time></trkpt><trkpt lat="43.628777708471176" lon="11.293690511503897"><ele>247.0</ele><time>2026-05-03T18:01:53Z</time></trkpt><trkpt lat="43.628782624377806" lon="11.293827792911825"><ele>247.83333333333331</ele><time>2026-05-03T18:01:54Z</time></trkpt><trkpt lat="43.62877513073847" lon="11.293925236206983"><ele>248.66666666666666</ele><time>2026-05-03T18:01:55Z</time></trkpt><trkpt lat="43.62872711815024" lon="11.29399922421796"><ele>249.5</ele><time>2026-05-03T18:01:56Z</time></trkpt><trkpt lat="43.62865834783575" lon="11.294020834164261"><ele>250.33333333333331</ele><time>2026-05-03T18:01:57Z</time></trkpt><trkpt lat="43.628597907590525" lon="11.293987028321354"><ele>251.16666666666666</ele><time>2026-05-03T18:01:58Z</time></trkpt><trkpt lat="43.62853143752968" lon="11.293908950165715"><ele>252.0</ele><time>2026-05-03T18:01:59Z</time></trkpt><trkpt lat="43.62844642634864" lon="11.293837425920115"><ele>252.2</ele><time>2026-05-03T18:02:00Z</time></trkpt><trkpt lat="43.628374949370155" lon="11.293807924505684"><ele>252.39999999999998</ele><time>2026-05-03T18:02:01Z</time></trkpt><trkpt lat="43.62825211919957" lon="11.293907066324223"><ele>252.60000000000002</ele><time>2026-05-03T18:02:03Z</time></trkpt><trkpt lat="43.62819262430467" lon="11.294026462991571"><ele>252.8</ele><time>2026-05-03T18:02:04Z</time></trkpt><trkpt lat="43.62815167012471" lon="11.294160156262025"><ele>253.0</ele><time>2026-05-03T18:02:05Z</time></trkpt><trkpt lat="43.628104496997" lon="11.294298470038898"><ele>255.25</ele><time>2026-05-03T18:02:06Z</time></trkpt><trkpt lat="43.628049194018324" lon="11.294463762062497"><ele>257.5</ele><time>2026-05-03T18:02:07Z</time></trkpt><trkpt lat="43.62798790180526" lon="11.294638535949034"><ele>259.75</ele><time>2026-05-03T18:02:08Z</time></trkpt><trkpt lat="43.62793503105154" lon="11.294799883313571"><ele>262.0</ele><time>2026-05-03T18:02:09Z</time></trkpt><trkpt lat="43.627859502897806" lon="11.294955580159197"><ele>264.0</ele><time>2026-05-03T18:02:10Z</time></trkpt><trkpt lat="43.62780973543456" lon="11.295128535826349"><ele>266.0</ele><time>2026-05-03T18:02:11Z</time></trkpt><trkpt lat="43.627752654618085" lon="11.295281618670012"><ele>268.0</ele><time>2026-05-03T18:02:12Z</time></trkpt><trkpt lat="43.62771216812824" lon="11.29540634175198"><ele>270.0</ele><time>2026-05-03T18:02:13Z</time></trkpt><trkpt lat="43.627683172393496" lon="11.295527449710534"><ele>271.2</ele><time>2026-05-03T18:02:14Z</time></trkpt><trkpt lat="43.62765530969518" lon="11.295661281116582"><ele>272.4</ele><time>2026-05-03T18:02:15Z</time></trkpt><trkpt lat="43.62764164339515" lon="11.295810185910241"><ele>273.6</ele><time>2026-05-03T18:02:16Z</time></trkpt><trkpt lat="43.62758944211532" lon="11.295941426799711"><ele>274.8</ele><time>2026-05-03T18:02:17Z</time></trkpt><trkpt lat="43.62754890919135" lon="11.296095746853675"><ele>276.0</ele><time>2026-05-03T18:02:18Z</time></trkpt><trkpt lat="43.62750701638672" lon="11.296259313575383"><ele>276.5</ele><time>2026-05-03T18:02:19Z</time></trkpt><trkpt lat="43.627463024303616" lon="11.29642060239983"><ele>277.0</ele><time>2026-05-03T18:02:20Z</time></trkpt><trkpt lat="43.62741419354188" lon="11.29657869873763"><ele>277.5</ele><time>2026-05-03T18:02:21Z</time></trkpt><trkpt lat="43.627360000983124" lon="11.296751887846478"><ele>278.0</ele><time>2026-05-03T18:02:22Z</time></trkpt><trkpt lat="43.62730688050684" lon="11.296947201736295"><ele>278.0</ele><time>2026-05-03T18:02:23Z</time></trkpt><trkpt lat="43.62725316886378" lon="11.297151938681731"><ele>278.0</ele><time>2026-05-03T18:02:24Z</time></trkpt><trkpt lat="43.62719920339337" lon="11.297357643488402"><ele>278.0</ele><time>2026-05-03T18:02:25Z</time></trkpt><trkpt lat="43.62716197302026" lon="11.297562938052724"><ele>277.8</ele><time>2026-05-03T18:02:26Z</time></trkpt><trkpt lat="43.62711172735814" lon="11.297725646348034"><ele>277.6</ele><time>2026-05-03T18:02:27Z</time></trkpt><trkpt lat="43.62706456501986" lon="11.297873399677115"><ele>277.4</ele><time>2026-05-03T18:02:28Z</time></trkpt><trkpt lat="43.627052443669406" lon="11.298018498925464"><ele>277.2</ele><time>2026-05-03T18:02:29Z</time></trkpt><trkpt lat="43.62703101952161" lon="11.298147339604784"><ele>277.0</ele><time>2026-05-03T18:02:30Z</time></trkpt><trkpt lat="43.627032271243074" lon="11.298292378670563"><ele>277.5</ele><time>2026-05-03T18:02:31Z</time></trkpt><trkpt lat="43.627065055657596" lon="11.298463716784942"><ele>278.0</ele><time>2026-05-03T18:02:32Z</time></trkpt><trkpt lat="43.62710702005452" lon="11.298653832781985"><ele>278.5</ele><time>2026-05-03T18:02:33Z</time></trkpt><trkpt lat="43.627165688724084" lon="11.29887868755744"><ele>279.0</ele><time>2026-05-03T18:02:34Z</time></trkpt><trkpt lat="43.627207203991034" lon="11.299141097749605"><ele>280.0</ele><time>2026-05-03T18:02:35Z</time></trkpt><trkpt lat="43.627276667296556" lon="11.299385846322728"><ele>281.0</ele><time>2026-05-03T18:02:36Z</time></trkpt><trkpt lat="43.62732393639431" lon="11.299628279271564"><ele>282.0</ele><time>2026-05-03T18:02:37Z</time></trkpt><trkpt lat="43.627375294706425" lon="11.29982685995339"><ele>282.5</ele><time>2026-05-03T18:02:38Z</time></trkpt><trkpt lat="43.62742466674062" lon="11.300009860017594"><ele>283.0</ele><time>2026-05-03T18:02:39Z</time></trkpt><trkpt lat="43.627458142173886" lon="11.300193101848233"><ele>283.5</ele><time>2026-05-03T18:02:40Z</time></trkpt><trkpt lat="43.62748489487953" lon="11.300393620960481"><ele>284.0</ele><time>2026-05-03T18:02:41Z</time></trkpt><trkpt lat="43.62750136496996" lon="11.300576995333365"><ele>284.0</ele><time>2026-05-03T18:02:42Z</time></trkpt><trkpt lat="43.62751863000516" lon="11.300757497947691"><ele>284.0</ele><time>2026-05-03T18:02:43Z</time></trkpt><trkpt lat="43.62756888323578" lon="11.30093565375909"><ele>284.0</ele><time>2026-05-03T18:02:44Z</time></trkpt><trkpt lat="43.62764290981244" lon="11.301112235527848"><ele>284.0</ele><time>2026-05-03T18:02:45Z</time></trkpt><trkpt lat="43.62771121966542" lon="11.301289160340692"><ele>284.25</ele><time>2026-05-03T18:02:46Z</time></trkpt><trkpt lat="43.627730927298416" lon="11.301476543638822"><ele>284.5</ele><time>2026-05-03T18:02:47Z</time></trkpt><trkpt lat="43.62779682961332" lon="11.301619061179752"><ele>284.75</ele><time>2026-05-03T18:02:48Z</time></trkpt><trkpt lat="43.62784955747609" lon="11.30175650136459"><ele>285.0</ele><time>2026-05-03T18:02:49Z</time></trkpt><trkpt lat="43.6279379266051" lon="11.301885128552719"><ele>285.25</ele><time>2026-05-03T18:02:50Z</time></trkpt><trkpt lat="43.62804099043761" lon="11.302018451812502"><ele>285.5</ele><time>2026-05-03T18:02:51Z</time></trkpt><trkpt lat="43.62813618093731" lon="11.302191477061701"><ele>285.75</ele><time>2026-05-03T18:02:52Z</time></trkpt><trkpt lat="43.62825023114529" lon="11.302315243278118"><ele>286.0</ele><time>2026-05-03T18:02:53Z</time></trkpt><trkpt lat="43.628354085876076" lon="11.302407872471646"><ele>286.5</ele><time>2026-05-03T18:02:54Z</time></trkpt><trkpt lat="43.628449927393994" lon="11.30248345240486"><ele>287.0</ele><time>2026-05-03T18:02:55Z</time></trkpt><trkpt lat="43.628559214955246" lon="11.302537287506512"><ele>287.5</ele><time>2026-05-03T18:02:56Z</time></trkpt><trkpt lat="43.62868915939401" lon="11.302565966485266"><ele>288.0</ele><time>2026-05-03T18:02:57Z</time></trkpt><trkpt lat="43.628825624948284" lon="11.302535592240472"><ele>286.5</ele><time>2026-05-03T18:02:58Z</time></trkpt><trkpt lat="43.628954215384255" lon="11.302506952197383"><ele>285.0</ele><time>2026-05-03T18:02:59Z</time></trkpt><trkpt lat="43.62907352790714" lon="11.302499045498196"><ele>283.5</ele><time>2026-05-03T18:03:00Z</time></trkpt><trkpt lat="43.62918332048705" lon="11.302483450445079"><ele>282.0</ele><time>2026-05-03T18:03:01Z</time></trkpt><trkpt lat="43.62929285239234" lon="11.302467386920036"><ele>282.0</ele><time>2026-05-03T18:03:02Z</time></trkpt><trkpt lat="43.62941268850978" lon="11.30250773493461"><ele>282.0</ele><time>2026-05-03T18:03:03Z</time></trkpt><trkpt lat="43.629537828340396" lon="11.30253091344817"><ele>282.0</ele><time>2026-05-03T18:03:04Z</time></trkpt><trkpt lat="43.6296706224192" lon="11.302566286082689"><ele>282.0</ele><time>2026-05-03T18:03:04.999Z</time></trkpt><trkpt lat="43.62978682189354" lon="11.30259850960784"><ele>281.75</ele><time>2026-05-03T18:03:05.999Z</time></trkpt><trkpt lat="43.62989126471201" lon="11.30261833442963"><ele>281.5</ele><time>2026-05-03T18:03:06.999Z</time></trkpt><trkpt lat="43.62999135071376" lon="11.302607602868965"><ele>281.25</ele><time>2026-05-03T18:03:07.999Z</time></trkpt><trkpt lat="43.63009421385164" lon="11.302566300964388"><ele>281.0</ele><time>2026-05-03T18:03:08.999Z</time></trkpt><trkpt lat="43.630200651928625" lon="11.302439517373314"><ele>280.5</ele><time>2026-05-03T18:03:09.999Z</time></trkpt><trkpt lat="43.63032180702457" lon="11.302349258672752"><ele>280.0</ele><time>2026-05-03T18:03:10.999Z</time></trkpt><trkpt lat="43.63041785077067" lon="11.302253655682295"><ele>279.5</ele><time>2026-05-03T18:03:11.999Z</time></trkpt><trkpt lat="43.63050753179305" lon="11.30215078980403"><ele>279.0</ele><time>2026-05-03T18:03:12.999Z</time></trkpt><trkpt lat="43.63061404150714" lon="11.302099282257341"><ele>276.0</ele><time>2026-05-03T18:03:13.999Z</time></trkpt><trkpt lat="43.630707465344706" lon="11.3020192907116"><ele>273.0</ele><time>2026-05-03T18:03:14.999Z</time></trkpt><trkpt lat="43.63081291174323" lon="11.301980796055057"><ele>270.0</ele><time>2026-05-03T18:03:15.999Z</time></trkpt><trkpt lat="43.630919139848274" lon="11.301926216340677"><ele>267.0</ele><time>2026-05-03T18:03:16.999Z</time></trkpt><trkpt lat="43.63101951428589" lon="11.301883417313297"><ele>264.0</ele><time>2026-05-03T18:03:17.999Z</time></trkpt><trkpt lat="43.63112205104031" lon="11.30185339544943"><ele>263.4</ele><time>2026-05-03T18:03:18.999Z</time></trkpt><trkpt lat="43.631209881633175" lon="11.301838334834187"><ele>262.79999999999995</ele><time>2026-05-03T18:03:19.999Z</time></trkpt><trkpt lat="43.63130097723694" lon="11.301829167512604"><ele>262.20000000000005</ele><time>2026-05-03T18:03:20.999Z</time></trkpt><trkpt lat="43.63139425329928" lon="11.301820194803375"><ele>261.6</ele><time>2026-05-03T18:03:21.999Z</time></trkpt><trkpt lat="43.63149110733943" lon="11.301810877906501"><ele>261.0</ele><time>2026-05-03T18:03:22.999Z</time></trkpt><trkpt lat="43.63158184649997" lon="11.3017946999102"><ele>261.0</ele><time>2026-05-03T18:03:23.999Z</time></trkpt><trkpt lat="43.63166053273924" lon="11.301754520279186"><ele>261.0</ele><time>2026-05-03T18:03:24.999Z</time></trkpt><trkpt lat="43.6317348109005" lon="11.301725186235009"><ele>261.0</ele><time>2026-05-03T18:03:25.999Z</time></trkpt><trkpt lat="43.63179131866884" lon="11.301653846003182"><ele>261.0</ele><time>2026-05-03T18:03:26.999Z</time></trkpt><trkpt lat="43.63186388029085" lon="11.30156424318863"><ele>261.0</ele><time>2026-05-03T18:03:27.999Z</time></trkpt><trkpt lat="43.63193721542854" lon="11.301479019555048"><ele>261.0</ele><time>2026-05-03T18:03:28.999Z</time></trkpt><trkpt lat="43.63199725455433" lon="11.301412444317734"><ele>259.25</ele><time>2026-05-03T18:03:29.999Z</time></trkpt><trkpt lat="43.63208521282265" lon="11.301350580592603"><ele>257.5</ele><time>2026-05-03T18:03:31.999Z</time></trkpt><trkpt lat="43.63215857365187" lon="11.301586060297888"><ele>255.75</ele><time>2026-05-03T18:03:34.999Z</time></trkpt><trkpt lat="43.63218213356969" lon="11.301742428321441"><ele>254.0</ele><time>2026-05-03T18:03:35.999Z</time></trkpt><trkpt lat="43.63220182881951" lon="11.30194429697423"><ele>253.2</ele><time>2026-05-03T18:03:36.999Z</time></trkpt><trkpt lat="43.632248276804845" lon="11.30212706828394"><ele>252.39999999999998</ele><time>2026-05-03T18:03:37.999Z</time></trkpt><trkpt lat="43.6322743308774" lon="11.302254758168267"><ele>251.6</ele><time>2026-05-03T18:03:38.999Z</time></trkpt><trkpt lat="43.632308733891534" lon="11.302361010136968"><ele>250.8</ele><time>2026-05-03T18:03:39.999Z</time></trkpt><trkpt lat="43.63236147435555" lon="11.302464456389696"><ele>250.0</ele><time>2026-05-03T18:03:40.999Z</time></trkpt><trkpt lat="43.63239884332897" lon="11.302584718769419"><ele>249.8</ele><time>2026-05-03T18:03:41.999Z</time></trkpt><trkpt lat="43.63243044127099" lon="11.302696314144255"><ele>249.6</ele><time>2026-05-03T18:03:42.999Z</time></trkpt><trkpt lat="43.63241899139191" lon="11.302825264206074"><ele>249.39999999999998</ele><time>2026-05-03T18:03:43.999Z</time></trkpt><trkpt lat="43.63239247108501" lon="11.30295071272005"><ele>249.2</ele><time>2026-05-03T18:03:44.999Z</time></trkpt><trkpt lat="43.63237856942162" lon="11.30310167222915"><ele>249.0</ele><time>2026-05-03T18:03:46Z</time></trkpt><trkpt lat="43.63234668972047" lon="11.303245092460184"><ele>248.6</ele><time>2026-05-03T18:03:47Z</time></trkpt><trkpt lat="43.63230670496386" lon="11.303399383228408"><ele>248.2</ele><time>2026-05-03T18:03:48Z</time></trkpt><trkpt lat="43.63226432894323" lon="11.303524279798571"><ele>247.79999999999998</ele><time>2026-05-03T18:03:49Z</time></trkpt><trkpt lat="43.63218573485255" lon="11.30360698332891"><ele>247.39999999999998</ele><time>2026-05-03T18:03:50Z</time></trkpt><trkpt lat="43.63216367654262" lon="11.303707273655013"><ele>247.0</ele><time>2026-05-03T18:03:51Z</time></trkpt><trkpt lat="43.63218698237583" lon="11.303860547744447"><ele>247.0</ele><time>2026-05-03T18:03:53Z</time></trkpt><trkpt lat="43.632243488374854" lon="11.30394275613002"><ele>247.0</ele><time>2026-05-03T18:03:54Z</time></trkpt><trkpt lat="43.632250615096524" lon="11.304047456040731"><ele>247.0</ele><time>2026-05-03T18:03:55Z</time></trkpt><trkpt lat="43.63224197606196" lon="11.30414866017708"><ele>247.0</ele><time>2026-05-03T18:03:56Z</time></trkpt><trkpt lat="43.63223042842991" lon="11.30430297315256"><ele>247.0</ele><time>2026-05-03T18:03:57Z</time></trkpt><trkpt lat="43.632251045419" lon="11.30446115356587"><ele>247.0</ele><time>2026-05-03T18:03:58Z</time></trkpt><trkpt lat="43.63226833941792" lon="11.304626626768913"><ele>247.0</ele><time>2026-05-03T18:03:59Z</time></trkpt><trkpt lat="43.63230683778539" lon="11.304758308439455"><ele>247.0</ele><time>2026-05-03T18:04:00Z</time></trkpt><trkpt lat="43.632340805133076" lon="11.304902401374576"><ele>247.0</ele><time>2026-05-03T18:04:01Z</time></trkpt><trkpt lat="43.632306474158824" lon="11.305015322412666"><ele>247.0</ele><time>2026-05-03T18:04:02Z</time></trkpt><trkpt lat="43.6323106980272" lon="11.305124975387278"><ele>247.2</ele><time>2026-05-03T18:04:03Z</time></trkpt><trkpt lat="43.63225946094593" lon="11.305223357068625"><ele>247.39999999999998</ele><time>2026-05-03T18:04:04Z</time></trkpt><trkpt lat="43.632216534855736" lon="11.305320211317717"><ele>247.60000000000002</ele><time>2026-05-03T18:04:05Z</time></trkpt><trkpt lat="43.63227020551438" lon="11.305477062192722"><ele>247.8</ele><time>2026-05-03T18:04:07Z</time></trkpt><trkpt lat="43.63234763336534" lon="11.305559009124746"><ele>248.0</ele><time>2026-05-03T18:04:08Z</time></trkpt><trkpt lat="43.632431983841336" lon="11.305660623249466"><ele>248.25</ele><time>2026-05-03T18:04:09Z</time></trkpt><trkpt lat="43.63246684855348" lon="11.305781050560089"><ele>248.5</ele><time>2026-05-03T18:04:10Z</time></trkpt><trkpt lat="43.63248860135167" lon="11.305932389212332"><ele>248.75</ele><time>2026-05-03T18:04:11Z</time></trkpt><trkpt lat="43.63254092498474" lon="11.306103190868933"><ele>249.0</ele><time>2026-05-03T18:04:12Z</time></trkpt><trkpt lat="43.6326233284929" lon="11.306268969101492"><ele>250.2</ele><time>2026-05-03T18:04:13Z</time></trkpt><trkpt lat="43.63266099061981" lon="11.306415390052582"><ele>251.39999999999998</ele><time>2026-05-03T18:04:14Z</time></trkpt><trkpt lat="43.632697291209126" lon="11.306580072491505"><ele>252.6</ele><time>2026-05-03T18:04:15Z</time></trkpt><trkpt lat="43.63273387805352" lon="11.306709375390842"><ele>253.8</ele><time>2026-05-03T18:04:16Z</time></trkpt><trkpt lat="43.63273759807761" lon="11.30685014868006"><ele>255.0</ele><time>2026-05-03T18:04:17Z</time></trkpt><trkpt lat="43.63274235468258" lon="11.30699430437465"><ele>255.0</ele><time>2026-05-03T18:04:18Z</time></trkpt><trkpt lat="43.63276590859182" lon="11.307140209473268"><ele>255.0</ele><time>2026-05-03T18:04:19Z</time></trkpt><trkpt lat="43.6328086419395" lon="11.30727894179245"><ele>255.0</ele><time>2026-05-03T18:04:20Z</time></trkpt><trkpt lat="43.63285897725199" lon="11.307465856932106"><ele>255.0</ele><time>2026-05-03T18:04:21Z</time></trkpt><trkpt lat="43.63289325197707" lon="11.307650232940935"><ele>252.0</ele><time>2026-05-03T18:04:22Z</time></trkpt><trkpt lat="43.63292481286552" lon="11.307785766424159"><ele>249.0</ele><time>2026-05-03T18:04:23Z</time></trkpt><trkpt lat="43.63293414170536" lon="11.307915178145109"><ele>246.0</ele><time>2026-05-03T18:04:24Z</time></trkpt><trkpt lat="43.63292882874201" lon="11.308068284377452"><ele>243.0</ele><time>2026-05-03T18:04:25Z</time></trkpt><trkpt lat="43.63293197219635" lon="11.308213218957356"><ele>240.0</ele><time>2026-05-03T18:04:26Z</time></trkpt><trkpt lat="43.632937613782154" lon="11.308375649631936"><ele>240.0</ele><time>2026-05-03T18:04:27Z</time></trkpt><trkpt lat="43.63291977720695" lon="11.308504427489488"><ele>240.0</ele><time>2026-05-03T18:04:28Z</time></trkpt><trkpt lat="43.63288890801446" lon="11.30863440392608"><ele>240.0</ele><time>2026-05-03T18:04:29Z</time></trkpt><trkpt lat="43.63284144217487" lon="11.30879766020777"><ele>240.0</ele><time>2026-05-03T18:04:30Z</time></trkpt><trkpt lat="43.632797326065024" lon="11.30896258561937"><ele>240.0</ele><time>2026-05-03T18:04:31Z</time></trkpt><trkpt lat="43.63277212830374" lon="11.309087567557306"><ele>241.33333333333334</ele><time>2026-05-03T18:04:32Z</time></trkpt><trkpt lat="43.63276136094224" lon="11.309190355172015"><ele>242.66666666666669</ele><time>2026-05-03T18:04:33Z</time></trkpt><trkpt lat="43.63277558075288" lon="11.309295912325396"><ele>244.0</ele><time>2026-05-03T18:04:34Z</time></trkpt><trkpt lat="43.63286626623744" lon="11.309387887934854"><ele>245.33333333333334</ele><time>2026-05-03T18:04:36Z</time></trkpt><trkpt lat="43.63293773875833" lon="11.309399804207196"><ele>246.66666666666669</ele><time>2026-05-03T18:04:37Z</time></trkpt><trkpt lat="43.633017185001435" lon="11.309392584352945"><ele>248.0</ele><time>2026-05-03T18:04:38Z</time></trkpt><trkpt lat="43.633105121545405" lon="11.30935957631295"><ele>248.0</ele><time>2026-05-03T18:04:39Z</time></trkpt><trkpt lat="43.6331959045191" lon="11.309282013747165"><ele>248.0</ele><time>2026-05-03T18:04:40Z</time></trkpt><trkpt lat="43.633297975019936" lon="11.309249350135325"><ele>248.0</ele><time>2026-05-03T18:04:41Z</time></trkpt><trkpt lat="43.63337372654025" lon="11.30922776655899"><ele>248.0</ele><time>2026-05-03T18:04:42Z</time></trkpt><trkpt lat="43.63349835945829" lon="11.309240892565075"><ele>248.0</ele><time>2026-05-03T18:04:44Z</time></trkpt><trkpt lat="43.63356658028876" lon="11.309271539367801"><ele>247.4</ele><time>2026-05-03T18:04:45Z</time></trkpt><trkpt lat="43.63364863764901" lon="11.309329105782817"><ele>246.8</ele><time>2026-05-03T18:04:46Z</time></trkpt><trkpt lat="43.63372014984286" lon="11.309406817487778"><ele>246.2</ele><time>2026-05-03T18:04:47Z</time></trkpt><trkpt lat="43.633797866390886" lon="11.309476656815146"><ele>245.6</ele><time>2026-05-03T18:04:48Z</time></trkpt><trkpt lat="43.633893976735656" lon="11.309538679257189"><ele>245.0</ele><time>2026-05-03T18:04:49Z</time></trkpt><trkpt lat="43.63398946251902" lon="11.30953498474553"><ele>245.00000000000003</ele><time>2026-05-03T18:04:50Z</time></trkpt><trkpt lat="43.6340553406374" lon="11.309582965353151"><ele>245.0</ele><time>2026-05-03T18:04:51Z</time></trkpt><trkpt lat="43.63412748529256" lon="11.309597258828001"><ele>245.0</ele><time>2026-05-03T18:04:52Z</time></trkpt><trkpt lat="43.63421328786768" lon="11.309607311704072"><ele>245.0</ele><time>2026-05-03T18:04:53Z</time></trkpt><trkpt lat="43.63429593938626" lon="11.309635411822846"><ele>245.00000000000003</ele><time>2026-05-03T18:04:54Z</time></trkpt><trkpt lat="43.63437520805987" lon="11.309697877378657"><ele>245.0</ele><time>2026-05-03T18:04:55Z</time></trkpt><trkpt lat="43.63447534349608" lon="11.309780722914008"><ele>244.83333333333334</ele><time>2026-05-03T18:04:56Z</time></trkpt><trkpt lat="43.634551667746706" lon="11.309839959347084"><ele>244.66666666666669</ele><time>2026-05-03T18:04:57Z</time></trkpt><trkpt lat="43.63465056938957" lon="11.309817267655923"><ele>244.5</ele><time>2026-05-03T18:04:59Z</time></trkpt><trkpt lat="43.63468490805532" lon="11.309711127012767"><ele>244.33333333333331</ele><time>2026-05-03T18:05:00Z</time></trkpt><trkpt lat="43.63472925351805" lon="11.30959603860314"><ele>244.16666666666666</ele><time>2026-05-03T18:05:01Z</time></trkpt><trkpt lat="43.63479431751178" lon="11.309545762240115"><ele>244.0</ele><time>2026-05-03T18:05:02Z</time></trkpt><trkpt lat="43.63486056294286" lon="11.30958093226781"><ele>243.99999999999997</ele><time>2026-05-03T18:05:03Z</time></trkpt><trkpt lat="43.63492363605035" lon="11.309626495380645"><ele>244.0</ele><time>2026-05-03T18:05:04Z</time></trkpt><trkpt lat="43.63501067422985" lon="11.309709537750567"><ele>244.0</ele><time>2026-05-03T18:05:05Z</time></trkpt><trkpt lat="43.635077714926446" lon="11.309828734378222"><ele>244.0</ele><time>2026-05-03T18:05:06Z</time></trkpt><trkpt lat="43.6351255878788" lon="11.309889504144175"><ele>243.99999999999997</ele><time>2026-05-03T18:05:06.999Z</time></trkpt><trkpt lat="43.63518829915421" lon="11.309904886278046"><ele>244.0</ele><time>2026-05-03T18:05:07.999Z</time></trkpt><trkpt lat="43.635267117892845" lon="11.309934557840574"><ele>246.39999999999998</ele><time>2026-05-03T18:05:08.999Z</time></trkpt><trkpt lat="43.63535291431143" lon="11.309985536654379"><ele>248.79999999999998</ele><time>2026-05-03T18:05:09.999Z</time></trkpt><trkpt lat="43.63548505696214" lon="11.309961642182987"><ele>251.20000000000002</ele><time>2026-05-03T18:05:11.999Z</time></trkpt><trkpt lat="43.635583284869824" lon="11.309909807925166"><ele>253.60000000000002</ele><time>2026-05-03T18:05:12.999Z</time></trkpt><trkpt lat="43.63566760788744" lon="11.309894800174197"><ele>256.0</ele><time>2026-05-03T18:05:13.999Z</time></trkpt><trkpt lat="43.63576575455641" lon="11.309908228156038"><ele>255.99999999999997</ele><time>2026-05-03T18:05:14.999Z</time></trkpt><trkpt lat="43.63586315904548" lon="11.309917710346054"><ele>256.0</ele><time>2026-05-03T18:05:15.999Z</time></trkpt><trkpt lat="43.63594022618933" lon="11.309921362163207"><ele>256.0</ele><time>2026-05-03T18:05:16.999Z</time></trkpt><trkpt lat="43.63601647149821" lon="11.309930827249744"><ele>256.0</ele><time>2026-05-03T18:05:17.999Z</time></trkpt><trkpt lat="43.63607807408917" lon="11.30995714587059"><ele>255.99999999999997</ele><time>2026-05-03T18:05:18.999Z</time></trkpt><trkpt lat="43.636131612637676" lon="11.310019721151974"><ele>256.0</ele><time>2026-05-03T18:05:19.999Z</time></trkpt><trkpt lat="43.63617196006497" lon="11.310100421304178"><ele>255.66666666666666</ele><time>2026-05-03T18:05:20.999Z</time></trkpt><trkpt lat="43.63621202926011" lon="11.310194093942782"><ele>255.33333333333331</ele><time>2026-05-03T18:05:21.999Z</time></trkpt><trkpt lat="43.6362367168829" lon="11.310283434814794"><ele>255.0</ele><time>2026-05-03T18:05:22.999Z</time></trkpt><trkpt lat="43.63625320405023" lon="11.310388595443492"><ele>254.66666666666669</ele><time>2026-05-03T18:05:23.999Z</time></trkpt><trkpt lat="43.636257239520006" lon="11.310488377382827"><ele>254.33333333333334</ele><time>2026-05-03T18:05:24.999Z</time></trkpt><trkpt lat="43.63626063453423" lon="11.310609965711532"><ele>254.0</ele><time>2026-05-03T18:05:25.999Z</time></trkpt><trkpt lat="43.63627192745302" lon="11.310713768270624"><ele>255.50000000000003</ele><time>2026-05-03T18:05:26.999Z</time></trkpt><trkpt lat="43.63629871606039" lon="11.310818251613531"><ele>257.0</ele><time>2026-05-03T18:05:27.999Z</time></trkpt><trkpt lat="43.63635779911243" lon="11.310896248336725"><ele>258.5</ele><time>2026-05-03T18:05:28.999Z</time></trkpt><trkpt lat="43.63644127511096" lon="11.310954862185744"><ele>260.0</ele><time>2026-05-03T18:05:29.999Z</time></trkpt><trkpt lat="43.636521953327026" lon="11.311013198538069"><ele>261.5</ele><time>2026-05-03T18:05:30.999Z</time></trkpt><trkpt lat="43.63659535553528" lon="11.311073786395536"><ele>263.0</ele><time>2026-05-03T18:05:31.999Z</time></trkpt><trkpt lat="43.63666612978628" lon="11.311136160773675"><ele>263.0</ele><time>2026-05-03T18:05:32.999Z</time></trkpt><trkpt lat="43.6367367262224" lon="11.31121374016028"><ele>263.0</ele><time>2026-05-03T18:05:33.999Z</time></trkpt><trkpt lat="43.63680200727114" lon="11.31129802524937"><ele>263.0</ele><time>2026-05-03T18:05:34.999Z</time></trkpt><trkpt lat="43.636863511598264" lon="11.311394890684733"><ele>263.0</ele><time>2026-05-03T18:05:35.999Z</time></trkpt><trkpt lat="43.636923707112594" lon="11.311496513575623"><ele>263.0</ele><time>2026-05-03T18:05:36.999Z</time></trkpt><trkpt lat="43.6369820274053" lon="11.31159967613276"><ele>263.6666666666667</ele><time>2026-05-03T18:05:37.999Z</time></trkpt><trkpt lat="43.637040039726934" lon="11.311702636391491"><ele>264.33333333333337</ele><time>2026-05-03T18:05:38.999Z</time></trkpt><trkpt lat="43.63708917937428" lon="11.311798918426724"><ele>265.0</ele><time>2026-05-03T18:05:39.999Z</time></trkpt><trkpt lat="43.63713678511546" lon="11.31189959307016"><ele>265.6666666666667</ele><time>2026-05-03T18:05:40.999Z</time></trkpt><trkpt lat="43.637183311685014" lon="11.311996868859088"><ele>266.3333333333333</ele><time>2026-05-03T18:05:41.999Z</time></trkpt><trkpt lat="43.63723255195791" lon="11.312098613241005"><ele>267.0</ele><time>2026-05-03T18:05:42.999Z</time></trkpt><trkpt lat="43.637284438855374" lon="11.312198286889487"><ele>268.4</ele><time>2026-05-03T18:05:43.999Z</time></trkpt><trkpt lat="43.63733577418459" lon="11.312309357474238"><ele>269.79999999999995</ele><time>2026-05-03T18:05:44.999Z</time></trkpt><trkpt lat="43.637378764127426" lon="11.31242329956396"><ele>271.2</ele><time>2026-05-03T18:05:45.999Z</time></trkpt><trkpt lat="43.63742409464618" lon="11.31254406688744"><ele>272.59999999999997</ele><time>2026-05-03T18:05:46.999Z</time></trkpt><trkpt lat="43.63745538825976" lon="11.312655061223845"><ele>274.0</ele><time>2026-05-03T18:05:47.999Z</time></trkpt><trkpt lat="43.63747737790758" lon="11.312762258395987"><ele>274.0</ele><time>2026-05-03T18:05:48.999Z</time></trkpt><trkpt lat="43.63748784131548" lon="11.312864889954108"><ele>274.0</ele><time>2026-05-03T18:05:49.999Z</time></trkpt><trkpt lat="43.637495218674864" lon="11.312965922223357"><ele>274.0</ele><time>2026-05-03T18:05:51Z</time></trkpt><trkpt lat="43.63748378653255" lon="11.31305895321601"><ele>274.0</ele><time>2026-05-03T18:05:52Z</time></trkpt><trkpt lat="43.637497799052305" lon="11.313223472846149"><ele>274.0</ele><time>2026-05-03T18:05:54Z</time></trkpt><trkpt lat="43.637524933914115" lon="11.313344542627748"><ele>274.0</ele><time>2026-05-03T18:05:56Z</time></trkpt><trkpt lat="43.637569421001444" lon="11.31341482330369"><ele>273.66666666666663</ele><time>2026-05-03T18:05:58Z</time></trkpt><trkpt lat="43.6376261646888" lon="11.313509835536285"><ele>273.3333333333333</ele><time>2026-05-03T18:06:03Z</time></trkpt><trkpt lat="43.63768894875711" lon="11.313599329204186"><ele>273.0</ele><time>2026-05-03T18:06:04Z</time></trkpt><trkpt lat="43.6377758059428" lon="11.313637937568625"><ele>272.6666666666667</ele><time>2026-05-03T18:06:05Z</time></trkpt><trkpt lat="43.63783983233675" lon="11.313678386963097"><ele>272.33333333333337</ele><time>2026-05-03T18:06:06Z</time></trkpt><trkpt lat="43.637894584211935" lon="11.313725600353479"><ele>272.0</ele><time>2026-05-03T18:06:07Z</time></trkpt><trkpt lat="43.63798788082779" lon="11.31380656916795"><ele>272.0</ele><time>2026-05-03T18:06:09Z</time></trkpt><trkpt lat="43.63803893848225" lon="11.313880764559151"><ele>272.0</ele><time>2026-05-03T18:06:12Z</time></trkpt><trkpt lat="43.63793270252638" lon="11.313953150836198"><ele>272.0</ele><time>2026-05-03T18:06:15Z</time></trkpt><trkpt lat="43.637816065623" lon="11.313954602571322"><ele>272.0</ele><time>2026-05-03T18:06:17Z</time></trkpt><trkpt lat="43.637739482749176" lon="11.313959245420063"><ele>272.0</ele><time>2026-05-03T18:06:19Z</time></trkpt><trkpt lat="43.63766916114944" lon="11.31397276600407"><ele>274.2</ele><time>2026-05-03T18:06:22Z</time></trkpt><trkpt lat="43.637600871626205" lon="11.3139680444307"><ele>276.4</ele><time>2026-05-03T18:06:55Z</time></trkpt><trkpt lat="43.637726244681495" lon="11.31401486331153"><ele>278.6</ele><time>2026-05-03T18:11:52Z</time></trkpt><trkpt lat="43.637821169950435" lon="11.314093631032232"><ele>280.8</ele><time>2026-05-03T18:11:53Z</time></trkpt><trkpt lat="43.63793889011068" lon="11.31417966621637"><ele>283.0</ele><time>2026-05-03T18:11:54Z</time></trkpt><trkpt lat="43.638019807298406" lon="11.31425656972732"><ele>283.0</ele><time>2026-05-03T18:11:55Z</time></trkpt><trkpt lat="43.63806190524304" lon="11.314360647499207"><ele>283.0</ele><time>2026-05-03T18:11:56Z</time></trkpt><trkpt lat="43.6381017340291" lon="11.314445633003682"><ele>283.0</ele><time>2026-05-03T18:11:57Z</time></trkpt><trkpt lat="43.63814605052039" lon="11.314523427934269"><ele>283.0</ele><time>2026-05-03T18:11:58Z</time></trkpt><trkpt lat="43.638198468274645" lon="11.314681145011294"><ele>283.0</ele><time>2026-05-03T18:12:00Z</time></trkpt><trkpt lat="43.63802261765266" lon="11.314824515126332"><ele>284.2</ele><time>2026-05-03T18:12:04Z</time></trkpt><trkpt lat="43.63793580051476" lon="11.314889987554974"><ele>285.4</ele><time>2026-05-03T18:12:06Z</time></trkpt><trkpt lat="43.63786823515686" lon="11.314912558804657"><ele>286.59999999999997</ele><time>2026-05-03T18:12:08Z</time></trkpt><trkpt lat="43.63778659665331" lon="11.314935283158196"><ele>287.8</ele><time>2026-05-03T18:12:10Z</time></trkpt><trkpt lat="43.637664298125436" lon="11.314969325365785"><ele>289.0</ele><time>2026-05-03T18:12:12Z</time></trkpt><trkpt lat="43.63763051110051" lon="11.315231593578702"><ele>290.3333333333333</ele><time>2026-05-03T18:12:13Z</time></trkpt><trkpt lat="43.63756809328686" lon="11.31534263888036"><ele>291.66666666666663</ele><time>2026-05-03T18:12:14Z</time></trkpt><trkpt lat="43.63752073962309" lon="11.31544242433378"><ele>293.0</ele><time>2026-05-03T18:12:15Z</time></trkpt><trkpt lat="43.63748014212662" lon="11.315521113185381"><ele>294.3333333333333</ele><time>2026-05-03T18:12:16Z</time></trkpt><trkpt lat="43.63744271512961" lon="11.315594791027959"><ele>295.6666666666667</ele><time>2026-05-03T18:12:17Z</time></trkpt><trkpt lat="43.63740089646427" lon="11.315666818764697"><ele>297.0</ele><time>2026-05-03T18:12:18Z</time></trkpt><trkpt lat="43.63731959803462" lon="11.315777036163409"><ele>298.8</ele><time>2026-05-03T18:12:20Z</time></trkpt><trkpt lat="43.63723016223128" lon="11.315888736225208"><ele>300.6</ele><time>2026-05-03T18:12:22Z</time></trkpt><trkpt lat="43.637183613823694" lon="11.315965188947407"><ele>302.40000000000003</ele><time>2026-05-03T18:12:23Z</time></trkpt><trkpt lat="43.63710502065023" lon="11.316096506803847"><ele>304.2</ele><time>2026-05-03T18:12:25Z</time></trkpt><trkpt lat="43.6370186907726" lon="11.316211619678613"><ele>306.0</ele><time>2026-05-03T18:12:27Z</time></trkpt><trkpt lat="43.63695728423653" lon="11.316269763025023"><ele>307.1428571428571</ele><time>2026-05-03T18:12:28Z</time></trkpt><trkpt lat="43.63690448237245" lon="11.316323347784826"><ele>308.2857142857143</ele><time>2026-05-03T18:12:28.999Z</time></trkpt><trkpt lat="43.6368493153863" lon="11.316395889557782"><ele>309.42857142857144</ele><time>2026-05-03T18:12:29.999Z</time></trkpt><trkpt lat="43.63678959313137" lon="11.316459302694435"><ele>310.57142857142856</ele><time>2026-05-03T18:12:30.999Z</time></trkpt><trkpt lat="43.636733651447244" lon="11.316509226541635"><ele>311.7142857142857</ele><time>2026-05-03T18:12:31.999Z</time></trkpt><trkpt lat="43.63668285974825" lon="11.316575555154827"><ele>312.85714285714283</ele><time>2026-05-03T18:12:32.999Z</time></trkpt><trkpt lat="43.636630547946275" lon="11.316644386432824"><ele>314.0</ele><time>2026-05-03T18:12:33.999Z</time></trkpt><trkpt lat="43.63655597624771" lon="11.316773584658366"><ele>315.2</ele><time>2026-05-03T18:12:35.999Z</time></trkpt><trkpt lat="43.63648171085808" lon="11.31681549676067"><ele>316.4</ele><time>2026-05-03T18:12:37.999Z</time></trkpt><trkpt lat="43.636359845819236" lon="11.316803086087976"><ele>317.6</ele><time>2026-05-03T18:12:39.999Z</time></trkpt><trkpt lat="43.636295153696025" lon="11.316794475461034"><ele>318.8</ele><time>2026-05-03T18:12:40.999Z</time></trkpt><trkpt lat="43.63617070204499" lon="11.31678157768848"><ele>320.0</ele><time>2026-05-03T18:12:42.999Z</time></trkpt><trkpt lat="43.636103522728945" lon="11.316748457665438"><ele>322.0</ele><time>2026-05-03T18:12:43.999Z</time></trkpt><trkpt lat="43.635999424383485" lon="11.316701242375338"><ele>324.0</ele><time>2026-05-03T18:12:45.999Z</time></trkpt><trkpt lat="43.63593969515441" lon="11.316735743551549"><ele>326.0</ele><time>2026-05-03T18:12:47.999Z</time></trkpt><trkpt lat="43.63596651499553" lon="11.316835054739544"><ele>328.0</ele><time>2026-05-03T18:12:49.999Z</time></trkpt><trkpt lat="43.63605598182213" lon="11.316854387124597"><ele>330.0</ele><time>2026-05-03T18:12:51.999Z</time></trkpt><trkpt lat="43.63612531340097" lon="11.316930991764599"><ele>332.0</ele><time>2026-05-03T18:12:54.999Z</time></trkpt><trkpt lat="43.63609781952294" lon="11.317033633961174"><ele>332.0</ele><time>2026-05-03T18:12:56.999Z</time></trkpt><trkpt lat="43.63607786942072" lon="11.317207205967382"><ele>332.0</ele><time>2026-05-03T18:12:58.999Z</time></trkpt><trkpt lat="43.63605682167982" lon="11.31735160248026"><ele>332.0</ele><time>2026-05-03T18:13:00.999Z</time></trkpt><trkpt lat="43.636053574130926" lon="11.317452598991975"><ele>332.0</ele><time>2026-05-03T18:13:01.999Z</time></trkpt><trkpt lat="43.63601243148158" lon="11.317595690216475"><ele>332.0</ele><time>2026-05-03T18:13:03.999Z</time></trkpt><trkpt lat="43.635923798297355" lon="11.317645448076455"><ele>333.8</ele><time>2026-05-03T18:13:05.999Z</time></trkpt><trkpt lat="43.63582897222825" lon="11.317627225077583"><ele>335.6</ele><time>2026-05-03T18:13:07.999Z</time></trkpt><trkpt lat="43.63575791874974" lon="11.317636634007473"><ele>337.40000000000003</ele><time>2026-05-03T18:13:08.999Z</time></trkpt><trkpt lat="43.63567916104617" lon="11.317655345863958"><ele>339.20000000000005</ele><time>2026-05-03T18:13:09.999Z</time></trkpt><trkpt lat="43.6355866853473" lon="11.317615754574426"><ele>341.0</ele><time>2026-05-03T18:13:11.999Z</time></trkpt><trkpt lat="43.63550914206331" lon="11.317487543456965"><ele>341.0</ele><time>2026-05-03T18:13:13.999Z</time></trkpt><trkpt lat="43.635426969131444" lon="11.317382143472393"><ele>341.0</ele><time>2026-05-03T18:13:15.999Z</time></trkpt><trkpt lat="43.635344357045426" lon="11.317387689312522"><ele>341.0</ele><time>2026-05-03T18:13:17.999Z</time></trkpt><trkpt lat="43.63525237667169" lon="11.317505967102383"><ele>341.0</ele><time>2026-05-03T18:13:19.999Z</time></trkpt><trkpt lat="43.635193468821946" lon="11.317566292222768"><ele>341.0</ele><time>2026-05-03T18:13:20.999Z</time></trkpt><trkpt lat="43.63513631645055" lon="11.317630868786418"><ele>341.83333333333337</ele><time>2026-05-03T18:13:21.999Z</time></trkpt><trkpt lat="43.635076093984296" lon="11.317702825606398"><ele>342.6666666666667</ele><time>2026-05-03T18:13:22.999Z</time></trkpt><trkpt lat="43.63501460812117" lon="11.317769582561567"><ele>343.5</ele><time>2026-05-03T18:13:23.999Z</time></trkpt><trkpt lat="43.63492950769734" lon="11.317800369905635"><ele>344.3333333333333</ele><time>2026-05-03T18:13:25.999Z</time></trkpt><trkpt lat="43.634866258849776" lon="11.317769791390521"><ele>345.16666666666663</ele><time>2026-05-03T18:13:26.999Z</time></trkpt><trkpt lat="43.63479851824019" lon="11.317754886878218"><ele>346.0</ele><time>2026-05-03T18:13:27.999Z</time></trkpt><trkpt lat="43.63472150191551" lon="11.31776113822807"><ele>346.0</ele><time>2026-05-03T18:13:28.999Z</time></trkpt><trkpt lat="43.634659295442425" lon="11.317778302998818"><ele>346.0</ele><time>2026-05-03T18:13:29.999Z</time></trkpt><trkpt lat="43.6345469305006" lon="11.317798245909758"><ele>346.0</ele><time>2026-05-03T18:13:31.999Z</time></trkpt><trkpt lat="43.63448140207589" lon="11.317790151379397"><ele>346.0</ele><time>2026-05-03T18:13:32.999Z</time></trkpt><trkpt lat="43.63441164132776" lon="11.317787420035755"><ele>346.0</ele><time>2026-05-03T18:13:34.999Z</time></trkpt><trkpt lat="43.63433375458038" lon="11.317802751506681"><ele>346.0</ele><time>2026-05-03T18:13:36.999Z</time></trkpt><trkpt lat="43.634253806852186" lon="11.31775575391282"><ele>346.66666666666663</ele><time>2026-05-03T18:13:38.999Z</time></trkpt><trkpt lat="43.634190990565145" lon="11.317770141678553"><ele>347.3333333333333</ele><time>2026-05-03T18:13:39.999Z</time></trkpt><trkpt lat="43.63413533135754" lon="11.317820015225317"><ele>348.0</ele><time>2026-05-03T18:13:40.999Z</time></trkpt><trkpt lat="43.634073953528834" lon="11.317867917111526"><ele>348.6666666666667</ele><time>2026-05-03T18:13:42Z</time></trkpt><trkpt lat="43.63395693858471" lon="11.317874049005363"><ele>349.33333333333337</ele><time>2026-05-03T18:13:44Z</time></trkpt><trkpt lat="43.63384718413245" lon="11.317825178752491"><ele>350.0</ele><time>2026-05-03T18:13:46Z</time></trkpt><trkpt lat="43.633753799670636" lon="11.317774642893424"><ele>350.0</ele><time>2026-05-03T18:13:48Z</time></trkpt><trkpt lat="43.63368602750852" lon="11.31775327246003"><ele>350.0</ele><time>2026-05-03T18:13:50Z</time></trkpt><trkpt lat="43.63362333382033" lon="11.317822117447388"><ele>350.0</ele><time>2026-05-03T18:13:52Z</time></trkpt><trkpt lat="43.63356837409099" lon="11.317889428031554"><ele>350.0</ele><time>2026-05-03T18:13:54Z</time></trkpt><trkpt lat="43.63348882620612" lon="11.317948355190978"><ele>350.0</ele><time>2026-05-03T18:13:56Z</time></trkpt><trkpt lat="43.63340095700326" lon="11.318029438904109"><ele>350.0</ele><time>2026-05-03T18:13:58Z</time></trkpt><trkpt lat="43.63330191336158" lon="11.318102372773916"><ele>353.2</ele><time>2026-05-03T18:14:00Z</time></trkpt><trkpt lat="43.63324345379792" lon="11.318145870310882"><ele>356.4</ele><time>2026-05-03T18:14:01Z</time></trkpt><trkpt lat="43.633144882078646" lon="11.31824587724105"><ele>359.6</ele><time>2026-05-03T18:14:03Z</time></trkpt><trkpt lat="43.63305848227074" lon="11.318327041296826"><ele>362.8</ele><time>2026-05-03T18:14:05Z</time></trkpt><trkpt lat="43.63298757829392" lon="11.318368760832413"><ele>366.0</ele><time>2026-05-03T18:14:07Z</time></trkpt><trkpt lat="43.63290602377193" lon="11.318425339239"><ele>366.0</ele><time>2026-05-03T18:14:09Z</time></trkpt><trkpt lat="43.63283229031777" lon="11.318486649883294"><ele>366.0</ele><time>2026-05-03T18:14:11Z</time></trkpt><trkpt lat="43.63272283312094" lon="11.318581168214811"><ele>366.0</ele><time>2026-05-03T18:14:13Z</time></trkpt><trkpt lat="43.632666501621" lon="11.3186462186388"><ele>366.0</ele><time>2026-05-03T18:14:14Z</time></trkpt><trkpt lat="43.63260747867018" lon="11.31871634387189"><ele>366.0</ele><time>2026-05-03T18:14:15Z</time></trkpt><trkpt lat="43.63255018850306" lon="11.31877559944985"><ele>366.0</ele><time>2026-05-03T18:14:16Z</time></trkpt><trkpt lat="43.632497097157376" lon="11.31882572524726"><ele>367.5</ele><time>2026-05-03T18:14:17Z</time></trkpt><trkpt lat="43.63242342271318" lon="11.318882503488307"><ele>369.0</ele><time>2026-05-03T18:14:18Z</time></trkpt><trkpt lat="43.632351461583305" lon="11.318941175508483"><ele>370.5</ele><time>2026-05-03T18:14:19Z</time></trkpt><trkpt lat="43.63228838516648" lon="11.318990073219116"><ele>372.0</ele><time>2026-05-03T18:14:20Z</time></trkpt><trkpt lat="43.632224337365024" lon="11.319043184403442"><ele>373.5</ele><time>2026-05-03T18:14:21Z</time></trkpt><trkpt lat="43.63215492582576" lon="11.319105750343212"><ele>375.0</ele><time>2026-05-03T18:14:22Z</time></trkpt><trkpt lat="43.63208920902946" lon="11.319163204575345"><ele>376.1666666666667</ele><time>2026-05-03T18:14:23Z</time></trkpt><trkpt lat="43.631995528682666" lon="11.319226477170806"><ele>377.3333333333333</ele><time>2026-05-03T18:14:25Z</time></trkpt><trkpt lat="43.63193085040563" lon="11.319178837166623"><ele>378.5</ele><time>2026-05-03T18:14:27.999Z</time></trkpt><trkpt lat="43.63187076641899" lon="11.319095926754054"><ele>379.66666666666663</ele><time>2026-05-03T18:14:29.999Z</time></trkpt><trkpt lat="43.63181275915032" lon="11.318985003520003"><ele>380.8333333333333</ele><time>2026-05-03T18:14:31.999Z</time></trkpt><trkpt lat="43.63175580885334" lon="11.318901247323533"><ele>382.0</ele><time>2026-05-03T18:14:33.999Z</time></trkpt><trkpt lat="43.63167766505399" lon="11.318900889429948"><ele>383.66666666666663</ele><time>2026-05-03T18:14:35.999Z</time></trkpt><trkpt lat="43.6315996524879" lon="11.318964594441502"><ele>385.3333333333333</ele><time>2026-05-03T18:14:37.999Z</time></trkpt><trkpt lat="43.631544499570666" lon="11.319021293589065"><ele>387.0</ele><time>2026-05-03T18:14:38.999Z</time></trkpt><trkpt lat="43.631462439656595" lon="11.31905603845718"><ele>388.66666666666663</ele><time>2026-05-03T18:14:39.999Z</time></trkpt><trkpt lat="43.63139384921331" lon="11.319079637678877"><ele>390.3333333333333</ele><time>2026-05-03T18:14:40.999Z</time></trkpt><trkpt lat="43.63131996149837" lon="11.319200034273296"><ele>392.0</ele><time>2026-05-03T18:14:42.999Z</time></trkpt><trkpt lat="43.631308476636995" lon="11.319288998047051"><ele>392.0</ele><time>2026-05-03T18:14:43.999Z</time></trkpt><trkpt lat="43.631309265914595" lon="11.319402800674592"><ele>392.0</ele><time>2026-05-03T18:14:44.999Z</time></trkpt><trkpt lat="43.63132833475672" lon="11.319507334616667"><ele>392.0</ele><time>2026-05-03T18:14:45.999Z</time></trkpt><trkpt lat="43.63133849275882" lon="11.319687244327367"><ele>392.0</ele><time>2026-05-03T18:14:47.999Z</time></trkpt><trkpt lat="43.63136731990401" lon="11.319832880074177"><ele>392.0</ele><time>2026-05-03T18:14:49.999Z</time></trkpt><trkpt lat="43.6314146971021" lon="11.31989732558506"><ele>394.0</ele><time>2026-05-03T18:14:50.999Z</time></trkpt><trkpt lat="43.63143210319879" lon="11.320068133817793"><ele>396.0</ele><time>2026-05-03T18:14:52.999Z</time></trkpt><trkpt lat="43.631421000694026" lon="11.32018594813062"><ele>398.0</ele><time>2026-05-03T18:14:53.999Z</time></trkpt><trkpt lat="43.63141397011106" lon="11.320316617270999"><ele>400.0</ele><time>2026-05-03T18:14:54.999Z</time></trkpt><trkpt lat="43.63140067920303" lon="11.320432897732822"><ele>402.0</ele><time>2026-05-03T18:14:55.999Z</time></trkpt><trkpt lat="43.63139703935525" lon="11.320538561273775"><ele>404.20000000000005</ele><time>2026-05-03T18:14:56.999Z</time></trkpt><trkpt lat="43.631342666694515" lon="11.320697825985773"><ele>406.4</ele><time>2026-05-03T18:14:58.999Z</time></trkpt><trkpt lat="43.63129501660923" lon="11.320755235320528"><ele>408.6</ele><time>2026-05-03T18:14:59.999Z</time></trkpt><trkpt lat="43.631242451898224" lon="11.320823583990908"><ele>410.79999999999995</ele><time>2026-05-03T18:15:00.999Z</time></trkpt><trkpt lat="43.63116456842058" lon="11.320874529353935"><ele>413.0</ele><time>2026-05-03T18:15:01.999Z</time></trkpt><trkpt lat="43.63105552160537" lon="11.320908806520649"><ele>413.0</ele><time>2026-05-03T18:15:02.999Z</time></trkpt><trkpt lat="43.6309209480406" lon="11.320929407197001"><ele>413.0</ele><time>2026-05-03T18:15:03.999Z</time></trkpt><trkpt lat="43.63079652903664" lon="11.320976734375337"><ele>413.0</ele><time>2026-05-03T18:15:04.999Z</time></trkpt><trkpt lat="43.630673688731555" lon="11.321026661732802"><ele>413.0</ele><time>2026-05-03T18:15:05.999Z</time></trkpt><trkpt lat="43.63057229730871" lon="11.321051328473123"><ele>413.0</ele><time>2026-05-03T18:15:06.999Z</time></trkpt><trkpt lat="43.63048945360469" lon="11.32107938150804"><ele>413.0</ele><time>2026-05-03T18:15:07.999Z</time></trkpt><trkpt lat="43.630409212754415" lon="11.321115044324863"><ele>413.0</ele><time>2026-05-03T18:15:08.999Z</time></trkpt><trkpt lat="43.630342320069836" lon="11.321141475578706"><ele>413.0</ele><time>2026-05-03T18:15:09.999Z</time></trkpt><trkpt lat="43.63023910078419" lon="11.321225902234557"><ele>413.0</ele><time>2026-05-03T18:15:11.999Z</time></trkpt><trkpt lat="43.63016959240233" lon="11.32131114081982"><ele>412.16666666666663</ele><time>2026-05-03T18:15:12.999Z</time></trkpt><trkpt lat="43.63009710274415" lon="11.321389223777762"><ele>411.3333333333333</ele><time>2026-05-03T18:15:13.999Z</time></trkpt><trkpt lat="43.6300236210781" lon="11.321456187353375"><ele>410.5</ele><time>2026-05-03T18:15:14.999Z</time></trkpt><trkpt lat="43.629952343895404" lon="11.321510022760616"><ele>409.66666666666663</ele><time>2026-05-03T18:15:15.999Z</time></trkpt><trkpt lat="43.62988592467692" lon="11.321629589913243"><ele>408.8333333333333</ele><time>2026-05-03T18:15:17.999Z</time></trkpt><trkpt lat="43.629872389168156" lon="11.32172191058024"><ele>408.0</ele><time>2026-05-03T18:15:18.999Z</time></trkpt><trkpt lat="43.62983767058026" lon="11.321820135379141"><ele>408.79999999999995</ele><time>2026-05-03T18:15:19.999Z</time></trkpt><trkpt lat="43.62978720109198" lon="11.321882433767296"><ele>409.6</ele><time>2026-05-03T18:15:20.999Z</time></trkpt><trkpt lat="43.6297059670203" lon="11.321954067860984"><ele>410.4</ele><time>2026-05-03T18:15:21.999Z</time></trkpt><trkpt lat="43.62962827055436" lon="11.322032596087187"><ele>411.20000000000005</ele><time>2026-05-03T18:15:22.999Z</time></trkpt><trkpt lat="43.62957283275269" lon="11.322095658620787"><ele>412.0</ele><time>2026-05-03T18:15:23.999Z</time></trkpt><trkpt lat="43.62946649609411" lon="11.322199177869239"><ele>414.40000000000003</ele><time>2026-05-03T18:15:25.999Z</time></trkpt><trkpt lat="43.62938766305536" lon="11.32225883159625"><ele>416.8</ele><time>2026-05-03T18:15:27.999Z</time></trkpt><trkpt lat="43.629374892790594" lon="11.322354212549731"><ele>419.2</ele><time>2026-05-03T18:15:29.999Z</time></trkpt><trkpt lat="43.629396941049116" lon="11.322491143878784"><ele>421.6</ele><time>2026-05-03T18:15:31.999Z</time></trkpt><trkpt lat="43.62938369481039" lon="11.322659660994498"><ele>424.0</ele><time>2026-05-03T18:15:33.999Z</time></trkpt><trkpt lat="43.62936127364384" lon="11.322805067372466"><ele>424.0</ele><time>2026-05-03T18:15:35.999Z</time></trkpt><trkpt lat="43.62936308658817" lon="11.322976111370725"><ele>424.0</ele><time>2026-05-03T18:15:37.999Z</time></trkpt><trkpt lat="43.62936287964248" lon="11.32307072988295"><ele>424.0</ele><time>2026-05-03T18:15:38.999Z</time></trkpt><trkpt lat="43.629353284628436" lon="11.323165081517415"><ele>424.0</ele><time>2026-05-03T18:15:39.999Z</time></trkpt><trkpt lat="43.62933596798902" lon="11.323296528025802"><ele>424.0</ele><time>2026-05-03T18:15:40.999Z</time></trkpt><trkpt lat="43.62933275993673" lon="11.323426821520282"><ele>426.1666666666667</ele><time>2026-05-03T18:15:41.999Z</time></trkpt><trkpt lat="43.62931667086019" lon="11.323542299831686"><ele>428.33333333333337</ele><time>2026-05-03T18:15:42.999Z</time></trkpt><trkpt lat="43.62930623001273" lon="11.32366327786316"><ele>430.5</ele><time>2026-05-03T18:15:43.999Z</time></trkpt><trkpt lat="43.629300472445536" lon="11.323754168283969"><ele>432.66666666666663</ele><time>2026-05-03T18:15:44.999Z</time></trkpt><trkpt lat="43.629294332421814" lon="11.323853027532072"><ele>434.8333333333333</ele><time>2026-05-03T18:15:45.999Z</time></trkpt><trkpt lat="43.62930816843829" lon="11.323996048928569"><ele>437.0</ele><time>2026-05-03T18:15:48Z</time></trkpt><trkpt lat="43.62923108010849" lon="11.324088995114554"><ele>439.3333333333333</ele><time>2026-05-03T18:15:50Z</time></trkpt><trkpt lat="43.629185087820396" lon="11.324160789906342"><ele>441.66666666666663</ele><time>2026-05-03T18:15:52Z</time></trkpt><trkpt lat="43.62917742818929" lon="11.324254097953006"><ele>444.0</ele><time>2026-05-03T18:15:53Z</time></trkpt><trkpt lat="43.629176295942585" lon="11.32434153229725"><ele>446.33333333333337</ele><time>2026-05-03T18:15:54Z</time></trkpt><trkpt lat="43.629196626443374" lon="11.324456624804583"><ele>448.6666666666667</ele><time>2026-05-03T18:15:56Z</time></trkpt><trkpt lat="43.62916243690847" lon="11.324585033338769"><ele>451.0</ele><time>2026-05-03T18:15:58Z</time></trkpt><trkpt lat="43.62912492859816" lon="11.324690725924965"><ele>454.6</ele><time>2026-05-03T18:16:00Z</time></trkpt><trkpt lat="43.62911950276074" lon="11.324827907410807"><ele>458.20000000000005</ele><time>2026-05-03T18:16:02Z</time></trkpt><trkpt lat="43.629104782818686" lon="11.324967289123142"><ele>461.79999999999995</ele><time>2026-05-03T18:16:04Z</time></trkpt><trkpt lat="43.62911292434487" lon="11.325107324918404"><ele>465.4</ele><time>2026-05-03T18:16:06Z</time></trkpt><trkpt lat="43.629111476114055" lon="11.325236578003548"><ele>469.0</ele><time>2026-05-03T18:16:08Z</time></trkpt><trkpt lat="43.62901446889559" lon="11.325371692528524"><ele>469.00000000000006</ele><time>2026-05-03T18:16:10Z</time></trkpt><trkpt lat="43.62895350377194" lon="11.325434547728715"><ele>469.0</ele><time>2026-05-03T18:16:11Z</time></trkpt><trkpt lat="43.62891373118096" lon="11.325576398484067"><ele>469.0</ele><time>2026-05-03T18:16:13Z</time></trkpt><trkpt lat="43.628892553420116" lon="11.325661171323512"><ele>469.0</ele><time>2026-05-03T18:16:14Z</time></trkpt><trkpt lat="43.62884927284051" lon="11.325750072066619"><ele>469.00000000000006</ele><time>2026-05-03T18:16:15Z</time></trkpt><trkpt lat="43.62878235877077" lon="11.325836022725012"><ele>469.0</ele><time>2026-05-03T18:16:17Z</time></trkpt><trkpt lat="43.62873487672822" lon="11.325958272825524"><ele>470.0</ele><time>2026-05-03T18:16:19Z</time></trkpt><trkpt lat="43.62873380962298" lon="11.326108460328781"><ele>471.0</ele><time>2026-05-03T18:16:21Z</time></trkpt><trkpt lat="43.628682800121815" lon="11.326233408090578"><ele>472.0</ele><time>2026-05-03T18:16:23Z</time></trkpt><trkpt lat="43.62863764998858" lon="11.326309291122431"><ele>473.0</ele><time>2026-05-03T18:16:24Z</time></trkpt><trkpt lat="43.62858313153142" lon="11.326399221492812"><ele>474.0</ele><time>2026-05-03T18:16:25Z</time></trkpt><trkpt lat="43.628522208502076" lon="11.326530083322547"><ele>477.2</ele><time>2026-05-03T18:16:27Z</time></trkpt><trkpt lat="43.62846056334989" lon="11.326593452651945"><ele>480.4</ele><time>2026-05-03T18:16:29Z</time></trkpt><trkpt lat="43.62832742816416" lon="11.326568645480771"><ele>483.6</ele><time>2026-05-03T18:16:30.999Z</time></trkpt><trkpt lat="43.628258877483916" lon="11.326571866305997"><ele>486.8</ele><time>2026-05-03T18:16:31.999Z</time></trkpt><trkpt lat="43.62814573945375" lon="11.326581772867"><ele>490.0</ele><time>2026-05-03T18:16:33.999Z</time></trkpt><trkpt lat="43.62808090955628" lon="11.326597792978923"><ele>490.0</ele><time>2026-05-03T18:16:34.999Z</time></trkpt><trkpt lat="43.6279559787072" lon="11.32664414373574"><ele>490.0</ele><time>2026-05-03T18:16:36.999Z</time></trkpt><trkpt lat="43.62787578510868" lon="11.32667601421125"><ele>490.0</ele><time>2026-05-03T18:16:37.999Z</time></trkpt><trkpt lat="43.62779471683358" lon="11.326744997861567"><ele>490.0</ele><time>2026-05-03T18:16:38.999Z</time></trkpt><trkpt lat="43.627683673214385" lon="11.326817478855737"><ele>490.0</ele><time>2026-05-03T18:16:40.999Z</time></trkpt><trkpt lat="43.627626819260286" lon="11.32685506690227"><ele>488.83333333333337</ele><time>2026-05-03T18:16:41.999Z</time></trkpt><trkpt lat="43.62754989850323" lon="11.326878361423947"><ele>487.6666666666667</ele><time>2026-05-03T18:16:42.999Z</time></trkpt><trkpt lat="43.62748920292429" lon="11.32692855834474"><ele>486.5</ele><time>2026-05-03T18:16:43.999Z</time></trkpt><trkpt lat="43.62743747287464" lon="11.326980085062585"><ele>485.33333333333337</ele><time>2026-05-03T18:16:44.999Z</time></trkpt><trkpt lat="43.62732455468827" lon="11.327052937066433"><ele>484.1666666666667</ele><time>2026-05-03T18:16:46.999Z</time></trkpt><trkpt lat="43.627255527393835" lon="11.32708992129537"><ele>483.0</ele><time>2026-05-03T18:16:47.999Z</time></trkpt><trkpt lat="43.62719612098219" lon="11.32714674504477"><ele>483.0</ele><time>2026-05-03T18:16:48.999Z</time></trkpt><trkpt lat="43.62713885081337" lon="11.327215459963144"><ele>483.0</ele><time>2026-05-03T18:16:49.999Z</time></trkpt><trkpt lat="43.627080414808084" lon="11.327308884909133"><ele>483.0</ele><time>2026-05-03T18:16:50.999Z</time></trkpt><trkpt lat="43.62703486533952" lon="11.327384238800446"><ele>483.0</ele><time>2026-05-03T18:16:51.999Z</time></trkpt><trkpt lat="43.62697969850827" lon="11.32742713974574"><ele>483.0</ele><time>2026-05-03T18:16:52.999Z</time></trkpt><trkpt lat="43.626903364716135" lon="11.32743866137391"><ele>483.0</ele><time>2026-05-03T18:16:53.999Z</time></trkpt><trkpt lat="43.62682409978561" lon="11.327431406922544"><ele>485.0</ele><time>2026-05-03T18:16:54.999Z</time></trkpt><trkpt lat="43.626708999261204" lon="11.327412123353312"><ele>486.99999999999994</ele><time>2026-05-03T18:16:56.999Z</time></trkpt><trkpt lat="43.62658651433106" lon="11.327481553441086"><ele>488.99999999999994</ele><time>2026-05-03T18:16:58.999Z</time></trkpt><trkpt lat="43.62651966053191" lon="11.327527116500795"><ele>491.0</ele><time>2026-05-03T18:16:59.999Z</time></trkpt><trkpt lat="43.626438983156" lon="11.327538020465756"><ele>493.0</ele><time>2026-05-03T18:17:00.999Z</time></trkpt><trkpt lat="43.626358158742676" lon="11.327532026285322"><ele>493.00000000000006</ele><time>2026-05-03T18:17:01.999Z</time></trkpt><trkpt lat="43.626264932175495" lon="11.327523610326784"><ele>493.0</ele><time>2026-05-03T18:17:02.999Z</time></trkpt><trkpt lat="43.626195487208456" lon="11.327540361788403"><ele>493.0</ele><time>2026-05-03T18:17:03.999Z</time></trkpt><trkpt lat="43.62611676231092" lon="11.327552272765384"><ele>493.0</ele><time>2026-05-03T18:17:04.999Z</time></trkpt><trkpt lat="43.62603415255186" lon="11.32754868081355"><ele>493.00000000000006</ele><time>2026-05-03T18:17:05.999Z</time></trkpt><trkpt lat="43.62596014669646" lon="11.327550401539177"><ele>493.0</ele><time>2026-05-03T18:17:06.999Z</time></trkpt><trkpt lat="43.62585080361399" lon="11.327572807446213"><ele>491.59999999999997</ele><time>2026-05-03T18:17:08.999Z</time></trkpt><trkpt lat="43.62578203649565" lon="11.32760011629734"><ele>490.19999999999993</ele><time>2026-05-03T18:17:09.999Z</time></trkpt><trkpt lat="43.6257160872906" lon="11.327633909559005"><ele>488.8</ele><time>2026-05-03T18:17:10.999Z</time></trkpt><trkpt lat="43.62558937336053" lon="11.327665770135697"><ele>487.4</ele><time>2026-05-03T18:17:12.999Z</time></trkpt><trkpt lat="43.625487538095165" lon="11.327706018429254"><ele>486.0</ele><time>2026-05-03T18:17:14.999Z</time></trkpt><trkpt lat="43.6253772055035" lon="11.327735000257464"><ele>486.0</ele><time>2026-05-03T18:17:16.999Z</time></trkpt><trkpt lat="43.62527780749472" lon="11.327739826233769"><ele>486.0</ele><time>2026-05-03T18:17:18.999Z</time></trkpt><trkpt lat="43.62521683247081" lon="11.327763243526471"><ele>486.0</ele><time>2026-05-03T18:17:20.999Z</time></trkpt><trkpt lat="43.62519112793744" lon="11.32787160666139"><ele>486.0</ele><time>2026-05-03T18:17:23.999Z</time></trkpt><trkpt lat="43.625241605526114" lon="11.327962780824876"><ele>486.0</ele><time>2026-05-03T18:17:25.999Z</time></trkpt><trkpt lat="43.62533468424805" lon="11.327988554725993"><ele>486.0</ele><time>2026-05-03T18:17:27.999Z</time></trkpt><trkpt lat="43.62541992238446" lon="11.327997829431538"><ele>486.0</ele><time>2026-05-03T18:17:29.999Z</time></trkpt><trkpt lat="43.62548259767778" lon="11.328049295789839"><ele>486.0</ele><time>2026-05-03T18:17:31.999Z</time></trkpt><trkpt lat="43.62555972321598" lon="11.328076953691754"><ele>486.0</ele><time>2026-05-03T18:17:33.999Z</time></trkpt><trkpt lat="43.625631263447694" lon="11.328065322328506"><ele>486.0</ele><time>2026-05-03T18:17:35.999Z</time></trkpt><trkpt lat="43.62573359835473" lon="11.328040356246575"><ele>486.0</ele><time>2026-05-03T18:17:37.999Z</time></trkpt><trkpt lat="43.62583682674353" lon="11.32800914879155"><ele>486.0</ele><time>2026-05-03T18:17:39.999Z</time></trkpt><trkpt lat="43.625905249073526" lon="11.328030649693266"><ele>490.3333333333333</ele><time>2026-05-03T18:17:41.999Z</time></trkpt><trkpt lat="43.62599515114636" lon="11.328103525478781"><ele>494.66666666666663</ele><time>2026-05-03T18:17:43.999Z</time></trkpt><trkpt lat="43.626078385610036" lon="11.328151229143423"><ele>499.0</ele><time>2026-05-03T18:17:45.999Z</time></trkpt><trkpt lat="43.626147714308466" lon="11.328160159137903"><ele>503.3333333333333</ele><time>2026-05-03T18:17:47.999Z</time></trkpt><trkpt lat="43.626247353088594" lon="11.328184099901854"><ele>507.66666666666663</ele><time>2026-05-03T18:17:49.999Z</time></trkpt><trkpt lat="43.62631675024389" lon="11.328218409020675"><ele>512.0</ele><time>2026-05-03T18:17:51.999Z</time></trkpt><trkpt lat="43.62641490960684" lon="11.328220488150253"><ele>513.0</ele><time>2026-05-03T18:17:54Z</time></trkpt><trkpt lat="43.62649734954657" lon="11.328226709797626"><ele>514.0</ele><time>2026-05-03T18:17:56Z</time></trkpt><trkpt lat="43.62655736626122" lon="11.328266919973853"><ele>515.0</ele><time>2026-05-03T18:17:58Z</time></trkpt><trkpt lat="43.626642167097216" lon="11.328319029440461"><ele>516.0</ele><time>2026-05-03T18:18:00Z</time></trkpt><trkpt lat="43.626715170793844" lon="11.328355284745298"><ele>517.0</ele><time>2026-05-03T18:18:02Z</time></trkpt><trkpt lat="43.6267900465457" lon="11.328382203228074"><ele>518.0</ele><time>2026-05-03T18:18:04Z</time></trkpt><trkpt lat="43.626871976152344" lon="11.328395039687148"><ele>518.0</ele><time>2026-05-03T18:18:06Z</time></trkpt><trkpt lat="43.62695132820419" lon="11.328428767995378"><ele>518.0</ele><time>2026-05-03T18:18:08Z</time></trkpt><trkpt lat="43.62699533696521" lon="11.328504314420442"><ele>518.0</ele><time>2026-05-03T18:18:10Z</time></trkpt><trkpt lat="43.62703691754622" lon="11.328580910795196"><ele>518.0</ele><time>2026-05-03T18:18:20Z</time></trkpt><trkpt lat="43.627096495953325" lon="11.32865099641941"><ele>518.0</ele><time>2026-05-03T18:18:23Z</time></trkpt><trkpt lat="43.62716689863511" lon="11.32865693308365"><ele>518.0</ele><time>2026-05-03T18:18:27Z</time></trkpt><trkpt lat="43.62724654244771" lon="11.328707565168827"><ele>520.1666666666666</ele><time>2026-05-03T18:18:30Z</time></trkpt><trkpt lat="43.62733203817986" lon="11.328738365813937"><ele>522.3333333333333</ele><time>2026-05-03T18:18:33Z</time></trkpt><trkpt lat="43.62741516987952" lon="11.328771252779287"><ele>524.5</ele><time>2026-05-03T18:18:34.999Z</time></trkpt><trkpt lat="43.627507791526114" lon="11.328803646177729"><ele>526.6666666666666</ele><time>2026-05-03T18:18:36.999Z</time></trkpt><trkpt lat="43.62761359417435" lon="11.32882435514328"><ele>528.8333333333334</ele><time>2026-05-03T18:18:38.999Z</time></trkpt><trkpt lat="43.627685224597556" lon="11.328823764035223"><ele>531.0</ele><time>2026-05-03T18:18:40.999Z</time></trkpt><trkpt lat="43.62774914818662" lon="11.32877758975925"><ele>533.2</ele><time>2026-05-03T18:18:42.999Z</time></trkpt><trkpt lat="43.627812320940706" lon="11.328692314966608"><ele>535.4000000000001</ele><time>2026-05-03T18:18:44.999Z</time></trkpt><trkpt lat="43.62788861352479" lon="11.328640689461528"><ele>537.6</ele><time>2026-05-03T18:18:46.999Z</time></trkpt><trkpt lat="43.627957175646" lon="11.32863153057089"><ele>539.8000000000001</ele><time>2026-05-03T18:18:48.999Z</time></trkpt><trkpt lat="43.62808985334794" lon="11.328583657756084"><ele>542.0</ele><time>2026-05-03T18:18:50.999Z</time></trkpt><trkpt lat="43.628168349081264" lon="11.328549924942177"><ele>542.0</ele><time>2026-05-03T18:18:52.999Z</time></trkpt><trkpt lat="43.62825803634465" lon="11.328527190835766"><ele>542.0</ele><time>2026-05-03T18:18:54.999Z</time></trkpt><trkpt lat="43.6283555073572" lon="11.328554557583153"><ele>542.0</ele><time>2026-05-03T18:18:56.999Z</time></trkpt><trkpt lat="43.62841525602169" lon="11.328583826279385"><ele>542.0</ele><time>2026-05-03T18:18:57.999Z</time></trkpt><trkpt lat="43.62851087992976" lon="11.328605279427062"><ele>542.0</ele><time>2026-05-03T18:18:59.999Z</time></trkpt><trkpt lat="43.628602257472004" lon="11.328637135513327"><ele>542.0</ele><time>2026-05-03T18:19:01.999Z</time></trkpt><trkpt lat="43.62866423981712" lon="11.328668247303833"><ele>543.0</ele><time>2026-05-03T18:19:02.999Z</time></trkpt><trkpt lat="43.62874770445931" lon="11.328715707344067"><ele>544.0</ele><time>2026-05-03T18:19:03.999Z</time></trkpt><trkpt lat="43.628824899081934" lon="11.328758557773222"><ele>545.0</ele><time>2026-05-03T18:19:04.999Z</time></trkpt><trkpt lat="43.62892750024865" lon="11.328798919056332"><ele>546.0</ele><time>2026-05-03T18:19:06.999Z</time></trkpt><trkpt lat="43.628996909605455" lon="11.32879294919369"><ele>547.0</ele><time>2026-05-03T18:19:07.999Z</time></trkpt><trkpt lat="43.62906768422564" lon="11.32877628522559"><ele>548.0</ele><time>2026-05-03T18:19:08.999Z</time></trkpt><trkpt lat="43.6291306986729" lon="11.328749948558153"><ele>548.0</ele><time>2026-05-03T18:19:09.999Z</time></trkpt><trkpt lat="43.629222677493196" lon="11.328740143688886"><ele>548.0</ele><time>2026-05-03T18:19:11.999Z</time></trkpt><trkpt lat="43.62931779662863" lon="11.328719313685612"><ele>548.0</ele><time>2026-05-03T18:19:13.999Z</time></trkpt><trkpt lat="43.629391725735694" lon="11.32870875140858"><ele>548.0</ele><time>2026-05-03T18:19:15.999Z</time></trkpt><trkpt lat="43.629467430432406" lon="11.328697514997145"><ele>548.0</ele><time>2026-05-03T18:19:17.999Z</time></trkpt><trkpt lat="43.629560425660486" lon="11.328714035551485"><ele>548.0</ele><time>2026-05-03T18:19:19.999Z</time></trkpt><trkpt lat="43.62964417033403" lon="11.328739981248475"><ele>550.5</ele><time>2026-05-03T18:19:21.999Z</time></trkpt><trkpt lat="43.62968667473093" lon="11.328812326342089"><ele>553.0</ele><time>2026-05-03T18:19:23.999Z</time></trkpt><trkpt lat="43.62974258630023" lon="11.328853671620848"><ele>555.5</ele><time>2026-05-03T18:19:25.999Z</time></trkpt><trkpt lat="43.62981186006667" lon="11.328937576762488"><ele>558.0</ele><time>2026-05-03T18:19:27.999Z</time></trkpt><trkpt lat="43.62990590850401" lon="11.328986151464479"><ele>560.5</ele><time>2026-05-03T18:19:29.999Z</time></trkpt><trkpt lat="43.62996571488967" lon="11.329078498051413"><ele>563.0</ele><time>2026-05-03T18:19:31.999Z</time></trkpt><trkpt lat="43.63001855338458" lon="11.329152956039769"><ele>565.6</ele><time>2026-05-03T18:19:33.999Z</time></trkpt><trkpt lat="43.63007526978172" lon="11.329265525670165"><ele>568.1999999999999</ele><time>2026-05-03T18:19:35.999Z</time></trkpt><trkpt lat="43.63013853290276" lon="11.329371207159328"><ele>570.8</ele><time>2026-05-03T18:19:37.999Z</time></trkpt><trkpt lat="43.6301923586048" lon="11.329471267516746"><ele>573.4</ele><time>2026-05-03T18:19:39.999Z</time></trkpt><trkpt lat="43.63024400308035" lon="11.32958537672217"><ele>576.0</ele><time>2026-05-03T18:19:41.999Z</time></trkpt><trkpt lat="43.630317058564884" lon="11.329686112650789"><ele>576.6</ele><time>2026-05-03T18:19:44.999Z</time></trkpt><trkpt lat="43.630398655210016" lon="11.329719842069764"><ele>577.2</ele><time>2026-05-03T18:19:46.999Z</time></trkpt><trkpt lat="43.630500197013156" lon="11.329829364404931"><ele>577.8</ele><time>2026-05-03T18:19:48.999Z</time></trkpt><trkpt lat="43.630567029885604" lon="11.32991730368537"><ele>578.4</ele><time>2026-05-03T18:19:49.999Z</time></trkpt><trkpt lat="43.63061608735383" lon="11.330028571908656"><ele>579.0</ele><time>2026-05-03T18:19:51.999Z</time></trkpt><trkpt lat="43.630681999568104" lon="11.330147594677905"><ele>580.0</ele><time>2026-05-03T18:19:53.999Z</time></trkpt><trkpt lat="43.63069989586627" lon="11.33025778767694"><ele>581.0</ele><time>2026-05-03T18:19:55.999Z</time></trkpt><trkpt lat="43.63066109672431" lon="11.330399813737088"><ele>582.0</ele><time>2026-05-03T18:19:57.999Z</time></trkpt><trkpt lat="43.63062703293232" lon="11.33047396459735"><ele>583.0</ele><time>2026-05-03T18:19:58.999Z</time></trkpt><trkpt lat="43.6305368390926" lon="11.330589128723956"><ele>584.0</ele><time>2026-05-03T18:20:01Z</time></trkpt><trkpt lat="43.63046574593515" lon="11.330738245262992"><ele>584.1428571428571</ele><time>2026-05-03T18:20:03Z</time></trkpt><trkpt lat="43.63044219884965" lon="11.330825400917057"><ele>584.2857142857143</ele><time>2026-05-03T18:20:04Z</time></trkpt><trkpt lat="43.63041751328414" lon="11.33093527500147"><ele>584.4285714285714</ele><time>2026-05-03T18:20:05Z</time></trkpt><trkpt lat="43.63039246704226" lon="11.33104331561737"><ele>584.5714285714286</ele><time>2026-05-03T18:20:06Z</time></trkpt><trkpt lat="43.63036623556904" lon="11.331123517408418"><ele>584.7142857142857</ele><time>2026-05-03T18:20:07Z</time></trkpt><trkpt lat="43.63033914873264" lon="11.33120452609322"><ele>584.8571428571429</ele><time>2026-05-03T18:20:08Z</time></trkpt><trkpt lat="43.63031328897272" lon="11.331299313404362"><ele>585.0</ele><time>2026-05-03T18:20:09Z</time></trkpt><trkpt lat="43.63031012789857" lon="11.331390018959794"><ele>587.6666666666666</ele><time>2026-05-03T18:20:10Z</time></trkpt><trkpt lat="43.63029523153153" lon="11.331534794740652"><ele>590.3333333333334</ele><time>2026-05-03T18:20:12Z</time></trkpt><trkpt lat="43.630257398522104" lon="11.33160899796669"><ele>593.0</ele><time>2026-05-03T18:20:13Z</time></trkpt><trkpt lat="43.63022606548803" lon="11.331704764745648"><ele>595.6666666666667</ele><time>2026-05-03T18:20:14Z</time></trkpt><trkpt lat="43.63021451199773" lon="11.331808461487629"><ele>598.3333333333334</ele><time>2026-05-03T18:20:15Z</time></trkpt><trkpt lat="43.630186541215835" lon="11.331928199415206"><ele>601.0</ele><time>2026-05-03T18:20:16Z</time></trkpt><trkpt lat="43.63015647710913" lon="11.33204341334718"><ele>601.0</ele><time>2026-05-03T18:20:17Z</time></trkpt><trkpt lat="43.630146513024854" lon="11.33221684205893"><ele>601.0</ele><time>2026-05-03T18:20:19Z</time></trkpt><trkpt lat="43.63012170241118" lon="11.332366195607184"><ele>601.0</ele><time>2026-05-03T18:20:21Z</time></trkpt><trkpt lat="43.63009274828543" lon="11.33245950525237"><ele>601.0</ele><time>2026-05-03T18:20:22Z</time></trkpt><trkpt lat="43.63006318741579" lon="11.332576612519903"><ele>601.0</ele><time>2026-05-03T18:20:23Z</time></trkpt><trkpt lat="43.630056650065306" lon="11.332683285987287"><ele>601.1666666666667</ele><time>2026-05-03T18:20:24Z</time></trkpt><trkpt lat="43.630056645375" lon="11.332773104483842"><ele>601.3333333333334</ele><time>2026-05-03T18:20:25Z</time></trkpt><trkpt lat="43.63003398443179" lon="11.332921547992342"><ele>601.5</ele><time>2026-05-03T18:20:27Z</time></trkpt><trkpt lat="43.630007423677625" lon="11.333005697937503"><ele>601.6666666666666</ele><time>2026-05-03T18:20:28Z</time></trkpt><trkpt lat="43.629968390357924" lon="11.333099218404357"><ele>601.8333333333333</ele><time>2026-05-03T18:20:29Z</time></trkpt><trkpt lat="43.62992716329448" lon="11.333188913904298"><ele>602.0</ele><time>2026-05-03T18:20:30Z</time></trkpt><trkpt lat="43.629899141318106" lon="11.333280164077596"><ele>601.6666666666666</ele><time>2026-05-03T18:20:31Z</time></trkpt><trkpt lat="43.629863833922606" lon="11.333377474227245"><ele>601.3333333333333</ele><time>2026-05-03T18:20:32Z</time></trkpt><trkpt lat="43.629815105225674" lon="11.333446424149631"><ele>601.0</ele><time>2026-05-03T18:20:33Z</time></trkpt><trkpt lat="43.62976958703027" lon="11.333537303478643"><ele>600.6666666666666</ele><time>2026-05-03T18:20:34Z</time></trkpt><trkpt lat="43.62971726757811" lon="11.333624170031253"><ele>600.3333333333334</ele><time>2026-05-03T18:20:34.999Z</time></trkpt><trkpt lat="43.62965031588991" lon="11.333677976634483"><ele>600.0</ele><time>2026-05-03T18:20:35.999Z</time></trkpt><trkpt lat="43.62958572693931" lon="11.33371945694359"><ele>600.0</ele><time>2026-05-03T18:20:36.999Z</time></trkpt><trkpt lat="43.62951757606045" lon="11.333748991463288"><ele>600.0</ele><time>2026-05-03T18:20:37.999Z</time></trkpt><trkpt lat="43.62944487960438" lon="11.333781342334222"><ele>600.0</ele><time>2026-05-03T18:20:38.999Z</time></trkpt><trkpt lat="43.62936638375732" lon="11.33382431452906"><ele>600.0</ele><time>2026-05-03T18:20:39.999Z</time></trkpt><trkpt lat="43.62929036173281" lon="11.333876077468227"><ele>600.0</ele><time>2026-05-03T18:20:40.999Z</time></trkpt><trkpt lat="43.62922974075461" lon="11.333922478427807"><ele>600.0</ele><time>2026-05-03T18:20:41.999Z</time></trkpt><trkpt lat="43.62913426014316" lon="11.33405455181098"><ele>600.6666666666666</ele><time>2026-05-03T18:20:43.999Z</time></trkpt><trkpt lat="43.62907666413413" lon="11.334129245618012"><ele>601.3333333333334</ele><time>2026-05-03T18:20:44.999Z</time></trkpt><trkpt lat="43.62903148752239" lon="11.33419231692355"><ele>602.0</ele><time>2026-05-03T18:20:45.999Z</time></trkpt><trkpt lat="43.62899340456786" lon="11.33426383704703"><ele>602.6666666666667</ele><time>2026-05-03T18:20:46.999Z</time></trkpt><trkpt lat="43.62893735598397" lon="11.334318183286896"><ele>603.3333333333334</ele><time>2026-05-03T18:20:47.999Z</time></trkpt><trkpt lat="43.62887752575236" lon="11.334351847658867"><ele>604.0</ele><time>2026-05-03T18:20:48.999Z</time></trkpt><trkpt lat="43.6287704681012" lon="11.334417982208917"><ele>604.0</ele><time>2026-05-03T18:20:50.999Z</time></trkpt><trkpt lat="43.62870960995004" lon="11.33445899537333"><ele>604.0</ele><time>2026-05-03T18:20:51.999Z</time></trkpt><trkpt lat="43.6285952060562" lon="11.334564386203288"><ele>604.0</ele><time>2026-05-03T18:20:53.999Z</time></trkpt><trkpt lat="43.62850559966175" lon="11.3346843820397"><ele>604.0</ele><time>2026-05-03T18:20:55.999Z</time></trkpt><trkpt lat="43.628432246647996" lon="11.334777477903968"><ele>604.0</ele><time>2026-05-03T18:20:56.999Z</time></trkpt><trkpt lat="43.62836241053821" lon="11.334860750228309"><ele>604.8333333333334</ele><time>2026-05-03T18:20:57.999Z</time></trkpt><trkpt lat="43.62830289009742" lon="11.334918608076167"><ele>605.6666666666667</ele><time>2026-05-03T18:20:58.999Z</time></trkpt><trkpt lat="43.62824870335234" lon="11.33498199547807"><ele>606.5</ele><time>2026-05-03T18:20:59.999Z</time></trkpt><trkpt lat="43.62815356257581" lon="11.335037079381067"><ele>607.3333333333334</ele><time>2026-05-03T18:21:01.999Z</time></trkpt><trkpt lat="43.62810119841322" lon="11.33509125557984"><ele>608.1666666666666</ele><time>2026-05-03T18:21:02.999Z</time></trkpt><trkpt lat="43.62804549649023" lon="11.335155468549498"><ele>609.0</ele><time>2026-05-03T18:21:03.999Z</time></trkpt><trkpt lat="43.62800554172638" lon="11.335226630389693"><ele>609.0</ele><time>2026-05-03T18:21:04.999Z</time></trkpt><trkpt lat="43.62795930780733" lon="11.335297925815146"><ele>609.0</ele><time>2026-05-03T18:21:05.999Z</time></trkpt><trkpt lat="43.62785883726877" lon="11.33541152394292"><ele>609.0</ele><time>2026-05-03T18:21:07.999Z</time></trkpt><trkpt lat="43.62774586558884" lon="11.335562499100911"><ele>609.0</ele><time>2026-05-03T18:21:09.999Z</time></trkpt><trkpt lat="43.627681261846654" lon="11.33565643392452"><ele>608.8333333333334</ele><time>2026-05-03T18:21:10.999Z</time></trkpt><trkpt lat="43.627634351879834" lon="11.335716078633403"><ele>608.6666666666666</ele><time>2026-05-03T18:21:11.999Z</time></trkpt><trkpt lat="43.627578605864024" lon="11.335766684928956"><ele>608.5</ele><time>2026-05-03T18:21:12.999Z</time></trkpt><trkpt lat="43.62750327782479" lon="11.335906758056597"><ele>608.3333333333333</ele><time>2026-05-03T18:21:14.999Z</time></trkpt><trkpt lat="43.627462684710416" lon="11.336005408619437"><ele>608.1666666666666</ele><time>2026-05-03T18:21:15.999Z</time></trkpt><trkpt lat="43.62740787715526" lon="11.336104635279426"><ele>608.0</ele><time>2026-05-03T18:21:16.999Z</time></trkpt><trkpt lat="43.627343928372" lon="11.336186618113345"><ele>608.0</ele><time>2026-05-03T18:21:17.999Z</time></trkpt><trkpt lat="43.6273012036032" lon="11.336254733052368"><ele>608.0</ele><time>2026-05-03T18:21:18.999Z</time></trkpt><trkpt lat="43.627288625147585" lon="11.336394021273872"><ele>608.0</ele><time>2026-05-03T18:21:20.999Z</time></trkpt><trkpt lat="43.627288909969586" lon="11.336490004112402"><ele>608.0</ele><time>2026-05-03T18:21:21.999Z</time></trkpt><trkpt lat="43.62727983375385" lon="11.336585152901154"><ele>608.0</ele><time>2026-05-03T18:21:22.999Z</time></trkpt><trkpt lat="43.62719524099136" lon="11.336732867379052"><ele>608.0</ele><time>2026-05-03T18:21:24.999Z</time></trkpt><trkpt lat="43.627125500369836" lon="11.336837525549246"><ele>607.1999999999999</ele><time>2026-05-03T18:21:25.999Z</time></trkpt><trkpt lat="43.627053336607254" lon="11.336947855123421"><ele>606.4</ele><time>2026-05-03T18:21:26.999Z</time></trkpt><trkpt lat="43.62698550517411" lon="11.337048637240438"><ele>605.5999999999999</ele><time>2026-05-03T18:21:27.999Z</time></trkpt><trkpt lat="43.626916305565615" lon="11.337115284996251"><ele>604.8</ele><time>2026-05-03T18:21:28.999Z</time></trkpt><trkpt lat="43.62684183180367" lon="11.33715780881232"><ele>604.0</ele><time>2026-05-03T18:21:29.999Z</time></trkpt><trkpt lat="43.62676317856515" lon="11.337177602935272"><ele>605.5</ele><time>2026-05-03T18:21:30.999Z</time></trkpt><trkpt lat="43.62669757306435" lon="11.33717160161106"><ele>607.0</ele><time>2026-05-03T18:21:31.999Z</time></trkpt><trkpt lat="43.626624608962196" lon="11.337136342207994"><ele>608.5</ele><time>2026-05-03T18:21:32.999Z</time></trkpt><trkpt lat="43.62655487243038" lon="11.337123052787916"><ele>610.0</ele><time>2026-05-03T18:21:33.999Z</time></trkpt><trkpt lat="43.62648269240191" lon="11.337134561899818"><ele>611.5</ele><time>2026-05-03T18:21:34.999Z</time></trkpt><trkpt lat="43.626413016920935" lon="11.337174289838929"><ele>613.0</ele><time>2026-05-03T18:21:35.999Z</time></trkpt><trkpt lat="43.6263210849918" lon="11.337218435213035"><ele>613.5</ele><time>2026-05-03T18:21:36.999Z</time></trkpt><trkpt lat="43.6262257915392" lon="11.337299120313018"><ele>614.0</ele><time>2026-05-03T18:21:37.999Z</time></trkpt><trkpt lat="43.626170773358965" lon="11.337347286317605"><ele>614.5</ele><time>2026-05-03T18:21:38.999Z</time></trkpt><trkpt lat="43.62610811014203" lon="11.337411234692809"><ele>615.0</ele><time>2026-05-03T18:21:39.999Z</time></trkpt><trkpt lat="43.626043851778135" lon="11.337459279658049"><ele>615.5</ele><time>2026-05-03T18:21:40.999Z</time></trkpt><trkpt lat="43.62596876823069" lon="11.337482980960921"><ele>616.0</ele><time>2026-05-03T18:21:41.999Z</time></trkpt><trkpt lat="43.62586494905651" lon="11.337552155954675"><ele>616.0</ele><time>2026-05-03T18:21:43.999Z</time></trkpt><trkpt lat="43.62575441225871" lon="11.337585733590963"><ele>616.0</ele><time>2026-05-03T18:21:45.999Z</time></trkpt><trkpt lat="43.62563889530113" lon="11.337602710909714"><ele>616.0</ele><time>2026-05-03T18:21:47.999Z</time></trkpt><trkpt lat="43.62553449191725" lon="11.337675212129016"><ele>616.0</ele><time>2026-05-03T18:21:49.999Z</time></trkpt><trkpt lat="43.62548278070161" lon="11.33774969934582"><ele>616.0</ele><time>2026-05-03T18:21:50.999Z</time></trkpt><trkpt lat="43.625425108768724" lon="11.337860994197683"><ele>616.0</ele><time>2026-05-03T18:21:51.999Z</time></trkpt><trkpt lat="43.625369565400064" lon="11.337967546183753"><ele>616.0</ele><time>2026-05-03T18:21:52.999Z</time></trkpt><trkpt lat="43.625333810340344" lon="11.338042426758822"><ele>616.0</ele><time>2026-05-03T18:21:53.999Z</time></trkpt><trkpt lat="43.625292080661076" lon="11.338114951334395"><ele>616.0</ele><time>2026-05-03T18:21:54.999Z</time></trkpt><trkpt lat="43.62521885740112" lon="11.338229752693735"><ele>616.0</ele><time>2026-05-03T18:21:56.999Z</time></trkpt><trkpt lat="43.62518478738214" lon="11.338308709576925"><ele>616.0</ele><time>2026-05-03T18:21:57.999Z</time></trkpt><trkpt lat="43.6251456930848" lon="11.338382182470333"><ele>616.4</ele><time>2026-05-03T18:21:58.999Z</time></trkpt><trkpt lat="43.62509773971888" lon="11.33845710914386"><ele>616.8</ele><time>2026-05-03T18:21:59.999Z</time></trkpt><trkpt lat="43.62501960832928" lon="11.338559268894317"><ele>617.1999999999999</ele><time>2026-05-03T18:22:01.999Z</time></trkpt><trkpt lat="43.62495463097844" lon="11.33865385837449"><ele>617.6</ele><time>2026-05-03T18:22:03.999Z</time></trkpt><trkpt lat="43.62488116557503" lon="11.338775323253039"><ele>618.0</ele><time>2026-05-03T18:22:06Z</time></trkpt><trkpt lat="43.62482911832787" lon="11.338843442335088"><ele>617.0</ele><time>2026-05-03T18:22:07Z</time></trkpt><trkpt lat="43.62478232111421" lon="11.33891210072589"><ele>616.0</ele><time>2026-05-03T18:22:08Z</time></trkpt><trkpt lat="43.62467746083588" lon="11.339014241663419"><ele>615.0</ele><time>2026-05-03T18:22:10Z</time></trkpt><trkpt lat="43.62464186439522" lon="11.339117842125836"><ele>614.0</ele><time>2026-05-03T18:22:11Z</time></trkpt><trkpt lat="43.62461952342983" lon="11.339206823345382"><ele>613.0</ele><time>2026-05-03T18:22:12Z</time></trkpt><trkpt lat="43.62459048980986" lon="11.339298224923162"><ele>612.0</ele><time>2026-05-03T18:22:13Z</time></trkpt><trkpt lat="43.62455519748959" lon="11.339406958476179"><ele>612.0</ele><time>2026-05-03T18:22:14Z</time></trkpt><trkpt lat="43.624503371786226" lon="11.339504365479774"><ele>612.0</ele><time>2026-05-03T18:22:15Z</time></trkpt><trkpt lat="43.624410332186024" lon="11.339599523528937"><ele>612.0</ele><time>2026-05-03T18:22:17Z</time></trkpt><trkpt lat="43.624338263149276" lon="11.339643762416552"><ele>612.0</ele><time>2026-05-03T18:22:18Z</time></trkpt><trkpt lat="43.624275583513175" lon="11.33969575539904"><ele>612.0</ele><time>2026-05-03T18:22:19Z</time></trkpt><trkpt lat="43.62422080279983" lon="11.339649893930371"><ele>612.0</ele><time>2026-05-03T18:22:23Z</time></trkpt><trkpt lat="43.62429353586845" lon="11.339550812791872"><ele>612.0</ele><time>2026-05-03T18:22:25Z</time></trkpt><trkpt lat="43.624341952839515" lon="11.339493134074948"><ele>612.0</ele><time>2026-05-03T18:22:26Z</time></trkpt><trkpt lat="43.62439647201596" lon="11.339351344709875"><ele>612.0</ele><time>2026-05-03T18:22:28Z</time></trkpt><trkpt lat="43.62441757068238" lon="11.339263264516486"><ele>612.0</ele><time>2026-05-03T18:22:29Z</time></trkpt><trkpt lat="43.62446086356464" lon="11.33909626806408"><ele>612.0</ele><time>2026-05-03T18:22:31Z</time></trkpt><trkpt lat="43.62447984134413" lon="11.338997916328022"><ele>612.0</ele><time>2026-05-03T18:22:32Z</time></trkpt><trkpt lat="43.62448564060727" lon="11.33881974458562"><ele>614.1666666666666</ele><time>2026-05-03T18:22:34Z</time></trkpt><trkpt lat="43.624473152311324" lon="11.338729110876491"><ele>616.3333333333334</ele><time>2026-05-03T18:22:34.999Z</time></trkpt><trkpt lat="43.6244547734939" lon="11.338631013696817"><ele>618.5</ele><time>2026-05-03T18:22:35.999Z</time></trkpt><trkpt lat="43.62442654946433" lon="11.338513640670266"><ele>620.6666666666667</ele><time>2026-05-03T18:22:36.999Z</time></trkpt><trkpt lat="43.624402736025054" lon="11.338432250115714"><ele>622.8333333333334</ele><time>2026-05-03T18:22:37.999Z</time></trkpt><trkpt lat="43.62434434039201" lon="11.338304805462718"><ele>625.0</ele><time>2026-05-03T18:22:39.999Z</time></trkpt><trkpt lat="43.624262337919504" lon="11.338224461893857"><ele>625.0</ele><time>2026-05-03T18:22:41.999Z</time></trkpt><trkpt lat="43.62423489761239" lon="11.33809214603427"><ele>625.0</ele><time>2026-05-03T18:22:43.999Z</time></trkpt><trkpt lat="43.624253368201884" lon="11.337975544313288"><ele>625.0</ele><time>2026-05-03T18:22:45.999Z</time></trkpt><trkpt lat="43.624280875328196" lon="11.337885367190609"><ele>625.0</ele><time>2026-05-03T18:22:46.999Z</time></trkpt><trkpt lat="43.62426957871321" lon="11.337781916329487"><ele>625.0</ele><time>2026-05-03T18:22:48.999Z</time></trkpt><trkpt lat="43.6241837129069" lon="11.337776805491803"><ele>625.0</ele><time>2026-05-03T18:22:50.999Z</time></trkpt><trkpt lat="43.62409721192514" lon="11.33776340043535"><ele>624.0</ele><time>2026-05-03T18:22:52.999Z</time></trkpt><trkpt lat="43.623994851849815" lon="11.33770063951123"><ele>623.0</ele><time>2026-05-03T18:22:54.999Z</time></trkpt><trkpt lat="43.62391279418869" lon="11.33760633753798"><ele>622.0</ele><time>2026-05-03T18:22:56.999Z</time></trkpt><trkpt lat="43.623861037864664" lon="11.337493633672123"><ele>621.0</ele><time>2026-05-03T18:22:58.999Z</time></trkpt><trkpt lat="43.62378356025519" lon="11.337382833480099"><ele>620.0</ele><time>2026-05-03T18:23:00.999Z</time></trkpt><trkpt lat="43.62370787238845" lon="11.337294077273356"><ele>620.4</ele><time>2026-05-03T18:23:02.999Z</time></trkpt><trkpt lat="43.62366127231552" lon="11.337208128123782"><ele>620.8</ele><time>2026-05-03T18:23:04.999Z</time></trkpt><trkpt lat="43.62360136144093" lon="11.337153143020332"><ele>621.2</ele><time>2026-05-03T18:23:06.999Z</time></trkpt><trkpt lat="43.62346272075885" lon="11.337177316304928"><ele>621.6</ele><time>2026-05-03T18:23:08.999Z</time></trkpt><trkpt lat="43.623380023857784" lon="11.337219458859371"><ele>622.0</ele><time>2026-05-03T18:23:09.999Z</time></trkpt><trkpt lat="43.62328435506514" lon="11.337158046255986"><ele>619.2</ele><time>2026-05-03T18:23:11.999Z</time></trkpt><trkpt lat="43.62322685360508" lon="11.337105007170525"><ele>616.4000000000001</ele><time>2026-05-03T18:23:12.999Z</time></trkpt><trkpt lat="43.62310504151335" lon="11.337046141979098"><ele>613.5999999999999</ele><time>2026-05-03T18:23:14.999Z</time></trkpt><trkpt lat="43.62301963987892" lon="11.337017902352384"><ele>610.8</ele><time>2026-05-03T18:23:15.999Z</time></trkpt><trkpt lat="43.62294455299895" lon="11.336971176819462"><ele>608.0</ele><time>2026-05-03T18:23:16.999Z</time></trkpt><trkpt lat="43.62283777277429" lon="11.336900781665774"><ele>609.3333333333333</ele><time>2026-05-03T18:23:18.999Z</time></trkpt><trkpt lat="43.622773809432516" lon="11.336887561307323"><ele>610.6666666666666</ele><time>2026-05-03T18:23:19.999Z</time></trkpt><trkpt lat="43.62269196896471" lon="11.336870652573188"><ele>612.0</ele><time>2026-05-03T18:23:20.999Z</time></trkpt><trkpt lat="43.62260564500132" lon="11.336861482946222"><ele>613.3333333333334</ele><time>2026-05-03T18:23:21.999Z</time></trkpt><trkpt lat="43.62254180066318" lon="11.33685104326297"><ele>614.6666666666667</ele><time>2026-05-03T18:23:22.999Z</time></trkpt><trkpt lat="43.622451821468154" lon="11.336813102235308"><ele>616.0</ele><time>2026-05-03T18:23:24.999Z</time></trkpt><trkpt lat="43.6223823955496" lon="11.336830802383028"><ele>616.0</ele><time>2026-05-03T18:23:26.999Z</time></trkpt><trkpt lat="43.62229947210189" lon="11.336863066400202"><ele>616.0</ele><time>2026-05-03T18:23:28.999Z</time></trkpt><trkpt lat="43.62219566571078" lon="11.336859887546204"><ele>616.0</ele><time>2026-05-03T18:23:30.999Z</time></trkpt><trkpt lat="43.62209645196739" lon="11.336852994787735"><ele>616.0</ele><time>2026-05-03T18:23:32.999Z</time></trkpt><trkpt lat="43.62200109506366" lon="11.33686856829565"><ele>616.0</ele><time>2026-05-03T18:23:34.999Z</time></trkpt><trkpt lat="43.621916283191936" lon="11.336908898130144"><ele>615.8333333333334</ele><time>2026-05-03T18:23:36.999Z</time></trkpt><trkpt lat="43.62184453346673" lon="11.336965147501227"><ele>615.6666666666667</ele><time>2026-05-03T18:23:38.999Z</time></trkpt><trkpt lat="43.62176384362846" lon="11.337024261169615"><ele>615.5</ele><time>2026-05-03T18:23:40.999Z</time></trkpt><trkpt lat="43.62171160845804" lon="11.337096173274212"><ele>615.3333333333334</ele><time>2026-05-03T18:23:42.999Z</time></trkpt><trkpt lat="43.621686548756784" lon="11.337181482620805"><ele>615.1666666666666</ele><time>2026-05-03T18:23:43.999Z</time></trkpt><trkpt lat="43.621660933211544" lon="11.337288489691707"><ele>615.0</ele><time>2026-05-03T18:23:45.999Z</time></trkpt><trkpt lat="43.62164416367021" lon="11.337391599339263"><ele>618.2</ele><time>2026-05-03T18:23:47.999Z</time></trkpt><trkpt lat="43.621603227157" lon="11.337501191528885"><ele>621.4</ele><time>2026-05-03T18:23:49.999Z</time></trkpt><trkpt lat="43.621550031789184" lon="11.337566465596836"><ele>624.6</ele><time>2026-05-03T18:23:51.999Z</time></trkpt><trkpt lat="43.621461287739166" lon="11.337616474999441"><ele>627.8</ele><time>2026-05-03T18:23:53.999Z</time></trkpt><trkpt lat="43.621332650430595" lon="11.337645937372884"><ele>631.0</ele><time>2026-05-03T18:23:55.999Z</time></trkpt><trkpt lat="43.62127228418813" lon="11.337678082980213"><ele>631.0</ele><time>2026-05-03T18:23:56.999Z</time></trkpt><trkpt lat="43.621175994887246" lon="11.337756694570817"><ele>631.0</ele><time>2026-05-03T18:23:58.999Z</time></trkpt><trkpt lat="43.62107168375703" lon="11.337775218152544"><ele>631.0</ele><time>2026-05-03T18:24:00.999Z</time></trkpt><trkpt lat="43.620983300787344" lon="11.337717302998735"><ele>631.0</ele><time>2026-05-03T18:24:02.999Z</time></trkpt><trkpt lat="43.62089489748313" lon="11.337688961160197"><ele>631.0</ele><time>2026-05-03T18:24:03.999Z</time></trkpt><trkpt lat="43.62080958216893" lon="11.337663858485062"><ele>629.6</ele><time>2026-05-03T18:24:04.999Z</time></trkpt><trkpt lat="43.62069981114066" lon="11.337605714648962"><ele>628.2</ele><time>2026-05-03T18:24:06.999Z</time></trkpt><trkpt lat="43.620631674242894" lon="11.337589324389603"><ele>626.8</ele><time>2026-05-03T18:24:07.999Z</time></trkpt><trkpt lat="43.62055892859977" lon="11.337586529339346"><ele>625.4</ele><time>2026-05-03T18:24:08.999Z</time></trkpt><trkpt lat="43.620465174392116" lon="11.337580476090173"><ele>624.0</ele><time>2026-05-03T18:24:09.998Z</time></trkpt><trkpt lat="43.620368091842316" lon="11.337576034321987"><ele>623.8333333333334</ele><time>2026-05-03T18:24:11Z</time></trkpt><trkpt lat="43.62030432183306" lon="11.337564295555323"><ele>623.6666666666666</ele><time>2026-05-03T18:24:12Z</time></trkpt><trkpt lat="43.62018977364064" lon="11.33754047081326"><ele>623.5</ele><time>2026-05-03T18:24:14Z</time></trkpt><trkpt lat="43.620093427315254" lon="11.337547689229854"><ele>623.3333333333333</ele><time>2026-05-03T18:24:16Z</time></trkpt><trkpt lat="43.62000497210165" lon="11.337581101913267"><ele>623.1666666666666</ele><time>2026-05-03T18:24:18Z</time></trkpt><trkpt lat="43.61994224576251" lon="11.337618896262988"><ele>623.0</ele><time>2026-05-03T18:24:19Z</time></trkpt><trkpt lat="43.6198678664164" lon="11.337651340007145"><ele>623.0</ele><time>2026-05-03T18:24:20Z</time></trkpt><trkpt lat="43.61978941204826" lon="11.337656107587549"><ele>623.0</ele><time>2026-05-03T18:24:21Z</time></trkpt><trkpt lat="43.61970780139723" lon="11.337646635165642"><ele>623.0</ele><time>2026-05-03T18:24:22Z</time></trkpt><trkpt lat="43.61962471743676" lon="11.337641991752017"><ele>623.0</ele><time>2026-05-03T18:24:23Z</time></trkpt><trkpt lat="43.6195604514748" lon="11.337651827720148"><ele>623.0</ele><time>2026-05-03T18:24:24Z</time></trkpt><trkpt lat="43.6194462974654" lon="11.33771122936048"><ele>623.0</ele><time>2026-05-03T18:24:26Z</time></trkpt><trkpt lat="43.61934983769517" lon="11.337755204822061"><ele>622.1999999999999</ele><time>2026-05-03T18:24:28Z</time></trkpt><trkpt lat="43.619276157367075" lon="11.33783125702238"><ele>621.4</ele><time>2026-05-03T18:24:30Z</time></trkpt><trkpt lat="43.61920906533106" lon="11.337927190974709"><ele>620.5999999999999</ele><time>2026-05-03T18:24:32Z</time></trkpt><trkpt lat="43.6191358124673" lon="11.337999637480333"><ele>619.8</ele><time>2026-05-03T18:24:34Z</time></trkpt><trkpt lat="43.619061954597456" lon="11.338034357742087"><ele>619.0</ele><time>2026-05-03T18:24:35Z</time></trkpt><trkpt lat="43.61897272999619" lon="11.338121763732785"><ele>621.6666666666667</ele><time>2026-05-03T18:24:37Z</time></trkpt><trkpt lat="43.618931876237134" lon="11.338209766885912"><ele>624.3333333333334</ele><time>2026-05-03T18:24:38Z</time></trkpt><trkpt lat="43.618889183852296" lon="11.33828068955971"><ele>627.0</ele><time>2026-05-03T18:24:38.999Z</time></trkpt><trkpt lat="43.6188458544933" lon="11.338355274671015"><ele>629.6666666666666</ele><time>2026-05-03T18:24:39.999Z</time></trkpt><trkpt lat="43.61879033397056" lon="11.33846622767635"><ele>632.3333333333333</ele><time>2026-05-03T18:24:41.999Z</time></trkpt><trkpt lat="43.61876413323188" lon="11.33862730336268"><ele>635.0</ele><time>2026-05-03T18:24:43.999Z</time></trkpt><trkpt lat="43.61877563253603" lon="11.33881407579505"><ele>635.8333333333333</ele><time>2026-05-03T18:24:45.999Z</time></trkpt><trkpt lat="43.61880748433378" lon="11.338962868166378"><ele>636.6666666666666</ele><time>2026-05-03T18:24:46.999Z</time></trkpt><trkpt lat="43.618824997929224" lon="11.339064972955951"><ele>637.5</ele><time>2026-05-03T18:24:47.999Z</time></trkpt><trkpt lat="43.61886574990926" lon="11.339136911660876"><ele>638.3333333333334</ele><time>2026-05-03T18:24:48.999Z</time></trkpt><trkpt lat="43.61893182961934" lon="11.339228641692571"><ele>639.1666666666667</ele><time>2026-05-03T18:24:50.999Z</time></trkpt><trkpt lat="43.61897905279858" lon="11.339339768603947"><ele>640.0</ele><time>2026-05-03T18:24:52.999Z</time></trkpt><trkpt lat="43.61896935005792" lon="11.339508923807236"><ele>640.0</ele><time>2026-05-03T18:24:54.999Z</time></trkpt><trkpt lat="43.61894813885203" lon="11.339592869811135"><ele>640.0</ele><time>2026-05-03T18:24:55.999Z</time></trkpt><trkpt lat="43.618932203893536" lon="11.339699002008338"><ele>640.0</ele><time>2026-05-03T18:24:56.999Z</time></trkpt><trkpt lat="43.61888643573422" lon="11.339797193911446"><ele>640.0</ele><time>2026-05-03T18:24:58.999Z</time></trkpt><trkpt lat="43.61884608003629" lon="11.33988213348774"><ele>640.0</ele><time>2026-05-03T18:24:59.999Z</time></trkpt><trkpt lat="43.618791777205445" lon="11.340002662236106"><ele>640.0</ele><time>2026-05-03T18:25:01.999Z</time></trkpt><trkpt lat="43.61875437714455" lon="11.340090517774323"><ele>640.1666666666667</ele><time>2026-05-03T18:25:02.999Z</time></trkpt><trkpt lat="43.61873043809094" lon="11.340173226708977"><ele>640.3333333333334</ele><time>2026-05-03T18:25:03.999Z</time></trkpt><trkpt lat="43.618682098453" lon="11.340335254028176"><ele>640.5</ele><time>2026-05-03T18:25:05.999Z</time></trkpt><trkpt lat="43.618653171007985" lon="11.340430761702086"><ele>640.6666666666666</ele><time>2026-05-03T18:25:06.999Z</time></trkpt><trkpt lat="43.61863089707569" lon="11.340524450994529"><ele>640.8333333333333</ele><time>2026-05-03T18:25:07.999Z</time></trkpt><trkpt lat="43.61862488816332" lon="11.340613704801028"><ele>641.0</ele><time>2026-05-03T18:25:08.999Z</time></trkpt><trkpt lat="43.6186270505235" lon="11.340779788597054"><ele>639.8</ele><time>2026-05-03T18:25:10.999Z</time></trkpt><trkpt lat="43.61860768775956" lon="11.340947012112006"><ele>638.5999999999999</ele><time>2026-05-03T18:25:12.999Z</time></trkpt><trkpt lat="43.61860593549733" lon="11.341035584835437"><ele>637.4</ele><time>2026-05-03T18:25:13.999Z</time></trkpt><trkpt lat="43.618576545254385" lon="11.341165973062434"><ele>636.2</ele><time>2026-05-03T18:25:15.999Z</time></trkpt><trkpt lat="43.618569105770746" lon="11.341283990848071"><ele>635.0</ele><time>2026-05-03T18:25:17.999Z</time></trkpt><trkpt lat="43.61855244337914" lon="11.341403453360336"><ele>635.0</ele><time>2026-05-03T18:25:19.999Z</time></trkpt><trkpt lat="43.6185450114986" lon="11.341532769077768"><ele>635.0</ele><time>2026-05-03T18:25:21.999Z</time></trkpt><trkpt lat="43.61852733136701" lon="11.341690904922313"><ele>635.0</ele><time>2026-05-03T18:25:23.999Z</time></trkpt><trkpt lat="43.61848609238491" lon="11.341831042732903"><ele>635.0</ele><time>2026-05-03T18:25:25.999Z</time></trkpt><trkpt lat="43.6184543900633" lon="11.341937185194322"><ele>635.0</ele><time>2026-05-03T18:25:27.999Z</time></trkpt><trkpt lat="43.618409657968485" lon="11.34201687509682"><ele>635.0</ele><time>2026-05-03T18:25:29.999Z</time></trkpt><trkpt lat="43.61835585095389" lon="11.3421196237302"><ele>635.0</ele><time>2026-05-03T18:25:31.999Z</time></trkpt><trkpt lat="43.618302692686136" lon="11.3422567565192"><ele>635.0</ele><time>2026-05-03T18:25:33.999Z</time></trkpt><trkpt lat="43.618238426642506" lon="11.342303404747373"><ele>635.0</ele><time>2026-05-03T18:25:35.999Z</time></trkpt><trkpt lat="43.61816873539894" lon="11.342392806362065"><ele>635.0</ele><time>2026-05-03T18:25:37.999Z</time></trkpt><trkpt lat="43.61808450238484" lon="11.342489255801812"><ele>635.3333333333333</ele><time>2026-05-03T18:25:39.999Z</time></trkpt><trkpt lat="43.618056716928955" lon="11.342636137013432"><ele>635.6666666666666</ele><time>2026-05-03T18:25:41.999Z</time></trkpt><trkpt lat="43.61803748370988" lon="11.34273372484247"><ele>636.0</ele><time>2026-05-03T18:25:42.999Z</time></trkpt><trkpt lat="43.61797231317721" lon="11.342852424992053"><ele>636.3333333333334</ele><time>2026-05-03T18:25:44.999Z</time></trkpt><trkpt lat="43.6179157576823" lon="11.342897880902573"><ele>636.6666666666667</ele><time>2026-05-03T18:25:45.999Z</time></trkpt><trkpt lat="43.61784488888434" lon="11.342935494617546"><ele>637.0</ele><time>2026-05-03T18:25:46.999Z</time></trkpt><trkpt lat="43.61777845382032" lon="11.342988753087543"><ele>637.4</ele><time>2026-05-03T18:25:47.999Z</time></trkpt><trkpt lat="43.61771425534536" lon="11.34303699909316"><ele>637.8000000000001</ele><time>2026-05-03T18:25:48.999Z</time></trkpt><trkpt lat="43.617657591322434" lon="11.343080142998327"><ele>638.2</ele><time>2026-05-03T18:25:49.999Z</time></trkpt><trkpt lat="43.61754828004066" lon="11.343206430021468"><ele>638.6</ele><time>2026-05-03T18:25:51.999Z</time></trkpt><trkpt lat="43.6174836915892" lon="11.343279306491524"><ele>639.0</ele><time>2026-05-03T18:25:52.999Z</time></trkpt><trkpt lat="43.617396954392994" lon="11.343334526856495"><ele>639.4</ele><time>2026-05-03T18:25:54.999Z</time></trkpt><trkpt lat="43.61730384580635" lon="11.34338872279507"><ele>639.8</ele><time>2026-05-03T18:25:56.999Z</time></trkpt><trkpt lat="43.61722788608778" lon="11.343489456005448"><ele>640.1999999999999</ele><time>2026-05-03T18:25:58.999Z</time></trkpt><trkpt lat="43.617097745308726" lon="11.343527293682236"><ele>640.5999999999999</ele><time>2026-05-03T18:26:00.999Z</time></trkpt><trkpt lat="43.61701075086171" lon="11.343530427462788"><ele>641.0</ele><time>2026-05-03T18:26:01.999Z</time></trkpt><trkpt lat="43.61693440033942" lon="11.343536675485385"><ele>641.0</ele><time>2026-05-03T18:26:02.999Z</time></trkpt><trkpt lat="43.61686488578827" lon="11.343560854683385"><ele>641.0</ele><time>2026-05-03T18:26:03.999Z</time></trkpt><trkpt lat="43.61679571896184" lon="11.343607868162838"><ele>641.0</ele><time>2026-05-03T18:26:04.999Z</time></trkpt><trkpt lat="43.61673143058301" lon="11.34366867890362"><ele>641.0</ele><time>2026-05-03T18:26:05.999Z</time></trkpt><trkpt lat="43.61666844091736" lon="11.343700967435772"><ele>641.0</ele><time>2026-05-03T18:26:06.999Z</time></trkpt><trkpt lat="43.61660745946519" lon="11.343726169735222"><ele>641.0</ele><time>2026-05-03T18:26:07.999Z</time></trkpt><trkpt lat="43.61652293141708" lon="11.34383470237328"><ele>642.0</ele><time>2026-05-03T18:26:09.999Z</time></trkpt><trkpt lat="43.61644323545741" lon="11.34391793194623"><ele>643.0</ele><time>2026-05-03T18:26:11.998Z</time></trkpt><trkpt lat="43.61636583703936" lon="11.344022946417875"><ele>644.0</ele><time>2026-05-03T18:26:13.998Z</time></trkpt><trkpt lat="43.61633201977457" lon="11.344196689859029"><ele>645.0</ele><time>2026-05-03T18:26:15.998Z</time></trkpt><trkpt lat="43.6162944610323" lon="11.344269642159489"><ele>646.0</ele><time>2026-05-03T18:26:17Z</time></trkpt><trkpt lat="43.616247411387555" lon="11.344353243827616"><ele>646.0</ele><time>2026-05-03T18:26:20Z</time></trkpt><trkpt lat="43.61618185876316" lon="11.344429164218123"><ele>646.0</ele><time>2026-05-03T18:26:22Z</time></trkpt><trkpt lat="43.616118699555706" lon="11.3444743092178"><ele>646.0</ele><time>2026-05-03T18:26:24Z</time></trkpt><trkpt lat="43.61602523886905" lon="11.344517736462405"><ele>646.0</ele><time>2026-05-03T18:26:26Z</time></trkpt><trkpt lat="43.61595283091519" lon="11.344609682062343"><ele>646.0</ele><time>2026-05-03T18:26:28Z</time></trkpt><trkpt lat="43.615890697614354" lon="11.344685640924778"><ele>646.0</ele><time>2026-05-03T18:26:30Z</time></trkpt><trkpt lat="43.615799851985614" lon="11.344721628894604"><ele>647.4</ele><time>2026-05-03T18:26:32Z</time></trkpt><trkpt lat="43.615706958740496" lon="11.344751400878275"><ele>648.8</ele><time>2026-05-03T18:26:34Z</time></trkpt><trkpt lat="43.615634419084856" lon="11.344834525071079"><ele>650.1999999999999</ele><time>2026-05-03T18:26:36Z</time></trkpt><trkpt lat="43.6155206255255" lon="11.34492945725302"><ele>651.5999999999999</ele><time>2026-05-03T18:26:38Z</time></trkpt><trkpt lat="43.615464456921565" lon="11.344978286701124"><ele>653.0</ele><time>2026-05-03T18:26:39Z</time></trkpt><trkpt lat="43.61540827406531" lon="11.345050534660208"><ele>653.0</ele><time>2026-05-03T18:26:41Z</time></trkpt><trkpt lat="43.61535443970528" lon="11.345115465978944"><ele>653.0</ele><time>2026-05-03T18:26:42.999Z</time></trkpt><trkpt lat="43.61528592932669" lon="11.345145424607942"><ele>653.0</ele><time>2026-05-03T18:26:44.999Z</time></trkpt><trkpt lat="43.61519676616634" lon="11.345213643639626"><ele>653.0</ele><time>2026-05-03T18:26:46.999Z</time></trkpt><trkpt lat="43.61511572899744" lon="11.34522109399053"><ele>653.0</ele><time>2026-05-03T18:26:50.999Z</time></trkpt><trkpt lat="43.61507164622786" lon="11.345305049840363"><ele>653.0</ele><time>2026-05-03T18:26:52.999Z</time></trkpt><trkpt lat="43.615017826739404" lon="11.345352247702452"><ele>654.3333333333333</ele><time>2026-05-03T18:26:56.999Z</time></trkpt><trkpt lat="43.61494049518918" lon="11.345414442318903"><ele>655.6666666666666</ele><time>2026-05-03T18:27:18.999Z</time></trkpt><trkpt lat="43.61487920408266" lon="11.345474219074543"><ele>657.0</ele><time>2026-05-03T18:27:20.999Z</time></trkpt><trkpt lat="43.61482570225625" lon="11.345552537590084"><ele>658.3333333333334</ele><time>2026-05-03T18:27:22.999Z</time></trkpt><trkpt lat="43.614767791261116" lon="11.34562518967606"><ele>659.6666666666667</ele><time>2026-05-03T18:27:24.999Z</time></trkpt><trkpt lat="43.61469913133603" lon="11.345691431293963"><ele>661.0</ele><time>2026-05-03T18:27:26.999Z</time></trkpt><trkpt lat="43.61461917433318" lon="11.345771267313312"><ele>662.5999999999999</ele><time>2026-05-03T18:27:28.999Z</time></trkpt><trkpt lat="43.614558769052806" lon="11.345811445901557"><ele>664.2</ele><time>2026-05-03T18:27:29.999Z</time></trkpt><trkpt lat="43.61446858919934" lon="11.34594284351694"><ele>665.8</ele><time>2026-05-03T18:27:31.999Z</time></trkpt><trkpt lat="43.61443105704287" lon="11.346029027195723"><ele>667.4000000000001</ele><time>2026-05-03T18:27:32.999Z</time></trkpt><trkpt lat="43.61438685769476" lon="11.346154762037646"><ele>669.0</ele><time>2026-05-03T18:27:34.999Z</time></trkpt><trkpt lat="43.61432569736163" lon="11.346253617770538"><ele>670.0</ele><time>2026-05-03T18:27:36.999Z</time></trkpt><trkpt lat="43.61423339602755" lon="11.346272862922884"><ele>671.0</ele><time>2026-05-03T18:27:38.999Z</time></trkpt><trkpt lat="43.61414666975314" lon="11.346229878860889"><ele>672.0</ele><time>2026-05-03T18:27:40.999Z</time></trkpt><trkpt lat="43.614033274672884" lon="11.346291795861298"><ele>673.0</ele><time>2026-05-03T18:27:42.999Z</time></trkpt><trkpt lat="43.61397131558885" lon="11.346274764385255"><ele>674.0</ele><time>2026-05-03T18:27:43.999Z</time></trkpt><trkpt lat="43.613894513613204" lon="11.346263173105259"><ele>675.0</ele><time>2026-05-03T18:27:44.999Z</time></trkpt><trkpt lat="43.61380727065949" lon="11.346272793750016"><ele>675.0</ele><time>2026-05-03T18:27:45.999Z</time></trkpt><trkpt lat="43.61373802717814" lon="11.346293062424058"><ele>675.0</ele><time>2026-05-03T18:27:46.999Z</time></trkpt><trkpt lat="43.613671065384914" lon="11.346303641360727"><ele>675.0</ele><time>2026-05-03T18:27:47.999Z</time></trkpt><trkpt lat="43.61356810201972" lon="11.34635085225079"><ele>675.0</ele><time>2026-05-03T18:27:49.999Z</time></trkpt><trkpt lat="43.613488934571684" lon="11.346465670592842"><ele>675.0</ele><time>2026-05-03T18:27:51.999Z</time></trkpt><trkpt lat="43.61344431110465" lon="11.346535880698024"><ele>675.0</ele><time>2026-05-03T18:27:52.999Z</time></trkpt><trkpt lat="43.613381239810316" lon="11.346619170459816"><ele>676.1666666666666</ele><time>2026-05-03T18:27:53.999Z</time></trkpt><trkpt lat="43.61332363883899" lon="11.346659185749065"><ele>677.3333333333334</ele><time>2026-05-03T18:27:54.999Z</time></trkpt><trkpt lat="43.613260472998256" lon="11.34670074153104"><ele>678.5</ele><time>2026-05-03T18:27:55.999Z</time></trkpt><trkpt lat="43.61321153409087" lon="11.346771058804645"><ele>679.6666666666667</ele><time>2026-05-03T18:27:56.999Z</time></trkpt><trkpt lat="43.61315201675098" lon="11.34682490461451"><ele>680.8333333333334</ele><time>2026-05-03T18:27:57.999Z</time></trkpt><trkpt lat="43.613076216189846" lon="11.346869698305523"><ele>682.0</ele><time>2026-05-03T18:27:58.999Z</time></trkpt><trkpt lat="43.61298481695608" lon="11.346933394181029"><ele>682.0</ele><time>2026-05-03T18:28:00.999Z</time></trkpt><trkpt lat="43.61289914061885" lon="11.347024652049964"><ele>682.0</ele><time>2026-05-03T18:28:02.999Z</time></trkpt><trkpt lat="43.612862276215616" lon="11.34717352936078"><ele>682.0</ele><time>2026-05-03T18:28:04.999Z</time></trkpt><trkpt lat="43.61284365629069" lon="11.347258550916774"><ele>682.0</ele><time>2026-05-03T18:28:05.999Z</time></trkpt><trkpt lat="43.61282085510903" lon="11.347346327467326"><ele>682.0</ele><time>2026-05-03T18:28:06.999Z</time></trkpt><trkpt lat="43.61279255991014" lon="11.347446768850071"><ele>682.0</ele><time>2026-05-03T18:28:07.999Z</time></trkpt><trkpt lat="43.612767606043995" lon="11.347534767968577"><ele>681.8</ele><time>2026-05-03T18:28:08.999Z</time></trkpt><trkpt lat="43.61272166473482" lon="11.347694864023085"><ele>681.6</ele><time>2026-05-03T18:28:10.999Z</time></trkpt><trkpt lat="43.612715266029696" lon="11.347799869824282"><ele>681.4</ele><time>2026-05-03T18:28:11.999Z</time></trkpt><trkpt lat="43.61271188920215" lon="11.347904038956901"><ele>681.1999999999999</ele><time>2026-05-03T18:28:12.999Z</time></trkpt><trkpt lat="43.61268655448781" lon="11.348079451841206"><ele>681.0</ele><time>2026-05-03T18:28:14.998Z</time></trkpt><trkpt lat="43.6127058658298" lon="11.348215726389453"><ele>681.0</ele><time>2026-05-03T18:28:16.998Z</time></trkpt><trkpt lat="43.612729636328474" lon="11.348307632275022"><ele>681.0</ele><time>2026-05-03T18:28:17.998Z</time></trkpt><trkpt lat="43.61274374004204" lon="11.348404253003883"><ele>681.0</ele><time>2026-05-03T18:28:18.998Z</time></trkpt><trkpt lat="43.612753757998476" lon="11.348498755830096"><ele>681.0</ele><time>2026-05-03T18:28:19.998Z</time></trkpt><trkpt lat="43.61271527385959" lon="11.348665419149029"><ele>681.0</ele><time>2026-05-03T18:28:21.998Z</time></trkpt><trkpt lat="43.61268199463348" lon="11.348800858340113"><ele>681.0</ele><time>2026-05-03T18:28:24Z</time></trkpt><trkpt lat="43.61270597169558" lon="11.348890431656882"><ele>682.4</ele><time>2026-05-03T18:28:25Z</time></trkpt><trkpt lat="43.61268522817562" lon="11.349045981211745"><ele>683.8</ele><time>2026-05-03T18:28:27Z</time></trkpt><trkpt lat="43.61264169237545" lon="11.349119515200275"><ele>685.1999999999999</ele><time>2026-05-03T18:28:28Z</time></trkpt><trkpt lat="43.61257325457094" lon="11.349237192209157"><ele>686.5999999999999</ele><time>2026-05-03T18:28:30Z</time></trkpt><trkpt lat="43.61248218427626" lon="11.34936413542256"><ele>688.0</ele><time>2026-05-03T18:28:32Z</time></trkpt><trkpt lat="43.61242777909467" lon="11.349447400548577"><ele>688.0</ele><time>2026-05-03T18:28:33Z</time></trkpt><trkpt lat="43.61240802838721" lon="11.34956065092369"><ele>688.0</ele><time>2026-05-03T18:28:34Z</time></trkpt><trkpt lat="43.61235903510982" lon="11.349628480123844"><ele>688.0</ele><time>2026-05-03T18:28:35Z</time></trkpt><trkpt lat="43.61223009970993" lon="11.349656247491296"><ele>688.0</ele><time>2026-05-03T18:28:37Z</time></trkpt><trkpt lat="43.61216091793949" lon="11.349684079424005"><ele>688.0</ele><time>2026-05-03T18:28:38Z</time></trkpt><trkpt lat="43.612074246691016" lon="11.349743149081712"><ele>689.5999999999999</ele><time>2026-05-03T18:28:40Z</time></trkpt><trkpt lat="43.611945323236974" lon="11.349754857985564"><ele>691.1999999999999</ele><time>2026-05-03T18:28:42Z</time></trkpt><trkpt lat="43.61187416655016" lon="11.34978809772216"><ele>692.8</ele><time>2026-05-03T18:28:43Z</time></trkpt><trkpt lat="43.61181244190203" lon="11.349840911486286"><ele>694.4</ele><time>2026-05-03T18:28:43.999Z</time></trkpt><trkpt lat="43.61169947820065" lon="11.349947914026396"><ele>696.0</ele><time>2026-05-03T18:28:45.999Z</time></trkpt><trkpt lat="43.61162424517122" lon="11.350010823040503"><ele>696.0</ele><time>2026-05-03T18:28:46.999Z</time></trkpt><trkpt lat="43.61153492573674" lon="11.350085897460678"><ele>696.0</ele><time>2026-05-03T18:28:48.999Z</time></trkpt><trkpt lat="43.611434208431916" lon="11.350190017502605"><ele>696.0</ele><time>2026-05-03T18:28:50.999Z</time></trkpt><trkpt lat="43.611311020685044" lon="11.350222820413844"><ele>696.0</ele><time>2026-05-03T18:28:52.999Z</time></trkpt><trkpt lat="43.611212420613654" lon="11.350227299365496"><ele>694.4</ele><time>2026-05-03T18:28:54.999Z</time></trkpt><trkpt lat="43.611099130272535" lon="11.350226757023245"><ele>692.8</ele><time>2026-05-03T18:28:56.999Z</time></trkpt><trkpt lat="43.610999434334815" lon="11.35025276246006"><ele>691.1999999999999</ele><time>2026-05-03T18:28:58.999Z</time></trkpt><trkpt lat="43.61093274238385" lon="11.350265776140313"><ele>689.5999999999999</ele><time>2026-05-03T18:28:59.999Z</time></trkpt><trkpt lat="43.61086969319448" lon="11.350264576282752"><ele>688.0</ele><time>2026-05-03T18:29:00.999Z</time></trkpt><trkpt lat="43.6107484870479" lon="11.350308707095362"><ele>688.0</ele><time>2026-05-03T18:29:02.999Z</time></trkpt><trkpt lat="43.61068669678471" lon="11.350349981819111"><ele>688.0</ele><time>2026-05-03T18:29:03.999Z</time></trkpt><trkpt lat="43.61060547544753" lon="11.350414424700059"><ele>688.0</ele><time>2026-05-03T18:29:04.999Z</time></trkpt><trkpt lat="43.61052615897772" lon="11.350450921192639"><ele>688.0</ele><time>2026-05-03T18:29:05.999Z</time></trkpt><trkpt lat="43.61045883740128" lon="11.35046058039558"><ele>688.0</ele><time>2026-05-03T18:29:06.999Z</time></trkpt><trkpt lat="43.61039295717587" lon="11.350476020914288"><ele>688.0</ele><time>2026-05-03T18:29:07.999Z</time></trkpt><trkpt lat="43.61032385978431" lon="11.350510215760043"><ele>685.5</ele><time>2026-05-03T18:29:08.999Z</time></trkpt><trkpt lat="43.610263692834316" lon="11.350576205948508"><ele>683.0</ele><time>2026-05-03T18:29:09.999Z</time></trkpt><trkpt lat="43.6101877758945" lon="11.35063609323816"><ele>680.5</ele><time>2026-05-03T18:29:10.999Z</time></trkpt><trkpt lat="43.61008055992576" lon="11.3507309156103"><ele>678.0</ele><time>2026-05-03T18:29:12.999Z</time></trkpt><trkpt lat="43.61002790024869" lon="11.35078947195183"><ele>675.5</ele><time>2026-05-03T18:29:13.999Z</time></trkpt><trkpt lat="43.609998192976846" lon="11.35090455853534"><ele>673.0</ele><time>2026-05-03T18:29:15.999Z</time></trkpt><trkpt lat="43.61003453337353" lon="11.351016033990698"><ele>673.0</ele><time>2026-05-03T18:29:17.999Z</time></trkpt><trkpt lat="43.60996317404292" lon="11.351072495918773"><ele>673.0</ele><time>2026-05-03T18:29:20.999Z</time></trkpt><trkpt lat="43.60989687574195" lon="11.351032725856815"><ele>673.0</ele><time>2026-05-03T18:29:22.999Z</time></trkpt><trkpt lat="43.60982068390103" lon="11.351132706763979"><ele>673.0</ele><time>2026-05-03T18:29:24.999Z</time></trkpt><trkpt lat="43.609776426794134" lon="11.351208414470573"><ele>673.0</ele><time>2026-05-03T18:29:25.999Z</time></trkpt><trkpt lat="43.60972522344063" lon="11.351277474867702"><ele>673.0</ele><time>2026-05-03T18:29:26.999Z</time></trkpt><trkpt lat="43.60966909377399" lon="11.351343057371038"><ele>672.6666666666667</ele><time>2026-05-03T18:29:27.999Z</time></trkpt><trkpt lat="43.609585480861185" lon="11.351449511412023"><ele>672.3333333333334</ele><time>2026-05-03T18:29:29.999Z</time></trkpt><trkpt lat="43.609522782375365" lon="11.351496872501828"><ele>672.0</ele><time>2026-05-03T18:29:30.999Z</time></trkpt><trkpt lat="43.60944924673594" lon="11.35156871187384"><ele>671.6666666666666</ele><time>2026-05-03T18:29:31.999Z</time></trkpt><trkpt lat="43.60939076728553" lon="11.351629434254438"><ele>671.3333333333333</ele><time>2026-05-03T18:29:32.999Z</time></trkpt><trkpt lat="43.60931737698476" lon="11.35172344268735"><ele>671.0</ele><time>2026-05-03T18:29:34.999Z</time></trkpt><trkpt lat="43.60927704546929" lon="11.351833977325361"><ele>672.1666666666666</ele><time>2026-05-03T18:29:36.999Z</time></trkpt><trkpt lat="43.60927503153504" lon="11.351926697802558"><ele>673.3333333333333</ele><time>2026-05-03T18:29:38.999Z</time></trkpt><trkpt lat="43.60919437251908" lon="11.3519565450695"><ele>674.5</ele><time>2026-05-03T18:29:41.999Z</time></trkpt><trkpt lat="43.60907647575981" lon="11.351969760762866"><ele>675.6666666666666</ele><time>2026-05-03T18:29:44.999Z</time></trkpt><trkpt lat="43.60898592893431" lon="11.352023002765417"><ele>676.8333333333334</ele><time>2026-05-03T18:29:46.999Z</time></trkpt><trkpt lat="43.60891116022124" lon="11.35204286714023"><ele>678.0</ele><time>2026-05-03T18:29:47.999Z</time></trkpt><trkpt lat="43.608818521552024" lon="11.352068839963314"><ele>678.0</ele><time>2026-05-03T18:29:48.999Z</time></trkpt><trkpt lat="43.608746873384284" lon="11.35210742831864"><ele>678.0</ele><time>2026-05-03T18:29:49.999Z</time></trkpt><trkpt lat="43.6086405842082" lon="11.352192116938372"><ele>678.0</ele><time>2026-05-03T18:29:51.999Z</time></trkpt><trkpt lat="43.60858927652184" lon="11.352259756118238"><ele>678.0</ele><time>2026-05-03T18:29:52.999Z</time></trkpt><trkpt lat="43.6084736621973" lon="11.352311578280014"><ele>678.0</ele><time>2026-05-03T18:29:54.999Z</time></trkpt><trkpt lat="43.60835535395337" lon="11.35231354310148"><ele>677.5999999999999</ele><time>2026-05-03T18:29:56.999Z</time></trkpt><trkpt lat="43.608255599495294" lon="11.352362146620507"><ele>677.1999999999999</ele><time>2026-05-03T18:29:58.999Z</time></trkpt><trkpt lat="43.608176082633975" lon="11.352444690816819"><ele>676.8</ele><time>2026-05-03T18:30:00.999Z</time></trkpt><trkpt lat="43.6081094907539" lon="11.35254379540754"><ele>676.4</ele><time>2026-05-03T18:30:02.999Z</time></trkpt><trkpt lat="43.60806362158376" lon="11.352604040710196"><ele>676.0</ele><time>2026-05-03T18:30:03.999Z</time></trkpt><trkpt lat="43.607933581202765" lon="11.352632041833127"><ele>674.3333333333334</ele><time>2026-05-03T18:30:05.999Z</time></trkpt><trkpt lat="43.60780940302971" lon="11.352683244509311"><ele>672.6666666666667</ele><time>2026-05-03T18:30:07.999Z</time></trkpt><trkpt lat="43.607711794855554" lon="11.352711458315515"><ele>671.0</ele><time>2026-05-03T18:30:09.999Z</time></trkpt><trkpt lat="43.60766430333542" lon="11.352805223771702"><ele>669.3333333333334</ele><time>2026-05-03T18:30:11.999Z</time></trkpt><trkpt lat="43.60760669456049" lon="11.352847192331591"><ele>667.6666666666666</ele><time>2026-05-03T18:30:14.998Z</time></trkpt><trkpt lat="43.60754795470407" lon="11.352901113144895"><ele>666.0</ele><time>2026-05-03T18:30:16.998Z</time></trkpt><trkpt lat="43.60748478199058" lon="11.352983434565944"><ele>665.1666666666666</ele><time>2026-05-03T18:30:19.998Z</time></trkpt><trkpt lat="43.607431721585016" lon="11.353048443957766"><ele>664.3333333333334</ele><time>2026-05-03T18:30:21.998Z</time></trkpt><trkpt lat="43.60738915227015" lon="11.35316732256767"><ele>663.5</ele><time>2026-05-03T18:30:23.998Z</time></trkpt><trkpt lat="43.60740998345892" lon="11.353290168080049"><ele>662.6666666666667</ele><time>2026-05-03T18:30:25.998Z</time></trkpt><trkpt lat="43.60743053832218" lon="11.353378562148848"><ele>661.8333333333334</ele><time>2026-05-03T18:30:26.998Z</time></trkpt><trkpt lat="43.60744891700523" lon="11.353463560058058"><ele>661.0</ele><time>2026-05-03T18:30:27.998Z</time></trkpt><trkpt lat="43.607508695420684" lon="11.353602078481176"><ele>661.0</ele><time>2026-05-03T18:30:30Z</time></trkpt><trkpt lat="43.60758615893177" lon="11.35368625080482"><ele>661.0</ele><time>2026-05-03T18:30:32Z</time></trkpt><trkpt lat="43.607653944208" lon="11.353779235292338"><ele>661.0</ele><time>2026-05-03T18:30:34Z</time></trkpt><trkpt lat="43.60771290555996" lon="11.353870109237446"><ele>661.0</ele><time>2026-05-03T18:30:36Z</time></trkpt><trkpt lat="43.607746480459305" lon="11.353963106879764"><ele>661.0</ele><time>2026-05-03T18:30:38Z</time></trkpt><trkpt lat="43.607703516382585" lon="11.354075565098478"><ele>658.8</ele><time>2026-05-03T18:30:40Z</time></trkpt><trkpt lat="43.60763626973356" lon="11.35419405079931"><ele>656.5999999999999</ele><time>2026-05-03T18:30:42Z</time></trkpt><trkpt lat="43.60754948594957" lon="11.354270411306107"><ele>654.4</ele><time>2026-05-03T18:30:44Z</time></trkpt><trkpt lat="43.607465663539465" lon="11.354346216040723"><ele>652.2</ele><time>2026-05-03T18:30:46Z</time></trkpt><trkpt lat="43.607357680291756" lon="11.35433503711298"><ele>650.0</ele><time>2026-05-03T18:30:47.999Z</time></trkpt><trkpt lat="43.60726600032804" lon="11.354349174005035"><ele>650.0</ele><time>2026-05-03T18:30:49.999Z</time></trkpt><trkpt lat="43.60720739779422" lon="11.354426639237609"><ele>650.0</ele><time>2026-05-03T18:30:51.999Z</time></trkpt><trkpt lat="43.60715757119776" lon="11.354507540326061"><ele>650.0</ele><time>2026-05-03T18:30:53.999Z</time></trkpt><trkpt lat="43.60708050998479" lon="11.354562815763744"><ele>650.0</ele><time>2026-05-03T18:30:55.999Z</time></trkpt><trkpt lat="43.60701155615384" lon="11.354599024263585"><ele>650.0</ele><time>2026-05-03T18:30:57.999Z</time></trkpt><trkpt lat="43.60694317393591" lon="11.354617082414334"><ele>650.0</ele><time>2026-05-03T18:30:59.999Z</time></trkpt><trkpt lat="43.606862877601884" lon="11.354635347278364"><ele>648.4</ele><time>2026-05-03T18:31:01.999Z</time></trkpt><trkpt lat="43.6067888222445" lon="11.35463565542051"><ele>646.8</ele><time>2026-05-03T18:31:03.999Z</time></trkpt><trkpt lat="43.60668925536328" lon="11.354658911519504"><ele>645.2</ele><time>2026-05-03T18:31:05.999Z</time></trkpt><trkpt lat="43.606586094403895" lon="11.354653916336183"><ele>643.6</ele><time>2026-05-03T18:31:07.999Z</time></trkpt><trkpt lat="43.60647794636079" lon="11.354673751527645"><ele>642.0</ele><time>2026-05-03T18:31:09.999Z</time></trkpt><trkpt lat="43.60638491454789" lon="11.354673108978204"><ele>642.0</ele><time>2026-05-03T18:31:11.999Z</time></trkpt><trkpt lat="43.60629468854885" lon="11.354679485240474"><ele>642.0</ele><time>2026-05-03T18:31:13.999Z</time></trkpt><trkpt lat="43.60622527069344" lon="11.354684489171305"><ele>642.0</ele><time>2026-05-03T18:31:14.999Z</time></trkpt><trkpt lat="43.606145973031865" lon="11.354636128051732"><ele>642.0</ele><time>2026-05-03T18:31:16.999Z</time></trkpt><trkpt lat="43.606058673954024" lon="11.354607012623562"><ele>642.0</ele><time>2026-05-03T18:31:18.999Z</time></trkpt><trkpt lat="43.60601059657157" lon="11.354519713335163"><ele>642.0</ele><time>2026-05-03T18:31:20.999Z</time></trkpt><trkpt lat="43.605983158574276" lon="11.354423532325589"><ele>639.2857142857142</ele><time>2026-05-03T18:31:22.999Z</time></trkpt><trkpt lat="43.605925196131246" lon="11.354352118386272"><ele>636.5714285714286</ele><time>2026-05-03T18:31:25.999Z</time></trkpt><trkpt lat="43.60586053419363" lon="11.354370281300643"><ele>633.8571428571429</ele><time>2026-05-03T18:31:27.999Z</time></trkpt><trkpt lat="43.605785981190294" lon="11.354401801037898"><ele>631.1428571428571</ele><time>2026-05-03T18:31:29.999Z</time></trkpt><trkpt lat="43.605726667020946" lon="11.354431813927661"><ele>628.4285714285714</ele><time>2026-05-03T18:31:31.999Z</time></trkpt><trkpt lat="43.6056466634332" lon="11.354463514086415"><ele>625.7142857142857</ele><time>2026-05-03T18:31:34.999Z</time></trkpt><trkpt lat="43.60557854110805" lon="11.354441751736832"><ele>623.0</ele><time>2026-05-03T18:31:37.999Z</time></trkpt><trkpt lat="43.60548117285898" lon="11.354534368850413"><ele>623.0</ele><time>2026-05-03T18:31:39.999Z</time></trkpt><trkpt lat="43.60538000733947" lon="11.354609926286324"><ele>623.0</ele><time>2026-05-03T18:31:41.999Z</time></trkpt><trkpt lat="43.605310868890506" lon="11.354672858343562"><ele>623.0</ele><time>2026-05-03T18:31:43.999Z</time></trkpt><trkpt lat="43.605288180787696" lon="11.35478669966611"><ele>623.0</ele><time>2026-05-03T18:31:45.999Z</time></trkpt><trkpt lat="43.605349093632626" lon="11.354900638672124"><ele>623.0</ele><time>2026-05-03T18:31:47.999Z</time></trkpt><trkpt lat="43.60545544938866" lon="11.35501304801689"><ele>622.5</ele><time>2026-05-03T18:31:49.999Z</time></trkpt><trkpt lat="43.605508399015896" lon="11.355075872434114"><ele>622.0</ele><time>2026-05-03T18:31:50.999Z</time></trkpt><trkpt lat="43.60555947643013" lon="11.355138872598543"><ele>621.5</ele><time>2026-05-03T18:31:51.999Z</time></trkpt><trkpt lat="43.60561007239666" lon="11.355203246929234"><ele>621.0</ele><time>2026-05-03T18:31:52.999Z</time></trkpt><trkpt lat="43.60565998566928" lon="11.355263370137505"><ele>620.5</ele><time>2026-05-03T18:31:53.999Z</time></trkpt><trkpt lat="43.60575855266811" lon="11.355356503793757"><ele>620.0</ele><time>2026-05-03T18:31:55.999Z</time></trkpt><trkpt lat="43.605869517035366" lon="11.35543253859017"><ele>620.0</ele><time>2026-05-03T18:31:57.999Z</time></trkpt><trkpt lat="43.60599544228109" lon="11.355533661782856"><ele>620.0</ele><time>2026-05-03T18:31:59.999Z</time></trkpt><trkpt lat="43.606094413427435" lon="11.355601942907287"><ele>620.0</ele><time>2026-05-03T18:32:00.999Z</time></trkpt><trkpt lat="43.6061786329741" lon="11.355664138841295"><ele>620.0</ele><time>2026-05-03T18:32:01.999Z</time></trkpt><trkpt lat="43.60625882392193" lon="11.355715918837316"><ele>620.0</ele><time>2026-05-03T18:32:02.999Z</time></trkpt><trkpt lat="43.60633113838371" lon="11.355768912340322"><ele>618.2</ele><time>2026-05-03T18:32:03.999Z</time></trkpt><trkpt lat="43.606416973256856" lon="11.355826348807877"><ele>616.4</ele><time>2026-05-03T18:32:04.999Z</time></trkpt><trkpt lat="43.606519671356864" lon="11.355900193922608"><ele>614.6</ele><time>2026-05-03T18:32:05.999Z</time></trkpt><trkpt lat="43.606608647454784" lon="11.355964789100783"><ele>612.8</ele><time>2026-05-03T18:32:06.999Z</time></trkpt><trkpt lat="43.60669152796012" lon="11.356018700501735"><ele>611.0</ele><time>2026-05-03T18:32:07.999Z</time></trkpt><trkpt lat="43.60676533030334" lon="11.356066403022288"><ele>611.0</ele><time>2026-05-03T18:32:08.999Z</time></trkpt><trkpt lat="43.60683366026601" lon="11.3561163501453"><ele>611.0</ele><time>2026-05-03T18:32:09.999Z</time></trkpt><trkpt lat="43.60689085968911" lon="11.356177693691878"><ele>611.0</ele><time>2026-05-03T18:32:10.999Z</time></trkpt><trkpt lat="43.60695966014263" lon="11.356323800138473"><ele>611.0</ele><time>2026-05-03T18:32:12.999Z</time></trkpt><trkpt lat="43.6069626084366" lon="11.356420100763199"><ele>611.0</ele><time>2026-05-03T18:32:13.999Z</time></trkpt><trkpt lat="43.60693969009997" lon="11.356518759550372"><ele>611.0</ele><time>2026-05-03T18:32:14.999Z</time></trkpt><trkpt lat="43.60690293601383" lon="11.35661760364259"><ele>608.6666666666666</ele><time>2026-05-03T18:32:15.999Z</time></trkpt><trkpt lat="43.60683756775832" lon="11.356680419148521"><ele>606.3333333333333</ele><time>2026-05-03T18:32:16.999Z</time></trkpt><trkpt lat="43.606796448382546" lon="11.35675347387227"><ele>604.0</ele><time>2026-05-03T18:32:17.999Z</time></trkpt><trkpt lat="43.60673480498466" lon="11.356795687357703"><ele>601.6666666666666</ele><time>2026-05-03T18:32:18.999Z</time></trkpt><trkpt lat="43.606621038892584" lon="11.356877041761528"><ele>599.3333333333334</ele><time>2026-05-03T18:32:20.999Z</time></trkpt><trkpt lat="43.60655607148111" lon="11.356900024039922"><ele>597.0</ele><time>2026-05-03T18:32:21.998Z</time></trkpt><trkpt lat="43.60645889410741" lon="11.357024998801462"><ele>597.0</ele><time>2026-05-03T18:32:23.998Z</time></trkpt><trkpt lat="43.60640944424566" lon="11.357088861238932"><ele>597.0</ele><time>2026-05-03T18:32:24.998Z</time></trkpt><trkpt lat="43.606359945708775" lon="11.357161661106254"><ele>597.0</ele><time>2026-05-03T18:32:25.998Z</time></trkpt><trkpt lat="43.606295053729454" lon="11.357240944000523"><ele>597.0</ele><time>2026-05-03T18:32:26.998Z</time></trkpt><trkpt lat="43.60623963811017" lon="11.357321139031816"><ele>597.0</ele><time>2026-05-03T18:32:27.998Z</time></trkpt><trkpt lat="43.606179446407" lon="11.357394812391298"><ele>597.0</ele><time>2026-05-03T18:32:28.998Z</time></trkpt><trkpt lat="43.60612959804287" lon="11.357465987098031"><ele>594.4</ele><time>2026-05-03T18:32:29.998Z</time></trkpt><trkpt lat="43.60608029385504" lon="11.357537713607368"><ele>591.8000000000001</ele><time>2026-05-03T18:32:30.998Z</time></trkpt><trkpt lat="43.60602402775555" lon="11.357611796257729"><ele>589.2</ele><time>2026-05-03T18:32:31.998Z</time></trkpt><trkpt lat="43.605932153678545" lon="11.357744540044635"><ele>586.6</ele><time>2026-05-03T18:32:34Z</time></trkpt><trkpt lat="43.60588764224549" lon="11.357814855159042"><ele>584.0</ele><time>2026-05-03T18:32:35Z</time></trkpt><trkpt lat="43.6057901614175" lon="11.357918096313712"><ele>584.0</ele><time>2026-05-03T18:32:37Z</time></trkpt><trkpt lat="43.60573119460227" lon="11.357956169256902"><ele>584.0</ele><time>2026-05-03T18:32:38Z</time></trkpt><trkpt lat="43.60564246219446" lon="11.358020001759684"><ele>584.0</ele><time>2026-05-03T18:32:39Z</time></trkpt><trkpt lat="43.60555687581344" lon="11.358080851843427"><ele>584.0</ele><time>2026-05-03T18:32:40Z</time></trkpt><trkpt lat="43.605482651644465" lon="11.358126079056335"><ele>584.0</ele><time>2026-05-03T18:32:41Z</time></trkpt><trkpt lat="43.605412894154725" lon="11.358181831284732"><ele>584.0</ele><time>2026-05-03T18:32:42Z</time></trkpt><trkpt lat="43.60533529880247" lon="11.358208281644819"><ele>581.8333333333333</ele><time>2026-05-03T18:32:43Z</time></trkpt><trkpt lat="43.60527521337776" lon="11.358273929861426"><ele>579.6666666666666</ele><time>2026-05-03T18:32:44Z</time></trkpt><trkpt lat="43.60521228394428" lon="11.358309453058794"><ele>577.5</ele><time>2026-05-03T18:32:45Z</time></trkpt><trkpt lat="43.6051567814627" lon="11.358352813643515"><ele>575.3333333333334</ele><time>2026-05-03T18:32:46Z</time></trkpt><trkpt lat="43.60504758037257" lon="11.358404570399912"><ele>573.1666666666667</ele><time>2026-05-03T18:32:48Z</time></trkpt><trkpt lat="43.60498896277015" lon="11.35844314091874"><ele>571.0</ele><time>2026-05-03T18:32:49.999Z</time></trkpt><trkpt lat="43.60504350966826" lon="11.358629270842656"><ele>571.0</ele><time>2026-05-03T18:32:50.999Z</time></trkpt><trkpt lat="43.60503483527727" lon="11.358725975282008"><ele>571.0</ele><time>2026-05-03T18:32:51.999Z</time></trkpt><trkpt lat="43.60500362735482" lon="11.358864859639684"><ele>571.0</ele><time>2026-05-03T18:32:53.999Z</time></trkpt><trkpt lat="43.604748967366426" lon="11.358575694743383"><ele>571.0</ele><time>2026-05-03T18:32:54.999Z</time></trkpt><trkpt lat="43.60468628527713" lon="11.358601345341132"><ele>571.0</ele><time>2026-05-03T18:32:55.999Z</time></trkpt><trkpt lat="43.60461478459447" lon="11.358629466326425"><ele>571.0</ele><time>2026-05-03T18:32:56.999Z</time></trkpt><trkpt lat="43.60455228611367" lon="11.358657523749446"><ele>571.0</ele><time>2026-05-03T18:32:57.999Z</time></trkpt><trkpt lat="43.604468042822525" lon="11.358695342888486"><ele>571.0</ele><time>2026-05-03T18:32:58.999Z</time></trkpt><trkpt lat="43.60436912526117" lon="11.358733902963541"><ele>571.0</ele><time>2026-05-03T18:33:00.999Z</time></trkpt><trkpt lat="43.60425072750514" lon="11.358775854541607"><ele>570.25</ele><time>2026-05-03T18:33:02.999Z</time></trkpt><trkpt lat="43.6041878497658" lon="11.358797738461597"><ele>569.5</ele><time>2026-05-03T18:33:03.999Z</time></trkpt><trkpt lat="43.60418772710058" lon="11.35920309537341"><ele>568.75</ele><time>2026-05-03T18:33:04.999Z</time></trkpt><trkpt lat="43.604138978213285" lon="11.35927291740095"><ele>568.0</ele><time>2026-05-03T18:33:05.999Z</time></trkpt><trkpt lat="43.60410621075316" lon="11.359350502328612"><ele>568.0</ele><time>2026-05-03T18:33:06.999Z</time></trkpt><trkpt lat="43.60401404525842" lon="11.359448902433998"><ele>568.0</ele><time>2026-05-03T18:33:08.999Z</time></trkpt><trkpt lat="43.60392191603546" lon="11.359502221089548"><ele>568.0</ele><time>2026-05-03T18:33:10.999Z</time></trkpt><trkpt lat="43.60382009526544" lon="11.359558980483785"><ele>568.0</ele><time>2026-05-03T18:33:12.999Z</time></trkpt><trkpt lat="43.60375539977618" lon="11.35957623952386"><ele>568.0</ele><time>2026-05-03T18:33:13.999Z</time></trkpt><trkpt lat="43.603691041101804" lon="11.359584277122265"><ele>567.5714285714286</ele><time>2026-05-03T18:33:14.999Z</time></trkpt><trkpt lat="43.60362543116365" lon="11.359600911879404"><ele>567.1428571428571</ele><time>2026-05-03T18:33:15.999Z</time></trkpt><trkpt lat="43.603564168156055" lon="11.35962886081588"><ele>566.7142857142857</ele><time>2026-05-03T18:33:16.999Z</time></trkpt><trkpt lat="43.603510325443445" lon="11.359678304839635"><ele>566.2857142857142</ele><time>2026-05-03T18:33:17.999Z</time></trkpt><trkpt lat="43.60346789914299" lon="11.35975790889322"><ele>565.8571428571429</ele><time>2026-05-03T18:33:18.999Z</time></trkpt><trkpt lat="43.60342327443458" lon="11.359849829159396"><ele>565.4285714285713</ele><time>2026-05-03T18:33:19.999Z</time></trkpt><trkpt lat="43.6033625124057" lon="11.359911568929274"><ele>565.0</ele><time>2026-05-03T18:33:20.999Z</time></trkpt><trkpt lat="43.60328985751165" lon="11.359928414129236"><ele>565.0</ele><time>2026-05-03T18:33:21.999Z</time></trkpt><trkpt lat="43.60320841619308" lon="11.359954343422054"><ele>565.0</ele><time>2026-05-03T18:33:22.999Z</time></trkpt><trkpt lat="43.603132243550796" lon="11.360003625182431"><ele>565.0</ele><time>2026-05-03T18:33:23.999Z</time></trkpt><trkpt lat="43.603072188164454" lon="11.360042188170024"><ele>565.0</ele><time>2026-05-03T18:33:24.999Z</time></trkpt><trkpt lat="43.602970773277896" lon="11.360102802300974"><ele>565.0</ele><time>2026-05-03T18:33:26.999Z</time></trkpt><trkpt lat="43.60290958964205" lon="11.36015155764487"><ele>565.0</ele><time>2026-05-03T18:33:27.999Z</time></trkpt><trkpt lat="43.602850554658765" lon="11.360196802780408"><ele>564.6666666666667</ele><time>2026-05-03T18:33:28.999Z</time></trkpt><trkpt lat="43.602761008135886" lon="11.36029052625509"><ele>564.3333333333334</ele><time>2026-05-03T18:33:30.999Z</time></trkpt><trkpt lat="43.60270667632469" lon="11.360346607970154"><ele>564.0</ele><time>2026-05-03T18:33:31.999Z</time></trkpt><trkpt lat="43.60263300160573" lon="11.360387240641062"><ele>563.6666666666666</ele><time>2026-05-03T18:33:32.999Z</time></trkpt><trkpt lat="43.602565355454495" lon="11.36043344820911"><ele>563.3333333333333</ele><time>2026-05-03T18:33:33.999Z</time></trkpt><trkpt lat="43.602494953917" lon="11.36049420431536"><ele>563.0</ele><time>2026-05-03T18:33:34.999Z</time></trkpt><trkpt lat="43.602417908330054" lon="11.36053790599931"><ele>563.0</ele><time>2026-05-03T18:33:35.999Z</time></trkpt><trkpt lat="43.60232545081491" lon="11.36058479157003"><ele>563.0</ele><time>2026-05-03T18:33:37.999Z</time></trkpt><trkpt lat="43.602250337429545" lon="11.360669886922755"><ele>563.0</ele><time>2026-05-03T18:33:39.999Z</time></trkpt><trkpt lat="43.60216223871754" lon="11.360747798548255"><ele>563.0</ele><time>2026-05-03T18:33:41.999Z</time></trkpt><trkpt lat="43.602050232188944" lon="11.360802844160418"><ele>563.0</ele><time>2026-05-03T18:33:43.999Z</time></trkpt><trkpt lat="43.601949601275464" lon="11.360889107435685"><ele>561.6666666666666</ele><time>2026-05-03T18:33:45.999Z</time></trkpt><trkpt lat="43.601857613540005" lon="11.360944064320883"><ele>560.3333333333333</ele><time>2026-05-03T18:33:47.999Z</time></trkpt><trkpt lat="43.601785507645296" lon="11.360995993826048"><ele>559.0</ele><time>2026-05-03T18:33:49.999Z</time></trkpt><trkpt lat="43.601701269743195" lon="11.361039816871566"><ele>557.6666666666666</ele><time>2026-05-03T18:33:51.999Z</time></trkpt><trkpt lat="43.601623665359064" lon="11.361106919358589"><ele>556.3333333333334</ele><time>2026-05-03T18:33:53.999Z</time></trkpt><trkpt lat="43.60154774573865" lon="11.36115419132049"><ele>555.0</ele><time>2026-05-03T18:33:55.999Z</time></trkpt><trkpt lat="43.60147555071894" lon="11.361220484378997"><ele>555.0</ele><time>2026-05-03T18:33:57.999Z</time></trkpt><trkpt lat="43.601401893523196" lon="11.361298565356222"><ele>555.0</ele><time>2026-05-03T18:33:59.999Z</time></trkpt><trkpt lat="43.60131137376477" lon="11.36136804091482"><ele>555.0</ele><time>2026-05-03T18:34:01.999Z</time></trkpt><trkpt lat="43.60122244256779" lon="11.36143102763238"><ele>555.0</ele><time>2026-05-03T18:34:03.999Z</time></trkpt><trkpt lat="43.60112506452903" lon="11.361493447301832"><ele>555.0</ele><time>2026-05-03T18:34:05.999Z</time></trkpt><trkpt lat="43.601043982988415" lon="11.361568361274895"><ele>552.5</ele><time>2026-05-03T18:34:07.999Z</time></trkpt><trkpt lat="43.60093893546831" lon="11.361571247661844"><ele>550.0</ele><time>2026-05-03T18:34:09.999Z</time></trkpt><trkpt lat="43.60086922878891" lon="11.361601539623903"><ele>547.5</ele><time>2026-05-03T18:34:11.999Z</time></trkpt><trkpt lat="43.60079274678088" lon="11.361651395501157"><ele>545.0</ele><time>2026-05-03T18:34:13.999Z</time></trkpt><trkpt lat="43.6007227189088" lon="11.361746156421985"><ele>542.5</ele><time>2026-05-03T18:34:15.999Z</time></trkpt><trkpt lat="43.60066404160389" lon="11.361806944789793"><ele>540.0</ele><time>2026-05-03T18:34:16.999Z</time></trkpt><trkpt lat="43.600600780911094" lon="11.36184136281246"><ele>540.0</ele><time>2026-05-03T18:34:17.999Z</time></trkpt><trkpt lat="43.60052990856505" lon="11.361862078456985"><ele>540.0</ele><time>2026-05-03T18:34:18.999Z</time></trkpt><trkpt lat="43.6004679359741" lon="11.361897499022422"><ele>540.0</ele><time>2026-05-03T18:34:19.999Z</time></trkpt><trkpt lat="43.60035664268691" lon="11.361978784558193"><ele>540.0</ele><time>2026-05-03T18:34:21.999Z</time></trkpt><trkpt lat="43.60025246685068" lon="11.362053875852679"><ele>540.0</ele><time>2026-05-03T18:34:23.999Z</time></trkpt><trkpt lat="43.60015173833731" lon="11.362108223498742"><ele>539.6666666666666</ele><time>2026-05-03T18:34:25.998Z</time></trkpt><trkpt lat="43.60009781166352" lon="11.36216014662082"><ele>539.3333333333334</ele><time>2026-05-03T18:34:26.998Z</time></trkpt><trkpt lat="43.60002763578058" lon="11.362254363167049"><ele>539.0</ele><time>2026-05-03T18:34:27.998Z</time></trkpt><trkpt lat="43.59995435463624" lon="11.362359419491879"><ele>538.6666666666667</ele><time>2026-05-03T18:34:28.998Z</time></trkpt><trkpt lat="43.59989861035613" lon="11.362440738286317"><ele>538.3333333333334</ele><time>2026-05-03T18:34:29.998Z</time></trkpt><trkpt lat="43.599841550556924" lon="11.362523062815486"><ele>538.0</ele><time>2026-05-03T18:34:30.998Z</time></trkpt><trkpt lat="43.59978446506226" lon="11.362616312309482"><ele>538.0</ele><time>2026-05-03T18:34:31.998Z</time></trkpt><trkpt lat="43.599727120505484" lon="11.362702049652464"><ele>538.0</ele><time>2026-05-03T18:34:32.998Z</time></trkpt><trkpt lat="43.59967848478174" lon="11.36277396425262"><ele>538.0</ele><time>2026-05-03T18:34:33.998Z</time></trkpt><trkpt lat="43.59963532106632" lon="11.362838647664264"><ele>538.0</ele><time>2026-05-03T18:34:35.998Z</time></trkpt><trkpt lat="43.59956377569559" lon="11.362944578948587"><ele>538.0</ele><time>2026-05-03T18:34:38.998Z</time></trkpt><trkpt lat="43.59948177444556" lon="11.363045377565465"><ele>538.0</ele><time>2026-05-03T18:34:40.999Z</time></trkpt><trkpt lat="43.5994026915931" lon="11.36315017697247"><ele>537.5714285714286</ele><time>2026-05-03T18:34:41.999Z</time></trkpt><trkpt lat="43.59933339618433" lon="11.363219355800412"><ele>537.1428571428572</ele><time>2026-05-03T18:34:42.999Z</time></trkpt><trkpt lat="43.59926700918678" lon="11.363274351018992"><ele>536.7142857142858</ele><time>2026-05-03T18:34:43.999Z</time></trkpt><trkpt lat="43.599207048979395" lon="11.363312988023203"><ele>536.2857142857143</ele><time>2026-05-03T18:34:44.999Z</time></trkpt><trkpt lat="43.59914556851169" lon="11.3633437699048"><ele>535.8571428571429</ele><time>2026-05-03T18:34:45.999Z</time></trkpt><trkpt lat="43.599078937670114" lon="11.363385709537189"><ele>535.4285714285714</ele><time>2026-05-03T18:34:46.999Z</time></trkpt><trkpt lat="43.5990156099991" lon="11.363424311631274"><ele>535.0</ele><time>2026-05-03T18:34:47.999Z</time></trkpt><trkpt lat="43.59894397791116" lon="11.363458776298277"><ele>535.0</ele><time>2026-05-03T18:34:48.999Z</time></trkpt><trkpt lat="43.59887136534417" lon="11.363495758097429"><ele>535.0</ele><time>2026-05-03T18:34:49.999Z</time></trkpt><trkpt lat="43.59878898483442" lon="11.363543636060617"><ele>535.0</ele><time>2026-05-03T18:34:50.999Z</time></trkpt><trkpt lat="43.59871155459384" lon="11.36356058657402"><ele>535.0</ele><time>2026-05-03T18:34:51.999Z</time></trkpt><trkpt lat="43.598641038425654" lon="11.363598359970752"><ele>535.0</ele><time>2026-05-03T18:34:52.999Z</time></trkpt><trkpt lat="43.59856884651983" lon="11.363637443347702"><ele>535.0</ele><time>2026-05-03T18:34:53.999Z</time></trkpt><trkpt lat="43.59850095637197" lon="11.363694299087577"><ele>534.4</ele><time>2026-05-03T18:34:54.999Z</time></trkpt><trkpt lat="43.59843042736506" lon="11.363729008104887"><ele>533.8</ele><time>2026-05-03T18:34:55.999Z</time></trkpt><trkpt lat="43.59837046800461" lon="11.363764505042463"><ele>533.2</ele><time>2026-05-03T18:34:56.999Z</time></trkpt><trkpt lat="43.59827405688034" lon="11.3637994715104"><ele>532.6</ele><time>2026-05-03T18:34:58.999Z</time></trkpt><trkpt lat="43.59815685447015" lon="11.363569603383088"><ele>532.0</ele><time>2026-05-03T18:35:03.999Z</time></trkpt><trkpt lat="43.59811607827291" lon="11.363471653635406"><ele>532.0</ele><time>2026-05-03T18:35:04.999Z</time></trkpt><trkpt lat="43.5980615020411" lon="11.363390859593373"><ele>532.0</ele><time>2026-05-03T18:35:05.999Z</time></trkpt><trkpt lat="43.59796278612241" lon="11.363281563569657"><ele>532.0</ele><time>2026-05-03T18:35:06.999Z</time></trkpt><trkpt lat="43.59785683781881" lon="11.363186797664522"><ele>532.0</ele><time>2026-05-03T18:35:07.999Z</time></trkpt><trkpt lat="43.597746854880235" lon="11.363144715115842"><ele>532.0</ele><time>2026-05-03T18:35:08.999Z</time></trkpt><trkpt lat="43.59760433820092" lon="11.363121437543075"><ele>532.0</ele><time>2026-05-03T18:35:09.999Z</time></trkpt><trkpt lat="43.59746772724416" lon="11.363072875837236"><ele>532.0</ele><time>2026-05-03T18:35:10.999Z</time></trkpt><trkpt lat="43.59734761809005" lon="11.363059648630667"><ele>532.0</ele><time>2026-05-03T18:35:11.999Z</time></trkpt><trkpt lat="43.59724064660221" lon="11.363017538775354"><ele>532.0</ele><time>2026-05-03T18:35:12.999Z</time></trkpt><trkpt lat="43.59713914194302" lon="11.362970365534661"><ele>530.8000000000001</ele><time>2026-05-03T18:35:13.999Z</time></trkpt><trkpt lat="43.59704128217372" lon="11.362917374700524"><ele>529.6</ele><time>2026-05-03T18:35:14.999Z</time></trkpt><trkpt lat="43.5969474474702" lon="11.362855864803752"><ele>528.4000000000001</ele><time>2026-05-03T18:35:15.999Z</time></trkpt><trkpt lat="43.596869700289965" lon="11.362759220927252"><ele>527.2</ele><time>2026-05-03T18:35:16.999Z</time></trkpt><trkpt lat="43.59679909655546" lon="11.36264302989213"><ele>526.0</ele><time>2026-05-03T18:35:17.999Z</time></trkpt><trkpt lat="43.59675709771579" lon="11.362524004252439"><ele>526.0</ele><time>2026-05-03T18:35:18.999Z</time></trkpt><trkpt lat="43.59670721056111" lon="11.362400952498488"><ele>526.0</ele><time>2026-05-03T18:35:19.999Z</time></trkpt><trkpt lat="43.596658451065366" lon="11.362299631824568"><ele>526.0</ele><time>2026-05-03T18:35:20.999Z</time></trkpt><trkpt lat="43.596605337879964" lon="11.362194191749374"><ele>526.0</ele><time>2026-05-03T18:35:21.999Z</time></trkpt><trkpt lat="43.59650177231837" lon="11.362153867463364"><ele>526.0</ele><time>2026-05-03T18:35:22.999Z</time></trkpt><trkpt lat="43.59639435089608" lon="11.362136651129001"><ele>525.4</ele><time>2026-05-03T18:35:23.999Z</time></trkpt><trkpt lat="43.59628479504983" lon="11.362142628961259"><ele>524.8</ele><time>2026-05-03T18:35:24.999Z</time></trkpt><trkpt lat="43.59617467020547" lon="11.362170170683507"><ele>524.1999999999999</ele><time>2026-05-03T18:35:25.999Z</time></trkpt><trkpt lat="43.59606928385211" lon="11.362201248452768"><ele>523.6</ele><time>2026-05-03T18:35:26.999Z</time></trkpt><trkpt lat="43.59595906466189" lon="11.362251132924087"><ele>523.0</ele><time>2026-05-03T18:35:27.999Z</time></trkpt><trkpt lat="43.59585658234471" lon="11.362304761349165"><ele>523.0</ele><time>2026-05-03T18:35:28.999Z</time></trkpt><trkpt lat="43.595749146029014" lon="11.36240784151942"><ele>523.0</ele><time>2026-05-03T18:35:29.999Z</time></trkpt><trkpt lat="43.59564675005017" lon="11.362487499703844"><ele>523.0</ele><time>2026-05-03T18:35:31Z</time></trkpt><trkpt lat="43.595547530153986" lon="11.36256825016423"><ele>523.0</ele><time>2026-05-03T18:35:32Z</time></trkpt><trkpt lat="43.595441652129004" lon="11.362651211889276"><ele>518.75</ele><time>2026-05-03T18:35:33Z</time></trkpt><trkpt lat="43.595333638991775" lon="11.362738813924873"><ele>514.5</ele><time>2026-05-03T18:35:34Z</time></trkpt><trkpt lat="43.59522915979778" lon="11.36279820223527"><ele>510.25</ele><time>2026-05-03T18:35:35Z</time></trkpt><trkpt lat="43.59512479154952" lon="11.362849768160075"><ele>506.0</ele><time>2026-05-03T18:35:36Z</time></trkpt><trkpt lat="43.595018544849495" lon="11.362905550121285"><ele>506.0</ele><time>2026-05-03T18:35:37Z</time></trkpt><trkpt lat="43.59491489187963" lon="11.362965402731666"><ele>506.0</ele><time>2026-05-03T18:35:38Z</time></trkpt><trkpt lat="43.5948232799369" lon="11.363049795671456"><ele>506.0</ele><time>2026-05-03T18:35:39Z</time></trkpt><trkpt lat="43.59474737902447" lon="11.363168113353858"><ele>506.0</ele><time>2026-05-03T18:35:40Z</time></trkpt><trkpt lat="43.594658620851035" lon="11.363266033203004"><ele>508.8</ele><time>2026-05-03T18:35:41Z</time></trkpt><trkpt lat="43.59457194099265" lon="11.363351567394522"><ele>511.6</ele><time>2026-05-03T18:35:42Z</time></trkpt><trkpt lat="43.594477779141144" lon="11.363419453906019"><ele>514.4</ele><time>2026-05-03T18:35:43Z</time></trkpt><trkpt lat="43.59438118932639" lon="11.363468538446615"><ele>517.2</ele><time>2026-05-03T18:35:44Z</time></trkpt><trkpt lat="43.594282093572254" lon="11.363487518268542"><ele>520.0</ele><time>2026-05-03T18:35:45Z</time></trkpt><trkpt lat="43.59418479950339" lon="11.363482213002818"><ele>520.0</ele><time>2026-05-03T18:35:46Z</time></trkpt><trkpt lat="43.59409069160964" lon="11.36345212372677"><ele>520.0</ele><time>2026-05-03T18:35:47Z</time></trkpt><trkpt lat="43.59399296074107" lon="11.363398368074485"><ele>520.0</ele><time>2026-05-03T18:35:48Z</time></trkpt><trkpt lat="43.593885589635875" lon="11.363358566945351"><ele>520.0</ele><time>2026-05-03T18:35:49Z</time></trkpt><trkpt lat="43.59378319241466" lon="11.36330167852217"><ele>520.0</ele><time>2026-05-03T18:35:50Z</time></trkpt><trkpt lat="43.5936738750131" lon="11.363244595077216"><ele>521.4</ele><time>2026-05-03T18:35:51Z</time></trkpt><trkpt lat="43.59357004523061" lon="11.36320237339505"><ele>522.8</ele><time>2026-05-03T18:35:52Z</time></trkpt><trkpt lat="43.59346294503836" lon="11.363184651481388"><ele>524.2</ele><time>2026-05-03T18:35:53Z</time></trkpt><trkpt lat="43.593353423777295" lon="11.363193302500683"><ele>525.6</ele><time>2026-05-03T18:35:54Z</time></trkpt><trkpt lat="43.59324363881715" lon="11.36322573493328"><ele>527.0</ele><time>2026-05-03T18:35:55Z</time></trkpt><trkpt lat="43.5931311818871" lon="11.363255843163028"><ele>527.0</ele><time>2026-05-03T18:35:56Z</time></trkpt><trkpt lat="43.59301406757209" lon="11.363279850519287"><ele>527.0</ele><time>2026-05-03T18:35:57Z</time></trkpt><trkpt lat="43.5928961790212" lon="11.363294056705405"><ele>527.0</ele><time>2026-05-03T18:35:58Z</time></trkpt><trkpt lat="43.592784938016685" lon="11.363304848756476"><ele>527.0</ele><time>2026-05-03T18:35:59Z</time></trkpt><trkpt lat="43.59268798706535" lon="11.363301501446943"><ele>527.0</ele><time>2026-05-03T18:36:00Z</time></trkpt><trkpt lat="43.592597106987526" lon="11.3632794876113"><ele>528.0</ele><time>2026-05-03T18:36:01Z</time></trkpt><trkpt lat="43.59252080237668" lon="11.363213899684055"><ele>529.0</ele><time>2026-05-03T18:36:02Z</time></trkpt><trkpt lat="43.59246696203144" lon="11.363106216838958"><ele>530.0</ele><time>2026-05-03T18:36:03Z</time></trkpt><trkpt lat="43.59244479184003" lon="11.362983920881048"><ele>531.0</ele><time>2026-05-03T18:36:04Z</time></trkpt><trkpt lat="43.59246281141518" lon="11.362847859919734"><ele>532.0</ele><time>2026-05-03T18:36:05Z</time></trkpt><trkpt lat="43.59250002790877" lon="11.36270697746218"><ele>532.0</ele><time>2026-05-03T18:36:06Z</time></trkpt><trkpt lat="43.5925430686738" lon="11.362570686569496"><ele>532.0</ele><time>2026-05-03T18:36:07Z</time></trkpt><trkpt lat="43.59258933561915" lon="11.362430407041137"><ele>532.0</ele><time>2026-05-03T18:36:08Z</time></trkpt><trkpt lat="43.59263774039875" lon="11.362296765108558"><ele>532.0</ele><time>2026-05-03T18:36:09Z</time></trkpt><trkpt lat="43.59268437457497" lon="11.362169030243619"><ele>532.0</ele><time>2026-05-03T18:36:10Z</time></trkpt><trkpt lat="43.592737484795066" lon="11.362044649226252"><ele>532.0</ele><time>2026-05-03T18:36:11Z</time></trkpt><trkpt lat="43.592786004274416" lon="11.361926227578186"><ele>532.0</ele><time>2026-05-03T18:36:12Z</time></trkpt><trkpt lat="43.59283801400071" lon="11.361802794216926"><ele>532.0</ele><time>2026-05-03T18:36:13Z</time></trkpt><trkpt lat="43.59288482585743" lon="11.361671825691056"><ele>532.0</ele><time>2026-05-03T18:36:14Z</time></trkpt><trkpt lat="43.592916866837854" lon="11.361534509774675"><ele>532.0</ele><time>2026-05-03T18:36:15Z</time></trkpt><trkpt lat="43.592933735226104" lon="11.361392107059842"><ele>529.8000000000001</ele><time>2026-05-03T18:36:16Z</time></trkpt><trkpt lat="43.59293724479961" lon="11.361239698416032"><ele>527.6</ele><time>2026-05-03T18:36:17Z</time></trkpt><trkpt lat="43.592923291484816" lon="11.361097536425333"><ele>525.4000000000001</ele><time>2026-05-03T18:36:18Z</time></trkpt><trkpt lat="43.59288794710097" lon="11.360965864231229"><ele>523.2</ele><time>2026-05-03T18:36:19Z</time></trkpt><trkpt lat="43.592827393712305" lon="11.360858492069806"><ele>521.0</ele><time>2026-05-03T18:36:20Z</time></trkpt><trkpt lat="43.59274943715624" lon="11.360782913487702"><ele>521.0</ele><time>2026-05-03T18:36:21Z</time></trkpt><trkpt lat="43.59266317991935" lon="11.3607261448822"><ele>521.0</ele><time>2026-05-03T18:36:22Z</time></trkpt><trkpt lat="43.59255582131249" lon="11.3606901546367"><ele>521.0</ele><time>2026-05-03T18:36:23Z</time></trkpt><trkpt lat="43.59246660407215" lon="11.36063261262863"><ele>521.0</ele><time>2026-05-03T18:36:24Z</time></trkpt><trkpt lat="43.59240156783962" lon="11.360526140755319"><ele>521.0</ele><time>2026-05-03T18:36:25Z</time></trkpt><trkpt lat="43.59237343597792" lon="11.360391241679311"><ele>518.4</ele><time>2026-05-03T18:36:26Z</time></trkpt><trkpt lat="43.5923790782319" lon="11.360254194662277"><ele>515.8</ele><time>2026-05-03T18:36:27Z</time></trkpt><trkpt lat="43.59240902461206" lon="11.360110339975874"><ele>513.1999999999999</ele><time>2026-05-03T18:36:28Z</time></trkpt><trkpt lat="43.59243317275412" lon="11.359962327154268"><ele>510.59999999999997</ele><time>2026-05-03T18:36:29Z</time></trkpt><trkpt lat="43.59244593139704" lon="11.359807065780073"><ele>508.0</ele><time>2026-05-03T18:36:29.999Z</time></trkpt><trkpt lat="43.59246494192201" lon="11.359647599839631"><ele>507.79999999999995</ele><time>2026-05-03T18:36:30.999Z</time></trkpt><trkpt lat="43.59249170102385" lon="11.359490536092622"><ele>507.59999999999997</ele><time>2026-05-03T18:36:31.999Z</time></trkpt><trkpt lat="43.59253172118941" lon="11.359358234921125"><ele>507.40000000000003</ele><time>2026-05-03T18:36:32.999Z</time></trkpt><trkpt lat="43.59258632308072" lon="11.359241269780421"><ele>507.20000000000005</ele><time>2026-05-03T18:36:33.999Z</time></trkpt><trkpt lat="43.59265272162283" lon="11.359145609957688"><ele>507.0</ele><time>2026-05-03T18:36:34.999Z</time></trkpt><trkpt lat="43.592718640659164" lon="11.359054219235647"><ele>507.0</ele><time>2026-05-03T18:36:35.999Z</time></trkpt><trkpt lat="43.59275657417378" lon="11.35894102987571"><ele>507.00000000000006</ele><time>2026-05-03T18:36:36.999Z</time></trkpt><trkpt lat="43.59276521248323" lon="11.358814288456049"><ele>507.00000000000006</ele><time>2026-05-03T18:36:37.999Z</time></trkpt><trkpt lat="43.59272886343467" lon="11.358688235222763"><ele>507.0</ele><time>2026-05-03T18:36:38.999Z</time></trkpt><trkpt lat="43.59266982457053" lon="11.358570673971325"><ele>507.0</ele><time>2026-05-03T18:36:39.999Z</time></trkpt><trkpt lat="43.59259382006139" lon="11.358461864320185"><ele>506.20000000000005</ele><time>2026-05-03T18:36:40.999Z</time></trkpt><trkpt lat="43.59252967574744" lon="11.35833899726923"><ele>505.40000000000003</ele><time>2026-05-03T18:36:41.999Z</time></trkpt><trkpt lat="43.59248548703138" lon="11.358199861747805"><ele>504.59999999999997</ele><time>2026-05-03T18:36:42.999Z</time></trkpt><trkpt lat="43.592450436413024" lon="11.358054284035633"><ele>503.79999999999995</ele><time>2026-05-03T18:36:43.999Z</time></trkpt><trkpt lat="43.592420589221945" lon="11.357908614882668"><ele>503.0</ele><time>2026-05-03T18:36:44.999Z</time></trkpt><trkpt lat="43.592398859227636" lon="11.357758354400078"><ele>499.4</ele><time>2026-05-03T18:36:46Z</time></trkpt><trkpt lat="43.59237003325497" lon="11.357615048470194"><ele>495.79999999999995</ele><time>2026-05-03T18:36:47Z</time></trkpt><trkpt lat="43.59234593133901" lon="11.357471381192507"><ele>492.2</ele><time>2026-05-03T18:36:48Z</time></trkpt><trkpt lat="43.59232431650396" lon="11.357330091693802"><ele>488.6</ele><time>2026-05-03T18:36:49Z</time></trkpt><trkpt lat="43.592303742910126" lon="11.35718642364479"><ele>485.0</ele><time>2026-05-03T18:36:50Z</time></trkpt><trkpt lat="43.592282234432716" lon="11.357042785404664"><ele>481.8</ele><time>2026-05-03T18:36:51Z</time></trkpt><trkpt lat="43.592261947416596" lon="11.356897536812442"><ele>478.6</ele><time>2026-05-03T18:36:52Z</time></trkpt><trkpt lat="43.592237151217525" lon="11.356757596085377"><ele>475.4</ele><time>2026-05-03T18:36:53Z</time></trkpt><trkpt lat="43.59220191506096" lon="11.356625549089184"><ele>472.2</ele><time>2026-05-03T18:36:54Z</time></trkpt><trkpt lat="43.59215138737181" lon="11.356506862407015"><ele>469.0</ele><time>2026-05-03T18:36:55Z</time></trkpt><trkpt lat="43.59208082257562" lon="11.356406970036064"><ele>470.2</ele><time>2026-05-03T18:36:56Z</time></trkpt><trkpt lat="43.591986074215654" lon="11.356340021087235"><ele>471.4</ele><time>2026-05-03T18:36:57Z</time></trkpt><trkpt lat="43.59188242183526" lon="11.356275294912404"><ele>472.6</ele><time>2026-05-03T18:36:58Z</time></trkpt><trkpt lat="43.59177731461102" lon="11.356205711370146"><ele>473.8</ele><time>2026-05-03T18:36:59Z</time></trkpt><trkpt lat="43.59169422795073" lon="11.356105328920343"><ele>475.0</ele><time>2026-05-03T18:37:00Z</time></trkpt><trkpt lat="43.591639851234966" lon="11.355992429090296"><ele>475.0</ele><time>2026-05-03T18:37:01Z</time></trkpt><trkpt lat="43.591580267600264" lon="11.355872795800323"><ele>475.0</ele><time>2026-05-03T18:37:02Z</time></trkpt><trkpt lat="43.591524972043466" lon="11.355768495080811"><ele>475.0</ele><time>2026-05-03T18:37:03Z</time></trkpt><trkpt lat="43.59143810566994" lon="11.355713880534324"><ele>475.0</ele><time>2026-05-03T18:37:04Z</time></trkpt><trkpt lat="43.591338170496186" lon="11.35570868473438"><ele>475.0</ele><time>2026-05-03T18:37:05Z</time></trkpt><trkpt lat="43.59123175751722" lon="11.355749054804148"><ele>475.6</ele><time>2026-05-03T18:37:06Z</time></trkpt><trkpt lat="43.59112228259636" lon="11.355766992865851"><ele>476.2</ele><time>2026-05-03T18:37:07Z</time></trkpt><trkpt lat="43.59102435069314" lon="11.355785347989254"><ele>476.79999999999995</ele><time>2026-05-03T18:37:08Z</time></trkpt><trkpt lat="43.59093337670494" lon="11.355777568783486"><ele>477.4</ele><time>2026-05-03T18:37:09Z</time></trkpt><trkpt lat="43.59084352929403" lon="11.355708498464988"><ele>478.0</ele><time>2026-05-03T18:37:10Z</time></trkpt><trkpt lat="43.59079230950358" lon="11.35560769070611"><ele>478.2</ele><time>2026-05-03T18:37:11Z</time></trkpt><trkpt lat="43.59075509038572" lon="11.35548440157945"><ele>478.4</ele><time>2026-05-03T18:37:12Z</time></trkpt><trkpt lat="43.59075352156338" lon="11.355351904856844"><ele>478.59999999999997</ele><time>2026-05-03T18:37:13Z</time></trkpt><trkpt lat="43.590794801617285" lon="11.355216242773189"><ele>478.79999999999995</ele><time>2026-05-03T18:37:14Z</time></trkpt><trkpt lat="43.5908942075686" lon="11.355113621259703"><ele>479.0</ele><time>2026-05-03T18:37:15Z</time></trkpt><trkpt lat="43.59101937421851" lon="11.355053044945288"><ele>479.0</ele><time>2026-05-03T18:37:16Z</time></trkpt><trkpt lat="43.59111206664255" lon="11.355011431754537"><ele>479.0</ele><time>2026-05-03T18:37:17Z</time></trkpt><trkpt lat="43.59121475184181" lon="11.3549370527358"><ele>479.0</ele><time>2026-05-03T18:37:18Z</time></trkpt><trkpt lat="43.59132084326014" lon="11.3548903150024"><ele>479.0</ele><time>2026-05-03T18:37:19Z</time></trkpt><trkpt lat="43.591424969794616" lon="11.354842300307247"><ele>479.0</ele><time>2026-05-03T18:37:20Z</time></trkpt><trkpt lat="43.59152384892967" lon="11.354779898318831"><ele>480.25</ele><time>2026-05-03T18:37:21Z</time></trkpt><trkpt lat="43.59161894713493" lon="11.354690464483069"><ele>481.5</ele><time>2026-05-03T18:37:22Z</time></trkpt><trkpt lat="43.591713714640576" lon="11.354595292795251"><ele>482.75</ele><time>2026-05-03T18:37:23Z</time></trkpt><trkpt lat="43.59180744580984" lon="11.354502131963349"><ele>484.0</ele><time>2026-05-03T18:37:24Z</time></trkpt><trkpt lat="43.59190188791222" lon="11.354418514476832"><ele>484.0</ele><time>2026-05-03T18:37:25Z</time></trkpt><trkpt lat="43.592001123528945" lon="11.354348435183827"><ele>484.0</ele><time>2026-05-03T18:37:26Z</time></trkpt><trkpt lat="43.59211041384202" lon="11.354315751568354"><ele>484.0</ele><time>2026-05-03T18:37:27Z</time></trkpt><trkpt lat="43.59221029025647" lon="11.354291952110739"><ele>484.0</ele><time>2026-05-03T18:37:28Z</time></trkpt><trkpt lat="43.59230272353856" lon="11.354246197297487"><ele>484.0</ele><time>2026-05-03T18:37:29Z</time></trkpt><trkpt lat="43.59238074898966" lon="11.354146277024018"><ele>480.5</ele><time>2026-05-03T18:37:30Z</time></trkpt><trkpt lat="43.59245486733145" lon="11.35402719543934"><ele>477.0</ele><time>2026-05-03T18:37:31Z</time></trkpt><trkpt lat="43.59252409236692" lon="11.35390550749333"><ele>473.5</ele><time>2026-05-03T18:37:32Z</time></trkpt><trkpt lat="43.592605911508336" lon="11.353794678850145"><ele>470.0</ele><time>2026-05-03T18:37:33Z</time></trkpt><trkpt lat="43.59269254136161" lon="11.3536898384454"><ele>470.0</ele><time>2026-05-03T18:37:34Z</time></trkpt><trkpt lat="43.59277819979534" lon="11.353585561728845"><ele>470.0</ele><time>2026-05-03T18:37:35Z</time></trkpt><trkpt lat="43.592860267495105" lon="11.35347329230596"><ele>470.0</ele><time>2026-05-03T18:37:36Z</time></trkpt><trkpt lat="43.59292316245113" lon="11.353348463984403"><ele>470.0</ele><time>2026-05-03T18:37:37Z</time></trkpt><trkpt lat="43.592965612265495" lon="11.353202750934315"><ele>468.5</ele><time>2026-05-03T18:37:38Z</time></trkpt><trkpt lat="43.59298884917395" lon="11.353041846459577"><ele>467.0</ele><time>2026-05-03T18:37:39Z</time></trkpt><trkpt lat="43.593004191373005" lon="11.352883301374444"><ele>465.5</ele><time>2026-05-03T18:37:40Z</time></trkpt><trkpt lat="43.593036850481234" lon="11.352733664629271"><ele>464.0</ele><time>2026-05-03T18:37:41Z</time></trkpt><trkpt lat="43.59310098131318" lon="11.35259493132041"><ele>464.0</ele><time>2026-05-03T18:37:42Z</time></trkpt><trkpt lat="43.593196795408616" lon="11.352484954393404"><ele>464.0</ele><time>2026-05-03T18:37:43Z</time></trkpt><trkpt lat="43.593264225073526" lon="11.352349088823516"><ele>464.0</ele><time>2026-05-03T18:37:44Z</time></trkpt><trkpt lat="43.59334356738411" lon="11.352233103968736"><ele>464.0</ele><time>2026-05-03T18:37:45Z</time></trkpt><trkpt lat="43.59341003760128" lon="11.352105569314597"><ele>466.25</ele><time>2026-05-03T18:37:46Z</time></trkpt><trkpt lat="43.59346156535699" lon="11.351968454497703"><ele>468.5</ele><time>2026-05-03T18:37:47Z</time></trkpt><trkpt lat="43.59352070678987" lon="11.351822613160008"><ele>470.75</ele><time>2026-05-03T18:37:48Z</time></trkpt><trkpt lat="43.593571448993224" lon="11.351673673941601"><ele>473.0</ele><time>2026-05-03T18:37:49Z</time></trkpt><trkpt lat="43.593618144968985" lon="11.351523064223446"><ele>473.0</ele><time>2026-05-03T18:37:50Z</time></trkpt><trkpt lat="43.59365424350555" lon="11.351373309187688"><ele>473.0</ele><time>2026-05-03T18:37:51Z</time></trkpt><trkpt lat="43.59367349474231" lon="11.351222344645802"><ele>473.0</ele><time>2026-05-03T18:37:52Z</time></trkpt><trkpt lat="43.59367596187238" lon="11.351069786396792"><ele>473.0</ele><time>2026-05-03T18:37:53Z</time></trkpt><trkpt lat="43.593667280816916" lon="11.350908035670173"><ele>473.0</ele><time>2026-05-03T18:37:54Z</time></trkpt><trkpt lat="43.59364606537003" lon="11.350760837969679"><ele>472.99999999999994</ele><time>2026-05-03T18:37:55Z</time></trkpt><trkpt lat="43.5936079277538" lon="11.350617085886169"><ele>472.99999999999994</ele><time>2026-05-03T18:37:56Z</time></trkpt><trkpt lat="43.59354303868418" lon="11.35050043191731"><ele>473.0</ele><time>2026-05-03T18:37:57Z</time></trkpt><trkpt lat="43.59348419850827" lon="11.350380222910678"><ele>473.0</ele><time>2026-05-03T18:37:58Z</time></trkpt><trkpt lat="43.593435962982504" lon="11.350256922671477"><ele>471.4</ele><time>2026-05-03T18:37:59Z</time></trkpt><trkpt lat="43.593396114957685" lon="11.35011652323414"><ele>469.79999999999995</ele><time>2026-05-03T18:38:00Z</time></trkpt><trkpt lat="43.59336993062618" lon="11.349957662145984"><ele>468.2</ele><time>2026-05-03T18:38:01Z</time></trkpt><trkpt lat="43.59336457247928" lon="11.349793894294011"><ele>466.6</ele><time>2026-05-03T18:38:02Z</time></trkpt><trkpt lat="43.59336783570581" lon="11.349653388018792"><ele>465.0</ele><time>2026-05-03T18:38:03Z</time></trkpt><trkpt lat="43.59339639604282" lon="11.349509301897413"><ele>463.2</ele><time>2026-05-03T18:38:04Z</time></trkpt><trkpt lat="43.59343406008816" lon="11.34937194947279"><ele>461.4</ele><time>2026-05-03T18:38:05Z</time></trkpt><trkpt lat="43.59347765803616" lon="11.349235920912513"><ele>459.6</ele><time>2026-05-03T18:38:06Z</time></trkpt><trkpt lat="43.59349401835791" lon="11.349104144010436"><ele>457.8</ele><time>2026-05-03T18:38:07Z</time></trkpt><trkpt lat="43.59348042218558" lon="11.348970099249883"><ele>456.0</ele><time>2026-05-03T18:38:08Z</time></trkpt><trkpt lat="43.59344220690771" lon="11.348833314873929"><ele>453.0</ele><time>2026-05-03T18:38:09Z</time></trkpt><trkpt lat="43.593390672510466" lon="11.34869454513515"><ele>450.0</ele><time>2026-05-03T18:38:10Z</time></trkpt><trkpt lat="43.59332831662878" lon="11.34855349611351"><ele>447.0</ele><time>2026-05-03T18:38:11Z</time></trkpt><trkpt lat="43.593266217140325" lon="11.348410097631552"><ele>444.0</ele><time>2026-05-03T18:38:12Z</time></trkpt><trkpt lat="43.59321234407303" lon="11.34826912123533"><ele>444.0</ele><time>2026-05-03T18:38:13Z</time></trkpt><trkpt lat="43.5931708276342" lon="11.348130101830968"><ele>444.0</ele><time>2026-05-03T18:38:14Z</time></trkpt><trkpt lat="43.5931488972059" lon="11.347985424214604"><ele>444.0</ele><time>2026-05-03T18:38:15Z</time></trkpt><trkpt lat="43.593153468436405" lon="11.347839594976882"><ele>444.0</ele><time>2026-05-03T18:38:16Z</time></trkpt><trkpt lat="43.59317997855546" lon="11.347698836913441"><ele>444.0</ele><time>2026-05-03T18:38:17Z</time></trkpt><trkpt lat="43.59320975400463" lon="11.347567046356975"><ele>442.79999999999995</ele><time>2026-05-03T18:38:18Z</time></trkpt><trkpt lat="43.59323152764871" lon="11.347436140660433"><ele>441.59999999999997</ele><time>2026-05-03T18:38:19Z</time></trkpt><trkpt lat="43.5932277835363" lon="11.34730231801903"><ele>440.4</ele><time>2026-05-03T18:38:20Z</time></trkpt><trkpt lat="43.59320423781457" lon="11.347168167889304"><ele>439.2</ele><time>2026-05-03T18:38:21Z</time></trkpt><trkpt lat="43.59315027180542" lon="11.347041134245568"><ele>438.0</ele><time>2026-05-03T18:38:22Z</time></trkpt><trkpt lat="43.593073961447544" lon="11.346927428078205"><ele>438.75</ele><time>2026-05-03T18:38:23Z</time></trkpt><trkpt lat="43.592979546216355" lon="11.34682538547306"><ele>439.5</ele><time>2026-05-03T18:38:24Z</time></trkpt><trkpt lat="43.5928823621298" lon="11.34672980679146"><ele>440.25</ele><time>2026-05-03T18:38:25Z</time></trkpt><trkpt lat="43.59278571483985" lon="11.346630443539587"><ele>441.0</ele><time>2026-05-03T18:38:26Z</time></trkpt><trkpt lat="43.59268817251308" lon="11.346527048828305"><ele>441.0</ele><time>2026-05-03T18:38:27Z</time></trkpt><trkpt lat="43.59258973531932" lon="11.346434705161856"><ele>441.0</ele><time>2026-05-03T18:38:28Z</time></trkpt><trkpt lat="43.59249266188103" lon="11.346359623524787"><ele>441.0</ele><time>2026-05-03T18:38:29Z</time></trkpt><trkpt lat="43.59238634797165" lon="11.346310140140307"><ele>441.0</ele><time>2026-05-03T18:38:30Z</time></trkpt><trkpt lat="43.59227243204993" lon="11.346276806369756"><ele>437.5</ele><time>2026-05-03T18:38:30.999Z</time></trkpt><trkpt lat="43.59215791488537" lon="11.34625607408059"><ele>434.0</ele><time>2026-05-03T18:38:31.999Z</time></trkpt><trkpt lat="43.59204144806863" lon="11.34625321726386"><ele>430.5</ele><time>2026-05-03T18:38:32.999Z</time></trkpt><trkpt lat="43.59192506582856" lon="11.34626013449095"><ele>427.0</ele><time>2026-05-03T18:38:33.999Z</time></trkpt><trkpt lat="43.59181446583865" lon="11.34627695567436"><ele>427.0</ele><time>2026-05-03T18:38:34.999Z</time></trkpt><trkpt lat="43.5917031479047" lon="11.346292947585331"><ele>427.00000000000006</ele><time>2026-05-03T18:38:35.999Z</time></trkpt><trkpt lat="43.59158863221349" lon="11.346297285168486"><ele>427.00000000000006</ele><time>2026-05-03T18:38:36.999Z</time></trkpt><trkpt lat="43.591480150535084" lon="11.346278463969357"><ele>427.0</ele><time>2026-05-03T18:38:37.999Z</time></trkpt><trkpt lat="43.59137922451099" lon="11.34622655193163"><ele>427.0</ele><time>2026-05-03T18:38:38.999Z</time></trkpt><trkpt lat="43.59128539605648" lon="11.346142368210085"><ele>427.0</ele><time>2026-05-03T18:38:39.999Z</time></trkpt><trkpt lat="43.59121260803749" lon="11.346025765506683"><ele>427.0</ele><time>2026-05-03T18:38:40.999Z</time></trkpt><trkpt lat="43.59116683829011" lon="11.345879507384524"><ele>427.0</ele><time>2026-05-03T18:38:41.999Z</time></trkpt><trkpt lat="43.59114252705656" lon="11.34571693698062"><ele>427.0</ele><time>2026-05-03T18:38:42.999Z</time></trkpt><trkpt lat="43.591127562262415" lon="11.345550949334253"><ele>428.0</ele><time>2026-05-03T18:38:43.999Z</time></trkpt><trkpt lat="43.591121873216096" lon="11.345386034675764"><ele>429.0</ele><time>2026-05-03T18:38:44.999Z</time></trkpt><trkpt lat="43.591126325359454" lon="11.345225836794668"><ele>430.0</ele><time>2026-05-03T18:38:45.999Z</time></trkpt><trkpt lat="43.59115385355844" lon="11.345067858019394"><ele>431.0</ele><time>2026-05-03T18:38:46.999Z</time></trkpt><trkpt lat="43.59119742267091" lon="11.344912857192018"><ele>429.0</ele><time>2026-05-03T18:38:47.999Z</time></trkpt><trkpt lat="43.591249649003856" lon="11.344762599770933"><ele>427.0</ele><time>2026-05-03T18:38:48.999Z</time></trkpt><trkpt lat="43.59130731077328" lon="11.344618051615495"><ele>425.0</ele><time>2026-05-03T18:38:49.999Z</time></trkpt><trkpt lat="43.59136413295035" lon="11.344470204625186"><ele>423.0</ele><time>2026-05-03T18:38:50.999Z</time></trkpt><trkpt lat="43.59141807638676" lon="11.344324065740462"><ele>423.0</ele><time>2026-05-03T18:38:52Z</time></trkpt><trkpt lat="43.591473200483655" lon="11.344177225726481"><ele>423.0</ele><time>2026-05-03T18:38:53Z</time></trkpt><trkpt lat="43.591523151431204" lon="11.344030729765732"><ele>423.0</ele><time>2026-05-03T18:38:54Z</time></trkpt><trkpt lat="43.591567510627" lon="11.343884088299209"><ele>423.0</ele><time>2026-05-03T18:38:55Z</time></trkpt><trkpt lat="43.591615808624574" lon="11.343740110056887"><ele>422.75</ele><time>2026-05-03T18:38:56Z</time></trkpt><trkpt lat="43.59167399561542" lon="11.34360948983183"><ele>422.5</ele><time>2026-05-03T18:38:57Z</time></trkpt><trkpt lat="43.59174556533108" lon="11.343490180325654"><ele>422.25</ele><time>2026-05-03T18:38:58Z</time></trkpt><trkpt lat="43.591834867613116" lon="11.343391400752452"><ele>422.0</ele><time>2026-05-03T18:38:59Z</time></trkpt><trkpt lat="43.59194102937835" lon="11.343314373191385"><ele>422.20000000000005</ele><time>2026-05-03T18:39:00Z</time></trkpt><trkpt lat="43.592047356380085" lon="11.343253368020694"><ele>422.4</ele><time>2026-05-03T18:39:01Z</time></trkpt><trkpt lat="43.59214879686955" lon="11.34318931803773"><ele>422.6</ele><time>2026-05-03T18:39:02Z</time></trkpt><trkpt lat="43.592249913840774" lon="11.343138599066897"><ele>422.79999999999995</ele><time>2026-05-03T18:39:03Z</time></trkpt><trkpt lat="43.592333110649335" lon="11.34306905393962"><ele>423.0</ele><time>2026-05-03T18:39:04Z</time></trkpt><trkpt lat="43.592396969529894" lon="11.342972467312968"><ele>423.0</ele><time>2026-05-03T18:39:05Z</time></trkpt><trkpt lat="43.59243344945706" lon="11.342853550027458"><ele>423.0</ele><time>2026-05-03T18:39:06Z</time></trkpt><trkpt lat="43.59243193466602" lon="11.342722166042407"><ele>423.0</ele><time>2026-05-03T18:39:07Z</time></trkpt><trkpt lat="43.592461549536864" lon="11.342628194463975"><ele>423.0</ele><time>2026-05-03T18:39:08Z</time></trkpt><trkpt lat="43.592478521499" lon="11.34252749590476"><ele>423.0</ele><time>2026-05-03T18:39:09Z</time></trkpt><trkpt lat="43.59252024247664" lon="11.342439483136483"><ele>423.0</ele><time>2026-05-03T18:39:10Z</time></trkpt><trkpt lat="43.59260414837674" lon="11.342407372766669"><ele>423.0</ele><time>2026-05-03T18:39:11Z</time></trkpt><trkpt lat="43.59268663401083" lon="11.342405545677245"><ele>423.0</ele><time>2026-05-03T18:39:12Z</time></trkpt><trkpt lat="43.592768698182084" lon="11.34239902152812"><ele>423.0</ele><time>2026-05-03T18:39:13Z</time></trkpt><trkpt lat="43.59283813891422" lon="11.34236487474328"><ele>423.0</ele><time>2026-05-03T18:39:14Z</time></trkpt><trkpt lat="43.59291447691394" lon="11.342340896799909"><ele>423.0</ele><time>2026-05-03T18:39:15Z</time></trkpt><trkpt lat="43.59298933806706" lon="11.34227425202495"><ele>423.0</ele><time>2026-05-03T18:39:16Z</time></trkpt><trkpt lat="43.593056347886346" lon="11.342192187910578"><ele>421.6666666666667</ele><time>2026-05-03T18:39:17Z</time></trkpt><trkpt lat="43.59311877625874" lon="11.342126564465278"><ele>420.33333333333337</ele><time>2026-05-03T18:39:18Z</time></trkpt><trkpt lat="43.59319030916441" lon="11.342064727222885"><ele>419.0</ele><time>2026-05-03T18:39:19Z</time></trkpt><trkpt lat="43.593264010391366" lon="11.342004761181913"><ele>417.6666666666667</ele><time>2026-05-03T18:39:20Z</time></trkpt><trkpt lat="43.593339792126386" lon="11.341948697454335"><ele>416.33333333333337</ele><time>2026-05-03T18:39:21Z</time></trkpt><trkpt lat="43.593417008541905" lon="11.341885689643695"><ele>415.0</ele><time>2026-05-03T18:39:22Z</time></trkpt><trkpt lat="43.593487816988905" lon="11.341826023225066"><ele>415.0</ele><time>2026-05-03T18:39:23Z</time></trkpt><trkpt lat="43.593555442630645" lon="11.341760264631501"><ele>415.0</ele><time>2026-05-03T18:39:24Z</time></trkpt><trkpt lat="43.59361307223663" lon="11.341674525017636"><ele>415.0</ele><time>2026-05-03T18:39:25Z</time></trkpt><trkpt lat="43.59364261502965" lon="11.341557390235007"><ele>415.0</ele><time>2026-05-03T18:39:26Z</time></trkpt><trkpt lat="43.593642352067" lon="11.341417900801273"><ele>415.0</ele><time>2026-05-03T18:39:27Z</time></trkpt><trkpt lat="43.59360599708824" lon="11.341276548834818"><ele>414.0</ele><time>2026-05-03T18:39:28Z</time></trkpt><trkpt lat="43.593539353809774" lon="11.341151897775774"><ele>413.0</ele><time>2026-05-03T18:39:29Z</time></trkpt><trkpt lat="43.59344344565518" lon="11.341048746528843"><ele>412.0</ele><time>2026-05-03T18:39:30Z</time></trkpt><trkpt lat="43.593365184366256" lon="11.340948313640562"><ele>411.0</ele><time>2026-05-03T18:39:31Z</time></trkpt><trkpt lat="43.5932803634634" lon="11.340858045196894"><ele>410.0</ele><time>2026-05-03T18:39:32Z</time></trkpt><trkpt lat="43.593194684757584" lon="11.340772872703718"><ele>410.0</ele><time>2026-05-03T18:39:33Z</time></trkpt><trkpt lat="43.59309831876056" lon="11.340688271423065"><ele>410.0</ele><time>2026-05-03T18:39:34Z</time></trkpt><trkpt lat="43.5930024127349" lon="11.340617593614484"><ele>410.0</ele><time>2026-05-03T18:39:35Z</time></trkpt><trkpt lat="43.59290898083468" lon="11.340545969120717"><ele>410.0</ele><time>2026-05-03T18:39:36Z</time></trkpt><trkpt lat="43.592825504473836" lon="11.340461291397052"><ele>410.0</ele><time>2026-05-03T18:39:37Z</time></trkpt><trkpt lat="43.5927477162213" lon="11.340359688962304"><ele>410.0</ele><time>2026-05-03T18:39:38Z</time></trkpt><trkpt lat="43.59267462742204" lon="11.340245013735172"><ele>410.0</ele><time>2026-05-03T18:39:39Z</time></trkpt><trkpt lat="43.59261033158444" lon="11.34011484631807"><ele>410.0</ele><time>2026-05-03T18:39:40Z</time></trkpt><trkpt lat="43.59256316786256" lon="11.339970950592397"><ele>410.0</ele><time>2026-05-03T18:39:41Z</time></trkpt><trkpt lat="43.59252594877414" lon="11.339820001523705"><ele>407.25</ele><time>2026-05-03T18:39:42Z</time></trkpt><trkpt lat="43.59249470059623" lon="11.339652964736922"><ele>404.5</ele><time>2026-05-03T18:39:43Z</time></trkpt><trkpt lat="43.59246465469303" lon="11.339497092537568"><ele>401.75</ele><time>2026-05-03T18:39:44Z</time></trkpt><trkpt lat="43.59243580804264" lon="11.339344639708331"><ele>399.0</ele><time>2026-05-03T18:39:45Z</time></trkpt><trkpt lat="43.59240457700637" lon="11.33919565319336"><ele>399.0</ele><time>2026-05-03T18:39:46Z</time></trkpt><trkpt lat="43.59236925489728" lon="11.339049356795691"><ele>399.0</ele><time>2026-05-03T18:39:47Z</time></trkpt><trkpt lat="43.592331215110256" lon="11.338899779063723"><ele>399.0</ele><time>2026-05-03T18:39:48Z</time></trkpt><trkpt lat="43.59229630372483" lon="11.338753469582176"><ele>399.0</ele><time>2026-05-03T18:39:49Z</time></trkpt><trkpt lat="43.592265921293304" lon="11.338608213238492"><ele>399.0</ele><time>2026-05-03T18:39:50Z</time></trkpt><trkpt lat="43.59223307858054" lon="11.338465759665976"><ele>397.4</ele><time>2026-05-03T18:39:51Z</time></trkpt><trkpt lat="43.59219907826928" lon="11.338323652620618"><ele>395.79999999999995</ele><time>2026-05-03T18:39:52Z</time></trkpt><trkpt lat="43.592166999242046" lon="11.338182495633674"><ele>394.20000000000005</ele><time>2026-05-03T18:39:53Z</time></trkpt><trkpt lat="43.59212640662511" lon="11.338050516623548"><ele>392.6</ele><time>2026-05-03T18:39:54Z</time></trkpt><trkpt lat="43.59206951850894" lon="11.33793018871992"><ele>391.0</ele><time>2026-05-03T18:39:55Z</time></trkpt><trkpt lat="43.59198870160151" lon="11.337838032519588"><ele>391.0</ele><time>2026-05-03T18:39:56Z</time></trkpt><trkpt lat="43.59189517653491" lon="11.337762194392553"><ele>391.0</ele><time>2026-05-03T18:39:57Z</time></trkpt><trkpt lat="43.59179737381388" lon="11.337687131899367"><ele>391.0</ele><time>2026-05-03T18:39:58Z</time></trkpt><trkpt lat="43.591706913247364" lon="11.337601078036315"><ele>391.0</ele><time>2026-05-03T18:39:59Z</time></trkpt><trkpt lat="43.5916309364054" lon="11.337500892994877"><ele>391.0</ele><time>2026-05-03T18:40:00Z</time></trkpt><trkpt lat="43.591562814453944" lon="11.337388075903455"><ele>391.0</ele><time>2026-05-03T18:40:01Z</time></trkpt><trkpt lat="43.59149921695125" lon="11.337259280427912"><ele>391.0</ele><time>2026-05-03T18:40:02Z</time></trkpt><trkpt lat="43.591445289203094" lon="11.337117262625371"><ele>391.0</ele><time>2026-05-03T18:40:03Z</time></trkpt><trkpt lat="43.59141017920694" lon="11.336972001345604"><ele>391.0</ele><time>2026-05-03T18:40:04Z</time></trkpt><trkpt lat="43.59139494358496" lon="11.33681782736922"><ele>385.75</ele><time>2026-05-03T18:40:05Z</time></trkpt><trkpt lat="43.591381416998416" lon="11.33665885471853"><ele>380.5</ele><time>2026-05-03T18:40:06Z</time></trkpt><trkpt lat="43.59136279994391" lon="11.336494407882615"><ele>375.25</ele><time>2026-05-03T18:40:07Z</time></trkpt><trkpt lat="43.5913220363639" lon="11.336331013585431"><ele>370.0</ele><time>2026-05-03T18:40:08Z</time></trkpt><trkpt lat="43.591263452857085" lon="11.336173687759882"><ele>372.0</ele><time>2026-05-03T18:40:09Z</time></trkpt><trkpt lat="43.591191449385875" lon="11.336037403793869"><ele>374.0</ele><time>2026-05-03T18:40:10Z</time></trkpt><trkpt lat="43.59111268386952" lon="11.335917748597309"><ele>376.0</ele><time>2026-05-03T18:40:11Z</time></trkpt><trkpt lat="43.5910285408856" lon="11.33580754360955"><ele>378.0</ele><time>2026-05-03T18:40:12Z</time></trkpt><trkpt lat="43.59094319768282" lon="11.335696903275263"><ele>378.0</ele><time>2026-05-03T18:40:13Z</time></trkpt><trkpt lat="43.59085979796832" lon="11.335592639275108"><ele>378.0</ele><time>2026-05-03T18:40:14Z</time></trkpt><trkpt lat="43.59078227217858" lon="11.335484081239724"><ele>378.0</ele><time>2026-05-03T18:40:15Z</time></trkpt><trkpt lat="43.590697086683775" lon="11.335366356233983"><ele>378.0</ele><time>2026-05-03T18:40:16Z</time></trkpt><trkpt lat="43.59062298573994" lon="11.335250607214778"><ele>377.2</ele><time>2026-05-03T18:40:17Z</time></trkpt><trkpt lat="43.59055088626874" lon="11.335137599871265"><ele>376.4</ele><time>2026-05-03T18:40:18Z</time></trkpt><trkpt lat="43.590472975782696" lon="11.3350370801193"><ele>375.59999999999997</ele><time>2026-05-03T18:40:19Z</time></trkpt><trkpt lat="43.5903970959351" lon="11.334950340150112"><ele>374.79999999999995</ele><time>2026-05-03T18:40:20Z</time></trkpt><trkpt lat="43.59032930748135" lon="11.33488512524554"><ele>374.0</ele><time>2026-05-03T18:40:21Z</time></trkpt><trkpt lat="43.590281192125815" lon="11.334806326863504"><ele>374.0</ele><time>2026-05-03T18:40:22Z</time></trkpt><trkpt lat="43.590232311300085" lon="11.334748266294396"><ele>374.0</ele><time>2026-05-03T18:40:23Z</time></trkpt><trkpt lat="43.59015928907599" lon="11.334660112585444"><ele>374.0</ele><time>2026-05-03T18:40:25Z</time></trkpt><trkpt lat="43.590196085026925" lon="11.334586925664718"><ele>374.0</ele><time>2026-05-03T18:40:27Z</time></trkpt><trkpt lat="43.59024877070818" lon="11.33466957636828"><ele>374.0</ele><time>2026-05-03T18:40:29Z</time></trkpt><trkpt lat="43.59031073060758" lon="11.334769384032288"><ele>374.0</ele><time>2026-05-03T18:40:31Z</time></trkpt><trkpt lat="43.59040680084389" lon="11.334843539100806"><ele>370.5</ele><time>2026-05-03T18:40:33Z</time></trkpt><trkpt lat="43.59049645602224" lon="11.334916678767888"><ele>367.0</ele><time>2026-05-03T18:40:35Z</time></trkpt><trkpt lat="43.590582421980365" lon="11.334986304702529"><ele>363.5</ele><time>2026-05-03T18:40:37Z</time></trkpt><trkpt lat="43.59060844264813" lon="11.334698668237099"><ele>360.0</ele><time>2026-05-03T18:40:42.999Z</time></trkpt><trkpt lat="43.59050342567836" lon="11.334636382279974"><ele>356.6666666666667</ele><time>2026-05-03T18:40:44.999Z</time></trkpt><trkpt lat="43.590463066412624" lon="11.33456225471985"><ele>353.3333333333333</ele><time>2026-05-03T18:40:45.999Z</time></trkpt><trkpt lat="43.590430588451106" lon="11.33447949975064"><ele>350.0</ele><time>2026-05-03T18:40:46.999Z</time></trkpt><trkpt lat="43.59038774636075" lon="11.33431522301915"><ele>346.66666666666663</ele><time>2026-05-03T18:40:48.999Z</time></trkpt><trkpt lat="43.59038148955284" lon="11.334227906108236"><ele>343.3333333333333</ele><time>2026-05-03T18:40:49.999Z</time></trkpt><trkpt lat="43.590367330087794" lon="11.334133842740101"><ele>340.0</ele><time>2026-05-03T18:40:50.999Z</time></trkpt><trkpt lat="43.59034776702057" lon="11.33404007647278"><ele>341.4</ele><time>2026-05-03T18:40:51.999Z</time></trkpt><trkpt lat="43.590289233476916" lon="11.333877147288444"><ele>342.8</ele><time>2026-05-03T18:40:53.999Z</time></trkpt><trkpt lat="43.59023508108279" lon="11.33380873906706"><ele>344.20000000000005</ele><time>2026-05-03T18:40:54.999Z</time></trkpt><trkpt lat="43.59015537436139" lon="11.333724594114459"><ele>345.6</ele><time>2026-05-03T18:40:56.999Z</time></trkpt><trkpt lat="43.590073294392596" lon="11.333677698056054"><ele>347.0</ele><time>2026-05-03T18:40:59Z</time></trkpt><trkpt lat="43.58998613241362" lon="11.333608078439664"><ele>347.0</ele><time>2026-05-03T18:41:01Z</time></trkpt><trkpt lat="43.58994210474287" lon="11.333515580303182"><ele>347.0</ele><time>2026-05-03T18:41:03Z</time></trkpt><trkpt lat="43.58991917480374" lon="11.333427422570397"><ele>347.0</ele><time>2026-05-03T18:41:15Z</time></trkpt></trkseg></trk></gpx>